<?xml version="1.0" encoding="UTF-8" standalone="no" ?>
<gpx xmlns="http://www.topografix.com/GPX/1/1" xmlns:xsi="http://www.w3.org/2001/XMLSchema-instance" xsi:schemaLocation="http://www.topografix.com/GPX/1/1 http://www.topografix.com/GPX/1/1/gpx.xsd" version="1.1" creator="VisuGPX - https://www.visugpx.com">
  <metadata>
    <name>Saint Julien-34km</name>
    <desc><![CDATA[Balade Sur Saint Julien Le Montagnier]]></desc>
  </metadata>
  <trk>
    <name><![CDATA[Saint Julien-34km_1]]></name>
    <trkseg>
      <trkpt lat="43.67195" lon="5.86124">
        <ele>477</ele>
        <time>2016-04-30T06:39:41.000Z</time>
      </trkpt>
      <trkpt lat="43.67195" lon="5.86124">
        <ele>477</ele>
        <time>2016-04-30T06:39:43.000Z</time>
      </trkpt>
      <trkpt lat="43.67199" lon="5.86138">
        <ele>481</ele>
        <time>2016-04-30T06:41:04.000Z</time>
      </trkpt>
      <trkpt lat="43.67189" lon="5.86156">
        <ele>477</ele>
        <time>2016-04-30T06:41:08.000Z</time>
      </trkpt>
      <trkpt lat="43.67189" lon="5.86156">
        <ele>477</ele>
        <time>2016-04-30T06:41:10.000Z</time>
      </trkpt>
      <trkpt lat="43.67197" lon="5.86169">
        <ele>477</ele>
        <time>2016-04-30T06:41:12.000Z</time>
      </trkpt>
      <trkpt lat="43.67211" lon="5.8617">
        <ele>476</ele>
        <time>2016-04-30T06:41:16.000Z</time>
      </trkpt>
      <trkpt lat="43.67223" lon="5.8617">
        <ele>478</ele>
        <time>2016-04-30T06:41:20.000Z</time>
      </trkpt>
      <trkpt lat="43.67235" lon="5.86171">
        <ele>478</ele>
        <time>2016-04-30T06:41:24.000Z</time>
      </trkpt>
      <trkpt lat="43.67234" lon="5.86188">
        <ele>474</ele>
        <time>2016-04-30T06:41:28.000Z</time>
      </trkpt>
      <trkpt lat="43.67226" lon="5.86194">
        <ele>475</ele>
        <time>2016-04-30T06:41:30.000Z</time>
      </trkpt>
      <trkpt lat="43.6721" lon="5.86202">
        <ele>474</ele>
        <time>2016-04-30T06:41:34.000Z</time>
      </trkpt>
      <trkpt lat="43.672" lon="5.86214">
        <ele>476</ele>
        <time>2016-04-30T06:41:38.000Z</time>
      </trkpt>
      <trkpt lat="43.672" lon="5.86214">
        <ele>476</ele>
        <time>2016-04-30T06:41:40.000Z</time>
      </trkpt>
      <trkpt lat="43.672" lon="5.86214">
        <ele>476</ele>
        <time>2016-04-30T06:41:42.000Z</time>
      </trkpt>
      <trkpt lat="43.672" lon="5.86214">
        <ele>476</ele>
        <time>2016-04-30T06:41:44.000Z</time>
      </trkpt>
      <trkpt lat="43.672" lon="5.86214">
        <ele>476</ele>
        <time>2016-04-30T06:41:46.000Z</time>
      </trkpt>
      <trkpt lat="43.6718" lon="5.86256">
        <ele>473</ele>
        <time>2016-04-30T06:41:52.000Z</time>
      </trkpt>
      <trkpt lat="43.67169" lon="5.86266">
        <ele>473</ele>
        <time>2016-04-30T06:41:56.000Z</time>
      </trkpt>
      <trkpt lat="43.67157" lon="5.86277">
        <ele>472</ele>
        <time>2016-04-30T06:42:00.000Z</time>
      </trkpt>
      <trkpt lat="43.67146" lon="5.86284">
        <ele>472</ele>
        <time>2016-04-30T06:42:04.000Z</time>
      </trkpt>
      <trkpt lat="43.67146" lon="5.86284">
        <ele>472</ele>
        <time>2016-04-30T06:42:06.000Z</time>
      </trkpt>
      <trkpt lat="43.67146" lon="5.86284">
        <ele>472</ele>
        <time>2016-04-30T06:42:08.000Z</time>
      </trkpt>
      <trkpt lat="43.67146" lon="5.86284">
        <ele>472</ele>
        <time>2016-04-30T06:42:10.000Z</time>
      </trkpt>
      <trkpt lat="43.67146" lon="5.86284">
        <ele>472</ele>
        <time>2016-04-30T06:42:12.000Z</time>
      </trkpt>
      <trkpt lat="43.67146" lon="5.86284">
        <ele>472</ele>
        <time>2016-04-30T06:42:14.000Z</time>
      </trkpt>
      <trkpt lat="43.67146" lon="5.86284">
        <ele>472</ele>
        <time>2016-04-30T06:42:16.000Z</time>
      </trkpt>
      <trkpt lat="43.67146" lon="5.86284">
        <ele>472</ele>
        <time>2016-04-30T06:42:18.000Z</time>
      </trkpt>
      <trkpt lat="43.67102" lon="5.86332">
        <ele>473</ele>
        <time>2016-04-30T06:42:22.000Z</time>
      </trkpt>
      <trkpt lat="43.67093" lon="5.86347">
        <ele>474</ele>
        <time>2016-04-30T06:42:26.000Z</time>
      </trkpt>
      <trkpt lat="43.67093" lon="5.86347">
        <ele>474</ele>
        <time>2016-04-30T06:42:28.000Z</time>
      </trkpt>
      <trkpt lat="43.67083" lon="5.86359">
        <ele>475</ele>
        <time>2016-04-30T06:42:30.000Z</time>
      </trkpt>
      <trkpt lat="43.67083" lon="5.86359">
        <ele>475</ele>
        <time>2016-04-30T06:42:32.000Z</time>
      </trkpt>
      <trkpt lat="43.67083" lon="5.86359">
        <ele>475</ele>
        <time>2016-04-30T06:42:34.000Z</time>
      </trkpt>
      <trkpt lat="43.67083" lon="5.86359">
        <ele>475</ele>
        <time>2016-04-30T06:42:36.000Z</time>
      </trkpt>
      <trkpt lat="43.67083" lon="5.86359">
        <ele>475</ele>
        <time>2016-04-30T06:42:38.000Z</time>
      </trkpt>
      <trkpt lat="43.67083" lon="5.86359">
        <ele>475</ele>
        <time>2016-04-30T06:42:40.000Z</time>
      </trkpt>
      <trkpt lat="43.67083" lon="5.86359">
        <ele>475</ele>
        <time>2016-04-30T06:42:42.000Z</time>
      </trkpt>
      <trkpt lat="43.67083" lon="5.86359">
        <ele>475</ele>
        <time>2016-04-30T06:42:44.000Z</time>
      </trkpt>
      <trkpt lat="43.67083" lon="5.86359">
        <ele>475</ele>
        <time>2016-04-30T06:42:46.000Z</time>
      </trkpt>
      <trkpt lat="43.67083" lon="5.86359">
        <ele>475</ele>
        <time>2016-04-30T06:42:48.000Z</time>
      </trkpt>
      <trkpt lat="43.67083" lon="5.86359">
        <ele>475</ele>
        <time>2016-04-30T06:42:50.000Z</time>
      </trkpt>
      <trkpt lat="43.67083" lon="5.86359">
        <ele>475</ele>
        <time>2016-04-30T06:42:52.000Z</time>
      </trkpt>
      <trkpt lat="43.67083" lon="5.86359">
        <ele>475</ele>
        <time>2016-04-30T06:42:54.000Z</time>
      </trkpt>
      <trkpt lat="43.67083" lon="5.86359">
        <ele>475</ele>
        <time>2016-04-30T06:42:56.000Z</time>
      </trkpt>
      <trkpt lat="43.67083" lon="5.86359">
        <ele>475</ele>
        <time>2016-04-30T06:42:58.000Z</time>
      </trkpt>
      <trkpt lat="43.67083" lon="5.86359">
        <ele>475</ele>
        <time>2016-04-30T06:43:00.000Z</time>
      </trkpt>
      <trkpt lat="43.67083" lon="5.86359">
        <ele>475</ele>
        <time>2016-04-30T06:43:02.000Z</time>
      </trkpt>
      <trkpt lat="43.67083" lon="5.86359">
        <ele>475</ele>
        <time>2016-04-30T06:43:04.000Z</time>
      </trkpt>
      <trkpt lat="43.67083" lon="5.86359">
        <ele>475</ele>
        <time>2016-04-30T06:43:06.000Z</time>
      </trkpt>
      <trkpt lat="43.67083" lon="5.86359">
        <ele>475</ele>
        <time>2016-04-30T06:43:08.000Z</time>
      </trkpt>
      <trkpt lat="43.67083" lon="5.86359">
        <ele>475</ele>
        <time>2016-04-30T06:43:10.000Z</time>
      </trkpt>
      <trkpt lat="43.67083" lon="5.86359">
        <ele>475</ele>
        <time>2016-04-30T06:43:12.000Z</time>
      </trkpt>
      <trkpt lat="43.67083" lon="5.86359">
        <ele>475</ele>
        <time>2016-04-30T06:43:14.000Z</time>
      </trkpt>
      <trkpt lat="43.67083" lon="5.86359">
        <ele>475</ele>
        <time>2016-04-30T06:43:16.000Z</time>
      </trkpt>
      <trkpt lat="43.6704" lon="5.86397">
        <ele>483</ele>
        <time>2016-04-30T06:43:18.000Z</time>
      </trkpt>
      <trkpt lat="43.67016" lon="5.86417">
        <ele>484</ele>
        <time>2016-04-30T06:43:20.000Z</time>
      </trkpt>
      <trkpt lat="43.67002" lon="5.86428">
        <ele>484</ele>
        <time>2016-04-30T06:43:22.000Z</time>
      </trkpt>
      <trkpt lat="43.66993" lon="5.86435">
        <ele>483</ele>
        <time>2016-04-30T06:43:24.000Z</time>
      </trkpt>
      <trkpt lat="43.66986" lon="5.8644">
        <ele>483</ele>
        <time>2016-04-30T06:43:26.000Z</time>
      </trkpt>
      <trkpt lat="43.66972" lon="5.86446">
        <ele>483</ele>
        <time>2016-04-30T06:43:28.000Z</time>
      </trkpt>
      <trkpt lat="43.66958" lon="5.86449">
        <ele>481</ele>
        <time>2016-04-30T06:43:32.000Z</time>
      </trkpt>
      <trkpt lat="43.66941" lon="5.86448">
        <ele>480</ele>
        <time>2016-04-30T06:43:36.000Z</time>
      </trkpt>
      <trkpt lat="43.66925" lon="5.86444">
        <ele>480</ele>
        <time>2016-04-30T06:43:40.000Z</time>
      </trkpt>
      <trkpt lat="43.66925" lon="5.86444">
        <ele>480</ele>
        <time>2016-04-30T06:43:42.000Z</time>
      </trkpt>
      <trkpt lat="43.66925" lon="5.86444">
        <ele>480</ele>
        <time>2016-04-30T06:43:44.000Z</time>
      </trkpt>
      <trkpt lat="43.66925" lon="5.86444">
        <ele>480</ele>
        <time>2016-04-30T06:43:46.000Z</time>
      </trkpt>
      <trkpt lat="43.66925" lon="5.86444">
        <ele>480</ele>
        <time>2016-04-30T06:43:48.000Z</time>
      </trkpt>
      <trkpt lat="43.66925" lon="5.86444">
        <ele>480</ele>
        <time>2016-04-30T06:43:50.000Z</time>
      </trkpt>
      <trkpt lat="43.66925" lon="5.86444">
        <ele>480</ele>
        <time>2016-04-30T06:43:52.000Z</time>
      </trkpt>
      <trkpt lat="43.66925" lon="5.86444">
        <ele>480</ele>
        <time>2016-04-30T06:43:58.000Z</time>
      </trkpt>
      <trkpt lat="43.66925" lon="5.86444">
        <ele>480</ele>
        <time>2016-04-30T06:44:00.000Z</time>
      </trkpt>
      <trkpt lat="43.66925" lon="5.86444">
        <ele>480</ele>
        <time>2016-04-30T06:44:02.000Z</time>
      </trkpt>
      <trkpt lat="43.66925" lon="5.86444">
        <ele>480</ele>
        <time>2016-04-30T06:44:04.000Z</time>
      </trkpt>
      <trkpt lat="43.66925" lon="5.86444">
        <ele>480</ele>
        <time>2016-04-30T06:44:06.000Z</time>
      </trkpt>
      <trkpt lat="43.66925" lon="5.86444">
        <ele>480</ele>
        <time>2016-04-30T06:44:08.000Z</time>
      </trkpt>
      <trkpt lat="43.66925" lon="5.86444">
        <ele>480</ele>
        <time>2016-04-30T06:44:10.000Z</time>
      </trkpt>
      <trkpt lat="43.66925" lon="5.86444">
        <ele>480</ele>
        <time>2016-04-30T06:44:12.000Z</time>
      </trkpt>
      <trkpt lat="43.66925" lon="5.86444">
        <ele>480</ele>
        <time>2016-04-30T06:44:14.000Z</time>
      </trkpt>
      <trkpt lat="43.66925" lon="5.86444">
        <ele>480</ele>
        <time>2016-04-30T06:44:16.000Z</time>
      </trkpt>
      <trkpt lat="43.66925" lon="5.86444">
        <ele>480</ele>
        <time>2016-04-30T06:44:18.000Z</time>
      </trkpt>
      <trkpt lat="43.66925" lon="5.86444">
        <ele>480</ele>
        <time>2016-04-30T06:44:20.000Z</time>
      </trkpt>
      <trkpt lat="43.66925" lon="5.86444">
        <ele>480</ele>
        <time>2016-04-30T06:44:22.000Z</time>
      </trkpt>
      <trkpt lat="43.66925" lon="5.86444">
        <ele>480</ele>
        <time>2016-04-30T06:44:24.000Z</time>
      </trkpt>
      <trkpt lat="43.66925" lon="5.86444">
        <ele>480</ele>
        <time>2016-04-30T06:44:26.000Z</time>
      </trkpt>
      <trkpt lat="43.66925" lon="5.86444">
        <ele>480</ele>
        <time>2016-04-30T06:44:28.000Z</time>
      </trkpt>
      <trkpt lat="43.66925" lon="5.86444">
        <ele>480</ele>
        <time>2016-04-30T06:44:30.000Z</time>
      </trkpt>
      <trkpt lat="43.66925" lon="5.86444">
        <ele>480</ele>
        <time>2016-04-30T06:44:32.000Z</time>
      </trkpt>
      <trkpt lat="43.66925" lon="5.86444">
        <ele>480</ele>
        <time>2016-04-30T06:44:34.000Z</time>
      </trkpt>
      <trkpt lat="43.66925" lon="5.86444">
        <ele>480</ele>
        <time>2016-04-30T06:44:36.000Z</time>
      </trkpt>
      <trkpt lat="43.66925" lon="5.86444">
        <ele>480</ele>
        <time>2016-04-30T06:44:38.000Z</time>
      </trkpt>
      <trkpt lat="43.66925" lon="5.86444">
        <ele>480</ele>
        <time>2016-04-30T06:44:40.000Z</time>
      </trkpt>
      <trkpt lat="43.66925" lon="5.86444">
        <ele>480</ele>
        <time>2016-04-30T06:44:42.000Z</time>
      </trkpt>
      <trkpt lat="43.66925" lon="5.86444">
        <ele>480</ele>
        <time>2016-04-30T06:44:44.000Z</time>
      </trkpt>
      <trkpt lat="43.66925" lon="5.86444">
        <ele>480</ele>
        <time>2016-04-30T06:44:46.000Z</time>
      </trkpt>
      <trkpt lat="43.66925" lon="5.86444">
        <ele>480</ele>
        <time>2016-04-30T06:44:48.000Z</time>
      </trkpt>
      <trkpt lat="43.66925" lon="5.86444">
        <ele>480</ele>
        <time>2016-04-30T06:44:50.000Z</time>
      </trkpt>
      <trkpt lat="43.66925" lon="5.86444">
        <ele>480</ele>
        <time>2016-04-30T06:44:52.000Z</time>
      </trkpt>
      <trkpt lat="43.66925" lon="5.86444">
        <ele>480</ele>
        <time>2016-04-30T06:44:54.000Z</time>
      </trkpt>
      <trkpt lat="43.66925" lon="5.86444">
        <ele>480</ele>
        <time>2016-04-30T06:44:56.000Z</time>
      </trkpt>
      <trkpt lat="43.66925" lon="5.86444">
        <ele>480</ele>
        <time>2016-04-30T06:44:58.000Z</time>
      </trkpt>
      <trkpt lat="43.66925" lon="5.86444">
        <ele>480</ele>
        <time>2016-04-30T06:45:00.000Z</time>
      </trkpt>
      <trkpt lat="43.66899" lon="5.8635">
        <ele>486</ele>
        <time>2016-04-30T06:45:04.000Z</time>
      </trkpt>
      <trkpt lat="43.66885" lon="5.86301">
        <ele>486</ele>
        <time>2016-04-30T06:45:06.000Z</time>
      </trkpt>
      <trkpt lat="43.66878" lon="5.86274">
        <ele>486</ele>
        <time>2016-04-30T06:45:08.000Z</time>
      </trkpt>
      <trkpt lat="43.66873" lon="5.86259">
        <ele>487</ele>
        <time>2016-04-30T06:45:10.000Z</time>
      </trkpt>
      <trkpt lat="43.66869" lon="5.86249">
        <ele>487</ele>
        <time>2016-04-30T06:45:12.000Z</time>
      </trkpt>
      <trkpt lat="43.66864" lon="5.86234">
        <ele>487</ele>
        <time>2016-04-30T06:45:14.000Z</time>
      </trkpt>
      <trkpt lat="43.66859" lon="5.8622">
        <ele>488</ele>
        <time>2016-04-30T06:45:20.000Z</time>
      </trkpt>
      <trkpt lat="43.66861" lon="5.86204">
        <ele>488</ele>
        <time>2016-04-30T06:45:26.000Z</time>
      </trkpt>
      <trkpt lat="43.66862" lon="5.86189">
        <ele>491</ele>
        <time>2016-04-30T06:45:32.000Z</time>
      </trkpt>
      <trkpt lat="43.66861" lon="5.86174">
        <ele>492</ele>
        <time>2016-04-30T06:45:38.000Z</time>
      </trkpt>
      <trkpt lat="43.6686" lon="5.86158">
        <ele>490</ele>
        <time>2016-04-30T06:45:44.000Z</time>
      </trkpt>
      <trkpt lat="43.66858" lon="5.86143">
        <ele>488</ele>
        <time>2016-04-30T06:45:50.000Z</time>
      </trkpt>
      <trkpt lat="43.66854" lon="5.86129">
        <ele>489</ele>
        <time>2016-04-30T06:45:56.000Z</time>
      </trkpt>
      <trkpt lat="43.66848" lon="5.86116">
        <ele>490</ele>
        <time>2016-04-30T06:46:02.000Z</time>
      </trkpt>
      <trkpt lat="43.66842" lon="5.86104">
        <ele>493</ele>
        <time>2016-04-30T06:46:08.000Z</time>
      </trkpt>
      <trkpt lat="43.66837" lon="5.86091">
        <ele>493</ele>
        <time>2016-04-30T06:46:14.000Z</time>
      </trkpt>
      <trkpt lat="43.66835" lon="5.86078">
        <ele>492</ele>
        <time>2016-04-30T06:46:20.000Z</time>
      </trkpt>
      <trkpt lat="43.66831" lon="5.8606">
        <ele>488</ele>
        <time>2016-04-30T06:46:26.000Z</time>
      </trkpt>
      <trkpt lat="43.66828" lon="5.86047">
        <ele>488</ele>
        <time>2016-04-30T06:46:30.000Z</time>
      </trkpt>
      <trkpt lat="43.66824" lon="5.8603">
        <ele>488</ele>
        <time>2016-04-30T06:46:36.000Z</time>
      </trkpt>
      <trkpt lat="43.66821" lon="5.86015">
        <ele>488</ele>
        <time>2016-04-30T06:46:42.000Z</time>
      </trkpt>
      <trkpt lat="43.66822" lon="5.86008">
        <ele>488</ele>
        <time>2016-04-30T06:46:48.000Z</time>
      </trkpt>
      <trkpt lat="43.66822" lon="5.86008">
        <ele>488</ele>
        <time>2016-04-30T06:46:50.000Z</time>
      </trkpt>
      <trkpt lat="43.66822" lon="5.86008">
        <ele>488</ele>
        <time>2016-04-30T06:46:52.000Z</time>
      </trkpt>
      <trkpt lat="43.66822" lon="5.86008">
        <ele>488</ele>
        <time>2016-04-30T06:46:54.000Z</time>
      </trkpt>
      <trkpt lat="43.66829" lon="5.85993">
        <ele>487</ele>
        <time>2016-04-30T06:47:20.000Z</time>
      </trkpt>
      <trkpt lat="43.66838" lon="5.85986">
        <ele>490</ele>
        <time>2016-04-30T06:47:26.000Z</time>
      </trkpt>
      <trkpt lat="43.66848" lon="5.85978">
        <ele>492</ele>
        <time>2016-04-30T06:47:34.000Z</time>
      </trkpt>
      <trkpt lat="43.66858" lon="5.85971">
        <ele>494</ele>
        <time>2016-04-30T06:47:42.000Z</time>
      </trkpt>
      <trkpt lat="43.66869" lon="5.85971">
        <ele>498</ele>
        <time>2016-04-30T06:47:50.000Z</time>
      </trkpt>
      <trkpt lat="43.66877" lon="5.85976">
        <ele>499</ele>
        <time>2016-04-30T06:47:56.000Z</time>
      </trkpt>
      <trkpt lat="43.6689" lon="5.85974">
        <ele>499</ele>
        <time>2016-04-30T06:48:02.000Z</time>
      </trkpt>
      <trkpt lat="43.66902" lon="5.85972">
        <ele>499</ele>
        <time>2016-04-30T06:48:08.000Z</time>
      </trkpt>
      <trkpt lat="43.66913" lon="5.85959">
        <ele>500</ele>
        <time>2016-04-30T06:48:12.000Z</time>
      </trkpt>
      <trkpt lat="43.66925" lon="5.85953">
        <ele>499</ele>
        <time>2016-04-30T06:48:16.000Z</time>
      </trkpt>
      <trkpt lat="43.66942" lon="5.85951">
        <ele>499</ele>
        <time>2016-04-30T06:48:20.000Z</time>
      </trkpt>
      <trkpt lat="43.66954" lon="5.85947">
        <ele>500</ele>
        <time>2016-04-30T06:48:22.000Z</time>
      </trkpt>
      <trkpt lat="43.66963" lon="5.85942">
        <ele>499</ele>
        <time>2016-04-30T06:48:24.000Z</time>
      </trkpt>
      <trkpt lat="43.66963" lon="5.85942">
        <ele>499</ele>
        <time>2016-04-30T06:48:26.000Z</time>
      </trkpt>
      <trkpt lat="43.66963" lon="5.85942">
        <ele>499</ele>
        <time>2016-04-30T06:48:28.000Z</time>
      </trkpt>
      <trkpt lat="43.66963" lon="5.85942">
        <ele>499</ele>
        <time>2016-04-30T06:48:30.000Z</time>
      </trkpt>
      <trkpt lat="43.66963" lon="5.85942">
        <ele>499</ele>
        <time>2016-04-30T06:48:32.000Z</time>
      </trkpt>
      <trkpt lat="43.66963" lon="5.85942">
        <ele>499</ele>
        <time>2016-04-30T06:48:34.000Z</time>
      </trkpt>
      <trkpt lat="43.66963" lon="5.85942">
        <ele>499</ele>
        <time>2016-04-30T06:48:36.000Z</time>
      </trkpt>
      <trkpt lat="43.66963" lon="5.85942">
        <ele>499</ele>
        <time>2016-04-30T06:48:38.000Z</time>
      </trkpt>
      <trkpt lat="43.66963" lon="5.85942">
        <ele>499</ele>
        <time>2016-04-30T06:48:40.000Z</time>
      </trkpt>
      <trkpt lat="43.66963" lon="5.85942">
        <ele>499</ele>
        <time>2016-04-30T06:48:48.000Z</time>
      </trkpt>
      <trkpt lat="43.66963" lon="5.85942">
        <ele>499</ele>
        <time>2016-04-30T06:48:50.000Z</time>
      </trkpt>
      <trkpt lat="43.66963" lon="5.85942">
        <ele>499</ele>
        <time>2016-04-30T06:48:52.000Z</time>
      </trkpt>
      <trkpt lat="43.66963" lon="5.85942">
        <ele>499</ele>
        <time>2016-04-30T06:48:54.000Z</time>
      </trkpt>
      <trkpt lat="43.66963" lon="5.85942">
        <ele>499</ele>
        <time>2016-04-30T06:48:56.000Z</time>
      </trkpt>
      <trkpt lat="43.66963" lon="5.85942">
        <ele>499</ele>
        <time>2016-04-30T06:48:58.000Z</time>
      </trkpt>
      <trkpt lat="43.66963" lon="5.85942">
        <ele>499</ele>
        <time>2016-04-30T06:49:00.000Z</time>
      </trkpt>
      <trkpt lat="43.66963" lon="5.85942">
        <ele>499</ele>
        <time>2016-04-30T06:49:02.000Z</time>
      </trkpt>
      <trkpt lat="43.66963" lon="5.85942">
        <ele>499</ele>
        <time>2016-04-30T06:49:04.000Z</time>
      </trkpt>
      <trkpt lat="43.66963" lon="5.85942">
        <ele>499</ele>
        <time>2016-04-30T06:49:06.000Z</time>
      </trkpt>
      <trkpt lat="43.66963" lon="5.85942">
        <ele>499</ele>
        <time>2016-04-30T06:49:08.000Z</time>
      </trkpt>
      <trkpt lat="43.66963" lon="5.85942">
        <ele>499</ele>
        <time>2016-04-30T06:49:10.000Z</time>
      </trkpt>
      <trkpt lat="43.66963" lon="5.85942">
        <ele>499</ele>
        <time>2016-04-30T06:49:12.000Z</time>
      </trkpt>
      <trkpt lat="43.66963" lon="5.85942">
        <ele>499</ele>
        <time>2016-04-30T06:49:14.000Z</time>
      </trkpt>
      <trkpt lat="43.66963" lon="5.85942">
        <ele>499</ele>
        <time>2016-04-30T06:49:16.000Z</time>
      </trkpt>
      <trkpt lat="43.66963" lon="5.85942">
        <ele>499</ele>
        <time>2016-04-30T06:49:18.000Z</time>
      </trkpt>
      <trkpt lat="43.66963" lon="5.85942">
        <ele>499</ele>
        <time>2016-04-30T06:49:20.000Z</time>
      </trkpt>
      <trkpt lat="43.66963" lon="5.85942">
        <ele>499</ele>
        <time>2016-04-30T06:49:22.000Z</time>
      </trkpt>
      <trkpt lat="43.66963" lon="5.85942">
        <ele>499</ele>
        <time>2016-04-30T06:49:24.000Z</time>
      </trkpt>
      <trkpt lat="43.66963" lon="5.85942">
        <ele>499</ele>
        <time>2016-04-30T06:49:26.000Z</time>
      </trkpt>
      <trkpt lat="43.66963" lon="5.85942">
        <ele>499</ele>
        <time>2016-04-30T06:49:28.000Z</time>
      </trkpt>
      <trkpt lat="43.66963" lon="5.85942">
        <ele>499</ele>
        <time>2016-04-30T06:49:30.000Z</time>
      </trkpt>
      <trkpt lat="43.66963" lon="5.85942">
        <ele>499</ele>
        <time>2016-04-30T06:49:32.000Z</time>
      </trkpt>
      <trkpt lat="43.66963" lon="5.85942">
        <ele>499</ele>
        <time>2016-04-30T06:49:34.000Z</time>
      </trkpt>
      <trkpt lat="43.66963" lon="5.85942">
        <ele>499</ele>
        <time>2016-04-30T06:49:36.000Z</time>
      </trkpt>
      <trkpt lat="43.66963" lon="5.85942">
        <ele>499</ele>
        <time>2016-04-30T06:49:38.000Z</time>
      </trkpt>
      <trkpt lat="43.66963" lon="5.85942">
        <ele>499</ele>
        <time>2016-04-30T06:49:40.000Z</time>
      </trkpt>
      <trkpt lat="43.66963" lon="5.85942">
        <ele>499</ele>
        <time>2016-04-30T06:49:42.000Z</time>
      </trkpt>
      <trkpt lat="43.67035" lon="5.85831">
        <ele>497</ele>
        <time>2016-04-30T06:50:37.000Z</time>
      </trkpt>
      <trkpt lat="43.67035" lon="5.85831">
        <ele>497</ele>
        <time>2016-04-30T06:50:40.000Z</time>
      </trkpt>
      <trkpt lat="43.67035" lon="5.85831">
        <ele>497</ele>
        <time>2016-04-30T06:50:42.000Z</time>
      </trkpt>
      <trkpt lat="43.67035" lon="5.85831">
        <ele>497</ele>
        <time>2016-04-30T06:50:44.000Z</time>
      </trkpt>
      <trkpt lat="43.66994" lon="5.85792">
        <ele>486</ele>
        <time>2016-04-30T06:50:49.000Z</time>
      </trkpt>
      <trkpt lat="43.66994" lon="5.85778">
        <ele>486</ele>
        <time>2016-04-30T06:50:52.000Z</time>
      </trkpt>
      <trkpt lat="43.66996" lon="5.85765">
        <ele>487</ele>
        <time>2016-04-30T06:50:54.000Z</time>
      </trkpt>
      <trkpt lat="43.66999" lon="5.85753">
        <ele>485</ele>
        <time>2016-04-30T06:50:57.000Z</time>
      </trkpt>
      <trkpt lat="43.66998" lon="5.85738">
        <ele>485</ele>
        <time>2016-04-30T06:50:58.000Z</time>
      </trkpt>
      <trkpt lat="43.66995" lon="5.85722">
        <ele>484</ele>
        <time>2016-04-30T06:51:00.000Z</time>
      </trkpt>
      <trkpt lat="43.66993" lon="5.85706">
        <ele>481</ele>
        <time>2016-04-30T06:51:02.000Z</time>
      </trkpt>
      <trkpt lat="43.66988" lon="5.85691">
        <ele>480</ele>
        <time>2016-04-30T06:51:04.000Z</time>
      </trkpt>
      <trkpt lat="43.66985" lon="5.85677">
        <ele>480</ele>
        <time>2016-04-30T06:51:06.000Z</time>
      </trkpt>
      <trkpt lat="43.66985" lon="5.85677">
        <ele>480</ele>
        <time>2016-04-30T06:51:08.000Z</time>
      </trkpt>
      <trkpt lat="43.66985" lon="5.85677">
        <ele>480</ele>
        <time>2016-04-30T06:51:10.000Z</time>
      </trkpt>
      <trkpt lat="43.66955" lon="5.85619">
        <ele>471</ele>
        <time>2016-04-30T06:51:16.000Z</time>
      </trkpt>
      <trkpt lat="43.66955" lon="5.85619">
        <ele>471</ele>
        <time>2016-04-30T06:51:18.000Z</time>
      </trkpt>
      <trkpt lat="43.66955" lon="5.85619">
        <ele>471</ele>
        <time>2016-04-30T06:51:20.000Z</time>
      </trkpt>
      <trkpt lat="43.66955" lon="5.85619">
        <ele>471</ele>
        <time>2016-04-30T06:51:22.000Z</time>
      </trkpt>
      <trkpt lat="43.66955" lon="5.85619">
        <ele>471</ele>
        <time>2016-04-30T06:51:24.000Z</time>
      </trkpt>
      <trkpt lat="43.66955" lon="5.85619">
        <ele>471</ele>
        <time>2016-04-30T06:51:26.000Z</time>
      </trkpt>
      <trkpt lat="43.66955" lon="5.85619">
        <ele>471</ele>
        <time>2016-04-30T06:51:28.000Z</time>
      </trkpt>
      <trkpt lat="43.66955" lon="5.85619">
        <ele>471</ele>
        <time>2016-04-30T06:51:30.000Z</time>
      </trkpt>
      <trkpt lat="43.66955" lon="5.85619">
        <ele>471</ele>
        <time>2016-04-30T06:51:32.000Z</time>
      </trkpt>
      <trkpt lat="43.66955" lon="5.85619">
        <ele>471</ele>
        <time>2016-04-30T06:51:34.000Z</time>
      </trkpt>
      <trkpt lat="43.66955" lon="5.85619">
        <ele>471</ele>
        <time>2016-04-30T06:51:36.000Z</time>
      </trkpt>
      <trkpt lat="43.66955" lon="5.85619">
        <ele>471</ele>
        <time>2016-04-30T06:51:38.000Z</time>
      </trkpt>
      <trkpt lat="43.66955" lon="5.85619">
        <ele>471</ele>
        <time>2016-04-30T06:51:40.000Z</time>
      </trkpt>
      <trkpt lat="43.66955" lon="5.85619">
        <ele>471</ele>
        <time>2016-04-30T06:51:42.000Z</time>
      </trkpt>
      <trkpt lat="43.66955" lon="5.85619">
        <ele>471</ele>
        <time>2016-04-30T06:51:44.000Z</time>
      </trkpt>
      <trkpt lat="43.66955" lon="5.85619">
        <ele>471</ele>
        <time>2016-04-30T06:51:46.000Z</time>
      </trkpt>
      <trkpt lat="43.66955" lon="5.85619">
        <ele>471</ele>
        <time>2016-04-30T06:51:48.000Z</time>
      </trkpt>
      <trkpt lat="43.66955" lon="5.85619">
        <ele>471</ele>
        <time>2016-04-30T06:51:50.000Z</time>
      </trkpt>
      <trkpt lat="43.66955" lon="5.85619">
        <ele>471</ele>
        <time>2016-04-30T06:51:52.000Z</time>
      </trkpt>
      <trkpt lat="43.66955" lon="5.85619">
        <ele>471</ele>
        <time>2016-04-30T06:51:54.000Z</time>
      </trkpt>
      <trkpt lat="43.66955" lon="5.85619">
        <ele>471</ele>
        <time>2016-04-30T06:51:56.000Z</time>
      </trkpt>
      <trkpt lat="43.66846" lon="5.85581">
        <ele>466</ele>
        <time>2016-04-30T06:51:58.000Z</time>
      </trkpt>
      <trkpt lat="43.66835" lon="5.85577">
        <ele>466</ele>
        <time>2016-04-30T06:52:02.000Z</time>
      </trkpt>
      <trkpt lat="43.66832" lon="5.85571">
        <ele>462</ele>
        <time>2016-04-30T06:52:06.000Z</time>
      </trkpt>
      <trkpt lat="43.66828" lon="5.85566">
        <ele>460</ele>
        <time>2016-04-30T06:52:08.000Z</time>
      </trkpt>
      <trkpt lat="43.66824" lon="5.8556">
        <ele>459</ele>
        <time>2016-04-30T06:52:10.000Z</time>
      </trkpt>
      <trkpt lat="43.66821" lon="5.85554">
        <ele>459</ele>
        <time>2016-04-30T06:52:12.000Z</time>
      </trkpt>
      <trkpt lat="43.66817" lon="5.85546">
        <ele>457</ele>
        <time>2016-04-30T06:52:14.000Z</time>
      </trkpt>
      <trkpt lat="43.66814" lon="5.85524">
        <ele>456</ele>
        <time>2016-04-30T06:52:16.000Z</time>
      </trkpt>
      <trkpt lat="43.66814" lon="5.85524">
        <ele>456</ele>
        <time>2016-04-30T06:52:19.000Z</time>
      </trkpt>
      <trkpt lat="43.66814" lon="5.85524">
        <ele>456</ele>
        <time>2016-04-30T06:52:21.000Z</time>
      </trkpt>
      <trkpt lat="43.66814" lon="5.85524">
        <ele>456</ele>
        <time>2016-04-30T06:52:23.000Z</time>
      </trkpt>
      <trkpt lat="43.66788" lon="5.85506">
        <ele>456</ele>
        <time>2016-04-30T06:52:25.000Z</time>
      </trkpt>
      <trkpt lat="43.66774" lon="5.85503">
        <ele>453</ele>
        <time>2016-04-30T06:52:29.000Z</time>
      </trkpt>
      <trkpt lat="43.66757" lon="5.85506">
        <ele>452</ele>
        <time>2016-04-30T06:52:33.000Z</time>
      </trkpt>
      <trkpt lat="43.6674" lon="5.85509">
        <ele>452</ele>
        <time>2016-04-30T06:52:37.000Z</time>
      </trkpt>
      <trkpt lat="43.66722" lon="5.85508">
        <ele>451</ele>
        <time>2016-04-30T06:52:41.000Z</time>
      </trkpt>
      <trkpt lat="43.66713" lon="5.85509">
        <ele>450</ele>
        <time>2016-04-30T06:52:43.000Z</time>
      </trkpt>
      <trkpt lat="43.66703" lon="5.85511">
        <ele>451</ele>
        <time>2016-04-30T06:52:45.000Z</time>
      </trkpt>
      <trkpt lat="43.66693" lon="5.85512">
        <ele>451</ele>
        <time>2016-04-30T06:52:47.000Z</time>
      </trkpt>
      <trkpt lat="43.66684" lon="5.85511">
        <ele>450</ele>
        <time>2016-04-30T06:52:49.000Z</time>
      </trkpt>
      <trkpt lat="43.66673" lon="5.85512">
        <ele>450</ele>
        <time>2016-04-30T06:52:51.000Z</time>
      </trkpt>
      <trkpt lat="43.66663" lon="5.85515">
        <ele>448</ele>
        <time>2016-04-30T06:52:53.000Z</time>
      </trkpt>
      <trkpt lat="43.66653" lon="5.8552">
        <ele>448</ele>
        <time>2016-04-30T06:52:55.000Z</time>
      </trkpt>
      <trkpt lat="43.66643" lon="5.85525">
        <ele>447</ele>
        <time>2016-04-30T06:52:57.000Z</time>
      </trkpt>
      <trkpt lat="43.66633" lon="5.8553">
        <ele>446</ele>
        <time>2016-04-30T06:52:59.000Z</time>
      </trkpt>
      <trkpt lat="43.66623" lon="5.85534">
        <ele>445</ele>
        <time>2016-04-30T06:53:01.000Z</time>
      </trkpt>
      <trkpt lat="43.66614" lon="5.85538">
        <ele>444</ele>
        <time>2016-04-30T06:53:03.000Z</time>
      </trkpt>
      <trkpt lat="43.66614" lon="5.85538">
        <ele>444</ele>
        <time>2016-04-30T06:53:05.000Z</time>
      </trkpt>
      <trkpt lat="43.6658" lon="5.8554">
        <ele>441</ele>
        <time>2016-04-30T06:53:09.000Z</time>
      </trkpt>
      <trkpt lat="43.66568" lon="5.8554">
        <ele>440</ele>
        <time>2016-04-30T06:53:11.000Z</time>
      </trkpt>
      <trkpt lat="43.66555" lon="5.85543">
        <ele>440</ele>
        <time>2016-04-30T06:53:13.000Z</time>
      </trkpt>
      <trkpt lat="43.66542" lon="5.85548">
        <ele>439</ele>
        <time>2016-04-30T06:53:15.000Z</time>
      </trkpt>
      <trkpt lat="43.6653" lon="5.85556">
        <ele>437</ele>
        <time>2016-04-30T06:53:17.000Z</time>
      </trkpt>
      <trkpt lat="43.6652" lon="5.85557">
        <ele>436</ele>
        <time>2016-04-30T06:53:19.000Z</time>
      </trkpt>
      <trkpt lat="43.6652" lon="5.85557">
        <ele>436</ele>
        <time>2016-04-30T06:53:21.000Z</time>
      </trkpt>
      <trkpt lat="43.6652" lon="5.85557">
        <ele>436</ele>
        <time>2016-04-30T06:53:23.000Z</time>
      </trkpt>
      <trkpt lat="43.6652" lon="5.85557">
        <ele>436</ele>
        <time>2016-04-30T06:53:25.000Z</time>
      </trkpt>
      <trkpt lat="43.6652" lon="5.85557">
        <ele>436</ele>
        <time>2016-04-30T06:53:27.000Z</time>
      </trkpt>
      <trkpt lat="43.6652" lon="5.85557">
        <ele>436</ele>
        <time>2016-04-30T06:53:29.000Z</time>
      </trkpt>
      <trkpt lat="43.6652" lon="5.85557">
        <ele>436</ele>
        <time>2016-04-30T06:53:35.000Z</time>
      </trkpt>
      <trkpt lat="43.6652" lon="5.85557">
        <ele>436</ele>
        <time>2016-04-30T06:53:37.000Z</time>
      </trkpt>
      <trkpt lat="43.6652" lon="5.85557">
        <ele>436</ele>
        <time>2016-04-30T06:53:39.000Z</time>
      </trkpt>
      <trkpt lat="43.6652" lon="5.85557">
        <ele>436</ele>
        <time>2016-04-30T06:53:41.000Z</time>
      </trkpt>
      <trkpt lat="43.6652" lon="5.85557">
        <ele>436</ele>
        <time>2016-04-30T06:53:49.000Z</time>
      </trkpt>
      <trkpt lat="43.66394" lon="5.85644">
        <ele>432</ele>
        <time>2016-04-30T06:53:52.000Z</time>
      </trkpt>
      <trkpt lat="43.66383" lon="5.85654">
        <ele>431</ele>
        <time>2016-04-30T06:53:54.000Z</time>
      </trkpt>
      <trkpt lat="43.66372" lon="5.85666">
        <ele>430</ele>
        <time>2016-04-30T06:53:56.000Z</time>
      </trkpt>
      <trkpt lat="43.66359" lon="5.85676">
        <ele>429</ele>
        <time>2016-04-30T06:53:58.000Z</time>
      </trkpt>
      <trkpt lat="43.66346" lon="5.85686">
        <ele>428</ele>
        <time>2016-04-30T06:54:00.000Z</time>
      </trkpt>
      <trkpt lat="43.66334" lon="5.85697">
        <ele>428</ele>
        <time>2016-04-30T06:54:02.000Z</time>
      </trkpt>
      <trkpt lat="43.66321" lon="5.85706">
        <ele>425</ele>
        <time>2016-04-30T06:54:04.000Z</time>
      </trkpt>
      <trkpt lat="43.66309" lon="5.85719">
        <ele>425</ele>
        <time>2016-04-30T06:54:06.000Z</time>
      </trkpt>
      <trkpt lat="43.66296" lon="5.85729">
        <ele>425</ele>
        <time>2016-04-30T06:54:08.000Z</time>
      </trkpt>
      <trkpt lat="43.66287" lon="5.85741">
        <ele>424</ele>
        <time>2016-04-30T06:54:10.000Z</time>
      </trkpt>
      <trkpt lat="43.66277" lon="5.85751">
        <ele>421</ele>
        <time>2016-04-30T06:54:12.000Z</time>
      </trkpt>
      <trkpt lat="43.66267" lon="5.85756">
        <ele>421</ele>
        <time>2016-04-30T06:54:14.000Z</time>
      </trkpt>
      <trkpt lat="43.66254" lon="5.85758">
        <ele>419</ele>
        <time>2016-04-30T06:54:16.000Z</time>
      </trkpt>
      <trkpt lat="43.66243" lon="5.85757">
        <ele>418</ele>
        <time>2016-04-30T06:54:18.000Z</time>
      </trkpt>
      <trkpt lat="43.66243" lon="5.85757">
        <ele>418</ele>
        <time>2016-04-30T06:54:21.000Z</time>
      </trkpt>
      <trkpt lat="43.66243" lon="5.85757">
        <ele>418</ele>
        <time>2016-04-30T06:54:23.000Z</time>
      </trkpt>
      <trkpt lat="43.66243" lon="5.85757">
        <ele>418</ele>
        <time>2016-04-30T06:54:25.000Z</time>
      </trkpt>
      <trkpt lat="43.66201" lon="5.85804">
        <ele>420</ele>
        <time>2016-04-30T06:54:31.000Z</time>
      </trkpt>
      <trkpt lat="43.66191" lon="5.85812">
        <ele>418</ele>
        <time>2016-04-30T06:54:33.000Z</time>
      </trkpt>
      <trkpt lat="43.66184" lon="5.85823">
        <ele>417</ele>
        <time>2016-04-30T06:54:35.000Z</time>
      </trkpt>
      <trkpt lat="43.66178" lon="5.85833">
        <ele>417</ele>
        <time>2016-04-30T06:54:37.000Z</time>
      </trkpt>
      <trkpt lat="43.66171" lon="5.85843">
        <ele>417</ele>
        <time>2016-04-30T06:54:39.000Z</time>
      </trkpt>
      <trkpt lat="43.66162" lon="5.85848">
        <ele>417</ele>
        <time>2016-04-30T06:54:41.000Z</time>
      </trkpt>
      <trkpt lat="43.66162" lon="5.85848">
        <ele>417</ele>
        <time>2016-04-30T06:54:43.000Z</time>
      </trkpt>
      <trkpt lat="43.66147" lon="5.85855">
        <ele>416</ele>
        <time>2016-04-30T06:54:47.000Z</time>
      </trkpt>
      <trkpt lat="43.66135" lon="5.85862">
        <ele>415</ele>
        <time>2016-04-30T06:54:49.000Z</time>
      </trkpt>
      <trkpt lat="43.66123" lon="5.85865">
        <ele>415</ele>
        <time>2016-04-30T06:54:51.000Z</time>
      </trkpt>
      <trkpt lat="43.66113" lon="5.85867">
        <ele>416</ele>
        <time>2016-04-30T06:54:53.000Z</time>
      </trkpt>
      <trkpt lat="43.66102" lon="5.85871">
        <ele>415</ele>
        <time>2016-04-30T06:54:55.000Z</time>
      </trkpt>
      <trkpt lat="43.66081" lon="5.85877">
        <ele>415</ele>
        <time>2016-04-30T06:54:57.000Z</time>
      </trkpt>
      <trkpt lat="43.66072" lon="5.85883">
        <ele>417</ele>
        <time>2016-04-30T06:54:59.000Z</time>
      </trkpt>
      <trkpt lat="43.66061" lon="5.85887">
        <ele>417</ele>
        <time>2016-04-30T06:55:01.000Z</time>
      </trkpt>
      <trkpt lat="43.66051" lon="5.85892">
        <ele>417</ele>
        <time>2016-04-30T06:55:03.000Z</time>
      </trkpt>
      <trkpt lat="43.66043" lon="5.85898">
        <ele>418</ele>
        <time>2016-04-30T06:55:05.000Z</time>
      </trkpt>
      <trkpt lat="43.66043" lon="5.85898">
        <ele>418</ele>
        <time>2016-04-30T06:55:07.000Z</time>
      </trkpt>
      <trkpt lat="43.66043" lon="5.85898">
        <ele>418</ele>
        <time>2016-04-30T06:55:09.000Z</time>
      </trkpt>
      <trkpt lat="43.66005" lon="5.85924">
        <ele>417</ele>
        <time>2016-04-30T06:55:13.000Z</time>
      </trkpt>
      <trkpt lat="43.65998" lon="5.85938">
        <ele>414</ele>
        <time>2016-04-30T06:55:15.000Z</time>
      </trkpt>
      <trkpt lat="43.65995" lon="5.85952">
        <ele>414</ele>
        <time>2016-04-30T06:55:17.000Z</time>
      </trkpt>
      <trkpt lat="43.65995" lon="5.85952">
        <ele>414</ele>
        <time>2016-04-30T06:55:19.000Z</time>
      </trkpt>
      <trkpt lat="43.65995" lon="5.85952">
        <ele>414</ele>
        <time>2016-04-30T06:55:21.000Z</time>
      </trkpt>
      <trkpt lat="43.65995" lon="5.85952">
        <ele>414</ele>
        <time>2016-04-30T06:55:23.000Z</time>
      </trkpt>
      <trkpt lat="43.65995" lon="5.85952">
        <ele>414</ele>
        <time>2016-04-30T06:55:25.000Z</time>
      </trkpt>
      <trkpt lat="43.65995" lon="5.85952">
        <ele>414</ele>
        <time>2016-04-30T06:55:27.000Z</time>
      </trkpt>
      <trkpt lat="43.65995" lon="5.85952">
        <ele>414</ele>
        <time>2016-04-30T06:55:29.000Z</time>
      </trkpt>
      <trkpt lat="43.65995" lon="5.85952">
        <ele>414</ele>
        <time>2016-04-30T06:55:31.000Z</time>
      </trkpt>
      <trkpt lat="43.65995" lon="5.85952">
        <ele>414</ele>
        <time>2016-04-30T06:55:33.000Z</time>
      </trkpt>
      <trkpt lat="43.65995" lon="5.85952">
        <ele>414</ele>
        <time>2016-04-30T06:55:35.000Z</time>
      </trkpt>
      <trkpt lat="43.65995" lon="5.85952">
        <ele>414</ele>
        <time>2016-04-30T06:55:37.000Z</time>
      </trkpt>
      <trkpt lat="43.65995" lon="5.85952">
        <ele>414</ele>
        <time>2016-04-30T06:55:39.000Z</time>
      </trkpt>
      <trkpt lat="43.6597" lon="5.85953">
        <ele>416</ele>
        <time>2016-04-30T06:55:43.000Z</time>
      </trkpt>
      <trkpt lat="43.65961" lon="5.85938">
        <ele>416</ele>
        <time>2016-04-30T06:55:47.000Z</time>
      </trkpt>
      <trkpt lat="43.65955" lon="5.85927">
        <ele>417</ele>
        <time>2016-04-30T06:55:49.000Z</time>
      </trkpt>
      <trkpt lat="43.65946" lon="5.85913">
        <ele>416</ele>
        <time>2016-04-30T06:55:51.000Z</time>
      </trkpt>
      <trkpt lat="43.65937" lon="5.85903">
        <ele>415</ele>
        <time>2016-04-30T06:55:53.000Z</time>
      </trkpt>
      <trkpt lat="43.65929" lon="5.85891">
        <ele>415</ele>
        <time>2016-04-30T06:55:55.000Z</time>
      </trkpt>
      <trkpt lat="43.6592" lon="5.85877">
        <ele>414</ele>
        <time>2016-04-30T06:55:57.000Z</time>
      </trkpt>
      <trkpt lat="43.65911" lon="5.85865">
        <ele>413</ele>
        <time>2016-04-30T06:55:59.000Z</time>
      </trkpt>
      <trkpt lat="43.65904" lon="5.85853">
        <ele>412</ele>
        <time>2016-04-30T06:56:01.000Z</time>
      </trkpt>
      <trkpt lat="43.65899" lon="5.85841">
        <ele>412</ele>
        <time>2016-04-30T06:56:03.000Z</time>
      </trkpt>
      <trkpt lat="43.65899" lon="5.85841">
        <ele>412</ele>
        <time>2016-04-30T06:56:05.000Z</time>
      </trkpt>
      <trkpt lat="43.65899" lon="5.85841">
        <ele>412</ele>
        <time>2016-04-30T06:56:07.000Z</time>
      </trkpt>
      <trkpt lat="43.65899" lon="5.85841">
        <ele>412</ele>
        <time>2016-04-30T06:56:09.000Z</time>
      </trkpt>
      <trkpt lat="43.65899" lon="5.85841">
        <ele>412</ele>
        <time>2016-04-30T06:56:19.000Z</time>
      </trkpt>
      <trkpt lat="43.65899" lon="5.85841">
        <ele>412</ele>
        <time>2016-04-30T06:56:21.000Z</time>
      </trkpt>
      <trkpt lat="43.65899" lon="5.85841">
        <ele>412</ele>
        <time>2016-04-30T06:56:23.000Z</time>
      </trkpt>
      <trkpt lat="43.65899" lon="5.85841">
        <ele>412</ele>
        <time>2016-04-30T06:56:25.000Z</time>
      </trkpt>
      <trkpt lat="43.65899" lon="5.85841">
        <ele>412</ele>
        <time>2016-04-30T06:56:27.000Z</time>
      </trkpt>
      <trkpt lat="43.65865" lon="5.85879">
        <ele>406</ele>
        <time>2016-04-30T06:56:33.000Z</time>
      </trkpt>
      <trkpt lat="43.65846" lon="5.85902">
        <ele>406</ele>
        <time>2016-04-30T06:56:36.000Z</time>
      </trkpt>
      <trkpt lat="43.65835" lon="5.85916">
        <ele>404</ele>
        <time>2016-04-30T06:56:37.000Z</time>
      </trkpt>
      <trkpt lat="43.65827" lon="5.85926">
        <ele>405</ele>
        <time>2016-04-30T06:56:39.000Z</time>
      </trkpt>
      <trkpt lat="43.65821" lon="5.85935">
        <ele>406</ele>
        <time>2016-04-30T06:56:41.000Z</time>
      </trkpt>
      <trkpt lat="43.65809" lon="5.8595">
        <ele>406</ele>
        <time>2016-04-30T06:56:43.000Z</time>
      </trkpt>
      <trkpt lat="43.65799" lon="5.85961">
        <ele>406</ele>
        <time>2016-04-30T06:56:47.000Z</time>
      </trkpt>
      <trkpt lat="43.65799" lon="5.85961">
        <ele>406</ele>
        <time>2016-04-30T06:56:49.000Z</time>
      </trkpt>
      <trkpt lat="43.65799" lon="5.85961">
        <ele>406</ele>
        <time>2016-04-30T06:56:51.000Z</time>
      </trkpt>
      <trkpt lat="43.65799" lon="5.85961">
        <ele>406</ele>
        <time>2016-04-30T06:56:53.000Z</time>
      </trkpt>
      <trkpt lat="43.65799" lon="5.85961">
        <ele>406</ele>
        <time>2016-04-30T06:56:55.000Z</time>
      </trkpt>
      <trkpt lat="43.65799" lon="5.85961">
        <ele>406</ele>
        <time>2016-04-30T06:56:57.000Z</time>
      </trkpt>
      <trkpt lat="43.6577" lon="5.85995">
        <ele>410</ele>
        <time>2016-04-30T06:57:01.000Z</time>
      </trkpt>
      <trkpt lat="43.65763" lon="5.86004">
        <ele>408</ele>
        <time>2016-04-30T06:57:05.000Z</time>
      </trkpt>
      <trkpt lat="43.65756" lon="5.86015">
        <ele>408</ele>
        <time>2016-04-30T06:57:09.000Z</time>
      </trkpt>
      <trkpt lat="43.65749" lon="5.86025">
        <ele>408</ele>
        <time>2016-04-30T06:57:13.000Z</time>
      </trkpt>
      <trkpt lat="43.65749" lon="5.86025">
        <ele>408</ele>
        <time>2016-04-30T06:57:15.000Z</time>
      </trkpt>
      <trkpt lat="43.65749" lon="5.86025">
        <ele>408</ele>
        <time>2016-04-30T06:57:17.000Z</time>
      </trkpt>
      <trkpt lat="43.65749" lon="5.86025">
        <ele>408</ele>
        <time>2016-04-30T06:57:19.000Z</time>
      </trkpt>
      <trkpt lat="43.65749" lon="5.86025">
        <ele>408</ele>
        <time>2016-04-30T06:57:21.000Z</time>
      </trkpt>
      <trkpt lat="43.65749" lon="5.86025">
        <ele>408</ele>
        <time>2016-04-30T06:57:23.000Z</time>
      </trkpt>
      <trkpt lat="43.65749" lon="5.86025">
        <ele>408</ele>
        <time>2016-04-30T06:57:25.000Z</time>
      </trkpt>
      <trkpt lat="43.65719" lon="5.86061">
        <ele>413</ele>
        <time>2016-04-30T06:57:31.000Z</time>
      </trkpt>
      <trkpt lat="43.6571" lon="5.86066">
        <ele>414</ele>
        <time>2016-04-30T06:57:35.000Z</time>
      </trkpt>
      <trkpt lat="43.65702" lon="5.86074">
        <ele>416</ele>
        <time>2016-04-30T06:57:39.000Z</time>
      </trkpt>
      <trkpt lat="43.65696" lon="5.86085">
        <ele>414</ele>
        <time>2016-04-30T06:57:43.000Z</time>
      </trkpt>
      <trkpt lat="43.65688" lon="5.86096">
        <ele>411</ele>
        <time>2016-04-30T06:57:47.000Z</time>
      </trkpt>
      <trkpt lat="43.6568" lon="5.86108">
        <ele>412</ele>
        <time>2016-04-30T06:57:51.000Z</time>
      </trkpt>
      <trkpt lat="43.65671" lon="5.8612">
        <ele>413</ele>
        <time>2016-04-30T06:57:55.000Z</time>
      </trkpt>
      <trkpt lat="43.65662" lon="5.86133">
        <ele>412</ele>
        <time>2016-04-30T06:57:59.000Z</time>
      </trkpt>
      <trkpt lat="43.65654" lon="5.86142">
        <ele>413</ele>
        <time>2016-04-30T06:58:03.000Z</time>
      </trkpt>
      <trkpt lat="43.65654" lon="5.86142">
        <ele>413</ele>
        <time>2016-04-30T06:58:05.000Z</time>
      </trkpt>
      <trkpt lat="43.65646" lon="5.86149">
        <ele>414</ele>
        <time>2016-04-30T06:58:07.000Z</time>
      </trkpt>
      <trkpt lat="43.65635" lon="5.86155">
        <ele>414</ele>
        <time>2016-04-30T06:58:11.000Z</time>
      </trkpt>
      <trkpt lat="43.65635" lon="5.86155">
        <ele>414</ele>
        <time>2016-04-30T06:58:16.000Z</time>
      </trkpt>
      <trkpt lat="43.65635" lon="5.86155">
        <ele>414</ele>
        <time>2016-04-30T06:58:17.000Z</time>
      </trkpt>
      <trkpt lat="43.65635" lon="5.86155">
        <ele>414</ele>
        <time>2016-04-30T06:58:19.000Z</time>
      </trkpt>
      <trkpt lat="43.65623" lon="5.86169">
        <ele>414</ele>
        <time>2016-04-30T06:58:23.000Z</time>
      </trkpt>
      <trkpt lat="43.65615" lon="5.86178">
        <ele>415</ele>
        <time>2016-04-30T06:58:25.000Z</time>
      </trkpt>
      <trkpt lat="43.65615" lon="5.86178">
        <ele>415</ele>
        <time>2016-04-30T06:58:27.000Z</time>
      </trkpt>
      <trkpt lat="43.65615" lon="5.86178">
        <ele>415</ele>
        <time>2016-04-30T06:58:29.000Z</time>
      </trkpt>
      <trkpt lat="43.65603" lon="5.86191">
        <ele>417</ele>
        <time>2016-04-30T06:58:33.000Z</time>
      </trkpt>
      <trkpt lat="43.65603" lon="5.86191">
        <ele>417</ele>
        <time>2016-04-30T06:58:35.000Z</time>
      </trkpt>
      <trkpt lat="43.65603" lon="5.86191">
        <ele>417</ele>
        <time>2016-04-30T06:58:37.000Z</time>
      </trkpt>
      <trkpt lat="43.65603" lon="5.86191">
        <ele>417</ele>
        <time>2016-04-30T06:58:39.000Z</time>
      </trkpt>
      <trkpt lat="43.65603" lon="5.86191">
        <ele>417</ele>
        <time>2016-04-30T06:58:41.000Z</time>
      </trkpt>
      <trkpt lat="43.65603" lon="5.86191">
        <ele>417</ele>
        <time>2016-04-30T06:58:43.000Z</time>
      </trkpt>
      <trkpt lat="43.65603" lon="5.86191">
        <ele>417</ele>
        <time>2016-04-30T06:58:45.000Z</time>
      </trkpt>
      <trkpt lat="43.65603" lon="5.86191">
        <ele>417</ele>
        <time>2016-04-30T06:58:47.000Z</time>
      </trkpt>
      <trkpt lat="43.65603" lon="5.86191">
        <ele>417</ele>
        <time>2016-04-30T06:58:49.000Z</time>
      </trkpt>
      <trkpt lat="43.65579" lon="5.86218">
        <ele>418</ele>
        <time>2016-04-30T06:58:53.000Z</time>
      </trkpt>
      <trkpt lat="43.65564" lon="5.86234">
        <ele>418</ele>
        <time>2016-04-30T06:58:55.000Z</time>
      </trkpt>
      <trkpt lat="43.65555" lon="5.86244">
        <ele>416</ele>
        <time>2016-04-30T06:58:57.000Z</time>
      </trkpt>
      <trkpt lat="43.65555" lon="5.86244">
        <ele>416</ele>
        <time>2016-04-30T06:58:59.000Z</time>
      </trkpt>
      <trkpt lat="43.65555" lon="5.86244">
        <ele>416</ele>
        <time>2016-04-30T06:59:01.000Z</time>
      </trkpt>
      <trkpt lat="43.65555" lon="5.86244">
        <ele>416</ele>
        <time>2016-04-30T06:59:03.000Z</time>
      </trkpt>
      <trkpt lat="43.65555" lon="5.86244">
        <ele>416</ele>
        <time>2016-04-30T06:59:05.000Z</time>
      </trkpt>
      <trkpt lat="43.65555" lon="5.86244">
        <ele>416</ele>
        <time>2016-04-30T06:59:13.000Z</time>
      </trkpt>
      <trkpt lat="43.65555" lon="5.86244">
        <ele>416</ele>
        <time>2016-04-30T06:59:15.000Z</time>
      </trkpt>
      <trkpt lat="43.65555" lon="5.86244">
        <ele>416</ele>
        <time>2016-04-30T06:59:17.000Z</time>
      </trkpt>
      <trkpt lat="43.65525" lon="5.86257">
        <ele>423</ele>
        <time>2016-04-30T06:59:23.000Z</time>
      </trkpt>
      <trkpt lat="43.65507" lon="5.86264">
        <ele>423</ele>
        <time>2016-04-30T06:59:25.000Z</time>
      </trkpt>
      <trkpt lat="43.65496" lon="5.86266">
        <ele>426</ele>
        <time>2016-04-30T06:59:27.000Z</time>
      </trkpt>
      <trkpt lat="43.6549" lon="5.86266">
        <ele>426</ele>
        <time>2016-04-30T06:59:29.000Z</time>
      </trkpt>
      <trkpt lat="43.65485" lon="5.86265">
        <ele>427</ele>
        <time>2016-04-30T06:59:31.000Z</time>
      </trkpt>
      <trkpt lat="43.65485" lon="5.86265">
        <ele>427</ele>
        <time>2016-04-30T06:59:33.000Z</time>
      </trkpt>
      <trkpt lat="43.65473" lon="5.86262">
        <ele>427</ele>
        <time>2016-04-30T06:59:35.000Z</time>
      </trkpt>
      <trkpt lat="43.65473" lon="5.86262">
        <ele>427</ele>
        <time>2016-04-30T06:59:41.000Z</time>
      </trkpt>
      <trkpt lat="43.65473" lon="5.86262">
        <ele>427</ele>
        <time>2016-04-30T06:59:43.000Z</time>
      </trkpt>
      <trkpt lat="43.65473" lon="5.86262">
        <ele>427</ele>
        <time>2016-04-30T06:59:45.000Z</time>
      </trkpt>
      <trkpt lat="43.6545" lon="5.86256">
        <ele>425</ele>
        <time>2016-04-30T06:59:49.000Z</time>
      </trkpt>
      <trkpt lat="43.6545" lon="5.86256">
        <ele>425</ele>
        <time>2016-04-30T06:59:55.000Z</time>
      </trkpt>
      <trkpt lat="43.6545" lon="5.86256">
        <ele>425</ele>
        <time>2016-04-30T06:59:57.000Z</time>
      </trkpt>
      <trkpt lat="43.6545" lon="5.86256">
        <ele>425</ele>
        <time>2016-04-30T06:59:59.000Z</time>
      </trkpt>
      <trkpt lat="43.6545" lon="5.86256">
        <ele>425</ele>
        <time>2016-04-30T07:00:01.000Z</time>
      </trkpt>
      <trkpt lat="43.6545" lon="5.86256">
        <ele>425</ele>
        <time>2016-04-30T07:00:03.000Z</time>
      </trkpt>
      <trkpt lat="43.6545" lon="5.86256">
        <ele>425</ele>
        <time>2016-04-30T07:00:05.000Z</time>
      </trkpt>
      <trkpt lat="43.65422" lon="5.86243">
        <ele>432</ele>
        <time>2016-04-30T07:00:11.000Z</time>
      </trkpt>
      <trkpt lat="43.65411" lon="5.86239">
        <ele>433</ele>
        <time>2016-04-30T07:00:19.000Z</time>
      </trkpt>
      <trkpt lat="43.65411" lon="5.86239">
        <ele>433</ele>
        <time>2016-04-30T07:00:21.000Z</time>
      </trkpt>
      <trkpt lat="43.65411" lon="5.86239">
        <ele>433</ele>
        <time>2016-04-30T07:00:23.000Z</time>
      </trkpt>
      <trkpt lat="43.65411" lon="5.86239">
        <ele>433</ele>
        <time>2016-04-30T07:00:25.000Z</time>
      </trkpt>
      <trkpt lat="43.65411" lon="5.86239">
        <ele>433</ele>
        <time>2016-04-30T07:00:27.000Z</time>
      </trkpt>
      <trkpt lat="43.65411" lon="5.86239">
        <ele>433</ele>
        <time>2016-04-30T07:00:29.000Z</time>
      </trkpt>
      <trkpt lat="43.65411" lon="5.86239">
        <ele>433</ele>
        <time>2016-04-30T07:00:31.000Z</time>
      </trkpt>
      <trkpt lat="43.65411" lon="5.86239">
        <ele>433</ele>
        <time>2016-04-30T07:00:33.000Z</time>
      </trkpt>
      <trkpt lat="43.65411" lon="5.86239">
        <ele>433</ele>
        <time>2016-04-30T07:00:35.000Z</time>
      </trkpt>
      <trkpt lat="43.65411" lon="5.86239">
        <ele>433</ele>
        <time>2016-04-30T07:00:37.000Z</time>
      </trkpt>
      <trkpt lat="43.65394" lon="5.8624">
        <ele>435</ele>
        <time>2016-04-30T07:00:39.000Z</time>
      </trkpt>
      <trkpt lat="43.65395" lon="5.86247">
        <ele>435</ele>
        <time>2016-04-30T07:00:45.000Z</time>
      </trkpt>
      <trkpt lat="43.65393" lon="5.86253">
        <ele>437</ele>
        <time>2016-04-30T07:00:49.000Z</time>
      </trkpt>
      <trkpt lat="43.65391" lon="5.86259">
        <ele>438</ele>
        <time>2016-04-30T07:00:53.000Z</time>
      </trkpt>
      <trkpt lat="43.65388" lon="5.86263">
        <ele>439</ele>
        <time>2016-04-30T07:00:57.000Z</time>
      </trkpt>
      <trkpt lat="43.65384" lon="5.86265">
        <ele>441</ele>
        <time>2016-04-30T07:01:01.000Z</time>
      </trkpt>
      <trkpt lat="43.65379" lon="5.86266">
        <ele>441</ele>
        <time>2016-04-30T07:01:05.000Z</time>
      </trkpt>
      <trkpt lat="43.65373" lon="5.86266">
        <ele>441</ele>
        <time>2016-04-30T07:01:09.000Z</time>
      </trkpt>
      <trkpt lat="43.65368" lon="5.86267">
        <ele>441</ele>
        <time>2016-04-30T07:01:11.000Z</time>
      </trkpt>
      <trkpt lat="43.65363" lon="5.86269">
        <ele>441</ele>
        <time>2016-04-30T07:01:15.000Z</time>
      </trkpt>
      <trkpt lat="43.65358" lon="5.86272">
        <ele>441</ele>
        <time>2016-04-30T07:01:17.000Z</time>
      </trkpt>
      <trkpt lat="43.65353" lon="5.86276">
        <ele>441</ele>
        <time>2016-04-30T07:01:21.000Z</time>
      </trkpt>
      <trkpt lat="43.65348" lon="5.86279">
        <ele>440</ele>
        <time>2016-04-30T07:01:23.000Z</time>
      </trkpt>
      <trkpt lat="43.65343" lon="5.86283">
        <ele>439</ele>
        <time>2016-04-30T07:01:25.000Z</time>
      </trkpt>
      <trkpt lat="43.6534" lon="5.86286">
        <ele>440</ele>
        <time>2016-04-30T07:01:27.000Z</time>
      </trkpt>
      <trkpt lat="43.65335" lon="5.86291">
        <ele>441</ele>
        <time>2016-04-30T07:01:31.000Z</time>
      </trkpt>
      <trkpt lat="43.65331" lon="5.86294">
        <ele>441</ele>
        <time>2016-04-30T07:01:33.000Z</time>
      </trkpt>
      <trkpt lat="43.65331" lon="5.86294">
        <ele>441</ele>
        <time>2016-04-30T07:01:35.000Z</time>
      </trkpt>
      <trkpt lat="43.65324" lon="5.86296">
        <ele>441</ele>
        <time>2016-04-30T07:01:37.000Z</time>
      </trkpt>
      <trkpt lat="43.65319" lon="5.86297">
        <ele>442</ele>
        <time>2016-04-30T07:01:39.000Z</time>
      </trkpt>
      <trkpt lat="43.65314" lon="5.86296">
        <ele>443</ele>
        <time>2016-04-30T07:01:41.000Z</time>
      </trkpt>
      <trkpt lat="43.65308" lon="5.86294">
        <ele>444</ele>
        <time>2016-04-30T07:01:45.000Z</time>
      </trkpt>
      <trkpt lat="43.65301" lon="5.86293">
        <ele>443</ele>
        <time>2016-04-30T07:01:47.000Z</time>
      </trkpt>
      <trkpt lat="43.65295" lon="5.86292">
        <ele>443</ele>
        <time>2016-04-30T07:01:49.000Z</time>
      </trkpt>
      <trkpt lat="43.65289" lon="5.86292">
        <ele>442</ele>
        <time>2016-04-30T07:01:51.000Z</time>
      </trkpt>
      <trkpt lat="43.65282" lon="5.86293">
        <ele>442</ele>
        <time>2016-04-30T07:01:53.000Z</time>
      </trkpt>
      <trkpt lat="43.65272" lon="5.86295">
        <ele>442</ele>
        <time>2016-04-30T07:01:55.000Z</time>
      </trkpt>
      <trkpt lat="43.65272" lon="5.86295">
        <ele>442</ele>
        <time>2016-04-30T07:01:57.000Z</time>
      </trkpt>
      <trkpt lat="43.65272" lon="5.86295">
        <ele>442</ele>
        <time>2016-04-30T07:01:59.000Z</time>
      </trkpt>
      <trkpt lat="43.65272" lon="5.86295">
        <ele>442</ele>
        <time>2016-04-30T07:02:01.000Z</time>
      </trkpt>
      <trkpt lat="43.65272" lon="5.86295">
        <ele>442</ele>
        <time>2016-04-30T07:02:03.000Z</time>
      </trkpt>
      <trkpt lat="43.65272" lon="5.86295">
        <ele>442</ele>
        <time>2016-04-30T07:02:05.000Z</time>
      </trkpt>
      <trkpt lat="43.65272" lon="5.86295">
        <ele>442</ele>
        <time>2016-04-30T07:02:07.000Z</time>
      </trkpt>
      <trkpt lat="43.65272" lon="5.86295">
        <ele>442</ele>
        <time>2016-04-30T07:02:09.000Z</time>
      </trkpt>
      <trkpt lat="43.65272" lon="5.86295">
        <ele>442</ele>
        <time>2016-04-30T07:02:11.000Z</time>
      </trkpt>
      <trkpt lat="43.65272" lon="5.86295">
        <ele>442</ele>
        <time>2016-04-30T07:02:13.000Z</time>
      </trkpt>
      <trkpt lat="43.65272" lon="5.86295">
        <ele>442</ele>
        <time>2016-04-30T07:02:15.000Z</time>
      </trkpt>
      <trkpt lat="43.65272" lon="5.86295">
        <ele>442</ele>
        <time>2016-04-30T07:02:17.000Z</time>
      </trkpt>
      <trkpt lat="43.65216" lon="5.86307">
        <ele>442</ele>
        <time>2016-04-30T07:02:19.000Z</time>
      </trkpt>
      <trkpt lat="43.65204" lon="5.86308">
        <ele>442</ele>
        <time>2016-04-30T07:02:23.000Z</time>
      </trkpt>
      <trkpt lat="43.65194" lon="5.86316">
        <ele>439</ele>
        <time>2016-04-30T07:02:27.000Z</time>
      </trkpt>
      <trkpt lat="43.65194" lon="5.86316">
        <ele>439</ele>
        <time>2016-04-30T07:02:29.000Z</time>
      </trkpt>
      <trkpt lat="43.65194" lon="5.86316">
        <ele>439</ele>
        <time>2016-04-30T07:02:31.000Z</time>
      </trkpt>
      <trkpt lat="43.65194" lon="5.86316">
        <ele>439</ele>
        <time>2016-04-30T07:02:33.000Z</time>
      </trkpt>
      <trkpt lat="43.65194" lon="5.86316">
        <ele>439</ele>
        <time>2016-04-30T07:02:35.000Z</time>
      </trkpt>
      <trkpt lat="43.65194" lon="5.86316">
        <ele>439</ele>
        <time>2016-04-30T07:02:37.000Z</time>
      </trkpt>
      <trkpt lat="43.65194" lon="5.86316">
        <ele>439</ele>
        <time>2016-04-30T07:02:39.000Z</time>
      </trkpt>
      <trkpt lat="43.65194" lon="5.86316">
        <ele>439</ele>
        <time>2016-04-30T07:02:41.000Z</time>
      </trkpt>
      <trkpt lat="43.65153" lon="5.8634">
        <ele>437</ele>
        <time>2016-04-30T07:02:43.000Z</time>
      </trkpt>
      <trkpt lat="43.65143" lon="5.86346">
        <ele>438</ele>
        <time>2016-04-30T07:02:47.000Z</time>
      </trkpt>
      <trkpt lat="43.65133" lon="5.86353">
        <ele>437</ele>
        <time>2016-04-30T07:02:51.000Z</time>
      </trkpt>
      <trkpt lat="43.65122" lon="5.8636">
        <ele>437</ele>
        <time>2016-04-30T07:02:55.000Z</time>
      </trkpt>
      <trkpt lat="43.65111" lon="5.86367">
        <ele>436</ele>
        <time>2016-04-30T07:02:59.000Z</time>
      </trkpt>
      <trkpt lat="43.65111" lon="5.86367">
        <ele>436</ele>
        <time>2016-04-30T07:03:03.000Z</time>
      </trkpt>
      <trkpt lat="43.65111" lon="5.86367">
        <ele>436</ele>
        <time>2016-04-30T07:03:05.000Z</time>
      </trkpt>
      <trkpt lat="43.65111" lon="5.86367">
        <ele>436</ele>
        <time>2016-04-30T07:03:07.000Z</time>
      </trkpt>
      <trkpt lat="43.65111" lon="5.86367">
        <ele>436</ele>
        <time>2016-04-30T07:03:09.000Z</time>
      </trkpt>
      <trkpt lat="43.65111" lon="5.86367">
        <ele>436</ele>
        <time>2016-04-30T07:03:11.000Z</time>
      </trkpt>
      <trkpt lat="43.65111" lon="5.86367">
        <ele>436</ele>
        <time>2016-04-30T07:03:13.000Z</time>
      </trkpt>
      <trkpt lat="43.65111" lon="5.86367">
        <ele>436</ele>
        <time>2016-04-30T07:03:15.000Z</time>
      </trkpt>
      <trkpt lat="43.65111" lon="5.86367">
        <ele>436</ele>
        <time>2016-04-30T07:03:17.000Z</time>
      </trkpt>
      <trkpt lat="43.65111" lon="5.86367">
        <ele>436</ele>
        <time>2016-04-30T07:03:19.000Z</time>
      </trkpt>
      <trkpt lat="43.65111" lon="5.86367">
        <ele>436</ele>
        <time>2016-04-30T07:03:21.000Z</time>
      </trkpt>
      <trkpt lat="43.65111" lon="5.86367">
        <ele>436</ele>
        <time>2016-04-30T07:03:23.000Z</time>
      </trkpt>
      <trkpt lat="43.65111" lon="5.86367">
        <ele>436</ele>
        <time>2016-04-30T07:03:25.000Z</time>
      </trkpt>
      <trkpt lat="43.65111" lon="5.86367">
        <ele>436</ele>
        <time>2016-04-30T07:03:27.000Z</time>
      </trkpt>
      <trkpt lat="43.65111" lon="5.86367">
        <ele>436</ele>
        <time>2016-04-30T07:03:29.000Z</time>
      </trkpt>
      <trkpt lat="43.65111" lon="5.86367">
        <ele>436</ele>
        <time>2016-04-30T07:03:31.000Z</time>
      </trkpt>
      <trkpt lat="43.65111" lon="5.86367">
        <ele>436</ele>
        <time>2016-04-30T07:03:33.000Z</time>
      </trkpt>
      <trkpt lat="43.65111" lon="5.86367">
        <ele>436</ele>
        <time>2016-04-30T07:03:35.000Z</time>
      </trkpt>
      <trkpt lat="43.65111" lon="5.86367">
        <ele>436</ele>
        <time>2016-04-30T07:03:37.000Z</time>
      </trkpt>
      <trkpt lat="43.65111" lon="5.86367">
        <ele>436</ele>
        <time>2016-04-30T07:03:39.000Z</time>
      </trkpt>
      <trkpt lat="43.65111" lon="5.86367">
        <ele>436</ele>
        <time>2016-04-30T07:03:41.000Z</time>
      </trkpt>
      <trkpt lat="43.65111" lon="5.86367">
        <ele>436</ele>
        <time>2016-04-30T07:03:43.000Z</time>
      </trkpt>
      <trkpt lat="43.65111" lon="5.86367">
        <ele>436</ele>
        <time>2016-04-30T07:03:45.000Z</time>
      </trkpt>
      <trkpt lat="43.65074" lon="5.86417">
        <ele>441</ele>
        <time>2016-04-30T07:03:49.000Z</time>
      </trkpt>
      <trkpt lat="43.65054" lon="5.86443">
        <ele>441</ele>
        <time>2016-04-30T07:03:51.000Z</time>
      </trkpt>
      <trkpt lat="43.65042" lon="5.86458">
        <ele>441</ele>
        <time>2016-04-30T07:03:53.000Z</time>
      </trkpt>
      <trkpt lat="43.65042" lon="5.86458">
        <ele>441</ele>
        <time>2016-04-30T07:03:55.000Z</time>
      </trkpt>
      <trkpt lat="43.65042" lon="5.86458">
        <ele>441</ele>
        <time>2016-04-30T07:03:57.000Z</time>
      </trkpt>
      <trkpt lat="43.65042" lon="5.86458">
        <ele>441</ele>
        <time>2016-04-30T07:03:59.000Z</time>
      </trkpt>
      <trkpt lat="43.65042" lon="5.86458">
        <ele>441</ele>
        <time>2016-04-30T07:04:01.000Z</time>
      </trkpt>
      <trkpt lat="43.65042" lon="5.86458">
        <ele>441</ele>
        <time>2016-04-30T07:04:03.000Z</time>
      </trkpt>
      <trkpt lat="43.65028" lon="5.86478">
        <ele>443</ele>
        <time>2016-04-30T07:04:07.000Z</time>
      </trkpt>
      <trkpt lat="43.65019" lon="5.8649">
        <ele>443</ele>
        <time>2016-04-30T07:04:09.000Z</time>
      </trkpt>
      <trkpt lat="43.65013" lon="5.86497">
        <ele>442</ele>
        <time>2016-04-30T07:04:11.000Z</time>
      </trkpt>
      <trkpt lat="43.65009" lon="5.86503">
        <ele>443</ele>
        <time>2016-04-30T07:04:13.000Z</time>
      </trkpt>
      <trkpt lat="43.65004" lon="5.86507">
        <ele>444</ele>
        <time>2016-04-30T07:04:15.000Z</time>
      </trkpt>
      <trkpt lat="43.64996" lon="5.86513">
        <ele>444</ele>
        <time>2016-04-30T07:04:17.000Z</time>
      </trkpt>
      <trkpt lat="43.64986" lon="5.86524">
        <ele>445</ele>
        <time>2016-04-30T07:04:23.000Z</time>
      </trkpt>
      <trkpt lat="43.64976" lon="5.86534">
        <ele>445</ele>
        <time>2016-04-30T07:04:29.000Z</time>
      </trkpt>
      <trkpt lat="43.64967" lon="5.86545">
        <ele>445</ele>
        <time>2016-04-30T07:04:35.000Z</time>
      </trkpt>
      <trkpt lat="43.64958" lon="5.86557">
        <ele>445</ele>
        <time>2016-04-30T07:04:41.000Z</time>
      </trkpt>
      <trkpt lat="43.64951" lon="5.86565">
        <ele>445</ele>
        <time>2016-04-30T07:04:45.000Z</time>
      </trkpt>
      <trkpt lat="43.64944" lon="5.86573">
        <ele>445</ele>
        <time>2016-04-30T07:04:49.000Z</time>
      </trkpt>
      <trkpt lat="43.64937" lon="5.8658">
        <ele>447</ele>
        <time>2016-04-30T07:04:53.000Z</time>
      </trkpt>
      <trkpt lat="43.64929" lon="5.86587">
        <ele>447</ele>
        <time>2016-04-30T07:04:57.000Z</time>
      </trkpt>
      <trkpt lat="43.6492" lon="5.86592">
        <ele>448</ele>
        <time>2016-04-30T07:05:01.000Z</time>
      </trkpt>
      <trkpt lat="43.64911" lon="5.86594">
        <ele>449</ele>
        <time>2016-04-30T07:05:05.000Z</time>
      </trkpt>
      <trkpt lat="43.64902" lon="5.86597">
        <ele>449</ele>
        <time>2016-04-30T07:05:09.000Z</time>
      </trkpt>
      <trkpt lat="43.64892" lon="5.86598">
        <ele>450</ele>
        <time>2016-04-30T07:05:13.000Z</time>
      </trkpt>
      <trkpt lat="43.64882" lon="5.86598">
        <ele>451</ele>
        <time>2016-04-30T07:05:17.000Z</time>
      </trkpt>
      <trkpt lat="43.64872" lon="5.86602">
        <ele>452</ele>
        <time>2016-04-30T07:05:21.000Z</time>
      </trkpt>
      <trkpt lat="43.64862" lon="5.86608">
        <ele>451</ele>
        <time>2016-04-30T07:05:25.000Z</time>
      </trkpt>
      <trkpt lat="43.64853" lon="5.86612">
        <ele>452</ele>
        <time>2016-04-30T07:05:29.000Z</time>
      </trkpt>
      <trkpt lat="43.64845" lon="5.86618">
        <ele>452</ele>
        <time>2016-04-30T07:05:33.000Z</time>
      </trkpt>
      <trkpt lat="43.64837" lon="5.86628">
        <ele>451</ele>
        <time>2016-04-30T07:05:37.000Z</time>
      </trkpt>
      <trkpt lat="43.6483" lon="5.8664">
        <ele>451</ele>
        <time>2016-04-30T07:05:41.000Z</time>
      </trkpt>
      <trkpt lat="43.64823" lon="5.8665">
        <ele>452</ele>
        <time>2016-04-30T07:05:45.000Z</time>
      </trkpt>
      <trkpt lat="43.64816" lon="5.8666">
        <ele>452</ele>
        <time>2016-04-30T07:05:49.000Z</time>
      </trkpt>
      <trkpt lat="43.6481" lon="5.8667">
        <ele>452</ele>
        <time>2016-04-30T07:05:53.000Z</time>
      </trkpt>
      <trkpt lat="43.6481" lon="5.8667">
        <ele>452</ele>
        <time>2016-04-30T07:05:55.000Z</time>
      </trkpt>
      <trkpt lat="43.6481" lon="5.8667">
        <ele>452</ele>
        <time>2016-04-30T07:05:57.000Z</time>
      </trkpt>
      <trkpt lat="43.6481" lon="5.8667">
        <ele>452</ele>
        <time>2016-04-30T07:05:59.000Z</time>
      </trkpt>
      <trkpt lat="43.6481" lon="5.8667">
        <ele>452</ele>
        <time>2016-04-30T07:06:01.000Z</time>
      </trkpt>
      <trkpt lat="43.6481" lon="5.8667">
        <ele>452</ele>
        <time>2016-04-30T07:06:03.000Z</time>
      </trkpt>
      <trkpt lat="43.6481" lon="5.8667">
        <ele>452</ele>
        <time>2016-04-30T07:06:05.000Z</time>
      </trkpt>
      <trkpt lat="43.6481" lon="5.8667">
        <ele>452</ele>
        <time>2016-04-30T07:06:07.000Z</time>
      </trkpt>
      <trkpt lat="43.6481" lon="5.8667">
        <ele>452</ele>
        <time>2016-04-30T07:06:09.000Z</time>
      </trkpt>
      <trkpt lat="43.6481" lon="5.8667">
        <ele>452</ele>
        <time>2016-04-30T07:06:11.000Z</time>
      </trkpt>
      <trkpt lat="43.6481" lon="5.8667">
        <ele>452</ele>
        <time>2016-04-30T07:06:13.000Z</time>
      </trkpt>
      <trkpt lat="43.6481" lon="5.8667">
        <ele>452</ele>
        <time>2016-04-30T07:06:15.000Z</time>
      </trkpt>
      <trkpt lat="43.64787" lon="5.86685">
        <ele>458</ele>
        <time>2016-04-30T07:06:17.000Z</time>
      </trkpt>
      <trkpt lat="43.64773" lon="5.86695">
        <ele>458</ele>
        <time>2016-04-30T07:06:19.000Z</time>
      </trkpt>
      <trkpt lat="43.64764" lon="5.86701">
        <ele>457</ele>
        <time>2016-04-30T07:06:21.000Z</time>
      </trkpt>
      <trkpt lat="43.64756" lon="5.86704">
        <ele>457</ele>
        <time>2016-04-30T07:06:23.000Z</time>
      </trkpt>
      <trkpt lat="43.64756" lon="5.86704">
        <ele>457</ele>
        <time>2016-04-30T07:06:25.000Z</time>
      </trkpt>
      <trkpt lat="43.64756" lon="5.86704">
        <ele>457</ele>
        <time>2016-04-30T07:06:27.000Z</time>
      </trkpt>
      <trkpt lat="43.64756" lon="5.86704">
        <ele>457</ele>
        <time>2016-04-30T07:06:29.000Z</time>
      </trkpt>
      <trkpt lat="43.64735" lon="5.86703">
        <ele>451</ele>
        <time>2016-04-30T07:08:03.000Z</time>
      </trkpt>
      <trkpt lat="43.64724" lon="5.867">
        <ele>452</ele>
        <time>2016-04-30T07:08:09.000Z</time>
      </trkpt>
      <trkpt lat="43.6472" lon="5.86716">
        <ele>454</ele>
        <time>2016-04-30T07:08:15.000Z</time>
      </trkpt>
      <trkpt lat="43.64716" lon="5.86727">
        <ele>452</ele>
        <time>2016-04-30T07:08:19.000Z</time>
      </trkpt>
      <trkpt lat="43.64711" lon="5.86741">
        <ele>452</ele>
        <time>2016-04-30T07:08:23.000Z</time>
      </trkpt>
      <trkpt lat="43.64706" lon="5.86754">
        <ele>450</ele>
        <time>2016-04-30T07:08:27.000Z</time>
      </trkpt>
      <trkpt lat="43.64703" lon="5.86768">
        <ele>448</ele>
        <time>2016-04-30T07:08:31.000Z</time>
      </trkpt>
      <trkpt lat="43.64698" lon="5.86781">
        <ele>449</ele>
        <time>2016-04-30T07:08:35.000Z</time>
      </trkpt>
      <trkpt lat="43.64694" lon="5.86794">
        <ele>448</ele>
        <time>2016-04-30T07:08:39.000Z</time>
      </trkpt>
      <trkpt lat="43.64689" lon="5.86807">
        <ele>449</ele>
        <time>2016-04-30T07:08:43.000Z</time>
      </trkpt>
      <trkpt lat="43.64689" lon="5.86807">
        <ele>449</ele>
        <time>2016-04-30T07:08:47.000Z</time>
      </trkpt>
      <trkpt lat="43.64689" lon="5.86807">
        <ele>449</ele>
        <time>2016-04-30T07:08:49.000Z</time>
      </trkpt>
      <trkpt lat="43.64689" lon="5.86807">
        <ele>449</ele>
        <time>2016-04-30T07:08:51.000Z</time>
      </trkpt>
      <trkpt lat="43.64689" lon="5.86807">
        <ele>449</ele>
        <time>2016-04-30T07:08:53.000Z</time>
      </trkpt>
      <trkpt lat="43.64689" lon="5.86807">
        <ele>449</ele>
        <time>2016-04-30T07:08:55.000Z</time>
      </trkpt>
      <trkpt lat="43.64689" lon="5.86807">
        <ele>449</ele>
        <time>2016-04-30T07:08:57.000Z</time>
      </trkpt>
      <trkpt lat="43.64666" lon="5.86837">
        <ele>459</ele>
        <time>2016-04-30T07:09:01.000Z</time>
      </trkpt>
      <trkpt lat="43.64658" lon="5.86845">
        <ele>460</ele>
        <time>2016-04-30T07:09:05.000Z</time>
      </trkpt>
      <trkpt lat="43.64653" lon="5.86857">
        <ele>459</ele>
        <time>2016-04-30T07:09:09.000Z</time>
      </trkpt>
      <trkpt lat="43.64647" lon="5.8687">
        <ele>459</ele>
        <time>2016-04-30T07:09:13.000Z</time>
      </trkpt>
      <trkpt lat="43.64647" lon="5.8687">
        <ele>459</ele>
        <time>2016-04-30T07:09:17.000Z</time>
      </trkpt>
      <trkpt lat="43.64647" lon="5.8687">
        <ele>459</ele>
        <time>2016-04-30T07:09:19.000Z</time>
      </trkpt>
      <trkpt lat="43.64647" lon="5.8687">
        <ele>459</ele>
        <time>2016-04-30T07:09:21.000Z</time>
      </trkpt>
      <trkpt lat="43.64644" lon="5.86906">
        <ele>458</ele>
        <time>2016-04-30T07:09:59.000Z</time>
      </trkpt>
      <trkpt lat="43.64645" lon="5.86925">
        <ele>457</ele>
        <time>2016-04-30T07:10:05.000Z</time>
      </trkpt>
      <trkpt lat="43.64645" lon="5.86939">
        <ele>456</ele>
        <time>2016-04-30T07:10:09.000Z</time>
      </trkpt>
      <trkpt lat="43.64643" lon="5.86958">
        <ele>455</ele>
        <time>2016-04-30T07:10:13.000Z</time>
      </trkpt>
      <trkpt lat="43.64639" lon="5.86973">
        <ele>455</ele>
        <time>2016-04-30T07:10:17.000Z</time>
      </trkpt>
      <trkpt lat="43.64635" lon="5.86987">
        <ele>455</ele>
        <time>2016-04-30T07:10:21.000Z</time>
      </trkpt>
      <trkpt lat="43.64632" lon="5.87001">
        <ele>454</ele>
        <time>2016-04-30T07:10:25.000Z</time>
      </trkpt>
      <trkpt lat="43.64632" lon="5.87001">
        <ele>454</ele>
        <time>2016-04-30T07:10:27.000Z</time>
      </trkpt>
      <trkpt lat="43.64632" lon="5.87001">
        <ele>454</ele>
        <time>2016-04-30T07:10:29.000Z</time>
      </trkpt>
      <trkpt lat="43.64632" lon="5.87001">
        <ele>454</ele>
        <time>2016-04-30T07:10:31.000Z</time>
      </trkpt>
      <trkpt lat="43.64632" lon="5.87001">
        <ele>454</ele>
        <time>2016-04-30T07:10:33.000Z</time>
      </trkpt>
      <trkpt lat="43.64632" lon="5.87001">
        <ele>454</ele>
        <time>2016-04-30T07:10:35.000Z</time>
      </trkpt>
      <trkpt lat="43.64632" lon="5.87001">
        <ele>454</ele>
        <time>2016-04-30T07:10:37.000Z</time>
      </trkpt>
      <trkpt lat="43.64632" lon="5.87001">
        <ele>454</ele>
        <time>2016-04-30T07:10:39.000Z</time>
      </trkpt>
      <trkpt lat="43.64632" lon="5.87001">
        <ele>454</ele>
        <time>2016-04-30T07:10:41.000Z</time>
      </trkpt>
      <trkpt lat="43.64632" lon="5.87001">
        <ele>454</ele>
        <time>2016-04-30T07:10:43.000Z</time>
      </trkpt>
      <trkpt lat="43.64632" lon="5.87001">
        <ele>454</ele>
        <time>2016-04-30T07:10:45.000Z</time>
      </trkpt>
      <trkpt lat="43.64632" lon="5.87001">
        <ele>454</ele>
        <time>2016-04-30T07:10:47.000Z</time>
      </trkpt>
      <trkpt lat="43.64632" lon="5.87001">
        <ele>454</ele>
        <time>2016-04-30T07:10:49.000Z</time>
      </trkpt>
      <trkpt lat="43.64632" lon="5.87001">
        <ele>454</ele>
        <time>2016-04-30T07:10:51.000Z</time>
      </trkpt>
      <trkpt lat="43.64632" lon="5.87001">
        <ele>454</ele>
        <time>2016-04-30T07:10:53.000Z</time>
      </trkpt>
      <trkpt lat="43.64632" lon="5.87001">
        <ele>454</ele>
        <time>2016-04-30T07:10:55.000Z</time>
      </trkpt>
      <trkpt lat="43.64632" lon="5.87001">
        <ele>454</ele>
        <time>2016-04-30T07:10:57.000Z</time>
      </trkpt>
      <trkpt lat="43.64632" lon="5.87001">
        <ele>454</ele>
        <time>2016-04-30T07:10:59.000Z</time>
      </trkpt>
      <trkpt lat="43.64632" lon="5.87001">
        <ele>454</ele>
        <time>2016-04-30T07:11:01.000Z</time>
      </trkpt>
      <trkpt lat="43.64632" lon="5.87001">
        <ele>454</ele>
        <time>2016-04-30T07:11:03.000Z</time>
      </trkpt>
      <trkpt lat="43.64632" lon="5.87001">
        <ele>454</ele>
        <time>2016-04-30T07:11:05.000Z</time>
      </trkpt>
      <trkpt lat="43.64632" lon="5.87001">
        <ele>454</ele>
        <time>2016-04-30T07:11:07.000Z</time>
      </trkpt>
      <trkpt lat="43.64632" lon="5.87001">
        <ele>454</ele>
        <time>2016-04-30T07:11:09.000Z</time>
      </trkpt>
      <trkpt lat="43.64632" lon="5.87001">
        <ele>454</ele>
        <time>2016-04-30T07:11:11.000Z</time>
      </trkpt>
      <trkpt lat="43.64632" lon="5.87001">
        <ele>454</ele>
        <time>2016-04-30T07:11:13.000Z</time>
      </trkpt>
      <trkpt lat="43.64632" lon="5.87001">
        <ele>454</ele>
        <time>2016-04-30T07:11:15.000Z</time>
      </trkpt>
      <trkpt lat="43.64632" lon="5.87001">
        <ele>454</ele>
        <time>2016-04-30T07:11:17.000Z</time>
      </trkpt>
      <trkpt lat="43.64632" lon="5.87001">
        <ele>454</ele>
        <time>2016-04-30T07:11:19.000Z</time>
      </trkpt>
      <trkpt lat="43.64604" lon="5.87069">
        <ele>461</ele>
        <time>2016-04-30T07:11:21.000Z</time>
      </trkpt>
      <trkpt lat="43.64588" lon="5.87106">
        <ele>460</ele>
        <time>2016-04-30T07:11:23.000Z</time>
      </trkpt>
      <trkpt lat="43.64579" lon="5.87127">
        <ele>460</ele>
        <time>2016-04-30T07:11:25.000Z</time>
      </trkpt>
      <trkpt lat="43.64574" lon="5.87141">
        <ele>460</ele>
        <time>2016-04-30T07:11:27.000Z</time>
      </trkpt>
      <trkpt lat="43.64571" lon="5.87152">
        <ele>460</ele>
        <time>2016-04-30T07:11:29.000Z</time>
      </trkpt>
      <trkpt lat="43.64566" lon="5.87168">
        <ele>460</ele>
        <time>2016-04-30T07:11:31.000Z</time>
      </trkpt>
      <trkpt lat="43.6456" lon="5.87181">
        <ele>459</ele>
        <time>2016-04-30T07:11:35.000Z</time>
      </trkpt>
      <trkpt lat="43.64556" lon="5.87194">
        <ele>460</ele>
        <time>2016-04-30T07:11:39.000Z</time>
      </trkpt>
      <trkpt lat="43.64554" lon="5.87207">
        <ele>461</ele>
        <time>2016-04-30T07:11:43.000Z</time>
      </trkpt>
      <trkpt lat="43.64553" lon="5.87222">
        <ele>461</ele>
        <time>2016-04-30T07:11:47.000Z</time>
      </trkpt>
      <trkpt lat="43.64551" lon="5.87237">
        <ele>462</ele>
        <time>2016-04-30T07:11:51.000Z</time>
      </trkpt>
      <trkpt lat="43.64547" lon="5.87252">
        <ele>463</ele>
        <time>2016-04-30T07:11:55.000Z</time>
      </trkpt>
      <trkpt lat="43.64543" lon="5.87266">
        <ele>463</ele>
        <time>2016-04-30T07:11:59.000Z</time>
      </trkpt>
      <trkpt lat="43.64537" lon="5.87279">
        <ele>463</ele>
        <time>2016-04-30T07:12:03.000Z</time>
      </trkpt>
      <trkpt lat="43.64533" lon="5.87293">
        <ele>463</ele>
        <time>2016-04-30T07:12:07.000Z</time>
      </trkpt>
      <trkpt lat="43.64528" lon="5.87307">
        <ele>462</ele>
        <time>2016-04-30T07:12:11.000Z</time>
      </trkpt>
      <trkpt lat="43.64523" lon="5.87321">
        <ele>462</ele>
        <time>2016-04-30T07:12:15.000Z</time>
      </trkpt>
      <trkpt lat="43.64518" lon="5.87334">
        <ele>462</ele>
        <time>2016-04-30T07:12:19.000Z</time>
      </trkpt>
      <trkpt lat="43.64514" lon="5.87348">
        <ele>463</ele>
        <time>2016-04-30T07:12:23.000Z</time>
      </trkpt>
      <trkpt lat="43.64509" lon="5.87362">
        <ele>462</ele>
        <time>2016-04-30T07:12:27.000Z</time>
      </trkpt>
      <trkpt lat="43.64507" lon="5.87376">
        <ele>462</ele>
        <time>2016-04-30T07:12:31.000Z</time>
      </trkpt>
      <trkpt lat="43.64503" lon="5.8739">
        <ele>462</ele>
        <time>2016-04-30T07:12:35.000Z</time>
      </trkpt>
      <trkpt lat="43.64503" lon="5.8739">
        <ele>462</ele>
        <time>2016-04-30T07:12:37.000Z</time>
      </trkpt>
      <trkpt lat="43.64503" lon="5.8739">
        <ele>462</ele>
        <time>2016-04-30T07:12:39.000Z</time>
      </trkpt>
      <trkpt lat="43.64503" lon="5.8739">
        <ele>462</ele>
        <time>2016-04-30T07:12:41.000Z</time>
      </trkpt>
      <trkpt lat="43.64503" lon="5.8739">
        <ele>462</ele>
        <time>2016-04-30T07:12:43.000Z</time>
      </trkpt>
      <trkpt lat="43.64482" lon="5.87421">
        <ele>463</ele>
        <time>2016-04-30T07:12:47.000Z</time>
      </trkpt>
      <trkpt lat="43.64478" lon="5.87434">
        <ele>464</ele>
        <time>2016-04-30T07:12:51.000Z</time>
      </trkpt>
      <trkpt lat="43.64478" lon="5.87434">
        <ele>464</ele>
        <time>2016-04-30T07:12:53.000Z</time>
      </trkpt>
      <trkpt lat="43.64478" lon="5.87434">
        <ele>464</ele>
        <time>2016-04-30T07:12:55.000Z</time>
      </trkpt>
      <trkpt lat="43.64478" lon="5.87434">
        <ele>464</ele>
        <time>2016-04-30T07:12:57.000Z</time>
      </trkpt>
      <trkpt lat="43.64478" lon="5.87434">
        <ele>464</ele>
        <time>2016-04-30T07:12:59.000Z</time>
      </trkpt>
      <trkpt lat="43.64478" lon="5.87434">
        <ele>464</ele>
        <time>2016-04-30T07:13:01.000Z</time>
      </trkpt>
      <trkpt lat="43.64478" lon="5.87434">
        <ele>464</ele>
        <time>2016-04-30T07:13:03.000Z</time>
      </trkpt>
      <trkpt lat="43.64478" lon="5.87434">
        <ele>464</ele>
        <time>2016-04-30T07:13:05.000Z</time>
      </trkpt>
      <trkpt lat="43.64478" lon="5.87434">
        <ele>464</ele>
        <time>2016-04-30T07:13:07.000Z</time>
      </trkpt>
      <trkpt lat="43.64478" lon="5.87434">
        <ele>464</ele>
        <time>2016-04-30T07:13:09.000Z</time>
      </trkpt>
      <trkpt lat="43.64478" lon="5.87434">
        <ele>464</ele>
        <time>2016-04-30T07:13:11.000Z</time>
      </trkpt>
      <trkpt lat="43.64478" lon="5.87434">
        <ele>464</ele>
        <time>2016-04-30T07:13:13.000Z</time>
      </trkpt>
      <trkpt lat="43.64478" lon="5.87434">
        <ele>464</ele>
        <time>2016-04-30T07:13:15.000Z</time>
      </trkpt>
      <trkpt lat="43.6446" lon="5.87475">
        <ele>466</ele>
        <time>2016-04-30T07:13:17.000Z</time>
      </trkpt>
      <trkpt lat="43.64451" lon="5.875">
        <ele>466</ele>
        <time>2016-04-30T07:13:19.000Z</time>
      </trkpt>
      <trkpt lat="43.64446" lon="5.87516">
        <ele>466</ele>
        <time>2016-04-30T07:13:21.000Z</time>
      </trkpt>
      <trkpt lat="43.64444" lon="5.87528">
        <ele>467</ele>
        <time>2016-04-30T07:13:23.000Z</time>
      </trkpt>
      <trkpt lat="43.64442" lon="5.87538">
        <ele>466</ele>
        <time>2016-04-30T07:13:25.000Z</time>
      </trkpt>
      <trkpt lat="43.64441" lon="5.87557">
        <ele>467</ele>
        <time>2016-04-30T07:13:27.000Z</time>
      </trkpt>
      <trkpt lat="43.64439" lon="5.87575">
        <ele>468</ele>
        <time>2016-04-30T07:13:31.000Z</time>
      </trkpt>
      <trkpt lat="43.64437" lon="5.87591">
        <ele>469</ele>
        <time>2016-04-30T07:13:35.000Z</time>
      </trkpt>
      <trkpt lat="43.64437" lon="5.87591">
        <ele>469</ele>
        <time>2016-04-30T07:13:37.000Z</time>
      </trkpt>
      <trkpt lat="43.64439" lon="5.87607">
        <ele>468</ele>
        <time>2016-04-30T07:13:39.000Z</time>
      </trkpt>
      <trkpt lat="43.64439" lon="5.87607">
        <ele>468</ele>
        <time>2016-04-30T07:13:41.000Z</time>
      </trkpt>
      <trkpt lat="43.64439" lon="5.87607">
        <ele>468</ele>
        <time>2016-04-30T07:13:43.000Z</time>
      </trkpt>
      <trkpt lat="43.64439" lon="5.87607">
        <ele>468</ele>
        <time>2016-04-30T07:13:45.000Z</time>
      </trkpt>
      <trkpt lat="43.64439" lon="5.87607">
        <ele>468</ele>
        <time>2016-04-30T07:13:47.000Z</time>
      </trkpt>
      <trkpt lat="43.64447" lon="5.87648">
        <ele>469</ele>
        <time>2016-04-30T07:13:49.000Z</time>
      </trkpt>
      <trkpt lat="43.6445" lon="5.87667">
        <ele>469</ele>
        <time>2016-04-30T07:13:53.000Z</time>
      </trkpt>
      <trkpt lat="43.64453" lon="5.87687">
        <ele>469</ele>
        <time>2016-04-30T07:13:57.000Z</time>
      </trkpt>
      <trkpt lat="43.64457" lon="5.87706">
        <ele>468</ele>
        <time>2016-04-30T07:14:01.000Z</time>
      </trkpt>
      <trkpt lat="43.64461" lon="5.87724">
        <ele>469</ele>
        <time>2016-04-30T07:14:05.000Z</time>
      </trkpt>
      <trkpt lat="43.64464" lon="5.87744">
        <ele>469</ele>
        <time>2016-04-30T07:14:09.000Z</time>
      </trkpt>
      <trkpt lat="43.64466" lon="5.87765">
        <ele>469</ele>
        <time>2016-04-30T07:14:13.000Z</time>
      </trkpt>
      <trkpt lat="43.64466" lon="5.87786">
        <ele>467</ele>
        <time>2016-04-30T07:14:17.000Z</time>
      </trkpt>
      <trkpt lat="43.64466" lon="5.87807">
        <ele>466</ele>
        <time>2016-04-30T07:14:21.000Z</time>
      </trkpt>
      <trkpt lat="43.64466" lon="5.87831">
        <ele>465</ele>
        <time>2016-04-30T07:14:25.000Z</time>
      </trkpt>
      <trkpt lat="43.64463" lon="5.87854">
        <ele>465</ele>
        <time>2016-04-30T07:14:29.000Z</time>
      </trkpt>
      <trkpt lat="43.64463" lon="5.87854">
        <ele>465</ele>
        <time>2016-04-30T07:14:31.000Z</time>
      </trkpt>
      <trkpt lat="43.64465" lon="5.87874">
        <ele>465</ele>
        <time>2016-04-30T07:14:33.000Z</time>
      </trkpt>
      <trkpt lat="43.64465" lon="5.87874">
        <ele>465</ele>
        <time>2016-04-30T07:14:35.000Z</time>
      </trkpt>
      <trkpt lat="43.64465" lon="5.87874">
        <ele>465</ele>
        <time>2016-04-30T07:14:37.000Z</time>
      </trkpt>
      <trkpt lat="43.64465" lon="5.87874">
        <ele>465</ele>
        <time>2016-04-30T07:14:39.000Z</time>
      </trkpt>
      <trkpt lat="43.6446" lon="5.87918">
        <ele>464</ele>
        <time>2016-04-30T07:14:41.000Z</time>
      </trkpt>
      <trkpt lat="43.6445" lon="5.87938">
        <ele>463</ele>
        <time>2016-04-30T07:14:45.000Z</time>
      </trkpt>
      <trkpt lat="43.64447" lon="5.87961">
        <ele>462</ele>
        <time>2016-04-30T07:14:49.000Z</time>
      </trkpt>
      <trkpt lat="43.64452" lon="5.87984">
        <ele>462</ele>
        <time>2016-04-30T07:14:53.000Z</time>
      </trkpt>
      <trkpt lat="43.64452" lon="5.87984">
        <ele>462</ele>
        <time>2016-04-30T07:14:57.000Z</time>
      </trkpt>
      <trkpt lat="43.64452" lon="5.87984">
        <ele>462</ele>
        <time>2016-04-30T07:14:59.000Z</time>
      </trkpt>
      <trkpt lat="43.64452" lon="5.87984">
        <ele>462</ele>
        <time>2016-04-30T07:15:01.000Z</time>
      </trkpt>
      <trkpt lat="43.64452" lon="5.87984">
        <ele>462</ele>
        <time>2016-04-30T07:15:03.000Z</time>
      </trkpt>
      <trkpt lat="43.64438" lon="5.88">
        <ele>463</ele>
        <time>2016-04-30T07:15:07.000Z</time>
      </trkpt>
      <trkpt lat="43.64428" lon="5.88007">
        <ele>464</ele>
        <time>2016-04-30T07:15:09.000Z</time>
      </trkpt>
      <trkpt lat="43.64419" lon="5.88012">
        <ele>464</ele>
        <time>2016-04-30T07:15:11.000Z</time>
      </trkpt>
      <trkpt lat="43.64419" lon="5.88012">
        <ele>464</ele>
        <time>2016-04-30T07:15:13.000Z</time>
      </trkpt>
      <trkpt lat="43.64419" lon="5.88012">
        <ele>464</ele>
        <time>2016-04-30T07:15:15.000Z</time>
      </trkpt>
      <trkpt lat="43.64419" lon="5.88012">
        <ele>464</ele>
        <time>2016-04-30T07:15:17.000Z</time>
      </trkpt>
      <trkpt lat="43.64419" lon="5.88012">
        <ele>464</ele>
        <time>2016-04-30T07:15:19.000Z</time>
      </trkpt>
      <trkpt lat="43.64419" lon="5.88012">
        <ele>464</ele>
        <time>2016-04-30T07:15:21.000Z</time>
      </trkpt>
      <trkpt lat="43.64419" lon="5.88012">
        <ele>464</ele>
        <time>2016-04-30T07:15:23.000Z</time>
      </trkpt>
      <trkpt lat="43.64419" lon="5.88012">
        <ele>464</ele>
        <time>2016-04-30T07:15:25.000Z</time>
      </trkpt>
      <trkpt lat="43.64402" lon="5.88038">
        <ele>465</ele>
        <time>2016-04-30T07:15:29.000Z</time>
      </trkpt>
      <trkpt lat="43.64393" lon="5.88056">
        <ele>465</ele>
        <time>2016-04-30T07:15:31.000Z</time>
      </trkpt>
      <trkpt lat="43.64388" lon="5.8807">
        <ele>465</ele>
        <time>2016-04-30T07:15:33.000Z</time>
      </trkpt>
      <trkpt lat="43.64384" lon="5.88081">
        <ele>465</ele>
        <time>2016-04-30T07:15:35.000Z</time>
      </trkpt>
      <trkpt lat="43.64382" lon="5.88091">
        <ele>465</ele>
        <time>2016-04-30T07:15:37.000Z</time>
      </trkpt>
      <trkpt lat="43.64378" lon="5.8811">
        <ele>465</ele>
        <time>2016-04-30T07:15:39.000Z</time>
      </trkpt>
      <trkpt lat="43.64372" lon="5.88127">
        <ele>465</ele>
        <time>2016-04-30T07:15:43.000Z</time>
      </trkpt>
      <trkpt lat="43.64368" lon="5.88145">
        <ele>465</ele>
        <time>2016-04-30T07:15:47.000Z</time>
      </trkpt>
      <trkpt lat="43.64367" lon="5.88164">
        <ele>464</ele>
        <time>2016-04-30T07:15:51.000Z</time>
      </trkpt>
      <trkpt lat="43.64366" lon="5.88184">
        <ele>464</ele>
        <time>2016-04-30T07:15:55.000Z</time>
      </trkpt>
      <trkpt lat="43.64364" lon="5.88204">
        <ele>463</ele>
        <time>2016-04-30T07:15:59.000Z</time>
      </trkpt>
      <trkpt lat="43.6436" lon="5.88224">
        <ele>463</ele>
        <time>2016-04-30T07:16:03.000Z</time>
      </trkpt>
      <trkpt lat="43.64351" lon="5.88243">
        <ele>463</ele>
        <time>2016-04-30T07:16:07.000Z</time>
      </trkpt>
      <trkpt lat="43.64342" lon="5.88258">
        <ele>462</ele>
        <time>2016-04-30T07:16:11.000Z</time>
      </trkpt>
      <trkpt lat="43.64342" lon="5.88258">
        <ele>462</ele>
        <time>2016-04-30T07:16:13.000Z</time>
      </trkpt>
      <trkpt lat="43.64342" lon="5.88258">
        <ele>462</ele>
        <time>2016-04-30T07:16:15.000Z</time>
      </trkpt>
      <trkpt lat="43.64342" lon="5.88258">
        <ele>462</ele>
        <time>2016-04-30T07:16:17.000Z</time>
      </trkpt>
      <trkpt lat="43.64342" lon="5.88258">
        <ele>462</ele>
        <time>2016-04-30T07:16:19.000Z</time>
      </trkpt>
      <trkpt lat="43.64342" lon="5.88258">
        <ele>462</ele>
        <time>2016-04-30T07:16:21.000Z</time>
      </trkpt>
      <trkpt lat="43.64342" lon="5.88258">
        <ele>462</ele>
        <time>2016-04-30T07:16:23.000Z</time>
      </trkpt>
      <trkpt lat="43.64342" lon="5.88258">
        <ele>462</ele>
        <time>2016-04-30T07:16:25.000Z</time>
      </trkpt>
      <trkpt lat="43.64342" lon="5.88258">
        <ele>462</ele>
        <time>2016-04-30T07:16:27.000Z</time>
      </trkpt>
      <trkpt lat="43.64342" lon="5.88258">
        <ele>462</ele>
        <time>2016-04-30T07:16:29.000Z</time>
      </trkpt>
      <trkpt lat="43.64342" lon="5.88258">
        <ele>462</ele>
        <time>2016-04-30T07:16:31.000Z</time>
      </trkpt>
      <trkpt lat="43.64342" lon="5.88258">
        <ele>462</ele>
        <time>2016-04-30T07:16:33.000Z</time>
      </trkpt>
      <trkpt lat="43.64342" lon="5.88258">
        <ele>462</ele>
        <time>2016-04-30T07:16:35.000Z</time>
      </trkpt>
      <trkpt lat="43.64342" lon="5.88258">
        <ele>462</ele>
        <time>2016-04-30T07:16:37.000Z</time>
      </trkpt>
      <trkpt lat="43.64342" lon="5.88258">
        <ele>462</ele>
        <time>2016-04-30T07:16:39.000Z</time>
      </trkpt>
      <trkpt lat="43.64342" lon="5.88258">
        <ele>462</ele>
        <time>2016-04-30T07:16:41.000Z</time>
      </trkpt>
      <trkpt lat="43.64342" lon="5.88258">
        <ele>462</ele>
        <time>2016-04-30T07:16:43.000Z</time>
      </trkpt>
      <trkpt lat="43.64342" lon="5.88258">
        <ele>462</ele>
        <time>2016-04-30T07:16:45.000Z</time>
      </trkpt>
      <trkpt lat="43.64342" lon="5.88258">
        <ele>462</ele>
        <time>2016-04-30T07:16:47.000Z</time>
      </trkpt>
      <trkpt lat="43.64342" lon="5.88258">
        <ele>462</ele>
        <time>2016-04-30T07:16:49.000Z</time>
      </trkpt>
      <trkpt lat="43.64342" lon="5.88258">
        <ele>462</ele>
        <time>2016-04-30T07:16:51.000Z</time>
      </trkpt>
      <trkpt lat="43.64342" lon="5.88258">
        <ele>462</ele>
        <time>2016-04-30T07:16:53.000Z</time>
      </trkpt>
      <trkpt lat="43.64342" lon="5.88258">
        <ele>462</ele>
        <time>2016-04-30T07:16:55.000Z</time>
      </trkpt>
      <trkpt lat="43.64342" lon="5.88258">
        <ele>462</ele>
        <time>2016-04-30T07:16:57.000Z</time>
      </trkpt>
      <trkpt lat="43.64331" lon="5.8838">
        <ele>473</ele>
        <time>2016-04-30T07:17:07.000Z</time>
      </trkpt>
      <trkpt lat="43.64327" lon="5.88446">
        <ele>472</ele>
        <time>2016-04-30T07:17:09.000Z</time>
      </trkpt>
      <trkpt lat="43.64326" lon="5.88484">
        <ele>472</ele>
        <time>2016-04-30T07:17:11.000Z</time>
      </trkpt>
      <trkpt lat="43.64326" lon="5.88507">
        <ele>471</ele>
        <time>2016-04-30T07:17:13.000Z</time>
      </trkpt>
      <trkpt lat="43.64326" lon="5.88524">
        <ele>471</ele>
        <time>2016-04-30T07:17:15.000Z</time>
      </trkpt>
      <trkpt lat="43.64328" lon="5.88551">
        <ele>471</ele>
        <time>2016-04-30T07:17:17.000Z</time>
      </trkpt>
      <trkpt lat="43.6433" lon="5.88572">
        <ele>471</ele>
        <time>2016-04-30T07:17:21.000Z</time>
      </trkpt>
      <trkpt lat="43.64333" lon="5.88595">
        <ele>469</ele>
        <time>2016-04-30T07:17:25.000Z</time>
      </trkpt>
      <trkpt lat="43.64337" lon="5.88617">
        <ele>468</ele>
        <time>2016-04-30T07:17:29.000Z</time>
      </trkpt>
      <trkpt lat="43.64337" lon="5.88617">
        <ele>468</ele>
        <time>2016-04-30T07:17:31.000Z</time>
      </trkpt>
      <trkpt lat="43.64342" lon="5.88638">
        <ele>468</ele>
        <time>2016-04-30T07:17:33.000Z</time>
      </trkpt>
      <trkpt lat="43.64349" lon="5.88658">
        <ele>468</ele>
        <time>2016-04-30T07:17:37.000Z</time>
      </trkpt>
      <trkpt lat="43.64355" lon="5.88678">
        <ele>468</ele>
        <time>2016-04-30T07:17:41.000Z</time>
      </trkpt>
      <trkpt lat="43.64355" lon="5.88678">
        <ele>468</ele>
        <time>2016-04-30T07:17:43.000Z</time>
      </trkpt>
      <trkpt lat="43.64355" lon="5.88678">
        <ele>468</ele>
        <time>2016-04-30T07:17:45.000Z</time>
      </trkpt>
      <trkpt lat="43.64355" lon="5.88678">
        <ele>468</ele>
        <time>2016-04-30T07:17:47.000Z</time>
      </trkpt>
      <trkpt lat="43.64355" lon="5.88678">
        <ele>468</ele>
        <time>2016-04-30T07:17:49.000Z</time>
      </trkpt>
      <trkpt lat="43.64355" lon="5.88678">
        <ele>468</ele>
        <time>2016-04-30T07:17:51.000Z</time>
      </trkpt>
      <trkpt lat="43.64355" lon="5.88678">
        <ele>468</ele>
        <time>2016-04-30T07:17:53.000Z</time>
      </trkpt>
      <trkpt lat="43.64355" lon="5.88678">
        <ele>468</ele>
        <time>2016-04-30T07:17:55.000Z</time>
      </trkpt>
      <trkpt lat="43.64376" lon="5.88762">
        <ele>466</ele>
        <time>2016-04-30T07:17:59.000Z</time>
      </trkpt>
      <trkpt lat="43.64376" lon="5.88762">
        <ele>466</ele>
        <time>2016-04-30T07:18:01.000Z</time>
      </trkpt>
      <trkpt lat="43.64381" lon="5.8878">
        <ele>465</ele>
        <time>2016-04-30T07:18:03.000Z</time>
      </trkpt>
      <trkpt lat="43.64381" lon="5.8878">
        <ele>465</ele>
        <time>2016-04-30T07:18:05.000Z</time>
      </trkpt>
      <trkpt lat="43.64381" lon="5.8878">
        <ele>465</ele>
        <time>2016-04-30T07:18:07.000Z</time>
      </trkpt>
      <trkpt lat="43.64393" lon="5.88805">
        <ele>464</ele>
        <time>2016-04-30T07:18:09.000Z</time>
      </trkpt>
      <trkpt lat="43.64397" lon="5.88819">
        <ele>464</ele>
        <time>2016-04-30T07:18:11.000Z</time>
      </trkpt>
      <trkpt lat="43.64397" lon="5.88833">
        <ele>463</ele>
        <time>2016-04-30T07:18:13.000Z</time>
      </trkpt>
      <trkpt lat="43.64402" lon="5.88857">
        <ele>464</ele>
        <time>2016-04-30T07:18:17.000Z</time>
      </trkpt>
      <trkpt lat="43.64407" lon="5.88869">
        <ele>462</ele>
        <time>2016-04-30T07:18:19.000Z</time>
      </trkpt>
      <trkpt lat="43.6441" lon="5.88881">
        <ele>461</ele>
        <time>2016-04-30T07:18:21.000Z</time>
      </trkpt>
      <trkpt lat="43.64418" lon="5.88905">
        <ele>461</ele>
        <time>2016-04-30T07:18:25.000Z</time>
      </trkpt>
      <trkpt lat="43.64423" lon="5.88916">
        <ele>461</ele>
        <time>2016-04-30T07:18:27.000Z</time>
      </trkpt>
      <trkpt lat="43.64431" lon="5.88926">
        <ele>460</ele>
        <time>2016-04-30T07:18:29.000Z</time>
      </trkpt>
      <trkpt lat="43.64438" lon="5.88935">
        <ele>460</ele>
        <time>2016-04-30T07:18:31.000Z</time>
      </trkpt>
      <trkpt lat="43.64446" lon="5.88945">
        <ele>460</ele>
        <time>2016-04-30T07:18:33.000Z</time>
      </trkpt>
      <trkpt lat="43.64453" lon="5.88954">
        <ele>460</ele>
        <time>2016-04-30T07:18:35.000Z</time>
      </trkpt>
      <trkpt lat="43.64458" lon="5.88967">
        <ele>459</ele>
        <time>2016-04-30T07:18:37.000Z</time>
      </trkpt>
      <trkpt lat="43.64462" lon="5.88979">
        <ele>460</ele>
        <time>2016-04-30T07:18:39.000Z</time>
      </trkpt>
      <trkpt lat="43.64466" lon="5.88991">
        <ele>460</ele>
        <time>2016-04-30T07:18:41.000Z</time>
      </trkpt>
      <trkpt lat="43.64466" lon="5.88991">
        <ele>460</ele>
        <time>2016-04-30T07:18:43.000Z</time>
      </trkpt>
      <trkpt lat="43.64466" lon="5.88991">
        <ele>460</ele>
        <time>2016-04-30T07:18:45.000Z</time>
      </trkpt>
      <trkpt lat="43.64466" lon="5.88991">
        <ele>460</ele>
        <time>2016-04-30T07:18:47.000Z</time>
      </trkpt>
      <trkpt lat="43.64466" lon="5.88991">
        <ele>460</ele>
        <time>2016-04-30T07:18:49.000Z</time>
      </trkpt>
      <trkpt lat="43.64466" lon="5.88991">
        <ele>460</ele>
        <time>2016-04-30T07:18:51.000Z</time>
      </trkpt>
      <trkpt lat="43.64466" lon="5.88991">
        <ele>460</ele>
        <time>2016-04-30T07:18:53.000Z</time>
      </trkpt>
      <trkpt lat="43.64466" lon="5.88991">
        <ele>460</ele>
        <time>2016-04-30T07:18:55.000Z</time>
      </trkpt>
      <trkpt lat="43.64466" lon="5.88991">
        <ele>460</ele>
        <time>2016-04-30T07:18:57.000Z</time>
      </trkpt>
      <trkpt lat="43.64466" lon="5.88991">
        <ele>460</ele>
        <time>2016-04-30T07:18:59.000Z</time>
      </trkpt>
      <trkpt lat="43.64466" lon="5.88991">
        <ele>460</ele>
        <time>2016-04-30T07:19:01.000Z</time>
      </trkpt>
      <trkpt lat="43.64466" lon="5.88991">
        <ele>460</ele>
        <time>2016-04-30T07:19:03.000Z</time>
      </trkpt>
      <trkpt lat="43.64466" lon="5.88991">
        <ele>460</ele>
        <time>2016-04-30T07:19:05.000Z</time>
      </trkpt>
      <trkpt lat="43.64466" lon="5.88991">
        <ele>460</ele>
        <time>2016-04-30T07:19:07.000Z</time>
      </trkpt>
      <trkpt lat="43.64466" lon="5.88991">
        <ele>460</ele>
        <time>2016-04-30T07:19:09.000Z</time>
      </trkpt>
      <trkpt lat="43.64466" lon="5.88991">
        <ele>460</ele>
        <time>2016-04-30T07:19:11.000Z</time>
      </trkpt>
      <trkpt lat="43.64466" lon="5.88991">
        <ele>460</ele>
        <time>2016-04-30T07:19:13.000Z</time>
      </trkpt>
      <trkpt lat="43.64466" lon="5.88991">
        <ele>460</ele>
        <time>2016-04-30T07:19:15.000Z</time>
      </trkpt>
      <trkpt lat="43.64466" lon="5.88991">
        <ele>460</ele>
        <time>2016-04-30T07:19:17.000Z</time>
      </trkpt>
      <trkpt lat="43.64466" lon="5.88991">
        <ele>460</ele>
        <time>2016-04-30T07:19:19.000Z</time>
      </trkpt>
      <trkpt lat="43.64466" lon="5.88991">
        <ele>460</ele>
        <time>2016-04-30T07:19:21.000Z</time>
      </trkpt>
      <trkpt lat="43.64466" lon="5.88991">
        <ele>460</ele>
        <time>2016-04-30T07:19:23.000Z</time>
      </trkpt>
      <trkpt lat="43.64466" lon="5.88991">
        <ele>460</ele>
        <time>2016-04-30T07:19:25.000Z</time>
      </trkpt>
      <trkpt lat="43.64466" lon="5.88991">
        <ele>460</ele>
        <time>2016-04-30T07:19:27.000Z</time>
      </trkpt>
      <trkpt lat="43.64466" lon="5.88991">
        <ele>460</ele>
        <time>2016-04-30T07:19:29.000Z</time>
      </trkpt>
      <trkpt lat="43.64466" lon="5.88991">
        <ele>460</ele>
        <time>2016-04-30T07:19:31.000Z</time>
      </trkpt>
      <trkpt lat="43.64466" lon="5.88991">
        <ele>460</ele>
        <time>2016-04-30T07:19:33.000Z</time>
      </trkpt>
      <trkpt lat="43.64466" lon="5.88991">
        <ele>460</ele>
        <time>2016-04-30T07:19:35.000Z</time>
      </trkpt>
      <trkpt lat="43.64466" lon="5.88991">
        <ele>460</ele>
        <time>2016-04-30T07:19:37.000Z</time>
      </trkpt>
      <trkpt lat="43.64466" lon="5.88991">
        <ele>460</ele>
        <time>2016-04-30T07:19:39.000Z</time>
      </trkpt>
      <trkpt lat="43.64466" lon="5.88991">
        <ele>460</ele>
        <time>2016-04-30T07:19:41.000Z</time>
      </trkpt>
      <trkpt lat="43.64466" lon="5.88991">
        <ele>460</ele>
        <time>2016-04-30T07:19:43.000Z</time>
      </trkpt>
      <trkpt lat="43.64466" lon="5.88991">
        <ele>460</ele>
        <time>2016-04-30T07:19:45.000Z</time>
      </trkpt>
      <trkpt lat="43.64466" lon="5.88991">
        <ele>460</ele>
        <time>2016-04-30T07:19:47.000Z</time>
      </trkpt>
      <trkpt lat="43.64466" lon="5.88991">
        <ele>460</ele>
        <time>2016-04-30T07:19:49.000Z</time>
      </trkpt>
      <trkpt lat="43.64466" lon="5.88991">
        <ele>460</ele>
        <time>2016-04-30T07:19:51.000Z</time>
      </trkpt>
      <trkpt lat="43.64466" lon="5.88991">
        <ele>460</ele>
        <time>2016-04-30T07:19:53.000Z</time>
      </trkpt>
      <trkpt lat="43.64466" lon="5.88991">
        <ele>460</ele>
        <time>2016-04-30T07:19:55.000Z</time>
      </trkpt>
      <trkpt lat="43.64466" lon="5.88991">
        <ele>460</ele>
        <time>2016-04-30T07:19:57.000Z</time>
      </trkpt>
      <trkpt lat="43.64466" lon="5.88991">
        <ele>460</ele>
        <time>2016-04-30T07:19:59.000Z</time>
      </trkpt>
      <trkpt lat="43.64466" lon="5.88991">
        <ele>460</ele>
        <time>2016-04-30T07:20:01.000Z</time>
      </trkpt>
      <trkpt lat="43.64466" lon="5.88991">
        <ele>460</ele>
        <time>2016-04-30T07:20:03.000Z</time>
      </trkpt>
      <trkpt lat="43.64466" lon="5.88991">
        <ele>460</ele>
        <time>2016-04-30T07:20:05.000Z</time>
      </trkpt>
      <trkpt lat="43.64466" lon="5.88991">
        <ele>460</ele>
        <time>2016-04-30T07:20:07.000Z</time>
      </trkpt>
      <trkpt lat="43.64466" lon="5.88991">
        <ele>460</ele>
        <time>2016-04-30T07:20:09.000Z</time>
      </trkpt>
      <trkpt lat="43.64466" lon="5.88991">
        <ele>460</ele>
        <time>2016-04-30T07:20:11.000Z</time>
      </trkpt>
      <trkpt lat="43.64542" lon="5.89211">
        <ele>466</ele>
        <time>2016-04-30T07:20:21.000Z</time>
      </trkpt>
      <trkpt lat="43.64582" lon="5.89325">
        <ele>466</ele>
        <time>2016-04-30T07:20:23.000Z</time>
      </trkpt>
      <trkpt lat="43.64603" lon="5.89386">
        <ele>466</ele>
        <time>2016-04-30T07:20:25.000Z</time>
      </trkpt>
      <trkpt lat="43.64614" lon="5.89421">
        <ele>466</ele>
        <time>2016-04-30T07:20:27.000Z</time>
      </trkpt>
      <trkpt lat="43.64621" lon="5.89443">
        <ele>466</ele>
        <time>2016-04-30T07:20:29.000Z</time>
      </trkpt>
      <trkpt lat="43.6463" lon="5.89472">
        <ele>466</ele>
        <time>2016-04-30T07:20:31.000Z</time>
      </trkpt>
      <trkpt lat="43.64636" lon="5.89488">
        <ele>467</ele>
        <time>2016-04-30T07:20:35.000Z</time>
      </trkpt>
      <trkpt lat="43.64636" lon="5.89488">
        <ele>467</ele>
        <time>2016-04-30T07:20:39.000Z</time>
      </trkpt>
      <trkpt lat="43.64636" lon="5.89488">
        <ele>467</ele>
        <time>2016-04-30T07:20:41.000Z</time>
      </trkpt>
      <trkpt lat="43.64636" lon="5.89488">
        <ele>467</ele>
        <time>2016-04-30T07:20:43.000Z</time>
      </trkpt>
      <trkpt lat="43.64636" lon="5.89488">
        <ele>467</ele>
        <time>2016-04-30T07:20:45.000Z</time>
      </trkpt>
      <trkpt lat="43.64636" lon="5.89488">
        <ele>467</ele>
        <time>2016-04-30T07:20:47.000Z</time>
      </trkpt>
      <trkpt lat="43.64636" lon="5.89488">
        <ele>467</ele>
        <time>2016-04-30T07:20:49.000Z</time>
      </trkpt>
      <trkpt lat="43.64636" lon="5.89488">
        <ele>467</ele>
        <time>2016-04-30T07:20:51.000Z</time>
      </trkpt>
      <trkpt lat="43.64636" lon="5.89488">
        <ele>467</ele>
        <time>2016-04-30T07:20:53.000Z</time>
      </trkpt>
      <trkpt lat="43.64636" lon="5.89488">
        <ele>467</ele>
        <time>2016-04-30T07:20:55.000Z</time>
      </trkpt>
      <trkpt lat="43.64636" lon="5.89488">
        <ele>467</ele>
        <time>2016-04-30T07:20:57.000Z</time>
      </trkpt>
      <trkpt lat="43.64636" lon="5.89488">
        <ele>467</ele>
        <time>2016-04-30T07:20:59.000Z</time>
      </trkpt>
      <trkpt lat="43.64636" lon="5.89488">
        <ele>467</ele>
        <time>2016-04-30T07:21:01.000Z</time>
      </trkpt>
      <trkpt lat="43.64636" lon="5.89488">
        <ele>467</ele>
        <time>2016-04-30T07:21:03.000Z</time>
      </trkpt>
      <trkpt lat="43.64636" lon="5.89488">
        <ele>467</ele>
        <time>2016-04-30T07:21:05.000Z</time>
      </trkpt>
      <trkpt lat="43.64636" lon="5.89488">
        <ele>467</ele>
        <time>2016-04-30T07:21:07.000Z</time>
      </trkpt>
      <trkpt lat="43.64636" lon="5.89488">
        <ele>467</ele>
        <time>2016-04-30T07:21:09.000Z</time>
      </trkpt>
      <trkpt lat="43.64636" lon="5.89488">
        <ele>467</ele>
        <time>2016-04-30T07:21:11.000Z</time>
      </trkpt>
      <trkpt lat="43.64636" lon="5.89488">
        <ele>467</ele>
        <time>2016-04-30T07:21:13.000Z</time>
      </trkpt>
      <trkpt lat="43.64636" lon="5.89488">
        <ele>467</ele>
        <time>2016-04-30T07:21:15.000Z</time>
      </trkpt>
      <trkpt lat="43.64636" lon="5.89488">
        <ele>467</ele>
        <time>2016-04-30T07:21:17.000Z</time>
      </trkpt>
      <trkpt lat="43.64636" lon="5.89488">
        <ele>467</ele>
        <time>2016-04-30T07:21:23.000Z</time>
      </trkpt>
      <trkpt lat="43.64636" lon="5.89488">
        <ele>467</ele>
        <time>2016-04-30T07:21:25.000Z</time>
      </trkpt>
      <trkpt lat="43.64636" lon="5.89488">
        <ele>467</ele>
        <time>2016-04-30T07:21:27.000Z</time>
      </trkpt>
      <trkpt lat="43.64636" lon="5.89488">
        <ele>467</ele>
        <time>2016-04-30T07:21:29.000Z</time>
      </trkpt>
      <trkpt lat="43.64636" lon="5.89488">
        <ele>467</ele>
        <time>2016-04-30T07:21:31.000Z</time>
      </trkpt>
      <trkpt lat="43.64636" lon="5.89488">
        <ele>467</ele>
        <time>2016-04-30T07:21:33.000Z</time>
      </trkpt>
      <trkpt lat="43.64636" lon="5.89488">
        <ele>467</ele>
        <time>2016-04-30T07:21:35.000Z</time>
      </trkpt>
      <trkpt lat="43.64636" lon="5.89488">
        <ele>467</ele>
        <time>2016-04-30T07:21:37.000Z</time>
      </trkpt>
      <trkpt lat="43.64636" lon="5.89488">
        <ele>467</ele>
        <time>2016-04-30T07:21:39.000Z</time>
      </trkpt>
      <trkpt lat="43.64636" lon="5.89488">
        <ele>467</ele>
        <time>2016-04-30T07:21:41.000Z</time>
      </trkpt>
      <trkpt lat="43.64636" lon="5.89488">
        <ele>467</ele>
        <time>2016-04-30T07:21:43.000Z</time>
      </trkpt>
      <trkpt lat="43.64636" lon="5.89488">
        <ele>467</ele>
        <time>2016-04-30T07:21:45.000Z</time>
      </trkpt>
      <trkpt lat="43.64636" lon="5.89488">
        <ele>467</ele>
        <time>2016-04-30T07:21:47.000Z</time>
      </trkpt>
      <trkpt lat="43.64636" lon="5.89488">
        <ele>467</ele>
        <time>2016-04-30T07:21:49.000Z</time>
      </trkpt>
      <trkpt lat="43.64636" lon="5.89488">
        <ele>467</ele>
        <time>2016-04-30T07:21:51.000Z</time>
      </trkpt>
      <trkpt lat="43.64708" lon="5.89599">
        <ele>475</ele>
        <time>2016-04-30T07:21:53.000Z</time>
      </trkpt>
      <trkpt lat="43.64747" lon="5.89656">
        <ele>475</ele>
        <time>2016-04-30T07:21:55.000Z</time>
      </trkpt>
      <trkpt lat="43.64769" lon="5.89686">
        <ele>475</ele>
        <time>2016-04-30T07:21:57.000Z</time>
      </trkpt>
      <trkpt lat="43.64783" lon="5.89702">
        <ele>476</ele>
        <time>2016-04-30T07:21:59.000Z</time>
      </trkpt>
      <trkpt lat="43.64793" lon="5.89712">
        <ele>477</ele>
        <time>2016-04-30T07:22:01.000Z</time>
      </trkpt>
      <trkpt lat="43.64809" lon="5.89725">
        <ele>477</ele>
        <time>2016-04-30T07:22:03.000Z</time>
      </trkpt>
      <trkpt lat="43.6482" lon="5.89732">
        <ele>477</ele>
        <time>2016-04-30T07:22:07.000Z</time>
      </trkpt>
      <trkpt lat="43.64832" lon="5.89741">
        <ele>477</ele>
        <time>2016-04-30T07:22:11.000Z</time>
      </trkpt>
      <trkpt lat="43.64843" lon="5.89746">
        <ele>477</ele>
        <time>2016-04-30T07:22:15.000Z</time>
      </trkpt>
      <trkpt lat="43.64857" lon="5.89751">
        <ele>478</ele>
        <time>2016-04-30T07:22:19.000Z</time>
      </trkpt>
      <trkpt lat="43.64869" lon="5.89759">
        <ele>478</ele>
        <time>2016-04-30T07:22:23.000Z</time>
      </trkpt>
      <trkpt lat="43.6488" lon="5.8977">
        <ele>478</ele>
        <time>2016-04-30T07:22:27.000Z</time>
      </trkpt>
      <trkpt lat="43.6488" lon="5.8977">
        <ele>478</ele>
        <time>2016-04-30T07:22:31.000Z</time>
      </trkpt>
      <trkpt lat="43.6488" lon="5.8977">
        <ele>478</ele>
        <time>2016-04-30T07:22:33.000Z</time>
      </trkpt>
      <trkpt lat="43.6488" lon="5.8977">
        <ele>478</ele>
        <time>2016-04-30T07:22:35.000Z</time>
      </trkpt>
      <trkpt lat="43.64919" lon="5.8979">
        <ele>475</ele>
        <time>2016-04-30T07:22:39.000Z</time>
      </trkpt>
      <trkpt lat="43.64928" lon="5.89786">
        <ele>474</ele>
        <time>2016-04-30T07:22:41.000Z</time>
      </trkpt>
      <trkpt lat="43.64944" lon="5.89781">
        <ele>472</ele>
        <time>2016-04-30T07:22:45.000Z</time>
      </trkpt>
      <trkpt lat="43.64952" lon="5.89776">
        <ele>471</ele>
        <time>2016-04-30T07:22:47.000Z</time>
      </trkpt>
      <trkpt lat="43.64963" lon="5.8977">
        <ele>471</ele>
        <time>2016-04-30T07:22:49.000Z</time>
      </trkpt>
      <trkpt lat="43.64975" lon="5.8976">
        <ele>470</ele>
        <time>2016-04-30T07:22:51.000Z</time>
      </trkpt>
      <trkpt lat="43.64988" lon="5.89757">
        <ele>469</ele>
        <time>2016-04-30T07:22:53.000Z</time>
      </trkpt>
      <trkpt lat="43.65001" lon="5.89754">
        <ele>467</ele>
        <time>2016-04-30T07:22:55.000Z</time>
      </trkpt>
      <trkpt lat="43.65015" lon="5.89755">
        <ele>467</ele>
        <time>2016-04-30T07:22:57.000Z</time>
      </trkpt>
      <trkpt lat="43.6503" lon="5.89759">
        <ele>466</ele>
        <time>2016-04-30T07:22:59.000Z</time>
      </trkpt>
      <trkpt lat="43.65044" lon="5.89762">
        <ele>465</ele>
        <time>2016-04-30T07:23:01.000Z</time>
      </trkpt>
      <trkpt lat="43.65054" lon="5.8977">
        <ele>465</ele>
        <time>2016-04-30T07:23:03.000Z</time>
      </trkpt>
      <trkpt lat="43.6506" lon="5.8978">
        <ele>465</ele>
        <time>2016-04-30T07:23:05.000Z</time>
      </trkpt>
      <trkpt lat="43.6506" lon="5.8978">
        <ele>465</ele>
        <time>2016-04-30T07:23:07.000Z</time>
      </trkpt>
      <trkpt lat="43.6506" lon="5.8978">
        <ele>465</ele>
        <time>2016-04-30T07:23:09.000Z</time>
      </trkpt>
      <trkpt lat="43.6506" lon="5.8978">
        <ele>465</ele>
        <time>2016-04-30T07:23:11.000Z</time>
      </trkpt>
      <trkpt lat="43.6506" lon="5.8978">
        <ele>465</ele>
        <time>2016-04-30T07:23:13.000Z</time>
      </trkpt>
      <trkpt lat="43.6506" lon="5.8978">
        <ele>465</ele>
        <time>2016-04-30T07:23:19.000Z</time>
      </trkpt>
      <trkpt lat="43.6506" lon="5.8978">
        <ele>465</ele>
        <time>2016-04-30T07:23:21.000Z</time>
      </trkpt>
      <trkpt lat="43.6506" lon="5.8978">
        <ele>465</ele>
        <time>2016-04-30T07:23:23.000Z</time>
      </trkpt>
      <trkpt lat="43.6506" lon="5.8978">
        <ele>465</ele>
        <time>2016-04-30T07:23:25.000Z</time>
      </trkpt>
      <trkpt lat="43.6506" lon="5.8978">
        <ele>465</ele>
        <time>2016-04-30T07:23:27.000Z</time>
      </trkpt>
      <trkpt lat="43.6506" lon="5.8978">
        <ele>465</ele>
        <time>2016-04-30T07:23:29.000Z</time>
      </trkpt>
      <trkpt lat="43.6506" lon="5.8978">
        <ele>465</ele>
        <time>2016-04-30T07:23:31.000Z</time>
      </trkpt>
      <trkpt lat="43.6506" lon="5.8978">
        <ele>465</ele>
        <time>2016-04-30T07:23:33.000Z</time>
      </trkpt>
      <trkpt lat="43.6506" lon="5.8978">
        <ele>465</ele>
        <time>2016-04-30T07:23:35.000Z</time>
      </trkpt>
      <trkpt lat="43.6506" lon="5.8978">
        <ele>465</ele>
        <time>2016-04-30T07:23:37.000Z</time>
      </trkpt>
      <trkpt lat="43.6506" lon="5.8978">
        <ele>465</ele>
        <time>2016-04-30T07:23:39.000Z</time>
      </trkpt>
      <trkpt lat="43.6506" lon="5.8978">
        <ele>465</ele>
        <time>2016-04-30T07:23:41.000Z</time>
      </trkpt>
      <trkpt lat="43.6506" lon="5.8978">
        <ele>465</ele>
        <time>2016-04-30T07:23:43.000Z</time>
      </trkpt>
      <trkpt lat="43.6506" lon="5.8978">
        <ele>465</ele>
        <time>2016-04-30T07:23:45.000Z</time>
      </trkpt>
      <trkpt lat="43.6506" lon="5.8978">
        <ele>465</ele>
        <time>2016-04-30T07:23:47.000Z</time>
      </trkpt>
      <trkpt lat="43.6506" lon="5.8978">
        <ele>465</ele>
        <time>2016-04-30T07:23:49.000Z</time>
      </trkpt>
      <trkpt lat="43.6506" lon="5.8978">
        <ele>465</ele>
        <time>2016-04-30T07:23:51.000Z</time>
      </trkpt>
      <trkpt lat="43.6506" lon="5.8978">
        <ele>465</ele>
        <time>2016-04-30T07:23:53.000Z</time>
      </trkpt>
      <trkpt lat="43.6506" lon="5.8978">
        <ele>465</ele>
        <time>2016-04-30T07:23:55.000Z</time>
      </trkpt>
      <trkpt lat="43.6506" lon="5.8978">
        <ele>465</ele>
        <time>2016-04-30T07:23:57.000Z</time>
      </trkpt>
      <trkpt lat="43.6506" lon="5.8978">
        <ele>465</ele>
        <time>2016-04-30T07:23:59.000Z</time>
      </trkpt>
      <trkpt lat="43.6506" lon="5.8978">
        <ele>465</ele>
        <time>2016-04-30T07:24:01.000Z</time>
      </trkpt>
      <trkpt lat="43.6506" lon="5.8978">
        <ele>465</ele>
        <time>2016-04-30T07:24:03.000Z</time>
      </trkpt>
      <trkpt lat="43.6506" lon="5.8978">
        <ele>465</ele>
        <time>2016-04-30T07:24:05.000Z</time>
      </trkpt>
      <trkpt lat="43.6506" lon="5.8978">
        <ele>465</ele>
        <time>2016-04-30T07:24:07.000Z</time>
      </trkpt>
      <trkpt lat="43.6506" lon="5.8978">
        <ele>465</ele>
        <time>2016-04-30T07:24:09.000Z</time>
      </trkpt>
      <trkpt lat="43.6506" lon="5.8978">
        <ele>465</ele>
        <time>2016-04-30T07:24:11.000Z</time>
      </trkpt>
      <trkpt lat="43.6506" lon="5.8978">
        <ele>465</ele>
        <time>2016-04-30T07:24:13.000Z</time>
      </trkpt>
      <trkpt lat="43.6506" lon="5.8978">
        <ele>465</ele>
        <time>2016-04-30T07:24:15.000Z</time>
      </trkpt>
      <trkpt lat="43.6506" lon="5.8978">
        <ele>465</ele>
        <time>2016-04-30T07:24:17.000Z</time>
      </trkpt>
      <trkpt lat="43.6506" lon="5.8978">
        <ele>465</ele>
        <time>2016-04-30T07:24:19.000Z</time>
      </trkpt>
      <trkpt lat="43.6506" lon="5.8978">
        <ele>465</ele>
        <time>2016-04-30T07:24:21.000Z</time>
      </trkpt>
      <trkpt lat="43.6506" lon="5.8978">
        <ele>465</ele>
        <time>2016-04-30T07:24:23.000Z</time>
      </trkpt>
      <trkpt lat="43.6506" lon="5.8978">
        <ele>465</ele>
        <time>2016-04-30T07:24:25.000Z</time>
      </trkpt>
      <trkpt lat="43.6506" lon="5.8978">
        <ele>465</ele>
        <time>2016-04-30T07:24:27.000Z</time>
      </trkpt>
      <trkpt lat="43.6506" lon="5.8978">
        <ele>465</ele>
        <time>2016-04-30T07:24:29.000Z</time>
      </trkpt>
      <trkpt lat="43.6506" lon="5.8978">
        <ele>465</ele>
        <time>2016-04-30T07:24:31.000Z</time>
      </trkpt>
      <trkpt lat="43.6506" lon="5.8978">
        <ele>465</ele>
        <time>2016-04-30T07:24:37.000Z</time>
      </trkpt>
      <trkpt lat="43.6506" lon="5.8978">
        <ele>465</ele>
        <time>2016-04-30T07:24:39.000Z</time>
      </trkpt>
      <trkpt lat="43.6506" lon="5.8978">
        <ele>465</ele>
        <time>2016-04-30T07:24:41.000Z</time>
      </trkpt>
      <trkpt lat="43.6506" lon="5.8978">
        <ele>465</ele>
        <time>2016-04-30T07:24:43.000Z</time>
      </trkpt>
      <trkpt lat="43.6506" lon="5.8978">
        <ele>465</ele>
        <time>2016-04-30T07:24:45.000Z</time>
      </trkpt>
      <trkpt lat="43.6506" lon="5.8978">
        <ele>465</ele>
        <time>2016-04-30T07:24:47.000Z</time>
      </trkpt>
      <trkpt lat="43.6506" lon="5.8978">
        <ele>465</ele>
        <time>2016-04-30T07:24:49.000Z</time>
      </trkpt>
      <trkpt lat="43.6506" lon="5.8978">
        <ele>465</ele>
        <time>2016-04-30T07:24:51.000Z</time>
      </trkpt>
      <trkpt lat="43.6506" lon="5.8978">
        <ele>465</ele>
        <time>2016-04-30T07:24:53.000Z</time>
      </trkpt>
      <trkpt lat="43.6506" lon="5.8978">
        <ele>465</ele>
        <time>2016-04-30T07:24:55.000Z</time>
      </trkpt>
      <trkpt lat="43.6506" lon="5.8978">
        <ele>465</ele>
        <time>2016-04-30T07:24:57.000Z</time>
      </trkpt>
      <trkpt lat="43.6506" lon="5.8978">
        <ele>465</ele>
        <time>2016-04-30T07:24:59.000Z</time>
      </trkpt>
      <trkpt lat="43.6506" lon="5.8978">
        <ele>465</ele>
        <time>2016-04-30T07:25:01.000Z</time>
      </trkpt>
      <trkpt lat="43.6506" lon="5.8978">
        <ele>465</ele>
        <time>2016-04-30T07:25:03.000Z</time>
      </trkpt>
      <trkpt lat="43.6506" lon="5.8978">
        <ele>465</ele>
        <time>2016-04-30T07:25:05.000Z</time>
      </trkpt>
      <trkpt lat="43.6506" lon="5.8978">
        <ele>465</ele>
        <time>2016-04-30T07:25:07.000Z</time>
      </trkpt>
      <trkpt lat="43.6506" lon="5.8978">
        <ele>465</ele>
        <time>2016-04-30T07:25:09.000Z</time>
      </trkpt>
      <trkpt lat="43.6506" lon="5.8978">
        <ele>465</ele>
        <time>2016-04-30T07:25:11.000Z</time>
      </trkpt>
      <trkpt lat="43.6506" lon="5.8978">
        <ele>465</ele>
        <time>2016-04-30T07:25:13.000Z</time>
      </trkpt>
      <trkpt lat="43.6506" lon="5.8978">
        <ele>465</ele>
        <time>2016-04-30T07:25:15.000Z</time>
      </trkpt>
      <trkpt lat="43.6506" lon="5.8978">
        <ele>465</ele>
        <time>2016-04-30T07:25:17.000Z</time>
      </trkpt>
      <trkpt lat="43.6506" lon="5.8978">
        <ele>465</ele>
        <time>2016-04-30T07:25:19.000Z</time>
      </trkpt>
      <trkpt lat="43.6506" lon="5.8978">
        <ele>465</ele>
        <time>2016-04-30T07:25:21.000Z</time>
      </trkpt>
      <trkpt lat="43.6506" lon="5.8978">
        <ele>465</ele>
        <time>2016-04-30T07:25:23.000Z</time>
      </trkpt>
      <trkpt lat="43.6506" lon="5.8978">
        <ele>465</ele>
        <time>2016-04-30T07:25:25.000Z</time>
      </trkpt>
      <trkpt lat="43.6506" lon="5.8978">
        <ele>465</ele>
        <time>2016-04-30T07:25:27.000Z</time>
      </trkpt>
      <trkpt lat="43.6506" lon="5.8978">
        <ele>465</ele>
        <time>2016-04-30T07:25:29.000Z</time>
      </trkpt>
      <trkpt lat="43.6506" lon="5.8978">
        <ele>465</ele>
        <time>2016-04-30T07:25:31.000Z</time>
      </trkpt>
      <trkpt lat="43.6506" lon="5.8978">
        <ele>465</ele>
        <time>2016-04-30T07:25:33.000Z</time>
      </trkpt>
      <trkpt lat="43.6506" lon="5.8978">
        <ele>465</ele>
        <time>2016-04-30T07:25:35.000Z</time>
      </trkpt>
      <trkpt lat="43.6506" lon="5.8978">
        <ele>465</ele>
        <time>2016-04-30T07:25:37.000Z</time>
      </trkpt>
      <trkpt lat="43.6506" lon="5.8978">
        <ele>465</ele>
        <time>2016-04-30T07:25:39.000Z</time>
      </trkpt>
      <trkpt lat="43.6506" lon="5.8978">
        <ele>465</ele>
        <time>2016-04-30T07:25:41.000Z</time>
      </trkpt>
      <trkpt lat="43.6506" lon="5.8978">
        <ele>465</ele>
        <time>2016-04-30T07:25:43.000Z</time>
      </trkpt>
      <trkpt lat="43.6506" lon="5.8978">
        <ele>465</ele>
        <time>2016-04-30T07:25:45.000Z</time>
      </trkpt>
      <trkpt lat="43.6506" lon="5.8978">
        <ele>465</ele>
        <time>2016-04-30T07:25:47.000Z</time>
      </trkpt>
      <trkpt lat="43.6506" lon="5.8978">
        <ele>465</ele>
        <time>2016-04-30T07:25:49.000Z</time>
      </trkpt>
      <trkpt lat="43.6506" lon="5.8978">
        <ele>465</ele>
        <time>2016-04-30T07:25:51.000Z</time>
      </trkpt>
      <trkpt lat="43.6506" lon="5.8978">
        <ele>465</ele>
        <time>2016-04-30T07:25:53.000Z</time>
      </trkpt>
      <trkpt lat="43.6506" lon="5.8978">
        <ele>465</ele>
        <time>2016-04-30T07:25:55.000Z</time>
      </trkpt>
      <trkpt lat="43.6506" lon="5.8978">
        <ele>465</ele>
        <time>2016-04-30T07:25:57.000Z</time>
      </trkpt>
      <trkpt lat="43.6506" lon="5.8978">
        <ele>465</ele>
        <time>2016-04-30T07:25:59.000Z</time>
      </trkpt>
      <trkpt lat="43.6506" lon="5.8978">
        <ele>465</ele>
        <time>2016-04-30T07:26:01.000Z</time>
      </trkpt>
      <trkpt lat="43.6506" lon="5.8978">
        <ele>465</ele>
        <time>2016-04-30T07:26:03.000Z</time>
      </trkpt>
      <trkpt lat="43.6506" lon="5.8978">
        <ele>465</ele>
        <time>2016-04-30T07:26:05.000Z</time>
      </trkpt>
      <trkpt lat="43.6506" lon="5.8978">
        <ele>465</ele>
        <time>2016-04-30T07:26:07.000Z</time>
      </trkpt>
      <trkpt lat="43.6506" lon="5.8978">
        <ele>465</ele>
        <time>2016-04-30T07:26:09.000Z</time>
      </trkpt>
      <trkpt lat="43.6506" lon="5.8978">
        <ele>465</ele>
        <time>2016-04-30T07:26:11.000Z</time>
      </trkpt>
      <trkpt lat="43.6506" lon="5.8978">
        <ele>465</ele>
        <time>2016-04-30T07:26:13.000Z</time>
      </trkpt>
      <trkpt lat="43.6506" lon="5.8978">
        <ele>465</ele>
        <time>2016-04-30T07:26:15.000Z</time>
      </trkpt>
      <trkpt lat="43.6506" lon="5.8978">
        <ele>465</ele>
        <time>2016-04-30T07:26:17.000Z</time>
      </trkpt>
      <trkpt lat="43.6506" lon="5.8978">
        <ele>465</ele>
        <time>2016-04-30T07:26:19.000Z</time>
      </trkpt>
      <trkpt lat="43.6506" lon="5.8978">
        <ele>465</ele>
        <time>2016-04-30T07:26:21.000Z</time>
      </trkpt>
      <trkpt lat="43.6506" lon="5.8978">
        <ele>465</ele>
        <time>2016-04-30T07:26:23.000Z</time>
      </trkpt>
      <trkpt lat="43.6506" lon="5.8978">
        <ele>465</ele>
        <time>2016-04-30T07:26:25.000Z</time>
      </trkpt>
      <trkpt lat="43.6506" lon="5.8978">
        <ele>465</ele>
        <time>2016-04-30T07:26:27.000Z</time>
      </trkpt>
      <trkpt lat="43.65275" lon="5.89778">
        <ele>488</ele>
        <time>2016-04-30T07:26:31.000Z</time>
      </trkpt>
      <trkpt lat="43.65383" lon="5.89778">
        <ele>489</ele>
        <time>2016-04-30T07:26:33.000Z</time>
      </trkpt>
      <trkpt lat="43.65439" lon="5.89779">
        <ele>490</ele>
        <time>2016-04-30T07:26:35.000Z</time>
      </trkpt>
      <trkpt lat="43.65468" lon="5.8978">
        <ele>490</ele>
        <time>2016-04-30T07:26:37.000Z</time>
      </trkpt>
      <trkpt lat="43.65485" lon="5.89781">
        <ele>491</ele>
        <time>2016-04-30T07:26:39.000Z</time>
      </trkpt>
      <trkpt lat="43.65504" lon="5.89784">
        <ele>491</ele>
        <time>2016-04-30T07:26:41.000Z</time>
      </trkpt>
      <trkpt lat="43.65514" lon="5.89791">
        <ele>493</ele>
        <time>2016-04-30T07:26:49.000Z</time>
      </trkpt>
      <trkpt lat="43.65526" lon="5.89793">
        <ele>495</ele>
        <time>2016-04-30T07:26:57.000Z</time>
      </trkpt>
      <trkpt lat="43.65538" lon="5.89797">
        <ele>497</ele>
        <time>2016-04-30T07:27:05.000Z</time>
      </trkpt>
      <trkpt lat="43.65549" lon="5.89798">
        <ele>499</ele>
        <time>2016-04-30T07:27:13.000Z</time>
      </trkpt>
      <trkpt lat="43.65561" lon="5.89801">
        <ele>501</ele>
        <time>2016-04-30T07:27:21.000Z</time>
      </trkpt>
      <trkpt lat="43.6557" lon="5.898">
        <ele>501</ele>
        <time>2016-04-30T07:27:27.000Z</time>
      </trkpt>
      <trkpt lat="43.65581" lon="5.898">
        <ele>499</ele>
        <time>2016-04-30T07:27:33.000Z</time>
      </trkpt>
      <trkpt lat="43.65591" lon="5.89799">
        <ele>499</ele>
        <time>2016-04-30T07:27:39.000Z</time>
      </trkpt>
      <trkpt lat="43.65601" lon="5.89799">
        <ele>500</ele>
        <time>2016-04-30T07:27:45.000Z</time>
      </trkpt>
      <trkpt lat="43.65613" lon="5.89802">
        <ele>501</ele>
        <time>2016-04-30T07:27:53.000Z</time>
      </trkpt>
      <trkpt lat="43.65624" lon="5.89805">
        <ele>504</ele>
        <time>2016-04-30T07:28:01.000Z</time>
      </trkpt>
      <trkpt lat="43.6563" lon="5.89808">
        <ele>506</ele>
        <time>2016-04-30T07:28:09.000Z</time>
      </trkpt>
      <trkpt lat="43.65635" lon="5.89812">
        <ele>506</ele>
        <time>2016-04-30T07:28:13.000Z</time>
      </trkpt>
      <trkpt lat="43.65639" lon="5.89814">
        <ele>507</ele>
        <time>2016-04-30T07:28:15.000Z</time>
      </trkpt>
      <trkpt lat="43.65644" lon="5.89818">
        <ele>507</ele>
        <time>2016-04-30T07:28:19.000Z</time>
      </trkpt>
      <trkpt lat="43.65649" lon="5.89821">
        <ele>507</ele>
        <time>2016-04-30T07:28:23.000Z</time>
      </trkpt>
      <trkpt lat="43.65655" lon="5.89825">
        <ele>508</ele>
        <time>2016-04-30T07:28:27.000Z</time>
      </trkpt>
      <trkpt lat="43.65659" lon="5.89828">
        <ele>508</ele>
        <time>2016-04-30T07:28:29.000Z</time>
      </trkpt>
      <trkpt lat="43.65664" lon="5.89832">
        <ele>508</ele>
        <time>2016-04-30T07:28:33.000Z</time>
      </trkpt>
      <trkpt lat="43.65669" lon="5.89834">
        <ele>509</ele>
        <time>2016-04-30T07:28:35.000Z</time>
      </trkpt>
      <trkpt lat="43.65675" lon="5.89837">
        <ele>509</ele>
        <time>2016-04-30T07:28:39.000Z</time>
      </trkpt>
      <trkpt lat="43.6568" lon="5.8984">
        <ele>510</ele>
        <time>2016-04-30T07:28:41.000Z</time>
      </trkpt>
      <trkpt lat="43.65684" lon="5.89842">
        <ele>510</ele>
        <time>2016-04-30T07:28:43.000Z</time>
      </trkpt>
      <trkpt lat="43.6569" lon="5.89845">
        <ele>510</ele>
        <time>2016-04-30T07:28:47.000Z</time>
      </trkpt>
      <trkpt lat="43.65695" lon="5.89848">
        <ele>510</ele>
        <time>2016-04-30T07:28:49.000Z</time>
      </trkpt>
      <trkpt lat="43.657" lon="5.89851">
        <ele>511</ele>
        <time>2016-04-30T07:28:51.000Z</time>
      </trkpt>
      <trkpt lat="43.65706" lon="5.89854">
        <ele>511</ele>
        <time>2016-04-30T07:28:55.000Z</time>
      </trkpt>
      <trkpt lat="43.65711" lon="5.89857">
        <ele>512</ele>
        <time>2016-04-30T07:28:57.000Z</time>
      </trkpt>
      <trkpt lat="43.65715" lon="5.8986">
        <ele>512</ele>
        <time>2016-04-30T07:28:59.000Z</time>
      </trkpt>
      <trkpt lat="43.65721" lon="5.89864">
        <ele>513</ele>
        <time>2016-04-30T07:29:03.000Z</time>
      </trkpt>
      <trkpt lat="43.65726" lon="5.89868">
        <ele>513</ele>
        <time>2016-04-30T07:29:05.000Z</time>
      </trkpt>
      <trkpt lat="43.6573" lon="5.89872">
        <ele>513</ele>
        <time>2016-04-30T07:29:07.000Z</time>
      </trkpt>
      <trkpt lat="43.65734" lon="5.89877">
        <ele>513</ele>
        <time>2016-04-30T07:29:11.000Z</time>
      </trkpt>
      <trkpt lat="43.65739" lon="5.89881">
        <ele>514</ele>
        <time>2016-04-30T07:29:13.000Z</time>
      </trkpt>
      <trkpt lat="43.65739" lon="5.89881">
        <ele>514</ele>
        <time>2016-04-30T07:29:17.000Z</time>
      </trkpt>
      <trkpt lat="43.65739" lon="5.89881">
        <ele>514</ele>
        <time>2016-04-30T07:29:19.000Z</time>
      </trkpt>
      <trkpt lat="43.65739" lon="5.89881">
        <ele>514</ele>
        <time>2016-04-30T07:29:21.000Z</time>
      </trkpt>
      <trkpt lat="43.65739" lon="5.89881">
        <ele>514</ele>
        <time>2016-04-30T07:29:23.000Z</time>
      </trkpt>
      <trkpt lat="43.65739" lon="5.89881">
        <ele>514</ele>
        <time>2016-04-30T07:29:25.000Z</time>
      </trkpt>
      <trkpt lat="43.65739" lon="5.89881">
        <ele>514</ele>
        <time>2016-04-30T07:29:27.000Z</time>
      </trkpt>
      <trkpt lat="43.65739" lon="5.89881">
        <ele>514</ele>
        <time>2016-04-30T07:29:29.000Z</time>
      </trkpt>
      <trkpt lat="43.65739" lon="5.89881">
        <ele>514</ele>
        <time>2016-04-30T07:29:31.000Z</time>
      </trkpt>
      <trkpt lat="43.65739" lon="5.89881">
        <ele>514</ele>
        <time>2016-04-30T07:29:33.000Z</time>
      </trkpt>
      <trkpt lat="43.65739" lon="5.89881">
        <ele>514</ele>
        <time>2016-04-30T07:29:35.000Z</time>
      </trkpt>
      <trkpt lat="43.65739" lon="5.89881">
        <ele>514</ele>
        <time>2016-04-30T07:29:37.000Z</time>
      </trkpt>
      <trkpt lat="43.65739" lon="5.89881">
        <ele>514</ele>
        <time>2016-04-30T07:29:39.000Z</time>
      </trkpt>
      <trkpt lat="43.65739" lon="5.89881">
        <ele>514</ele>
        <time>2016-04-30T07:29:41.000Z</time>
      </trkpt>
      <trkpt lat="43.65739" lon="5.89881">
        <ele>514</ele>
        <time>2016-04-30T07:29:43.000Z</time>
      </trkpt>
      <trkpt lat="43.65739" lon="5.89881">
        <ele>514</ele>
        <time>2016-04-30T07:29:45.000Z</time>
      </trkpt>
      <trkpt lat="43.65739" lon="5.89881">
        <ele>514</ele>
        <time>2016-04-30T07:29:47.000Z</time>
      </trkpt>
      <trkpt lat="43.65739" lon="5.89881">
        <ele>514</ele>
        <time>2016-04-30T07:29:49.000Z</time>
      </trkpt>
      <trkpt lat="43.65739" lon="5.89881">
        <ele>514</ele>
        <time>2016-04-30T07:29:51.000Z</time>
      </trkpt>
      <trkpt lat="43.65739" lon="5.89881">
        <ele>514</ele>
        <time>2016-04-30T07:29:53.000Z</time>
      </trkpt>
      <trkpt lat="43.65739" lon="5.89881">
        <ele>514</ele>
        <time>2016-04-30T07:29:55.000Z</time>
      </trkpt>
      <trkpt lat="43.65786" lon="5.89899">
        <ele>522</ele>
        <time>2016-04-30T07:30:05.000Z</time>
      </trkpt>
      <trkpt lat="43.65812" lon="5.89909">
        <ele>521</ele>
        <time>2016-04-30T07:30:07.000Z</time>
      </trkpt>
      <trkpt lat="43.65827" lon="5.89913">
        <ele>521</ele>
        <time>2016-04-30T07:30:09.000Z</time>
      </trkpt>
      <trkpt lat="43.65836" lon="5.89916">
        <ele>521</ele>
        <time>2016-04-30T07:30:11.000Z</time>
      </trkpt>
      <trkpt lat="43.65843" lon="5.89918">
        <ele>521</ele>
        <time>2016-04-30T07:30:13.000Z</time>
      </trkpt>
      <trkpt lat="43.65853" lon="5.89921">
        <ele>521</ele>
        <time>2016-04-30T07:30:15.000Z</time>
      </trkpt>
      <trkpt lat="43.65865" lon="5.89927">
        <ele>521</ele>
        <time>2016-04-30T07:30:21.000Z</time>
      </trkpt>
      <trkpt lat="43.65874" lon="5.89925">
        <ele>519</ele>
        <time>2016-04-30T07:30:25.000Z</time>
      </trkpt>
      <trkpt lat="43.65884" lon="5.89924">
        <ele>519</ele>
        <time>2016-04-30T07:30:29.000Z</time>
      </trkpt>
      <trkpt lat="43.65895" lon="5.89921">
        <ele>518</ele>
        <time>2016-04-30T07:30:33.000Z</time>
      </trkpt>
      <trkpt lat="43.65907" lon="5.89917">
        <ele>518</ele>
        <time>2016-04-30T07:30:37.000Z</time>
      </trkpt>
      <trkpt lat="43.65917" lon="5.89911">
        <ele>516</ele>
        <time>2016-04-30T07:30:41.000Z</time>
      </trkpt>
      <trkpt lat="43.65917" lon="5.89911">
        <ele>516</ele>
        <time>2016-04-30T07:30:45.000Z</time>
      </trkpt>
      <trkpt lat="43.65917" lon="5.89911">
        <ele>516</ele>
        <time>2016-04-30T07:30:47.000Z</time>
      </trkpt>
      <trkpt lat="43.65917" lon="5.89911">
        <ele>516</ele>
        <time>2016-04-30T07:30:49.000Z</time>
      </trkpt>
      <trkpt lat="43.65926" lon="5.89922">
        <ele>516</ele>
        <time>2016-04-30T07:31:05.000Z</time>
      </trkpt>
      <trkpt lat="43.65928" lon="5.89937">
        <ele>514</ele>
        <time>2016-04-30T07:31:09.000Z</time>
      </trkpt>
      <trkpt lat="43.65932" lon="5.89963">
        <ele>512</ele>
        <time>2016-04-30T07:31:13.000Z</time>
      </trkpt>
      <trkpt lat="43.6593" lon="5.89979">
        <ele>510</ele>
        <time>2016-04-30T07:31:15.000Z</time>
      </trkpt>
      <trkpt lat="43.65925" lon="5.89998">
        <ele>508</ele>
        <time>2016-04-30T07:31:17.000Z</time>
      </trkpt>
      <trkpt lat="43.65922" lon="5.90017">
        <ele>507</ele>
        <time>2016-04-30T07:31:19.000Z</time>
      </trkpt>
      <trkpt lat="43.65915" lon="5.90035">
        <ele>505</ele>
        <time>2016-04-30T07:31:21.000Z</time>
      </trkpt>
      <trkpt lat="43.65911" lon="5.90053">
        <ele>505</ele>
        <time>2016-04-30T07:31:23.000Z</time>
      </trkpt>
      <trkpt lat="43.65903" lon="5.90068">
        <ele>505</ele>
        <time>2016-04-30T07:31:25.000Z</time>
      </trkpt>
      <trkpt lat="43.65898" lon="5.90084">
        <ele>504</ele>
        <time>2016-04-30T07:31:27.000Z</time>
      </trkpt>
      <trkpt lat="43.65891" lon="5.90098">
        <ele>503</ele>
        <time>2016-04-30T07:31:29.000Z</time>
      </trkpt>
      <trkpt lat="43.65886" lon="5.90111">
        <ele>503</ele>
        <time>2016-04-30T07:31:31.000Z</time>
      </trkpt>
      <trkpt lat="43.65881" lon="5.90124">
        <ele>503</ele>
        <time>2016-04-30T07:31:33.000Z</time>
      </trkpt>
      <trkpt lat="43.65881" lon="5.90124">
        <ele>503</ele>
        <time>2016-04-30T07:31:35.000Z</time>
      </trkpt>
      <trkpt lat="43.65881" lon="5.90124">
        <ele>503</ele>
        <time>2016-04-30T07:31:37.000Z</time>
      </trkpt>
      <trkpt lat="43.65881" lon="5.90124">
        <ele>503</ele>
        <time>2016-04-30T07:31:39.000Z</time>
      </trkpt>
      <trkpt lat="43.65881" lon="5.90124">
        <ele>503</ele>
        <time>2016-04-30T07:31:41.000Z</time>
      </trkpt>
      <trkpt lat="43.65852" lon="5.90201">
        <ele>499</ele>
        <time>2016-04-30T07:31:47.000Z</time>
      </trkpt>
      <trkpt lat="43.65847" lon="5.90215">
        <ele>498</ele>
        <time>2016-04-30T07:31:49.000Z</time>
      </trkpt>
      <trkpt lat="43.65842" lon="5.90228">
        <ele>497</ele>
        <time>2016-04-30T07:31:51.000Z</time>
      </trkpt>
      <trkpt lat="43.65842" lon="5.90228">
        <ele>497</ele>
        <time>2016-04-30T07:31:54.000Z</time>
      </trkpt>
      <trkpt lat="43.65842" lon="5.90228">
        <ele>497</ele>
        <time>2016-04-30T07:31:56.000Z</time>
      </trkpt>
      <trkpt lat="43.65842" lon="5.90228">
        <ele>497</ele>
        <time>2016-04-30T07:31:58.000Z</time>
      </trkpt>
      <trkpt lat="43.65842" lon="5.90228">
        <ele>497</ele>
        <time>2016-04-30T07:32:00.000Z</time>
      </trkpt>
      <trkpt lat="43.65842" lon="5.90228">
        <ele>497</ele>
        <time>2016-04-30T07:32:02.000Z</time>
      </trkpt>
      <trkpt lat="43.65842" lon="5.90228">
        <ele>497</ele>
        <time>2016-04-30T07:32:04.000Z</time>
      </trkpt>
      <trkpt lat="43.65842" lon="5.90228">
        <ele>497</ele>
        <time>2016-04-30T07:32:06.000Z</time>
      </trkpt>
      <trkpt lat="43.65842" lon="5.90228">
        <ele>497</ele>
        <time>2016-04-30T07:32:08.000Z</time>
      </trkpt>
      <trkpt lat="43.65842" lon="5.90228">
        <ele>497</ele>
        <time>2016-04-30T07:32:10.000Z</time>
      </trkpt>
      <trkpt lat="43.65844" lon="5.90244">
        <ele>496</ele>
        <time>2016-04-30T07:34:07.000Z</time>
      </trkpt>
      <trkpt lat="43.65853" lon="5.90237">
        <ele>496</ele>
        <time>2016-04-30T07:34:11.000Z</time>
      </trkpt>
      <trkpt lat="43.65863" lon="5.90229">
        <ele>495</ele>
        <time>2016-04-30T07:34:15.000Z</time>
      </trkpt>
      <trkpt lat="43.65873" lon="5.9022">
        <ele>494</ele>
        <time>2016-04-30T07:34:19.000Z</time>
      </trkpt>
      <trkpt lat="43.65878" lon="5.9021">
        <ele>495</ele>
        <time>2016-04-30T07:34:23.000Z</time>
      </trkpt>
      <trkpt lat="43.65878" lon="5.9021">
        <ele>495</ele>
        <time>2016-04-30T07:34:25.000Z</time>
      </trkpt>
      <trkpt lat="43.65878" lon="5.9021">
        <ele>495</ele>
        <time>2016-04-30T07:34:27.000Z</time>
      </trkpt>
      <trkpt lat="43.65878" lon="5.9021">
        <ele>495</ele>
        <time>2016-04-30T07:34:29.000Z</time>
      </trkpt>
      <trkpt lat="43.65878" lon="5.9021">
        <ele>495</ele>
        <time>2016-04-30T07:34:31.000Z</time>
      </trkpt>
      <trkpt lat="43.65878" lon="5.9021">
        <ele>495</ele>
        <time>2016-04-30T07:34:33.000Z</time>
      </trkpt>
      <trkpt lat="43.65878" lon="5.9021">
        <ele>495</ele>
        <time>2016-04-30T07:34:35.000Z</time>
      </trkpt>
      <trkpt lat="43.65878" lon="5.9021">
        <ele>495</ele>
        <time>2016-04-30T07:34:37.000Z</time>
      </trkpt>
      <trkpt lat="43.65878" lon="5.9021">
        <ele>495</ele>
        <time>2016-04-30T07:34:39.000Z</time>
      </trkpt>
      <trkpt lat="43.65878" lon="5.9021">
        <ele>495</ele>
        <time>2016-04-30T07:34:41.000Z</time>
      </trkpt>
      <trkpt lat="43.65878" lon="5.9021">
        <ele>495</ele>
        <time>2016-04-30T07:34:43.000Z</time>
      </trkpt>
      <trkpt lat="43.65878" lon="5.9021">
        <ele>495</ele>
        <time>2016-04-30T07:34:45.000Z</time>
      </trkpt>
      <trkpt lat="43.65878" lon="5.9021">
        <ele>495</ele>
        <time>2016-04-30T07:34:47.000Z</time>
      </trkpt>
      <trkpt lat="43.65878" lon="5.9021">
        <ele>495</ele>
        <time>2016-04-30T07:34:49.000Z</time>
      </trkpt>
      <trkpt lat="43.65878" lon="5.9021">
        <ele>495</ele>
        <time>2016-04-30T07:34:51.000Z</time>
      </trkpt>
      <trkpt lat="43.65878" lon="5.9021">
        <ele>495</ele>
        <time>2016-04-30T07:34:53.000Z</time>
      </trkpt>
      <trkpt lat="43.65878" lon="5.9021">
        <ele>495</ele>
        <time>2016-04-30T07:34:55.000Z</time>
      </trkpt>
      <trkpt lat="43.65878" lon="5.9021">
        <ele>495</ele>
        <time>2016-04-30T07:34:57.000Z</time>
      </trkpt>
      <trkpt lat="43.65878" lon="5.9021">
        <ele>495</ele>
        <time>2016-04-30T07:34:59.000Z</time>
      </trkpt>
      <trkpt lat="43.65878" lon="5.9021">
        <ele>495</ele>
        <time>2016-04-30T07:35:01.000Z</time>
      </trkpt>
      <trkpt lat="43.65878" lon="5.9021">
        <ele>495</ele>
        <time>2016-04-30T07:35:03.000Z</time>
      </trkpt>
      <trkpt lat="43.65928" lon="5.90085">
        <ele>496</ele>
        <time>2016-04-30T07:35:11.000Z</time>
      </trkpt>
      <trkpt lat="43.65932" lon="5.90073">
        <ele>497</ele>
        <time>2016-04-30T07:35:15.000Z</time>
      </trkpt>
      <trkpt lat="43.65937" lon="5.9006">
        <ele>498</ele>
        <time>2016-04-30T07:35:19.000Z</time>
      </trkpt>
      <trkpt lat="43.6594" lon="5.90054">
        <ele>499</ele>
        <time>2016-04-30T07:35:23.000Z</time>
      </trkpt>
      <trkpt lat="43.6594" lon="5.90054">
        <ele>499</ele>
        <time>2016-04-30T07:35:25.000Z</time>
      </trkpt>
      <trkpt lat="43.6594" lon="5.90054">
        <ele>499</ele>
        <time>2016-04-30T07:35:27.000Z</time>
      </trkpt>
      <trkpt lat="43.6594" lon="5.90054">
        <ele>499</ele>
        <time>2016-04-30T07:35:29.000Z</time>
      </trkpt>
      <trkpt lat="43.6595" lon="5.90047">
        <ele>496</ele>
        <time>2016-04-30T07:35:31.000Z</time>
      </trkpt>
      <trkpt lat="43.65957" lon="5.90039">
        <ele>495</ele>
        <time>2016-04-30T07:35:33.000Z</time>
      </trkpt>
      <trkpt lat="43.65962" lon="5.90033">
        <ele>495</ele>
        <time>2016-04-30T07:35:35.000Z</time>
      </trkpt>
      <trkpt lat="43.65966" lon="5.90027">
        <ele>494</ele>
        <time>2016-04-30T07:35:37.000Z</time>
      </trkpt>
      <trkpt lat="43.65969" lon="5.90022">
        <ele>493</ele>
        <time>2016-04-30T07:35:39.000Z</time>
      </trkpt>
      <trkpt lat="43.65969" lon="5.90022">
        <ele>493</ele>
        <time>2016-04-30T07:35:41.000Z</time>
      </trkpt>
      <trkpt lat="43.65969" lon="5.90022">
        <ele>493</ele>
        <time>2016-04-30T07:35:43.000Z</time>
      </trkpt>
      <trkpt lat="43.65969" lon="5.90022">
        <ele>493</ele>
        <time>2016-04-30T07:35:45.000Z</time>
      </trkpt>
      <trkpt lat="43.65969" lon="5.90022">
        <ele>493</ele>
        <time>2016-04-30T07:35:47.000Z</time>
      </trkpt>
      <trkpt lat="43.65969" lon="5.90022">
        <ele>493</ele>
        <time>2016-04-30T07:35:49.000Z</time>
      </trkpt>
      <trkpt lat="43.65976" lon="5.89988">
        <ele>494</ele>
        <time>2016-04-30T07:35:51.000Z</time>
      </trkpt>
      <trkpt lat="43.65979" lon="5.89974">
        <ele>497</ele>
        <time>2016-04-30T07:35:55.000Z</time>
      </trkpt>
      <trkpt lat="43.65979" lon="5.89974">
        <ele>497</ele>
        <time>2016-04-30T07:35:57.000Z</time>
      </trkpt>
      <trkpt lat="43.65979" lon="5.89974">
        <ele>497</ele>
        <time>2016-04-30T07:35:59.000Z</time>
      </trkpt>
      <trkpt lat="43.65979" lon="5.89974">
        <ele>497</ele>
        <time>2016-04-30T07:36:01.000Z</time>
      </trkpt>
      <trkpt lat="43.65979" lon="5.89974">
        <ele>497</ele>
        <time>2016-04-30T07:36:03.000Z</time>
      </trkpt>
      <trkpt lat="43.65979" lon="5.89974">
        <ele>497</ele>
        <time>2016-04-30T07:36:05.000Z</time>
      </trkpt>
      <trkpt lat="43.65988" lon="5.89942">
        <ele>501</ele>
        <time>2016-04-30T07:36:07.000Z</time>
      </trkpt>
      <trkpt lat="43.65992" lon="5.89927">
        <ele>502</ele>
        <time>2016-04-30T07:36:11.000Z</time>
      </trkpt>
      <trkpt lat="43.65999" lon="5.89916">
        <ele>500</ele>
        <time>2016-04-30T07:36:15.000Z</time>
      </trkpt>
      <trkpt lat="43.66008" lon="5.89904">
        <ele>502</ele>
        <time>2016-04-30T07:36:19.000Z</time>
      </trkpt>
      <trkpt lat="43.66008" lon="5.89904">
        <ele>502</ele>
        <time>2016-04-30T07:36:21.000Z</time>
      </trkpt>
      <trkpt lat="43.66008" lon="5.89904">
        <ele>502</ele>
        <time>2016-04-30T07:36:23.000Z</time>
      </trkpt>
      <trkpt lat="43.66008" lon="5.89904">
        <ele>502</ele>
        <time>2016-04-30T07:36:25.000Z</time>
      </trkpt>
      <trkpt lat="43.66008" lon="5.89904">
        <ele>502</ele>
        <time>2016-04-30T07:36:27.000Z</time>
      </trkpt>
      <trkpt lat="43.66015" lon="5.89875">
        <ele>500</ele>
        <time>2016-04-30T07:36:33.000Z</time>
      </trkpt>
      <trkpt lat="43.66023" lon="5.89864">
        <ele>499</ele>
        <time>2016-04-30T07:36:39.000Z</time>
      </trkpt>
      <trkpt lat="43.66029" lon="5.89849">
        <ele>500</ele>
        <time>2016-04-30T07:36:45.000Z</time>
      </trkpt>
      <trkpt lat="43.66033" lon="5.89837">
        <ele>501</ele>
        <time>2016-04-30T07:36:51.000Z</time>
      </trkpt>
      <trkpt lat="43.6604" lon="5.89826">
        <ele>500</ele>
        <time>2016-04-30T07:36:57.000Z</time>
      </trkpt>
      <trkpt lat="43.66045" lon="5.89822">
        <ele>501</ele>
        <time>2016-04-30T07:37:03.000Z</time>
      </trkpt>
      <trkpt lat="43.66045" lon="5.89822">
        <ele>501</ele>
        <time>2016-04-30T07:37:05.000Z</time>
      </trkpt>
      <trkpt lat="43.66045" lon="5.89822">
        <ele>501</ele>
        <time>2016-04-30T07:37:07.000Z</time>
      </trkpt>
      <trkpt lat="43.66045" lon="5.89822">
        <ele>501</ele>
        <time>2016-04-30T07:37:09.000Z</time>
      </trkpt>
      <trkpt lat="43.66055" lon="5.8981">
        <ele>502</ele>
        <time>2016-04-30T07:37:15.000Z</time>
      </trkpt>
      <trkpt lat="43.66061" lon="5.89802">
        <ele>503</ele>
        <time>2016-04-30T07:37:17.000Z</time>
      </trkpt>
      <trkpt lat="43.66065" lon="5.89796">
        <ele>502</ele>
        <time>2016-04-30T07:37:19.000Z</time>
      </trkpt>
      <trkpt lat="43.66069" lon="5.89792">
        <ele>500</ele>
        <time>2016-04-30T07:37:21.000Z</time>
      </trkpt>
      <trkpt lat="43.66074" lon="5.89789">
        <ele>500</ele>
        <time>2016-04-30T07:37:23.000Z</time>
      </trkpt>
      <trkpt lat="43.66074" lon="5.89789">
        <ele>500</ele>
        <time>2016-04-30T07:37:25.000Z</time>
      </trkpt>
      <trkpt lat="43.66074" lon="5.89789">
        <ele>500</ele>
        <time>2016-04-30T07:37:35.000Z</time>
      </trkpt>
      <trkpt lat="43.66074" lon="5.89789">
        <ele>500</ele>
        <time>2016-04-30T07:37:37.000Z</time>
      </trkpt>
      <trkpt lat="43.66074" lon="5.89789">
        <ele>500</ele>
        <time>2016-04-30T07:37:39.000Z</time>
      </trkpt>
      <trkpt lat="43.66104" lon="5.89799">
        <ele>502</ele>
        <time>2016-04-30T07:37:47.000Z</time>
      </trkpt>
      <trkpt lat="43.66114" lon="5.89812">
        <ele>501</ele>
        <time>2016-04-30T07:37:51.000Z</time>
      </trkpt>
      <trkpt lat="43.66127" lon="5.89829">
        <ele>499</ele>
        <time>2016-04-30T07:37:55.000Z</time>
      </trkpt>
      <trkpt lat="43.66138" lon="5.89845">
        <ele>498</ele>
        <time>2016-04-30T07:37:59.000Z</time>
      </trkpt>
      <trkpt lat="43.66149" lon="5.89863">
        <ele>495</ele>
        <time>2016-04-30T07:38:03.000Z</time>
      </trkpt>
      <trkpt lat="43.66159" lon="5.89878">
        <ele>494</ele>
        <time>2016-04-30T07:38:07.000Z</time>
      </trkpt>
      <trkpt lat="43.66159" lon="5.89878">
        <ele>494</ele>
        <time>2016-04-30T07:38:09.000Z</time>
      </trkpt>
      <trkpt lat="43.66159" lon="5.89878">
        <ele>494</ele>
        <time>2016-04-30T07:38:11.000Z</time>
      </trkpt>
      <trkpt lat="43.66159" lon="5.89878">
        <ele>494</ele>
        <time>2016-04-30T07:38:13.000Z</time>
      </trkpt>
      <trkpt lat="43.66159" lon="5.89878">
        <ele>494</ele>
        <time>2016-04-30T07:38:15.000Z</time>
      </trkpt>
      <trkpt lat="43.66159" lon="5.89878">
        <ele>494</ele>
        <time>2016-04-30T07:38:17.000Z</time>
      </trkpt>
      <trkpt lat="43.66159" lon="5.89878">
        <ele>494</ele>
        <time>2016-04-30T07:38:19.000Z</time>
      </trkpt>
      <trkpt lat="43.66192" lon="5.8993">
        <ele>491</ele>
        <time>2016-04-30T07:38:23.000Z</time>
      </trkpt>
      <trkpt lat="43.66202" lon="5.89943">
        <ele>490</ele>
        <time>2016-04-30T07:38:27.000Z</time>
      </trkpt>
      <trkpt lat="43.66202" lon="5.89943">
        <ele>490</ele>
        <time>2016-04-30T07:38:29.000Z</time>
      </trkpt>
      <trkpt lat="43.66211" lon="5.89956">
        <ele>489</ele>
        <time>2016-04-30T07:38:31.000Z</time>
      </trkpt>
      <trkpt lat="43.66211" lon="5.89956">
        <ele>489</ele>
        <time>2016-04-30T07:38:33.000Z</time>
      </trkpt>
      <trkpt lat="43.66211" lon="5.89956">
        <ele>489</ele>
        <time>2016-04-30T07:38:35.000Z</time>
      </trkpt>
      <trkpt lat="43.66211" lon="5.89956">
        <ele>489</ele>
        <time>2016-04-30T07:38:37.000Z</time>
      </trkpt>
      <trkpt lat="43.66211" lon="5.89956">
        <ele>489</ele>
        <time>2016-04-30T07:38:39.000Z</time>
      </trkpt>
      <trkpt lat="43.66211" lon="5.89956">
        <ele>489</ele>
        <time>2016-04-30T07:38:41.000Z</time>
      </trkpt>
      <trkpt lat="43.66211" lon="5.89956">
        <ele>489</ele>
        <time>2016-04-30T07:38:43.000Z</time>
      </trkpt>
      <trkpt lat="43.66211" lon="5.89956">
        <ele>489</ele>
        <time>2016-04-30T07:38:45.000Z</time>
      </trkpt>
      <trkpt lat="43.66211" lon="5.89956">
        <ele>489</ele>
        <time>2016-04-30T07:38:47.000Z</time>
      </trkpt>
      <trkpt lat="43.66211" lon="5.89956">
        <ele>489</ele>
        <time>2016-04-30T07:38:49.000Z</time>
      </trkpt>
      <trkpt lat="43.66211" lon="5.89956">
        <ele>489</ele>
        <time>2016-04-30T07:38:51.000Z</time>
      </trkpt>
      <trkpt lat="43.66211" lon="5.89956">
        <ele>489</ele>
        <time>2016-04-30T07:38:53.000Z</time>
      </trkpt>
      <trkpt lat="43.6625" lon="5.89978">
        <ele>490</ele>
        <time>2016-04-30T07:39:16.000Z</time>
      </trkpt>
      <trkpt lat="43.6625" lon="5.89978">
        <ele>490</ele>
        <time>2016-04-30T07:39:18.000Z</time>
      </trkpt>
      <trkpt lat="43.6625" lon="5.89978">
        <ele>490</ele>
        <time>2016-04-30T07:39:20.000Z</time>
      </trkpt>
      <trkpt lat="43.6625" lon="5.89978">
        <ele>490</ele>
        <time>2016-04-30T07:39:22.000Z</time>
      </trkpt>
      <trkpt lat="43.6625" lon="5.89978">
        <ele>490</ele>
        <time>2016-04-30T07:39:24.000Z</time>
      </trkpt>
      <trkpt lat="43.6625" lon="5.89978">
        <ele>490</ele>
        <time>2016-04-30T07:39:26.000Z</time>
      </trkpt>
      <trkpt lat="43.6625" lon="5.89978">
        <ele>490</ele>
        <time>2016-04-30T07:39:28.000Z</time>
      </trkpt>
      <trkpt lat="43.6625" lon="5.89978">
        <ele>490</ele>
        <time>2016-04-30T07:39:30.000Z</time>
      </trkpt>
      <trkpt lat="43.6625" lon="5.89978">
        <ele>490</ele>
        <time>2016-04-30T07:39:32.000Z</time>
      </trkpt>
      <trkpt lat="43.6625" lon="5.89978">
        <ele>490</ele>
        <time>2016-04-30T07:39:34.000Z</time>
      </trkpt>
      <trkpt lat="43.6625" lon="5.89978">
        <ele>490</ele>
        <time>2016-04-30T07:39:36.000Z</time>
      </trkpt>
      <trkpt lat="43.6625" lon="5.89978">
        <ele>490</ele>
        <time>2016-04-30T07:39:38.000Z</time>
      </trkpt>
      <trkpt lat="43.6625" lon="5.89978">
        <ele>490</ele>
        <time>2016-04-30T07:39:40.000Z</time>
      </trkpt>
      <trkpt lat="43.6625" lon="5.89978">
        <ele>490</ele>
        <time>2016-04-30T07:39:42.000Z</time>
      </trkpt>
      <trkpt lat="43.6625" lon="5.89978">
        <ele>490</ele>
        <time>2016-04-30T07:39:44.000Z</time>
      </trkpt>
      <trkpt lat="43.6625" lon="5.89978">
        <ele>490</ele>
        <time>2016-04-30T07:39:46.000Z</time>
      </trkpt>
      <trkpt lat="43.6625" lon="5.89978">
        <ele>490</ele>
        <time>2016-04-30T07:39:48.000Z</time>
      </trkpt>
      <trkpt lat="43.6625" lon="5.89978">
        <ele>490</ele>
        <time>2016-04-30T07:39:50.000Z</time>
      </trkpt>
      <trkpt lat="43.6625" lon="5.89978">
        <ele>490</ele>
        <time>2016-04-30T07:39:52.000Z</time>
      </trkpt>
      <trkpt lat="43.6625" lon="5.89978">
        <ele>490</ele>
        <time>2016-04-30T07:39:54.000Z</time>
      </trkpt>
      <trkpt lat="43.6625" lon="5.89978">
        <ele>490</ele>
        <time>2016-04-30T07:39:56.000Z</time>
      </trkpt>
      <trkpt lat="43.6625" lon="5.89978">
        <ele>490</ele>
        <time>2016-04-30T07:39:58.000Z</time>
      </trkpt>
      <trkpt lat="43.66334" lon="5.89885">
        <ele>495</ele>
        <time>2016-04-30T07:40:08.000Z</time>
      </trkpt>
      <trkpt lat="43.66345" lon="5.89881">
        <ele>495</ele>
        <time>2016-04-30T07:40:14.000Z</time>
      </trkpt>
      <trkpt lat="43.66355" lon="5.89891">
        <ele>496</ele>
        <time>2016-04-30T07:40:20.000Z</time>
      </trkpt>
      <trkpt lat="43.66355" lon="5.89891">
        <ele>496</ele>
        <time>2016-04-30T07:40:22.000Z</time>
      </trkpt>
      <trkpt lat="43.66355" lon="5.89891">
        <ele>496</ele>
        <time>2016-04-30T07:40:24.000Z</time>
      </trkpt>
      <trkpt lat="43.66355" lon="5.89891">
        <ele>496</ele>
        <time>2016-04-30T07:40:26.000Z</time>
      </trkpt>
      <trkpt lat="43.66355" lon="5.89891">
        <ele>496</ele>
        <time>2016-04-30T07:40:28.000Z</time>
      </trkpt>
      <trkpt lat="43.66355" lon="5.89891">
        <ele>496</ele>
        <time>2016-04-30T07:40:30.000Z</time>
      </trkpt>
      <trkpt lat="43.66355" lon="5.89891">
        <ele>496</ele>
        <time>2016-04-30T07:40:32.000Z</time>
      </trkpt>
      <trkpt lat="43.66355" lon="5.89891">
        <ele>496</ele>
        <time>2016-04-30T07:40:34.000Z</time>
      </trkpt>
      <trkpt lat="43.66355" lon="5.89891">
        <ele>496</ele>
        <time>2016-04-30T07:40:36.000Z</time>
      </trkpt>
      <trkpt lat="43.66355" lon="5.89891">
        <ele>496</ele>
        <time>2016-04-30T07:40:38.000Z</time>
      </trkpt>
      <trkpt lat="43.66355" lon="5.89891">
        <ele>496</ele>
        <time>2016-04-30T07:40:40.000Z</time>
      </trkpt>
      <trkpt lat="43.66355" lon="5.89891">
        <ele>496</ele>
        <time>2016-04-30T07:40:42.000Z</time>
      </trkpt>
      <trkpt lat="43.66355" lon="5.89891">
        <ele>496</ele>
        <time>2016-04-30T07:40:44.000Z</time>
      </trkpt>
      <trkpt lat="43.66355" lon="5.89891">
        <ele>496</ele>
        <time>2016-04-30T07:40:46.000Z</time>
      </trkpt>
      <trkpt lat="43.66355" lon="5.89891">
        <ele>496</ele>
        <time>2016-04-30T07:40:48.000Z</time>
      </trkpt>
      <trkpt lat="43.66355" lon="5.89891">
        <ele>496</ele>
        <time>2016-04-30T07:40:50.000Z</time>
      </trkpt>
      <trkpt lat="43.66355" lon="5.89891">
        <ele>496</ele>
        <time>2016-04-30T07:40:52.000Z</time>
      </trkpt>
      <trkpt lat="43.66355" lon="5.89891">
        <ele>496</ele>
        <time>2016-04-30T07:40:54.000Z</time>
      </trkpt>
      <trkpt lat="43.66355" lon="5.89891">
        <ele>496</ele>
        <time>2016-04-30T07:40:56.000Z</time>
      </trkpt>
      <trkpt lat="43.66355" lon="5.89891">
        <ele>496</ele>
        <time>2016-04-30T07:40:58.000Z</time>
      </trkpt>
      <trkpt lat="43.66355" lon="5.89891">
        <ele>496</ele>
        <time>2016-04-30T07:41:00.000Z</time>
      </trkpt>
      <trkpt lat="43.6637" lon="5.89925">
        <ele>505</ele>
        <time>2016-04-30T07:41:02.000Z</time>
      </trkpt>
      <trkpt lat="43.66377" lon="5.89944">
        <ele>505</ele>
        <time>2016-04-30T07:41:04.000Z</time>
      </trkpt>
      <trkpt lat="43.6638" lon="5.89955">
        <ele>505</ele>
        <time>2016-04-30T07:41:06.000Z</time>
      </trkpt>
      <trkpt lat="43.66381" lon="5.89964">
        <ele>505</ele>
        <time>2016-04-30T07:41:08.000Z</time>
      </trkpt>
      <trkpt lat="43.66382" lon="5.89971">
        <ele>505</ele>
        <time>2016-04-30T07:41:10.000Z</time>
      </trkpt>
      <trkpt lat="43.66386" lon="5.89984">
        <ele>505</ele>
        <time>2016-04-30T07:41:12.000Z</time>
      </trkpt>
      <trkpt lat="43.66396" lon="5.8999">
        <ele>505</ele>
        <time>2016-04-30T07:41:16.000Z</time>
      </trkpt>
      <trkpt lat="43.66405" lon="5.89998">
        <ele>505</ele>
        <time>2016-04-30T07:41:20.000Z</time>
      </trkpt>
      <trkpt lat="43.66417" lon="5.90007">
        <ele>504</ele>
        <time>2016-04-30T07:41:24.000Z</time>
      </trkpt>
      <trkpt lat="43.66428" lon="5.90016">
        <ele>505</ele>
        <time>2016-04-30T07:41:28.000Z</time>
      </trkpt>
      <trkpt lat="43.66428" lon="5.90016">
        <ele>505</ele>
        <time>2016-04-30T07:41:30.000Z</time>
      </trkpt>
      <trkpt lat="43.66436" lon="5.90024">
        <ele>507</ele>
        <time>2016-04-30T07:41:32.000Z</time>
      </trkpt>
      <trkpt lat="43.66436" lon="5.90024">
        <ele>507</ele>
        <time>2016-04-30T07:41:34.000Z</time>
      </trkpt>
      <trkpt lat="43.66436" lon="5.90024">
        <ele>507</ele>
        <time>2016-04-30T07:41:36.000Z</time>
      </trkpt>
      <trkpt lat="43.66436" lon="5.90024">
        <ele>507</ele>
        <time>2016-04-30T07:41:40.000Z</time>
      </trkpt>
      <trkpt lat="43.66436" lon="5.90024">
        <ele>507</ele>
        <time>2016-04-30T07:41:42.000Z</time>
      </trkpt>
      <trkpt lat="43.66436" lon="5.90024">
        <ele>507</ele>
        <time>2016-04-30T07:41:44.000Z</time>
      </trkpt>
      <trkpt lat="43.66436" lon="5.90024">
        <ele>507</ele>
        <time>2016-04-30T07:41:46.000Z</time>
      </trkpt>
      <trkpt lat="43.66436" lon="5.90024">
        <ele>507</ele>
        <time>2016-04-30T07:41:48.000Z</time>
      </trkpt>
      <trkpt lat="43.66436" lon="5.90024">
        <ele>507</ele>
        <time>2016-04-30T07:41:50.000Z</time>
      </trkpt>
      <trkpt lat="43.66484" lon="5.90061">
        <ele>509</ele>
        <time>2016-04-30T07:41:56.000Z</time>
      </trkpt>
      <trkpt lat="43.66496" lon="5.90071">
        <ele>509</ele>
        <time>2016-04-30T07:42:02.000Z</time>
      </trkpt>
      <trkpt lat="43.66496" lon="5.90071">
        <ele>509</ele>
        <time>2016-04-30T07:42:08.000Z</time>
      </trkpt>
      <trkpt lat="43.66496" lon="5.90071">
        <ele>509</ele>
        <time>2016-04-30T07:42:10.000Z</time>
      </trkpt>
      <trkpt lat="43.66496" lon="5.90071">
        <ele>509</ele>
        <time>2016-04-30T07:42:12.000Z</time>
      </trkpt>
      <trkpt lat="43.66496" lon="5.90071">
        <ele>509</ele>
        <time>2016-04-30T07:42:14.000Z</time>
      </trkpt>
      <trkpt lat="43.66496" lon="5.90071">
        <ele>509</ele>
        <time>2016-04-30T07:42:16.000Z</time>
      </trkpt>
      <trkpt lat="43.66496" lon="5.90071">
        <ele>509</ele>
        <time>2016-04-30T07:42:18.000Z</time>
      </trkpt>
      <trkpt lat="43.66496" lon="5.90071">
        <ele>509</ele>
        <time>2016-04-30T07:42:20.000Z</time>
      </trkpt>
      <trkpt lat="43.66496" lon="5.90071">
        <ele>509</ele>
        <time>2016-04-30T07:42:22.000Z</time>
      </trkpt>
      <trkpt lat="43.66496" lon="5.90071">
        <ele>509</ele>
        <time>2016-04-30T07:42:24.000Z</time>
      </trkpt>
      <trkpt lat="43.66496" lon="5.90071">
        <ele>509</ele>
        <time>2016-04-30T07:42:26.000Z</time>
      </trkpt>
      <trkpt lat="43.66496" lon="5.90071">
        <ele>509</ele>
        <time>2016-04-30T07:42:28.000Z</time>
      </trkpt>
      <trkpt lat="43.66496" lon="5.90071">
        <ele>509</ele>
        <time>2016-04-30T07:42:30.000Z</time>
      </trkpt>
      <trkpt lat="43.66496" lon="5.90071">
        <ele>509</ele>
        <time>2016-04-30T07:42:32.000Z</time>
      </trkpt>
      <trkpt lat="43.66521" lon="5.90082">
        <ele>515</ele>
        <time>2016-04-30T07:42:36.000Z</time>
      </trkpt>
      <trkpt lat="43.66536" lon="5.90087">
        <ele>515</ele>
        <time>2016-04-30T07:42:38.000Z</time>
      </trkpt>
      <trkpt lat="43.66544" lon="5.90089">
        <ele>515</ele>
        <time>2016-04-30T07:42:40.000Z</time>
      </trkpt>
      <trkpt lat="43.6655" lon="5.9009">
        <ele>515</ele>
        <time>2016-04-30T07:42:42.000Z</time>
      </trkpt>
      <trkpt lat="43.66555" lon="5.90091">
        <ele>516</ele>
        <time>2016-04-30T07:42:44.000Z</time>
      </trkpt>
      <trkpt lat="43.66567" lon="5.90094">
        <ele>517</ele>
        <time>2016-04-30T07:42:48.000Z</time>
      </trkpt>
      <trkpt lat="43.66576" lon="5.90096">
        <ele>517</ele>
        <time>2016-04-30T07:42:54.000Z</time>
      </trkpt>
      <trkpt lat="43.66586" lon="5.90098">
        <ele>519</ele>
        <time>2016-04-30T07:43:00.000Z</time>
      </trkpt>
      <trkpt lat="43.66597" lon="5.901">
        <ele>521</ele>
        <time>2016-04-30T07:43:08.000Z</time>
      </trkpt>
      <trkpt lat="43.66607" lon="5.90101">
        <ele>522</ele>
        <time>2016-04-30T07:43:14.000Z</time>
      </trkpt>
      <trkpt lat="43.66617" lon="5.90106">
        <ele>523</ele>
        <time>2016-04-30T07:43:20.000Z</time>
      </trkpt>
      <trkpt lat="43.66627" lon="5.9011">
        <ele>524</ele>
        <time>2016-04-30T07:43:26.000Z</time>
      </trkpt>
      <trkpt lat="43.66637" lon="5.90116">
        <ele>524</ele>
        <time>2016-04-30T07:43:32.000Z</time>
      </trkpt>
      <trkpt lat="43.6665" lon="5.90121">
        <ele>524</ele>
        <time>2016-04-30T07:43:38.000Z</time>
      </trkpt>
      <trkpt lat="43.66661" lon="5.90124">
        <ele>523</ele>
        <time>2016-04-30T07:43:42.000Z</time>
      </trkpt>
      <trkpt lat="43.66671" lon="5.90128">
        <ele>523</ele>
        <time>2016-04-30T07:43:46.000Z</time>
      </trkpt>
      <trkpt lat="43.66682" lon="5.90135">
        <ele>522</ele>
        <time>2016-04-30T07:43:50.000Z</time>
      </trkpt>
      <trkpt lat="43.66694" lon="5.90142">
        <ele>522</ele>
        <time>2016-04-30T07:43:54.000Z</time>
      </trkpt>
      <trkpt lat="43.66705" lon="5.90148">
        <ele>522</ele>
        <time>2016-04-30T07:43:58.000Z</time>
      </trkpt>
      <trkpt lat="43.66705" lon="5.90148">
        <ele>522</ele>
        <time>2016-04-30T07:44:00.000Z</time>
      </trkpt>
      <trkpt lat="43.66715" lon="5.90157">
        <ele>520</ele>
        <time>2016-04-30T07:44:02.000Z</time>
      </trkpt>
      <trkpt lat="43.66729" lon="5.90169">
        <ele>519</ele>
        <time>2016-04-30T07:44:06.000Z</time>
      </trkpt>
      <trkpt lat="43.66737" lon="5.90179">
        <ele>518</ele>
        <time>2016-04-30T07:44:08.000Z</time>
      </trkpt>
      <trkpt lat="43.66747" lon="5.90185">
        <ele>518</ele>
        <time>2016-04-30T07:44:10.000Z</time>
      </trkpt>
      <trkpt lat="43.66756" lon="5.90192">
        <ele>517</ele>
        <time>2016-04-30T07:44:12.000Z</time>
      </trkpt>
      <trkpt lat="43.66764" lon="5.90201">
        <ele>516</ele>
        <time>2016-04-30T07:44:14.000Z</time>
      </trkpt>
      <trkpt lat="43.66774" lon="5.90208">
        <ele>515</ele>
        <time>2016-04-30T07:44:16.000Z</time>
      </trkpt>
      <trkpt lat="43.66783" lon="5.90215">
        <ele>514</ele>
        <time>2016-04-30T07:44:18.000Z</time>
      </trkpt>
      <trkpt lat="43.6679" lon="5.90227">
        <ele>514</ele>
        <time>2016-04-30T07:44:20.000Z</time>
      </trkpt>
      <trkpt lat="43.668" lon="5.90237">
        <ele>514</ele>
        <time>2016-04-30T07:44:22.000Z</time>
      </trkpt>
      <trkpt lat="43.66809" lon="5.90246">
        <ele>514</ele>
        <time>2016-04-30T07:44:24.000Z</time>
      </trkpt>
      <trkpt lat="43.66818" lon="5.90254">
        <ele>514</ele>
        <time>2016-04-30T07:44:26.000Z</time>
      </trkpt>
      <trkpt lat="43.66827" lon="5.9026">
        <ele>513</ele>
        <time>2016-04-30T07:44:28.000Z</time>
      </trkpt>
      <trkpt lat="43.66827" lon="5.9026">
        <ele>513</ele>
        <time>2016-04-30T07:44:30.000Z</time>
      </trkpt>
      <trkpt lat="43.66827" lon="5.9026">
        <ele>513</ele>
        <time>2016-04-30T07:44:32.000Z</time>
      </trkpt>
      <trkpt lat="43.66827" lon="5.9026">
        <ele>513</ele>
        <time>2016-04-30T07:44:34.000Z</time>
      </trkpt>
      <trkpt lat="43.66827" lon="5.9026">
        <ele>513</ele>
        <time>2016-04-30T07:44:36.000Z</time>
      </trkpt>
      <trkpt lat="43.66854" lon="5.90282">
        <ele>515</ele>
        <time>2016-04-30T07:44:42.000Z</time>
      </trkpt>
      <trkpt lat="43.66872" lon="5.90296">
        <ele>515</ele>
        <time>2016-04-30T07:44:44.000Z</time>
      </trkpt>
      <trkpt lat="43.66872" lon="5.90296">
        <ele>515</ele>
        <time>2016-04-30T07:44:46.000Z</time>
      </trkpt>
      <trkpt lat="43.66872" lon="5.90296">
        <ele>515</ele>
        <time>2016-04-30T07:44:48.000Z</time>
      </trkpt>
      <trkpt lat="43.66872" lon="5.90296">
        <ele>515</ele>
        <time>2016-04-30T07:44:50.000Z</time>
      </trkpt>
      <trkpt lat="43.66872" lon="5.90296">
        <ele>515</ele>
        <time>2016-04-30T07:44:52.000Z</time>
      </trkpt>
      <trkpt lat="43.66872" lon="5.90296">
        <ele>515</ele>
        <time>2016-04-30T07:44:54.000Z</time>
      </trkpt>
      <trkpt lat="43.66872" lon="5.90296">
        <ele>515</ele>
        <time>2016-04-30T07:44:56.000Z</time>
      </trkpt>
      <trkpt lat="43.66906" lon="5.90326">
        <ele>511</ele>
        <time>2016-04-30T07:44:58.000Z</time>
      </trkpt>
      <trkpt lat="43.66928" lon="5.90345">
        <ele>510</ele>
        <time>2016-04-30T07:45:00.000Z</time>
      </trkpt>
      <trkpt lat="43.66943" lon="5.90359">
        <ele>509</ele>
        <time>2016-04-30T07:45:02.000Z</time>
      </trkpt>
      <trkpt lat="43.66954" lon="5.90368">
        <ele>510</ele>
        <time>2016-04-30T07:45:04.000Z</time>
      </trkpt>
      <trkpt lat="43.66954" lon="5.90368">
        <ele>510</ele>
        <time>2016-04-30T07:45:06.000Z</time>
      </trkpt>
      <trkpt lat="43.66954" lon="5.90368">
        <ele>510</ele>
        <time>2016-04-30T07:45:08.000Z</time>
      </trkpt>
      <trkpt lat="43.66954" lon="5.90368">
        <ele>510</ele>
        <time>2016-04-30T07:45:10.000Z</time>
      </trkpt>
      <trkpt lat="43.66954" lon="5.90368">
        <ele>510</ele>
        <time>2016-04-30T07:45:12.000Z</time>
      </trkpt>
      <trkpt lat="43.66954" lon="5.90368">
        <ele>510</ele>
        <time>2016-04-30T07:45:14.000Z</time>
      </trkpt>
      <trkpt lat="43.66954" lon="5.90368">
        <ele>510</ele>
        <time>2016-04-30T07:45:20.000Z</time>
      </trkpt>
      <trkpt lat="43.66954" lon="5.90368">
        <ele>510</ele>
        <time>2016-04-30T07:45:22.000Z</time>
      </trkpt>
      <trkpt lat="43.66954" lon="5.90368">
        <ele>510</ele>
        <time>2016-04-30T07:45:24.000Z</time>
      </trkpt>
      <trkpt lat="43.66994" lon="5.9037">
        <ele>505</ele>
        <time>2016-04-30T07:46:45.000Z</time>
      </trkpt>
      <trkpt lat="43.67003" lon="5.90362">
        <ele>506</ele>
        <time>2016-04-30T07:46:51.000Z</time>
      </trkpt>
      <trkpt lat="43.67011" lon="5.90355">
        <ele>506</ele>
        <time>2016-04-30T07:46:55.000Z</time>
      </trkpt>
      <trkpt lat="43.67019" lon="5.90348">
        <ele>506</ele>
        <time>2016-04-30T07:46:59.000Z</time>
      </trkpt>
      <trkpt lat="43.67029" lon="5.90345">
        <ele>505</ele>
        <time>2016-04-30T07:47:03.000Z</time>
      </trkpt>
      <trkpt lat="43.67042" lon="5.90344">
        <ele>505</ele>
        <time>2016-04-30T07:47:07.000Z</time>
      </trkpt>
      <trkpt lat="43.67054" lon="5.90341">
        <ele>504</ele>
        <time>2016-04-30T07:47:11.000Z</time>
      </trkpt>
      <trkpt lat="43.67067" lon="5.90336">
        <ele>503</ele>
        <time>2016-04-30T07:47:15.000Z</time>
      </trkpt>
      <trkpt lat="43.67078" lon="5.90333">
        <ele>505</ele>
        <time>2016-04-30T07:47:19.000Z</time>
      </trkpt>
      <trkpt lat="43.67078" lon="5.90333">
        <ele>505</ele>
        <time>2016-04-30T07:47:23.000Z</time>
      </trkpt>
      <trkpt lat="43.67078" lon="5.90333">
        <ele>505</ele>
        <time>2016-04-30T07:47:26.000Z</time>
      </trkpt>
      <trkpt lat="43.67078" lon="5.90333">
        <ele>505</ele>
        <time>2016-04-30T07:47:28.000Z</time>
      </trkpt>
      <trkpt lat="43.67078" lon="5.90333">
        <ele>505</ele>
        <time>2016-04-30T07:47:30.000Z</time>
      </trkpt>
      <trkpt lat="43.67078" lon="5.90333">
        <ele>505</ele>
        <time>2016-04-30T07:47:32.000Z</time>
      </trkpt>
      <trkpt lat="43.67078" lon="5.90333">
        <ele>505</ele>
        <time>2016-04-30T07:47:34.000Z</time>
      </trkpt>
      <trkpt lat="43.67078" lon="5.90333">
        <ele>505</ele>
        <time>2016-04-30T07:47:36.000Z</time>
      </trkpt>
      <trkpt lat="43.67104" lon="5.90357">
        <ele>506</ele>
        <time>2016-04-30T07:49:39.000Z</time>
      </trkpt>
      <trkpt lat="43.67121" lon="5.90354">
        <ele>502</ele>
        <time>2016-04-30T07:49:47.000Z</time>
      </trkpt>
      <trkpt lat="43.67135" lon="5.90351">
        <ele>503</ele>
        <time>2016-04-30T07:49:51.000Z</time>
      </trkpt>
      <trkpt lat="43.67148" lon="5.90344">
        <ele>500</ele>
        <time>2016-04-30T07:49:55.000Z</time>
      </trkpt>
      <trkpt lat="43.67153" lon="5.90328">
        <ele>501</ele>
        <time>2016-04-30T07:49:59.000Z</time>
      </trkpt>
      <trkpt lat="43.67153" lon="5.90328">
        <ele>501</ele>
        <time>2016-04-30T07:50:01.000Z</time>
      </trkpt>
      <trkpt lat="43.67153" lon="5.90328">
        <ele>501</ele>
        <time>2016-04-30T07:50:03.000Z</time>
      </trkpt>
      <trkpt lat="43.67153" lon="5.90328">
        <ele>501</ele>
        <time>2016-04-30T07:50:05.000Z</time>
      </trkpt>
      <trkpt lat="43.67169" lon="5.90302">
        <ele>501</ele>
        <time>2016-04-30T07:50:09.000Z</time>
      </trkpt>
      <trkpt lat="43.67171" lon="5.90282">
        <ele>501</ele>
        <time>2016-04-30T07:50:13.000Z</time>
      </trkpt>
      <trkpt lat="43.67171" lon="5.90262">
        <ele>502</ele>
        <time>2016-04-30T07:50:17.000Z</time>
      </trkpt>
      <trkpt lat="43.6717" lon="5.90242">
        <ele>502</ele>
        <time>2016-04-30T07:50:21.000Z</time>
      </trkpt>
      <trkpt lat="43.6717" lon="5.90242">
        <ele>502</ele>
        <time>2016-04-30T07:50:23.000Z</time>
      </trkpt>
      <trkpt lat="43.6717" lon="5.90242">
        <ele>502</ele>
        <time>2016-04-30T07:50:25.000Z</time>
      </trkpt>
      <trkpt lat="43.6717" lon="5.90242">
        <ele>502</ele>
        <time>2016-04-30T07:50:27.000Z</time>
      </trkpt>
      <trkpt lat="43.6717" lon="5.90242">
        <ele>502</ele>
        <time>2016-04-30T07:50:29.000Z</time>
      </trkpt>
      <trkpt lat="43.67152" lon="5.90192">
        <ele>502</ele>
        <time>2016-04-30T07:50:35.000Z</time>
      </trkpt>
      <trkpt lat="43.67152" lon="5.90174">
        <ele>501</ele>
        <time>2016-04-30T07:50:39.000Z</time>
      </trkpt>
      <trkpt lat="43.67153" lon="5.90154">
        <ele>501</ele>
        <time>2016-04-30T07:50:43.000Z</time>
      </trkpt>
      <trkpt lat="43.67153" lon="5.90154">
        <ele>501</ele>
        <time>2016-04-30T07:50:45.000Z</time>
      </trkpt>
      <trkpt lat="43.67153" lon="5.90154">
        <ele>501</ele>
        <time>2016-04-30T07:50:47.000Z</time>
      </trkpt>
      <trkpt lat="43.67153" lon="5.90154">
        <ele>501</ele>
        <time>2016-04-30T07:50:49.000Z</time>
      </trkpt>
      <trkpt lat="43.67153" lon="5.90154">
        <ele>501</ele>
        <time>2016-04-30T07:50:51.000Z</time>
      </trkpt>
      <trkpt lat="43.67153" lon="5.90154">
        <ele>501</ele>
        <time>2016-04-30T07:50:53.000Z</time>
      </trkpt>
      <trkpt lat="43.67153" lon="5.90154">
        <ele>501</ele>
        <time>2016-04-30T07:50:55.000Z</time>
      </trkpt>
      <trkpt lat="43.67153" lon="5.90154">
        <ele>501</ele>
        <time>2016-04-30T07:50:57.000Z</time>
      </trkpt>
      <trkpt lat="43.67153" lon="5.90154">
        <ele>501</ele>
        <time>2016-04-30T07:50:59.000Z</time>
      </trkpt>
      <trkpt lat="43.67153" lon="5.90154">
        <ele>501</ele>
        <time>2016-04-30T07:51:01.000Z</time>
      </trkpt>
      <trkpt lat="43.67153" lon="5.90154">
        <ele>501</ele>
        <time>2016-04-30T07:51:03.000Z</time>
      </trkpt>
      <trkpt lat="43.67176" lon="5.90138">
        <ele>498</ele>
        <time>2016-04-30T07:51:05.000Z</time>
      </trkpt>
      <trkpt lat="43.67191" lon="5.9013">
        <ele>497</ele>
        <time>2016-04-30T07:51:07.000Z</time>
      </trkpt>
      <trkpt lat="43.67202" lon="5.90126">
        <ele>497</ele>
        <time>2016-04-30T07:51:09.000Z</time>
      </trkpt>
      <trkpt lat="43.6721" lon="5.90123">
        <ele>497</ele>
        <time>2016-04-30T07:51:11.000Z</time>
      </trkpt>
      <trkpt lat="43.6721" lon="5.90123">
        <ele>497</ele>
        <time>2016-04-30T07:51:13.000Z</time>
      </trkpt>
      <trkpt lat="43.6721" lon="5.90123">
        <ele>497</ele>
        <time>2016-04-30T07:51:15.000Z</time>
      </trkpt>
      <trkpt lat="43.6721" lon="5.90123">
        <ele>497</ele>
        <time>2016-04-30T07:51:17.000Z</time>
      </trkpt>
      <trkpt lat="43.67232" lon="5.9012">
        <ele>497</ele>
        <time>2016-04-30T07:51:31.000Z</time>
      </trkpt>
      <trkpt lat="43.67241" lon="5.90123">
        <ele>498</ele>
        <time>2016-04-30T07:51:35.000Z</time>
      </trkpt>
      <trkpt lat="43.67253" lon="5.90117">
        <ele>497</ele>
        <time>2016-04-30T07:51:41.000Z</time>
      </trkpt>
      <trkpt lat="43.67262" lon="5.90113">
        <ele>496</ele>
        <time>2016-04-30T07:51:45.000Z</time>
      </trkpt>
      <trkpt lat="43.67273" lon="5.90109">
        <ele>496</ele>
        <time>2016-04-30T07:51:49.000Z</time>
      </trkpt>
      <trkpt lat="43.67283" lon="5.90104">
        <ele>495</ele>
        <time>2016-04-30T07:51:53.000Z</time>
      </trkpt>
      <trkpt lat="43.67294" lon="5.90099">
        <ele>494</ele>
        <time>2016-04-30T07:51:57.000Z</time>
      </trkpt>
      <trkpt lat="43.67305" lon="5.90097">
        <ele>494</ele>
        <time>2016-04-30T07:52:01.000Z</time>
      </trkpt>
      <trkpt lat="43.67316" lon="5.9009">
        <ele>493</ele>
        <time>2016-04-30T07:52:05.000Z</time>
      </trkpt>
      <trkpt lat="43.67325" lon="5.90086">
        <ele>494</ele>
        <time>2016-04-30T07:52:09.000Z</time>
      </trkpt>
      <trkpt lat="43.67329" lon="5.90071">
        <ele>494</ele>
        <time>2016-04-30T07:52:13.000Z</time>
      </trkpt>
      <trkpt lat="43.67331" lon="5.90056">
        <ele>495</ele>
        <time>2016-04-30T07:52:17.000Z</time>
      </trkpt>
      <trkpt lat="43.6733" lon="5.90042">
        <ele>495</ele>
        <time>2016-04-30T07:52:21.000Z</time>
      </trkpt>
      <trkpt lat="43.67327" lon="5.90027">
        <ele>495</ele>
        <time>2016-04-30T07:52:25.000Z</time>
      </trkpt>
      <trkpt lat="43.67325" lon="5.90005">
        <ele>496</ele>
        <time>2016-04-30T07:52:29.000Z</time>
      </trkpt>
      <trkpt lat="43.6732" lon="5.89984">
        <ele>496</ele>
        <time>2016-04-30T07:52:33.000Z</time>
      </trkpt>
      <trkpt lat="43.6731" lon="5.8997">
        <ele>497</ele>
        <time>2016-04-30T07:52:37.000Z</time>
      </trkpt>
      <trkpt lat="43.6731" lon="5.8997">
        <ele>497</ele>
        <time>2016-04-30T07:52:39.000Z</time>
      </trkpt>
      <trkpt lat="43.6731" lon="5.8997">
        <ele>497</ele>
        <time>2016-04-30T07:52:41.000Z</time>
      </trkpt>
      <trkpt lat="43.6731" lon="5.8997">
        <ele>497</ele>
        <time>2016-04-30T07:52:43.000Z</time>
      </trkpt>
      <trkpt lat="43.6731" lon="5.8997">
        <ele>497</ele>
        <time>2016-04-30T07:52:45.000Z</time>
      </trkpt>
      <trkpt lat="43.6731" lon="5.8997">
        <ele>497</ele>
        <time>2016-04-30T07:52:47.000Z</time>
      </trkpt>
      <trkpt lat="43.6731" lon="5.8997">
        <ele>497</ele>
        <time>2016-04-30T07:52:49.000Z</time>
      </trkpt>
      <trkpt lat="43.6731" lon="5.8997">
        <ele>497</ele>
        <time>2016-04-30T07:52:51.000Z</time>
      </trkpt>
      <trkpt lat="43.6731" lon="5.8997">
        <ele>497</ele>
        <time>2016-04-30T07:52:53.000Z</time>
      </trkpt>
      <trkpt lat="43.6731" lon="5.8997">
        <ele>497</ele>
        <time>2016-04-30T07:52:55.000Z</time>
      </trkpt>
      <trkpt lat="43.6731" lon="5.8997">
        <ele>497</ele>
        <time>2016-04-30T07:52:57.000Z</time>
      </trkpt>
      <trkpt lat="43.6731" lon="5.8997">
        <ele>497</ele>
        <time>2016-04-30T07:52:59.000Z</time>
      </trkpt>
      <trkpt lat="43.6731" lon="5.8997">
        <ele>497</ele>
        <time>2016-04-30T07:53:01.000Z</time>
      </trkpt>
      <trkpt lat="43.6731" lon="5.8997">
        <ele>497</ele>
        <time>2016-04-30T07:53:03.000Z</time>
      </trkpt>
      <trkpt lat="43.6731" lon="5.8997">
        <ele>497</ele>
        <time>2016-04-30T07:53:05.000Z</time>
      </trkpt>
      <trkpt lat="43.6731" lon="5.8997">
        <ele>497</ele>
        <time>2016-04-30T07:53:07.000Z</time>
      </trkpt>
      <trkpt lat="43.6731" lon="5.8997">
        <ele>497</ele>
        <time>2016-04-30T07:53:09.000Z</time>
      </trkpt>
      <trkpt lat="43.6731" lon="5.8997">
        <ele>497</ele>
        <time>2016-04-30T07:53:11.000Z</time>
      </trkpt>
      <trkpt lat="43.6731" lon="5.8997">
        <ele>497</ele>
        <time>2016-04-30T07:53:13.000Z</time>
      </trkpt>
      <trkpt lat="43.6731" lon="5.8997">
        <ele>497</ele>
        <time>2016-04-30T07:53:15.000Z</time>
      </trkpt>
      <trkpt lat="43.67308" lon="5.89928">
        <ele>497</ele>
        <time>2016-04-30T07:53:19.000Z</time>
      </trkpt>
      <trkpt lat="43.67307" lon="5.89902">
        <ele>497</ele>
        <time>2016-04-30T07:53:21.000Z</time>
      </trkpt>
      <trkpt lat="43.67309" lon="5.89886">
        <ele>496</ele>
        <time>2016-04-30T07:53:23.000Z</time>
      </trkpt>
      <trkpt lat="43.67312" lon="5.89875">
        <ele>496</ele>
        <time>2016-04-30T07:53:25.000Z</time>
      </trkpt>
      <trkpt lat="43.67315" lon="5.89865">
        <ele>495</ele>
        <time>2016-04-30T07:53:27.000Z</time>
      </trkpt>
      <trkpt lat="43.67322" lon="5.89846">
        <ele>495</ele>
        <time>2016-04-30T07:53:29.000Z</time>
      </trkpt>
      <trkpt lat="43.67322" lon="5.89846">
        <ele>495</ele>
        <time>2016-04-30T07:53:31.000Z</time>
      </trkpt>
      <trkpt lat="43.67322" lon="5.89846">
        <ele>495</ele>
        <time>2016-04-30T07:53:33.000Z</time>
      </trkpt>
      <trkpt lat="43.67322" lon="5.89846">
        <ele>495</ele>
        <time>2016-04-30T07:53:35.000Z</time>
      </trkpt>
      <trkpt lat="43.67322" lon="5.89846">
        <ele>495</ele>
        <time>2016-04-30T07:53:37.000Z</time>
      </trkpt>
      <trkpt lat="43.67322" lon="5.89846">
        <ele>495</ele>
        <time>2016-04-30T07:53:39.000Z</time>
      </trkpt>
      <trkpt lat="43.67322" lon="5.89846">
        <ele>495</ele>
        <time>2016-04-30T07:53:41.000Z</time>
      </trkpt>
      <trkpt lat="43.67329" lon="5.89807">
        <ele>495</ele>
        <time>2016-04-30T07:53:47.000Z</time>
      </trkpt>
      <trkpt lat="43.67321" lon="5.89798">
        <ele>495</ele>
        <time>2016-04-30T07:53:51.000Z</time>
      </trkpt>
      <trkpt lat="43.6731" lon="5.89793">
        <ele>493</ele>
        <time>2016-04-30T07:53:55.000Z</time>
      </trkpt>
      <trkpt lat="43.67296" lon="5.89796">
        <ele>492</ele>
        <time>2016-04-30T07:53:58.000Z</time>
      </trkpt>
      <trkpt lat="43.67278" lon="5.89795">
        <ele>491</ele>
        <time>2016-04-30T07:54:02.000Z</time>
      </trkpt>
      <trkpt lat="43.67278" lon="5.89795">
        <ele>491</ele>
        <time>2016-04-30T07:54:04.000Z</time>
      </trkpt>
      <trkpt lat="43.67265" lon="5.89796">
        <ele>491</ele>
        <time>2016-04-30T07:54:06.000Z</time>
      </trkpt>
      <trkpt lat="43.67265" lon="5.89796">
        <ele>491</ele>
        <time>2016-04-30T07:54:08.000Z</time>
      </trkpt>
      <trkpt lat="43.67265" lon="5.89796">
        <ele>491</ele>
        <time>2016-04-30T07:54:10.000Z</time>
      </trkpt>
      <trkpt lat="43.67265" lon="5.89796">
        <ele>491</ele>
        <time>2016-04-30T07:54:12.000Z</time>
      </trkpt>
      <trkpt lat="43.67224" lon="5.89798">
        <ele>490</ele>
        <time>2016-04-30T07:54:18.000Z</time>
      </trkpt>
      <trkpt lat="43.67211" lon="5.89797">
        <ele>490</ele>
        <time>2016-04-30T07:54:22.000Z</time>
      </trkpt>
      <trkpt lat="43.67211" lon="5.89797">
        <ele>490</ele>
        <time>2016-04-30T07:54:24.000Z</time>
      </trkpt>
      <trkpt lat="43.67211" lon="5.89797">
        <ele>490</ele>
        <time>2016-04-30T07:54:26.000Z</time>
      </trkpt>
      <trkpt lat="43.67211" lon="5.89797">
        <ele>490</ele>
        <time>2016-04-30T07:54:28.000Z</time>
      </trkpt>
      <trkpt lat="43.67205" lon="5.8975">
        <ele>491</ele>
        <time>2016-04-30T07:54:32.000Z</time>
      </trkpt>
      <trkpt lat="43.67205" lon="5.89727">
        <ele>492</ele>
        <time>2016-04-30T07:54:36.000Z</time>
      </trkpt>
      <trkpt lat="43.67206" lon="5.89704">
        <ele>492</ele>
        <time>2016-04-30T07:54:40.000Z</time>
      </trkpt>
      <trkpt lat="43.67206" lon="5.89704">
        <ele>492</ele>
        <time>2016-04-30T07:54:42.000Z</time>
      </trkpt>
      <trkpt lat="43.67213" lon="5.89686">
        <ele>494</ele>
        <time>2016-04-30T07:54:44.000Z</time>
      </trkpt>
      <trkpt lat="43.67213" lon="5.89686">
        <ele>494</ele>
        <time>2016-04-30T07:54:46.000Z</time>
      </trkpt>
      <trkpt lat="43.67213" lon="5.89686">
        <ele>494</ele>
        <time>2016-04-30T07:54:48.000Z</time>
      </trkpt>
      <trkpt lat="43.67213" lon="5.89686">
        <ele>494</ele>
        <time>2016-04-30T07:54:50.000Z</time>
      </trkpt>
      <trkpt lat="43.67213" lon="5.89686">
        <ele>494</ele>
        <time>2016-04-30T07:54:52.000Z</time>
      </trkpt>
      <trkpt lat="43.67213" lon="5.89686">
        <ele>494</ele>
        <time>2016-04-30T07:54:54.000Z</time>
      </trkpt>
      <trkpt lat="43.67213" lon="5.89686">
        <ele>494</ele>
        <time>2016-04-30T07:54:56.000Z</time>
      </trkpt>
      <trkpt lat="43.67226" lon="5.89654">
        <ele>493</ele>
        <time>2016-04-30T07:54:58.000Z</time>
      </trkpt>
      <trkpt lat="43.67236" lon="5.89634">
        <ele>493</ele>
        <time>2016-04-30T07:55:00.000Z</time>
      </trkpt>
      <trkpt lat="43.67243" lon="5.8962">
        <ele>494</ele>
        <time>2016-04-30T07:55:02.000Z</time>
      </trkpt>
      <trkpt lat="43.67249" lon="5.89609">
        <ele>494</ele>
        <time>2016-04-30T07:55:04.000Z</time>
      </trkpt>
      <trkpt lat="43.67249" lon="5.89609">
        <ele>494</ele>
        <time>2016-04-30T07:55:06.000Z</time>
      </trkpt>
      <trkpt lat="43.67249" lon="5.89609">
        <ele>494</ele>
        <time>2016-04-30T07:55:08.000Z</time>
      </trkpt>
      <trkpt lat="43.67249" lon="5.89609">
        <ele>494</ele>
        <time>2016-04-30T07:55:10.000Z</time>
      </trkpt>
      <trkpt lat="43.67249" lon="5.89609">
        <ele>494</ele>
        <time>2016-04-30T07:55:12.000Z</time>
      </trkpt>
      <trkpt lat="43.67249" lon="5.89609">
        <ele>494</ele>
        <time>2016-04-30T07:55:14.000Z</time>
      </trkpt>
      <trkpt lat="43.67249" lon="5.89609">
        <ele>494</ele>
        <time>2016-04-30T07:55:16.000Z</time>
      </trkpt>
      <trkpt lat="43.67273" lon="5.89584">
        <ele>499</ele>
        <time>2016-04-30T07:55:22.000Z</time>
      </trkpt>
      <trkpt lat="43.67286" lon="5.89569">
        <ele>498</ele>
        <time>2016-04-30T07:55:24.000Z</time>
      </trkpt>
      <trkpt lat="43.67297" lon="5.89557">
        <ele>498</ele>
        <time>2016-04-30T07:55:26.000Z</time>
      </trkpt>
      <trkpt lat="43.67306" lon="5.89546">
        <ele>498</ele>
        <time>2016-04-30T07:55:28.000Z</time>
      </trkpt>
      <trkpt lat="43.67315" lon="5.89535">
        <ele>497</ele>
        <time>2016-04-30T07:55:30.000Z</time>
      </trkpt>
      <trkpt lat="43.67332" lon="5.89515">
        <ele>496</ele>
        <time>2016-04-30T07:55:32.000Z</time>
      </trkpt>
      <trkpt lat="43.67341" lon="5.89503">
        <ele>495</ele>
        <time>2016-04-30T07:55:34.000Z</time>
      </trkpt>
      <trkpt lat="43.6735" lon="5.89492">
        <ele>494</ele>
        <time>2016-04-30T07:55:36.000Z</time>
      </trkpt>
      <trkpt lat="43.6736" lon="5.8948">
        <ele>494</ele>
        <time>2016-04-30T07:55:38.000Z</time>
      </trkpt>
      <trkpt lat="43.67371" lon="5.89468">
        <ele>493</ele>
        <time>2016-04-30T07:55:40.000Z</time>
      </trkpt>
      <trkpt lat="43.67382" lon="5.89458">
        <ele>492</ele>
        <time>2016-04-30T07:55:42.000Z</time>
      </trkpt>
      <trkpt lat="43.67397" lon="5.89453">
        <ele>492</ele>
        <time>2016-04-30T07:55:44.000Z</time>
      </trkpt>
      <trkpt lat="43.6741" lon="5.8945">
        <ele>492</ele>
        <time>2016-04-30T07:55:46.000Z</time>
      </trkpt>
      <trkpt lat="43.67423" lon="5.89447">
        <ele>492</ele>
        <time>2016-04-30T07:55:48.000Z</time>
      </trkpt>
      <trkpt lat="43.67435" lon="5.89446">
        <ele>492</ele>
        <time>2016-04-30T07:55:50.000Z</time>
      </trkpt>
      <trkpt lat="43.67448" lon="5.89441">
        <ele>491</ele>
        <time>2016-04-30T07:55:52.000Z</time>
      </trkpt>
      <trkpt lat="43.67461" lon="5.89434">
        <ele>491</ele>
        <time>2016-04-30T07:55:54.000Z</time>
      </trkpt>
      <trkpt lat="43.67472" lon="5.89432">
        <ele>491</ele>
        <time>2016-04-30T07:55:56.000Z</time>
      </trkpt>
      <trkpt lat="43.67472" lon="5.89432">
        <ele>491</ele>
        <time>2016-04-30T07:55:58.000Z</time>
      </trkpt>
      <trkpt lat="43.67472" lon="5.89432">
        <ele>491</ele>
        <time>2016-04-30T07:56:00.000Z</time>
      </trkpt>
      <trkpt lat="43.67472" lon="5.89432">
        <ele>491</ele>
        <time>2016-04-30T07:56:02.000Z</time>
      </trkpt>
      <trkpt lat="43.67472" lon="5.89432">
        <ele>491</ele>
        <time>2016-04-30T07:56:04.000Z</time>
      </trkpt>
      <trkpt lat="43.67472" lon="5.89432">
        <ele>491</ele>
        <time>2016-04-30T07:56:06.000Z</time>
      </trkpt>
      <trkpt lat="43.67472" lon="5.89432">
        <ele>491</ele>
        <time>2016-04-30T07:56:08.000Z</time>
      </trkpt>
      <trkpt lat="43.67472" lon="5.89432">
        <ele>491</ele>
        <time>2016-04-30T07:56:10.000Z</time>
      </trkpt>
      <trkpt lat="43.67472" lon="5.89432">
        <ele>491</ele>
        <time>2016-04-30T07:56:12.000Z</time>
      </trkpt>
      <trkpt lat="43.67512" lon="5.89488">
        <ele>496</ele>
        <time>2016-04-30T07:56:16.000Z</time>
      </trkpt>
      <trkpt lat="43.67524" lon="5.89493">
        <ele>497</ele>
        <time>2016-04-30T07:56:20.000Z</time>
      </trkpt>
      <trkpt lat="43.67524" lon="5.89493">
        <ele>497</ele>
        <time>2016-04-30T07:56:24.000Z</time>
      </trkpt>
      <trkpt lat="43.67524" lon="5.89493">
        <ele>497</ele>
        <time>2016-04-30T07:56:26.000Z</time>
      </trkpt>
      <trkpt lat="43.67524" lon="5.89493">
        <ele>497</ele>
        <time>2016-04-30T07:56:28.000Z</time>
      </trkpt>
      <trkpt lat="43.67524" lon="5.89493">
        <ele>497</ele>
        <time>2016-04-30T07:56:30.000Z</time>
      </trkpt>
      <trkpt lat="43.67524" lon="5.89493">
        <ele>497</ele>
        <time>2016-04-30T07:56:32.000Z</time>
      </trkpt>
      <trkpt lat="43.67524" lon="5.89493">
        <ele>497</ele>
        <time>2016-04-30T07:56:34.000Z</time>
      </trkpt>
      <trkpt lat="43.67524" lon="5.89493">
        <ele>497</ele>
        <time>2016-04-30T07:56:36.000Z</time>
      </trkpt>
      <trkpt lat="43.67524" lon="5.89493">
        <ele>497</ele>
        <time>2016-04-30T07:56:38.000Z</time>
      </trkpt>
      <trkpt lat="43.67524" lon="5.89493">
        <ele>497</ele>
        <time>2016-04-30T07:56:40.000Z</time>
      </trkpt>
      <trkpt lat="43.67524" lon="5.89493">
        <ele>497</ele>
        <time>2016-04-30T07:56:42.000Z</time>
      </trkpt>
      <trkpt lat="43.67524" lon="5.89493">
        <ele>497</ele>
        <time>2016-04-30T07:56:44.000Z</time>
      </trkpt>
      <trkpt lat="43.67524" lon="5.89493">
        <ele>497</ele>
        <time>2016-04-30T07:56:46.000Z</time>
      </trkpt>
      <trkpt lat="43.67582" lon="5.89539">
        <ele>501</ele>
        <time>2016-04-30T07:56:50.000Z</time>
      </trkpt>
      <trkpt lat="43.67581" lon="5.89555">
        <ele>501</ele>
        <time>2016-04-30T07:56:54.000Z</time>
      </trkpt>
      <trkpt lat="43.67581" lon="5.89571">
        <ele>501</ele>
        <time>2016-04-30T07:56:58.000Z</time>
      </trkpt>
      <trkpt lat="43.67581" lon="5.89586">
        <ele>501</ele>
        <time>2016-04-30T07:57:02.000Z</time>
      </trkpt>
      <trkpt lat="43.67582" lon="5.89601">
        <ele>501</ele>
        <time>2016-04-30T07:57:06.000Z</time>
      </trkpt>
      <trkpt lat="43.67585" lon="5.89615">
        <ele>501</ele>
        <time>2016-04-30T07:57:10.000Z</time>
      </trkpt>
      <trkpt lat="43.67585" lon="5.89615">
        <ele>501</ele>
        <time>2016-04-30T07:57:12.000Z</time>
      </trkpt>
      <trkpt lat="43.67585" lon="5.89615">
        <ele>501</ele>
        <time>2016-04-30T07:57:14.000Z</time>
      </trkpt>
      <trkpt lat="43.67585" lon="5.89615">
        <ele>501</ele>
        <time>2016-04-30T07:57:16.000Z</time>
      </trkpt>
      <trkpt lat="43.67585" lon="5.89615">
        <ele>501</ele>
        <time>2016-04-30T07:57:18.000Z</time>
      </trkpt>
      <trkpt lat="43.67585" lon="5.89615">
        <ele>501</ele>
        <time>2016-04-30T07:57:20.000Z</time>
      </trkpt>
      <trkpt lat="43.67585" lon="5.89615">
        <ele>501</ele>
        <time>2016-04-30T07:57:22.000Z</time>
      </trkpt>
      <trkpt lat="43.67585" lon="5.89615">
        <ele>501</ele>
        <time>2016-04-30T07:57:24.000Z</time>
      </trkpt>
      <trkpt lat="43.67585" lon="5.89615">
        <ele>501</ele>
        <time>2016-04-30T07:57:26.000Z</time>
      </trkpt>
      <trkpt lat="43.67585" lon="5.89615">
        <ele>501</ele>
        <time>2016-04-30T07:57:28.000Z</time>
      </trkpt>
      <trkpt lat="43.67585" lon="5.89615">
        <ele>501</ele>
        <time>2016-04-30T07:57:30.000Z</time>
      </trkpt>
      <trkpt lat="43.67585" lon="5.89615">
        <ele>501</ele>
        <time>2016-04-30T07:57:32.000Z</time>
      </trkpt>
      <trkpt lat="43.67585" lon="5.89615">
        <ele>501</ele>
        <time>2016-04-30T07:57:34.000Z</time>
      </trkpt>
      <trkpt lat="43.67585" lon="5.89615">
        <ele>501</ele>
        <time>2016-04-30T07:57:36.000Z</time>
      </trkpt>
      <trkpt lat="43.67585" lon="5.89615">
        <ele>501</ele>
        <time>2016-04-30T07:57:38.000Z</time>
      </trkpt>
      <trkpt lat="43.67585" lon="5.89615">
        <ele>501</ele>
        <time>2016-04-30T07:57:40.000Z</time>
      </trkpt>
      <trkpt lat="43.67585" lon="5.89615">
        <ele>501</ele>
        <time>2016-04-30T07:57:42.000Z</time>
      </trkpt>
      <trkpt lat="43.67585" lon="5.89615">
        <ele>501</ele>
        <time>2016-04-30T07:57:44.000Z</time>
      </trkpt>
      <trkpt lat="43.67585" lon="5.89615">
        <ele>501</ele>
        <time>2016-04-30T07:57:46.000Z</time>
      </trkpt>
      <trkpt lat="43.67585" lon="5.89615">
        <ele>501</ele>
        <time>2016-04-30T07:57:48.000Z</time>
      </trkpt>
      <trkpt lat="43.67585" lon="5.89615">
        <ele>501</ele>
        <time>2016-04-30T07:57:50.000Z</time>
      </trkpt>
      <trkpt lat="43.67586" lon="5.8969">
        <ele>502</ele>
        <time>2016-04-30T07:57:56.000Z</time>
      </trkpt>
      <trkpt lat="43.67587" lon="5.89731">
        <ele>502</ele>
        <time>2016-04-30T07:57:58.000Z</time>
      </trkpt>
      <trkpt lat="43.67589" lon="5.89755">
        <ele>502</ele>
        <time>2016-04-30T07:58:00.000Z</time>
      </trkpt>
      <trkpt lat="43.67591" lon="5.89771">
        <ele>503</ele>
        <time>2016-04-30T07:58:02.000Z</time>
      </trkpt>
      <trkpt lat="43.67593" lon="5.89783">
        <ele>503</ele>
        <time>2016-04-30T07:58:04.000Z</time>
      </trkpt>
      <trkpt lat="43.67596" lon="5.89803">
        <ele>503</ele>
        <time>2016-04-30T07:58:06.000Z</time>
      </trkpt>
      <trkpt lat="43.67599" lon="5.89817">
        <ele>504</ele>
        <time>2016-04-30T07:58:10.000Z</time>
      </trkpt>
      <trkpt lat="43.67599" lon="5.89817">
        <ele>504</ele>
        <time>2016-04-30T07:58:12.000Z</time>
      </trkpt>
      <trkpt lat="43.67599" lon="5.89817">
        <ele>504</ele>
        <time>2016-04-30T07:58:14.000Z</time>
      </trkpt>
      <trkpt lat="43.67599" lon="5.89817">
        <ele>504</ele>
        <time>2016-04-30T07:58:16.000Z</time>
      </trkpt>
      <trkpt lat="43.67599" lon="5.89817">
        <ele>504</ele>
        <time>2016-04-30T07:58:18.000Z</time>
      </trkpt>
      <trkpt lat="43.67599" lon="5.89817">
        <ele>504</ele>
        <time>2016-04-30T07:58:20.000Z</time>
      </trkpt>
      <trkpt lat="43.67599" lon="5.89817">
        <ele>504</ele>
        <time>2016-04-30T07:58:22.000Z</time>
      </trkpt>
      <trkpt lat="43.67599" lon="5.89817">
        <ele>504</ele>
        <time>2016-04-30T07:58:24.000Z</time>
      </trkpt>
      <trkpt lat="43.67599" lon="5.89817">
        <ele>504</ele>
        <time>2016-04-30T07:58:26.000Z</time>
      </trkpt>
      <trkpt lat="43.67599" lon="5.89817">
        <ele>504</ele>
        <time>2016-04-30T07:58:28.000Z</time>
      </trkpt>
      <trkpt lat="43.67599" lon="5.89817">
        <ele>504</ele>
        <time>2016-04-30T07:58:30.000Z</time>
      </trkpt>
      <trkpt lat="43.67599" lon="5.89817">
        <ele>504</ele>
        <time>2016-04-30T07:58:32.000Z</time>
      </trkpt>
      <trkpt lat="43.67599" lon="5.89817">
        <ele>504</ele>
        <time>2016-04-30T07:58:34.000Z</time>
      </trkpt>
      <trkpt lat="43.67599" lon="5.89817">
        <ele>504</ele>
        <time>2016-04-30T07:58:36.000Z</time>
      </trkpt>
      <trkpt lat="43.67599" lon="5.89817">
        <ele>504</ele>
        <time>2016-04-30T07:58:38.000Z</time>
      </trkpt>
      <trkpt lat="43.67599" lon="5.89817">
        <ele>504</ele>
        <time>2016-04-30T07:58:40.000Z</time>
      </trkpt>
      <trkpt lat="43.67599" lon="5.89817">
        <ele>504</ele>
        <time>2016-04-30T07:58:42.000Z</time>
      </trkpt>
      <trkpt lat="43.67599" lon="5.89817">
        <ele>504</ele>
        <time>2016-04-30T07:58:44.000Z</time>
      </trkpt>
      <trkpt lat="43.67599" lon="5.89817">
        <ele>504</ele>
        <time>2016-04-30T07:58:46.000Z</time>
      </trkpt>
      <trkpt lat="43.67612" lon="5.89952">
        <ele>508</ele>
        <time>2016-04-30T07:58:50.000Z</time>
      </trkpt>
      <trkpt lat="43.67613" lon="5.89969">
        <ele>508</ele>
        <time>2016-04-30T07:58:54.000Z</time>
      </trkpt>
      <trkpt lat="43.67615" lon="5.89986">
        <ele>508</ele>
        <time>2016-04-30T07:58:58.000Z</time>
      </trkpt>
      <trkpt lat="43.67615" lon="5.89986">
        <ele>508</ele>
        <time>2016-04-30T07:59:00.000Z</time>
      </trkpt>
      <trkpt lat="43.67615" lon="5.89986">
        <ele>508</ele>
        <time>2016-04-30T07:59:02.000Z</time>
      </trkpt>
      <trkpt lat="43.67615" lon="5.89986">
        <ele>508</ele>
        <time>2016-04-30T07:59:04.000Z</time>
      </trkpt>
      <trkpt lat="43.67615" lon="5.89986">
        <ele>508</ele>
        <time>2016-04-30T07:59:06.000Z</time>
      </trkpt>
      <trkpt lat="43.67615" lon="5.89986">
        <ele>508</ele>
        <time>2016-04-30T07:59:08.000Z</time>
      </trkpt>
      <trkpt lat="43.67615" lon="5.89986">
        <ele>508</ele>
        <time>2016-04-30T07:59:10.000Z</time>
      </trkpt>
      <trkpt lat="43.67615" lon="5.89986">
        <ele>508</ele>
        <time>2016-04-30T07:59:12.000Z</time>
      </trkpt>
      <trkpt lat="43.67615" lon="5.89986">
        <ele>508</ele>
        <time>2016-04-30T07:59:14.000Z</time>
      </trkpt>
      <trkpt lat="43.67615" lon="5.89986">
        <ele>508</ele>
        <time>2016-04-30T07:59:16.000Z</time>
      </trkpt>
      <trkpt lat="43.67615" lon="5.90019">
        <ele>509</ele>
        <time>2016-04-30T07:59:20.000Z</time>
      </trkpt>
      <trkpt lat="43.67615" lon="5.9004">
        <ele>509</ele>
        <time>2016-04-30T07:59:22.000Z</time>
      </trkpt>
      <trkpt lat="43.67614" lon="5.90053">
        <ele>509</ele>
        <time>2016-04-30T07:59:24.000Z</time>
      </trkpt>
      <trkpt lat="43.67612" lon="5.90064">
        <ele>510</ele>
        <time>2016-04-30T07:59:26.000Z</time>
      </trkpt>
      <trkpt lat="43.67611" lon="5.90072">
        <ele>510</ele>
        <time>2016-04-30T07:59:28.000Z</time>
      </trkpt>
      <trkpt lat="43.67606" lon="5.90087">
        <ele>510</ele>
        <time>2016-04-30T07:59:30.000Z</time>
      </trkpt>
      <trkpt lat="43.67602" lon="5.90101">
        <ele>510</ele>
        <time>2016-04-30T07:59:34.000Z</time>
      </trkpt>
      <trkpt lat="43.67596" lon="5.90112">
        <ele>510</ele>
        <time>2016-04-30T07:59:38.000Z</time>
      </trkpt>
      <trkpt lat="43.67592" lon="5.90126">
        <ele>511</ele>
        <time>2016-04-30T07:59:42.000Z</time>
      </trkpt>
      <trkpt lat="43.67592" lon="5.9014">
        <ele>512</ele>
        <time>2016-04-30T07:59:46.000Z</time>
      </trkpt>
      <trkpt lat="43.67592" lon="5.90155">
        <ele>512</ele>
        <time>2016-04-30T07:59:50.000Z</time>
      </trkpt>
      <trkpt lat="43.67594" lon="5.90169">
        <ele>513</ele>
        <time>2016-04-30T07:59:54.000Z</time>
      </trkpt>
      <trkpt lat="43.67598" lon="5.90183">
        <ele>513</ele>
        <time>2016-04-30T07:59:58.000Z</time>
      </trkpt>
      <trkpt lat="43.67604" lon="5.90195">
        <ele>513</ele>
        <time>2016-04-30T08:00:02.000Z</time>
      </trkpt>
      <trkpt lat="43.67612" lon="5.90207">
        <ele>513</ele>
        <time>2016-04-30T08:00:06.000Z</time>
      </trkpt>
      <trkpt lat="43.67619" lon="5.90219">
        <ele>515</ele>
        <time>2016-04-30T08:00:10.000Z</time>
      </trkpt>
      <trkpt lat="43.67623" lon="5.90232">
        <ele>515</ele>
        <time>2016-04-30T08:00:14.000Z</time>
      </trkpt>
      <trkpt lat="43.67623" lon="5.90232">
        <ele>515</ele>
        <time>2016-04-30T08:00:16.000Z</time>
      </trkpt>
      <trkpt lat="43.67623" lon="5.90232">
        <ele>515</ele>
        <time>2016-04-30T08:00:18.000Z</time>
      </trkpt>
      <trkpt lat="43.67623" lon="5.90232">
        <ele>515</ele>
        <time>2016-04-30T08:00:20.000Z</time>
      </trkpt>
      <trkpt lat="43.67623" lon="5.90232">
        <ele>515</ele>
        <time>2016-04-30T08:00:22.000Z</time>
      </trkpt>
      <trkpt lat="43.67623" lon="5.90232">
        <ele>515</ele>
        <time>2016-04-30T08:00:24.000Z</time>
      </trkpt>
      <trkpt lat="43.67623" lon="5.90232">
        <ele>515</ele>
        <time>2016-04-30T08:00:26.000Z</time>
      </trkpt>
      <trkpt lat="43.67619" lon="5.90287">
        <ele>517</ele>
        <time>2016-04-30T08:00:30.000Z</time>
      </trkpt>
      <trkpt lat="43.67616" lon="5.90302">
        <ele>518</ele>
        <time>2016-04-30T08:00:34.000Z</time>
      </trkpt>
      <trkpt lat="43.67614" lon="5.90316">
        <ele>518</ele>
        <time>2016-04-30T08:00:38.000Z</time>
      </trkpt>
      <trkpt lat="43.67614" lon="5.90332">
        <ele>518</ele>
        <time>2016-04-30T08:00:42.000Z</time>
      </trkpt>
      <trkpt lat="43.6762" lon="5.90347">
        <ele>520</ele>
        <time>2016-04-30T08:00:46.000Z</time>
      </trkpt>
      <trkpt lat="43.67631" lon="5.90358">
        <ele>521</ele>
        <time>2016-04-30T08:00:50.000Z</time>
      </trkpt>
      <trkpt lat="43.67642" lon="5.90366">
        <ele>522</ele>
        <time>2016-04-30T08:00:54.000Z</time>
      </trkpt>
      <trkpt lat="43.67653" lon="5.90373">
        <ele>523</ele>
        <time>2016-04-30T08:00:58.000Z</time>
      </trkpt>
      <trkpt lat="43.67653" lon="5.90373">
        <ele>523</ele>
        <time>2016-04-30T08:01:00.000Z</time>
      </trkpt>
      <trkpt lat="43.67653" lon="5.90373">
        <ele>523</ele>
        <time>2016-04-30T08:01:02.000Z</time>
      </trkpt>
      <trkpt lat="43.67653" lon="5.90373">
        <ele>523</ele>
        <time>2016-04-30T08:01:04.000Z</time>
      </trkpt>
      <trkpt lat="43.67653" lon="5.90373">
        <ele>523</ele>
        <time>2016-04-30T08:01:06.000Z</time>
      </trkpt>
      <trkpt lat="43.6767" lon="5.90383">
        <ele>526</ele>
        <time>2016-04-30T08:01:12.000Z</time>
      </trkpt>
      <trkpt lat="43.67682" lon="5.90389">
        <ele>528</ele>
        <time>2016-04-30T08:01:14.000Z</time>
      </trkpt>
      <trkpt lat="43.6769" lon="5.90393">
        <ele>528</ele>
        <time>2016-04-30T08:01:16.000Z</time>
      </trkpt>
      <trkpt lat="43.6769" lon="5.90393">
        <ele>528</ele>
        <time>2016-04-30T08:01:18.000Z</time>
      </trkpt>
      <trkpt lat="43.6769" lon="5.90393">
        <ele>528</ele>
        <time>2016-04-30T08:01:20.000Z</time>
      </trkpt>
      <trkpt lat="43.6769" lon="5.90393">
        <ele>528</ele>
        <time>2016-04-30T08:01:22.000Z</time>
      </trkpt>
      <trkpt lat="43.6769" lon="5.90393">
        <ele>528</ele>
        <time>2016-04-30T08:01:24.000Z</time>
      </trkpt>
      <trkpt lat="43.6769" lon="5.90393">
        <ele>528</ele>
        <time>2016-04-30T08:01:26.000Z</time>
      </trkpt>
      <trkpt lat="43.6769" lon="5.90393">
        <ele>528</ele>
        <time>2016-04-30T08:01:28.000Z</time>
      </trkpt>
      <trkpt lat="43.6769" lon="5.90393">
        <ele>528</ele>
        <time>2016-04-30T08:01:30.000Z</time>
      </trkpt>
      <trkpt lat="43.6769" lon="5.90393">
        <ele>528</ele>
        <time>2016-04-30T08:01:32.000Z</time>
      </trkpt>
      <trkpt lat="43.6769" lon="5.90393">
        <ele>528</ele>
        <time>2016-04-30T08:01:34.000Z</time>
      </trkpt>
      <trkpt lat="43.6769" lon="5.90393">
        <ele>528</ele>
        <time>2016-04-30T08:01:36.000Z</time>
      </trkpt>
      <trkpt lat="43.67716" lon="5.90406">
        <ele>534</ele>
        <time>2016-04-30T08:01:40.000Z</time>
      </trkpt>
      <trkpt lat="43.67731" lon="5.90415">
        <ele>535</ele>
        <time>2016-04-30T08:01:42.000Z</time>
      </trkpt>
      <trkpt lat="43.67741" lon="5.90422">
        <ele>535</ele>
        <time>2016-04-30T08:01:44.000Z</time>
      </trkpt>
      <trkpt lat="43.67747" lon="5.90428">
        <ele>535</ele>
        <time>2016-04-30T08:01:46.000Z</time>
      </trkpt>
      <trkpt lat="43.67753" lon="5.90433">
        <ele>535</ele>
        <time>2016-04-30T08:01:48.000Z</time>
      </trkpt>
      <trkpt lat="43.67761" lon="5.90444">
        <ele>534</ele>
        <time>2016-04-30T08:01:50.000Z</time>
      </trkpt>
      <trkpt lat="43.67769" lon="5.90453">
        <ele>534</ele>
        <time>2016-04-30T08:01:54.000Z</time>
      </trkpt>
      <trkpt lat="43.67777" lon="5.90462">
        <ele>535</ele>
        <time>2016-04-30T08:01:58.000Z</time>
      </trkpt>
      <trkpt lat="43.67783" lon="5.90473">
        <ele>535</ele>
        <time>2016-04-30T08:02:02.000Z</time>
      </trkpt>
      <trkpt lat="43.67785" lon="5.90486">
        <ele>534</ele>
        <time>2016-04-30T08:02:06.000Z</time>
      </trkpt>
      <trkpt lat="43.67788" lon="5.90501">
        <ele>533</ele>
        <time>2016-04-30T08:02:10.000Z</time>
      </trkpt>
      <trkpt lat="43.67789" lon="5.90517">
        <ele>533</ele>
        <time>2016-04-30T08:02:14.000Z</time>
      </trkpt>
      <trkpt lat="43.67789" lon="5.90532">
        <ele>533</ele>
        <time>2016-04-30T08:02:18.000Z</time>
      </trkpt>
      <trkpt lat="43.67789" lon="5.90532">
        <ele>533</ele>
        <time>2016-04-30T08:02:20.000Z</time>
      </trkpt>
      <trkpt lat="43.67789" lon="5.90532">
        <ele>533</ele>
        <time>2016-04-30T08:02:22.000Z</time>
      </trkpt>
      <trkpt lat="43.67789" lon="5.90532">
        <ele>533</ele>
        <time>2016-04-30T08:02:24.000Z</time>
      </trkpt>
      <trkpt lat="43.67789" lon="5.90532">
        <ele>533</ele>
        <time>2016-04-30T08:02:26.000Z</time>
      </trkpt>
      <trkpt lat="43.67781" lon="5.90566">
        <ele>532</ele>
        <time>2016-04-30T08:02:28.000Z</time>
      </trkpt>
      <trkpt lat="43.67777" lon="5.90588">
        <ele>532</ele>
        <time>2016-04-30T08:02:32.000Z</time>
      </trkpt>
      <trkpt lat="43.67781" lon="5.90607">
        <ele>531</ele>
        <time>2016-04-30T08:02:36.000Z</time>
      </trkpt>
      <trkpt lat="43.67786" lon="5.90625">
        <ele>530</ele>
        <time>2016-04-30T08:02:40.000Z</time>
      </trkpt>
      <trkpt lat="43.67786" lon="5.90625">
        <ele>530</ele>
        <time>2016-04-30T08:02:42.000Z</time>
      </trkpt>
      <trkpt lat="43.67786" lon="5.90625">
        <ele>530</ele>
        <time>2016-04-30T08:02:44.000Z</time>
      </trkpt>
      <trkpt lat="43.67786" lon="5.90625">
        <ele>530</ele>
        <time>2016-04-30T08:02:46.000Z</time>
      </trkpt>
      <trkpt lat="43.67786" lon="5.90625">
        <ele>530</ele>
        <time>2016-04-30T08:02:48.000Z</time>
      </trkpt>
      <trkpt lat="43.67786" lon="5.90625">
        <ele>530</ele>
        <time>2016-04-30T08:02:50.000Z</time>
      </trkpt>
      <trkpt lat="43.67786" lon="5.90625">
        <ele>530</ele>
        <time>2016-04-30T08:02:52.000Z</time>
      </trkpt>
      <trkpt lat="43.67786" lon="5.90625">
        <ele>530</ele>
        <time>2016-04-30T08:02:54.000Z</time>
      </trkpt>
      <trkpt lat="43.67786" lon="5.90625">
        <ele>530</ele>
        <time>2016-04-30T08:02:56.000Z</time>
      </trkpt>
      <trkpt lat="43.67786" lon="5.90625">
        <ele>530</ele>
        <time>2016-04-30T08:02:58.000Z</time>
      </trkpt>
      <trkpt lat="43.67786" lon="5.90625">
        <ele>530</ele>
        <time>2016-04-30T08:03:00.000Z</time>
      </trkpt>
      <trkpt lat="43.67786" lon="5.90625">
        <ele>530</ele>
        <time>2016-04-30T08:03:02.000Z</time>
      </trkpt>
      <trkpt lat="43.67795" lon="5.90707">
        <ele>529</ele>
        <time>2016-04-30T08:03:06.000Z</time>
      </trkpt>
      <trkpt lat="43.67795" lon="5.90723">
        <ele>529</ele>
        <time>2016-04-30T08:03:10.000Z</time>
      </trkpt>
      <trkpt lat="43.67795" lon="5.90723">
        <ele>529</ele>
        <time>2016-04-30T08:03:12.000Z</time>
      </trkpt>
      <trkpt lat="43.67795" lon="5.90723">
        <ele>529</ele>
        <time>2016-04-30T08:03:14.000Z</time>
      </trkpt>
      <trkpt lat="43.67795" lon="5.90723">
        <ele>529</ele>
        <time>2016-04-30T08:03:16.000Z</time>
      </trkpt>
      <trkpt lat="43.67795" lon="5.90723">
        <ele>529</ele>
        <time>2016-04-30T08:03:18.000Z</time>
      </trkpt>
      <trkpt lat="43.67795" lon="5.90723">
        <ele>529</ele>
        <time>2016-04-30T08:03:20.000Z</time>
      </trkpt>
      <trkpt lat="43.67795" lon="5.90723">
        <ele>529</ele>
        <time>2016-04-30T08:03:22.000Z</time>
      </trkpt>
      <trkpt lat="43.67795" lon="5.90723">
        <ele>529</ele>
        <time>2016-04-30T08:03:24.000Z</time>
      </trkpt>
      <trkpt lat="43.67795" lon="5.90723">
        <ele>529</ele>
        <time>2016-04-30T08:03:26.000Z</time>
      </trkpt>
      <trkpt lat="43.67795" lon="5.90723">
        <ele>529</ele>
        <time>2016-04-30T08:03:28.000Z</time>
      </trkpt>
      <trkpt lat="43.67795" lon="5.90723">
        <ele>529</ele>
        <time>2016-04-30T08:03:30.000Z</time>
      </trkpt>
      <trkpt lat="43.67795" lon="5.90723">
        <ele>529</ele>
        <time>2016-04-30T08:03:32.000Z</time>
      </trkpt>
      <trkpt lat="43.67795" lon="5.90723">
        <ele>529</ele>
        <time>2016-04-30T08:03:34.000Z</time>
      </trkpt>
      <trkpt lat="43.67795" lon="5.90723">
        <ele>529</ele>
        <time>2016-04-30T08:03:36.000Z</time>
      </trkpt>
      <trkpt lat="43.67795" lon="5.90723">
        <ele>529</ele>
        <time>2016-04-30T08:03:38.000Z</time>
      </trkpt>
      <trkpt lat="43.67795" lon="5.90723">
        <ele>529</ele>
        <time>2016-04-30T08:03:40.000Z</time>
      </trkpt>
      <trkpt lat="43.67795" lon="5.90723">
        <ele>529</ele>
        <time>2016-04-30T08:03:42.000Z</time>
      </trkpt>
      <trkpt lat="43.67795" lon="5.90723">
        <ele>529</ele>
        <time>2016-04-30T08:03:44.000Z</time>
      </trkpt>
      <trkpt lat="43.67795" lon="5.90723">
        <ele>529</ele>
        <time>2016-04-30T08:03:46.000Z</time>
      </trkpt>
      <trkpt lat="43.67795" lon="5.90723">
        <ele>529</ele>
        <time>2016-04-30T08:03:48.000Z</time>
      </trkpt>
      <trkpt lat="43.67795" lon="5.90723">
        <ele>529</ele>
        <time>2016-04-30T08:03:50.000Z</time>
      </trkpt>
      <trkpt lat="43.67795" lon="5.90723">
        <ele>529</ele>
        <time>2016-04-30T08:03:52.000Z</time>
      </trkpt>
      <trkpt lat="43.67795" lon="5.90723">
        <ele>529</ele>
        <time>2016-04-30T08:03:56.000Z</time>
      </trkpt>
      <trkpt lat="43.67795" lon="5.90723">
        <ele>529</ele>
        <time>2016-04-30T08:03:58.000Z</time>
      </trkpt>
      <trkpt lat="43.67769" lon="5.90786">
        <ele>531</ele>
        <time>2016-04-30T08:04:00.000Z</time>
      </trkpt>
      <trkpt lat="43.67754" lon="5.9082">
        <ele>532</ele>
        <time>2016-04-30T08:04:02.000Z</time>
      </trkpt>
      <trkpt lat="43.67744" lon="5.9084">
        <ele>532</ele>
        <time>2016-04-30T08:04:04.000Z</time>
      </trkpt>
      <trkpt lat="43.67738" lon="5.90852">
        <ele>531</ele>
        <time>2016-04-30T08:04:06.000Z</time>
      </trkpt>
      <trkpt lat="43.67733" lon="5.90863">
        <ele>531</ele>
        <time>2016-04-30T08:04:08.000Z</time>
      </trkpt>
      <trkpt lat="43.67725" lon="5.90882">
        <ele>531</ele>
        <time>2016-04-30T08:04:10.000Z</time>
      </trkpt>
      <trkpt lat="43.67722" lon="5.90901">
        <ele>531</ele>
        <time>2016-04-30T08:04:14.000Z</time>
      </trkpt>
      <trkpt lat="43.6772" lon="5.9092">
        <ele>530</ele>
        <time>2016-04-30T08:04:18.000Z</time>
      </trkpt>
      <trkpt lat="43.67721" lon="5.90939">
        <ele>530</ele>
        <time>2016-04-30T08:04:22.000Z</time>
      </trkpt>
      <trkpt lat="43.67725" lon="5.90957">
        <ele>530</ele>
        <time>2016-04-30T08:04:26.000Z</time>
      </trkpt>
      <trkpt lat="43.67725" lon="5.90957">
        <ele>530</ele>
        <time>2016-04-30T08:04:28.000Z</time>
      </trkpt>
      <trkpt lat="43.67725" lon="5.90957">
        <ele>530</ele>
        <time>2016-04-30T08:04:30.000Z</time>
      </trkpt>
      <trkpt lat="43.67725" lon="5.90957">
        <ele>530</ele>
        <time>2016-04-30T08:04:32.000Z</time>
      </trkpt>
      <trkpt lat="43.67725" lon="5.90957">
        <ele>530</ele>
        <time>2016-04-30T08:04:34.000Z</time>
      </trkpt>
      <trkpt lat="43.67714" lon="5.90978">
        <ele>532</ele>
        <time>2016-04-30T08:04:38.000Z</time>
      </trkpt>
      <trkpt lat="43.67707" lon="5.90989">
        <ele>531</ele>
        <time>2016-04-30T08:04:42.000Z</time>
      </trkpt>
      <trkpt lat="43.67707" lon="5.90989">
        <ele>531</ele>
        <time>2016-04-30T08:04:44.000Z</time>
      </trkpt>
      <trkpt lat="43.67702" lon="5.91001">
        <ele>532</ele>
        <time>2016-04-30T08:04:46.000Z</time>
      </trkpt>
      <trkpt lat="43.67705" lon="5.91017">
        <ele>532</ele>
        <time>2016-04-30T08:04:50.000Z</time>
      </trkpt>
      <trkpt lat="43.67708" lon="5.91031">
        <ele>533</ele>
        <time>2016-04-30T08:04:54.000Z</time>
      </trkpt>
      <trkpt lat="43.67708" lon="5.91031">
        <ele>533</ele>
        <time>2016-04-30T08:04:56.000Z</time>
      </trkpt>
      <trkpt lat="43.67708" lon="5.91031">
        <ele>533</ele>
        <time>2016-04-30T08:04:58.000Z</time>
      </trkpt>
      <trkpt lat="43.67708" lon="5.91031">
        <ele>533</ele>
        <time>2016-04-30T08:05:00.000Z</time>
      </trkpt>
      <trkpt lat="43.67708" lon="5.91031">
        <ele>533</ele>
        <time>2016-04-30T08:05:02.000Z</time>
      </trkpt>
      <trkpt lat="43.67708" lon="5.91031">
        <ele>533</ele>
        <time>2016-04-30T08:05:04.000Z</time>
      </trkpt>
      <trkpt lat="43.67708" lon="5.91031">
        <ele>533</ele>
        <time>2016-04-30T08:05:06.000Z</time>
      </trkpt>
      <trkpt lat="43.67708" lon="5.91031">
        <ele>533</ele>
        <time>2016-04-30T08:05:08.000Z</time>
      </trkpt>
      <trkpt lat="43.67708" lon="5.91031">
        <ele>533</ele>
        <time>2016-04-30T08:05:10.000Z</time>
      </trkpt>
      <trkpt lat="43.67708" lon="5.91031">
        <ele>533</ele>
        <time>2016-04-30T08:05:12.000Z</time>
      </trkpt>
      <trkpt lat="43.67708" lon="5.91031">
        <ele>533</ele>
        <time>2016-04-30T08:05:14.000Z</time>
      </trkpt>
      <trkpt lat="43.67713" lon="5.91099">
        <ele>535</ele>
        <time>2016-04-30T08:05:16.000Z</time>
      </trkpt>
      <trkpt lat="43.67717" lon="5.91115">
        <ele>535</ele>
        <time>2016-04-30T08:05:20.000Z</time>
      </trkpt>
      <trkpt lat="43.67724" lon="5.91129">
        <ele>536</ele>
        <time>2016-04-30T08:05:24.000Z</time>
      </trkpt>
      <trkpt lat="43.67729" lon="5.91144">
        <ele>535</ele>
        <time>2016-04-30T08:05:28.000Z</time>
      </trkpt>
      <trkpt lat="43.67733" lon="5.91159">
        <ele>536</ele>
        <time>2016-04-30T08:05:32.000Z</time>
      </trkpt>
      <trkpt lat="43.67738" lon="5.91174">
        <ele>536</ele>
        <time>2016-04-30T08:05:36.000Z</time>
      </trkpt>
      <trkpt lat="43.67738" lon="5.91174">
        <ele>536</ele>
        <time>2016-04-30T08:05:38.000Z</time>
      </trkpt>
      <trkpt lat="43.67738" lon="5.91174">
        <ele>536</ele>
        <time>2016-04-30T08:05:40.000Z</time>
      </trkpt>
      <trkpt lat="43.67738" lon="5.91174">
        <ele>536</ele>
        <time>2016-04-30T08:05:42.000Z</time>
      </trkpt>
      <trkpt lat="43.67738" lon="5.91174">
        <ele>536</ele>
        <time>2016-04-30T08:05:44.000Z</time>
      </trkpt>
      <trkpt lat="43.67745" lon="5.91175">
        <ele>536</ele>
        <time>2016-04-30T08:05:48.000Z</time>
      </trkpt>
      <trkpt lat="43.67752" lon="5.91176">
        <ele>537</ele>
        <time>2016-04-30T08:05:50.000Z</time>
      </trkpt>
      <trkpt lat="43.6776" lon="5.91179">
        <ele>537</ele>
        <time>2016-04-30T08:05:52.000Z</time>
      </trkpt>
      <trkpt lat="43.67766" lon="5.91185">
        <ele>538</ele>
        <time>2016-04-30T08:05:54.000Z</time>
      </trkpt>
      <trkpt lat="43.67772" lon="5.9119">
        <ele>538</ele>
        <time>2016-04-30T08:05:56.000Z</time>
      </trkpt>
      <trkpt lat="43.67783" lon="5.91199">
        <ele>539</ele>
        <time>2016-04-30T08:05:58.000Z</time>
      </trkpt>
      <trkpt lat="43.67783" lon="5.91199">
        <ele>539</ele>
        <time>2016-04-30T08:06:00.000Z</time>
      </trkpt>
      <trkpt lat="43.67783" lon="5.91199">
        <ele>539</ele>
        <time>2016-04-30T08:06:02.000Z</time>
      </trkpt>
      <trkpt lat="43.67783" lon="5.91199">
        <ele>539</ele>
        <time>2016-04-30T08:06:04.000Z</time>
      </trkpt>
      <trkpt lat="43.67783" lon="5.91199">
        <ele>539</ele>
        <time>2016-04-30T08:06:06.000Z</time>
      </trkpt>
      <trkpt lat="43.67783" lon="5.91199">
        <ele>539</ele>
        <time>2016-04-30T08:06:08.000Z</time>
      </trkpt>
      <trkpt lat="43.67783" lon="5.91199">
        <ele>539</ele>
        <time>2016-04-30T08:06:10.000Z</time>
      </trkpt>
      <trkpt lat="43.67783" lon="5.91199">
        <ele>539</ele>
        <time>2016-04-30T08:06:12.000Z</time>
      </trkpt>
      <trkpt lat="43.67783" lon="5.91199">
        <ele>539</ele>
        <time>2016-04-30T08:06:14.000Z</time>
      </trkpt>
      <trkpt lat="43.67783" lon="5.91199">
        <ele>539</ele>
        <time>2016-04-30T08:06:16.000Z</time>
      </trkpt>
      <trkpt lat="43.67783" lon="5.91199">
        <ele>539</ele>
        <time>2016-04-30T08:06:18.000Z</time>
      </trkpt>
      <trkpt lat="43.67783" lon="5.91199">
        <ele>539</ele>
        <time>2016-04-30T08:06:20.000Z</time>
      </trkpt>
      <trkpt lat="43.67783" lon="5.91199">
        <ele>539</ele>
        <time>2016-04-30T08:06:22.000Z</time>
      </trkpt>
      <trkpt lat="43.67783" lon="5.91199">
        <ele>539</ele>
        <time>2016-04-30T08:06:24.000Z</time>
      </trkpt>
      <trkpt lat="43.67783" lon="5.91199">
        <ele>539</ele>
        <time>2016-04-30T08:06:26.000Z</time>
      </trkpt>
      <trkpt lat="43.67783" lon="5.91199">
        <ele>539</ele>
        <time>2016-04-30T08:06:28.000Z</time>
      </trkpt>
      <trkpt lat="43.67783" lon="5.91199">
        <ele>539</ele>
        <time>2016-04-30T08:06:30.000Z</time>
      </trkpt>
      <trkpt lat="43.67783" lon="5.91199">
        <ele>539</ele>
        <time>2016-04-30T08:06:32.000Z</time>
      </trkpt>
      <trkpt lat="43.67783" lon="5.91199">
        <ele>539</ele>
        <time>2016-04-30T08:06:34.000Z</time>
      </trkpt>
      <trkpt lat="43.67783" lon="5.91199">
        <ele>539</ele>
        <time>2016-04-30T08:06:36.000Z</time>
      </trkpt>
      <trkpt lat="43.67783" lon="5.91199">
        <ele>539</ele>
        <time>2016-04-30T08:06:38.000Z</time>
      </trkpt>
      <trkpt lat="43.67783" lon="5.91199">
        <ele>539</ele>
        <time>2016-04-30T08:06:40.000Z</time>
      </trkpt>
      <trkpt lat="43.67783" lon="5.91199">
        <ele>539</ele>
        <time>2016-04-30T08:06:46.000Z</time>
      </trkpt>
      <trkpt lat="43.67783" lon="5.91199">
        <ele>539</ele>
        <time>2016-04-30T08:06:48.000Z</time>
      </trkpt>
      <trkpt lat="43.67867" lon="5.91197">
        <ele>539</ele>
        <time>2016-04-30T08:07:33.000Z</time>
      </trkpt>
      <trkpt lat="43.67855" lon="5.91196">
        <ele>536</ele>
        <time>2016-04-30T08:07:37.000Z</time>
      </trkpt>
      <trkpt lat="43.67841" lon="5.91197">
        <ele>535</ele>
        <time>2016-04-30T08:07:41.000Z</time>
      </trkpt>
      <trkpt lat="43.67828" lon="5.91197">
        <ele>534</ele>
        <time>2016-04-30T08:07:45.000Z</time>
      </trkpt>
      <trkpt lat="43.67813" lon="5.91196">
        <ele>533</ele>
        <time>2016-04-30T08:07:49.000Z</time>
      </trkpt>
      <trkpt lat="43.67813" lon="5.91196">
        <ele>533</ele>
        <time>2016-04-30T08:07:51.000Z</time>
      </trkpt>
      <trkpt lat="43.67813" lon="5.91196">
        <ele>533</ele>
        <time>2016-04-30T08:07:53.000Z</time>
      </trkpt>
      <trkpt lat="43.67813" lon="5.91196">
        <ele>533</ele>
        <time>2016-04-30T08:07:55.000Z</time>
      </trkpt>
      <trkpt lat="43.67813" lon="5.91196">
        <ele>533</ele>
        <time>2016-04-30T08:07:57.000Z</time>
      </trkpt>
      <trkpt lat="43.67813" lon="5.91196">
        <ele>533</ele>
        <time>2016-04-30T08:07:59.000Z</time>
      </trkpt>
      <trkpt lat="43.6777" lon="5.91187">
        <ele>531</ele>
        <time>2016-04-30T08:08:07.000Z</time>
      </trkpt>
      <trkpt lat="43.6776" lon="5.91177">
        <ele>530</ele>
        <time>2016-04-30T08:08:11.000Z</time>
      </trkpt>
      <trkpt lat="43.67748" lon="5.91177">
        <ele>531</ele>
        <time>2016-04-30T08:08:15.000Z</time>
      </trkpt>
      <trkpt lat="43.67738" lon="5.9118">
        <ele>532</ele>
        <time>2016-04-30T08:08:19.000Z</time>
      </trkpt>
      <trkpt lat="43.67738" lon="5.9118">
        <ele>532</ele>
        <time>2016-04-30T08:08:21.000Z</time>
      </trkpt>
      <trkpt lat="43.67738" lon="5.9118">
        <ele>532</ele>
        <time>2016-04-30T08:08:23.000Z</time>
      </trkpt>
      <trkpt lat="43.67738" lon="5.9118">
        <ele>532</ele>
        <time>2016-04-30T08:08:25.000Z</time>
      </trkpt>
      <trkpt lat="43.67738" lon="5.9118">
        <ele>532</ele>
        <time>2016-04-30T08:08:27.000Z</time>
      </trkpt>
      <trkpt lat="43.67738" lon="5.9118">
        <ele>532</ele>
        <time>2016-04-30T08:08:29.000Z</time>
      </trkpt>
      <trkpt lat="43.67738" lon="5.9118">
        <ele>532</ele>
        <time>2016-04-30T08:08:31.000Z</time>
      </trkpt>
      <trkpt lat="43.67738" lon="5.9118">
        <ele>532</ele>
        <time>2016-04-30T08:08:33.000Z</time>
      </trkpt>
      <trkpt lat="43.67738" lon="5.9118">
        <ele>532</ele>
        <time>2016-04-30T08:08:35.000Z</time>
      </trkpt>
      <trkpt lat="43.67738" lon="5.9118">
        <ele>532</ele>
        <time>2016-04-30T08:08:37.000Z</time>
      </trkpt>
      <trkpt lat="43.67738" lon="5.9118">
        <ele>532</ele>
        <time>2016-04-30T08:08:39.000Z</time>
      </trkpt>
      <trkpt lat="43.67738" lon="5.9118">
        <ele>532</ele>
        <time>2016-04-30T08:08:41.000Z</time>
      </trkpt>
      <trkpt lat="43.67755" lon="5.91268">
        <ele>534</ele>
        <time>2016-04-30T08:08:43.000Z</time>
      </trkpt>
      <trkpt lat="43.6776" lon="5.91282">
        <ele>535</ele>
        <time>2016-04-30T08:08:47.000Z</time>
      </trkpt>
      <trkpt lat="43.67763" lon="5.91298">
        <ele>535</ele>
        <time>2016-04-30T08:08:51.000Z</time>
      </trkpt>
      <trkpt lat="43.67765" lon="5.91314">
        <ele>535</ele>
        <time>2016-04-30T08:08:55.000Z</time>
      </trkpt>
      <trkpt lat="43.67766" lon="5.91322">
        <ele>537</ele>
        <time>2016-04-30T08:08:59.000Z</time>
      </trkpt>
      <trkpt lat="43.67767" lon="5.9133">
        <ele>537</ele>
        <time>2016-04-30T08:09:01.000Z</time>
      </trkpt>
      <trkpt lat="43.67768" lon="5.91339">
        <ele>537</ele>
        <time>2016-04-30T08:09:03.000Z</time>
      </trkpt>
      <trkpt lat="43.67768" lon="5.91347">
        <ele>537</ele>
        <time>2016-04-30T08:09:05.000Z</time>
      </trkpt>
      <trkpt lat="43.67769" lon="5.91356">
        <ele>537</ele>
        <time>2016-04-30T08:09:07.000Z</time>
      </trkpt>
      <trkpt lat="43.67769" lon="5.91373">
        <ele>537</ele>
        <time>2016-04-30T08:09:09.000Z</time>
      </trkpt>
      <trkpt lat="43.67772" lon="5.91389">
        <ele>538</ele>
        <time>2016-04-30T08:09:13.000Z</time>
      </trkpt>
      <trkpt lat="43.67781" lon="5.91402">
        <ele>538</ele>
        <time>2016-04-30T08:09:17.000Z</time>
      </trkpt>
      <trkpt lat="43.67789" lon="5.91414">
        <ele>539</ele>
        <time>2016-04-30T08:09:21.000Z</time>
      </trkpt>
      <trkpt lat="43.67797" lon="5.91426">
        <ele>540</ele>
        <time>2016-04-30T08:09:25.000Z</time>
      </trkpt>
      <trkpt lat="43.67797" lon="5.91426">
        <ele>540</ele>
        <time>2016-04-30T08:09:27.000Z</time>
      </trkpt>
      <trkpt lat="43.67801" lon="5.91442">
        <ele>540</ele>
        <time>2016-04-30T08:09:29.000Z</time>
      </trkpt>
      <trkpt lat="43.67805" lon="5.91459">
        <ele>540</ele>
        <time>2016-04-30T08:09:33.000Z</time>
      </trkpt>
      <trkpt lat="43.67811" lon="5.91474">
        <ele>540</ele>
        <time>2016-04-30T08:09:37.000Z</time>
      </trkpt>
      <trkpt lat="43.67811" lon="5.91474">
        <ele>540</ele>
        <time>2016-04-30T08:09:39.000Z</time>
      </trkpt>
      <trkpt lat="43.67811" lon="5.91474">
        <ele>540</ele>
        <time>2016-04-30T08:09:41.000Z</time>
      </trkpt>
      <trkpt lat="43.67811" lon="5.91474">
        <ele>540</ele>
        <time>2016-04-30T08:09:43.000Z</time>
      </trkpt>
      <trkpt lat="43.67811" lon="5.91474">
        <ele>540</ele>
        <time>2016-04-30T08:09:45.000Z</time>
      </trkpt>
      <trkpt lat="43.67811" lon="5.91474">
        <ele>540</ele>
        <time>2016-04-30T08:09:47.000Z</time>
      </trkpt>
      <trkpt lat="43.67811" lon="5.91474">
        <ele>540</ele>
        <time>2016-04-30T08:09:49.000Z</time>
      </trkpt>
      <trkpt lat="43.67811" lon="5.91474">
        <ele>540</ele>
        <time>2016-04-30T08:09:51.000Z</time>
      </trkpt>
      <trkpt lat="43.67848" lon="5.9148">
        <ele>539</ele>
        <time>2016-04-30T08:09:53.000Z</time>
      </trkpt>
      <trkpt lat="43.6786" lon="5.91482">
        <ele>537</ele>
        <time>2016-04-30T08:09:55.000Z</time>
      </trkpt>
      <trkpt lat="43.67872" lon="5.91477">
        <ele>534</ele>
        <time>2016-04-30T08:09:57.000Z</time>
      </trkpt>
      <trkpt lat="43.67883" lon="5.91469">
        <ele>531</ele>
        <time>2016-04-30T08:09:59.000Z</time>
      </trkpt>
      <trkpt lat="43.67899" lon="5.91463">
        <ele>530</ele>
        <time>2016-04-30T08:10:01.000Z</time>
      </trkpt>
      <trkpt lat="43.67918" lon="5.91457">
        <ele>529</ele>
        <time>2016-04-30T08:10:03.000Z</time>
      </trkpt>
      <trkpt lat="43.67936" lon="5.91453">
        <ele>526</ele>
        <time>2016-04-30T08:10:05.000Z</time>
      </trkpt>
      <trkpt lat="43.67952" lon="5.91449">
        <ele>525</ele>
        <time>2016-04-30T08:10:07.000Z</time>
      </trkpt>
      <trkpt lat="43.67966" lon="5.91444">
        <ele>523</ele>
        <time>2016-04-30T08:10:09.000Z</time>
      </trkpt>
      <trkpt lat="43.67982" lon="5.91437">
        <ele>520</ele>
        <time>2016-04-30T08:10:11.000Z</time>
      </trkpt>
      <trkpt lat="43.67999" lon="5.91438">
        <ele>518</ele>
        <time>2016-04-30T08:10:13.000Z</time>
      </trkpt>
      <trkpt lat="43.68015" lon="5.91444">
        <ele>516</ele>
        <time>2016-04-30T08:10:15.000Z</time>
      </trkpt>
      <trkpt lat="43.68034" lon="5.91448">
        <ele>514</ele>
        <time>2016-04-30T08:10:17.000Z</time>
      </trkpt>
      <trkpt lat="43.68053" lon="5.9145">
        <ele>514</ele>
        <time>2016-04-30T08:10:19.000Z</time>
      </trkpt>
      <trkpt lat="43.68073" lon="5.91453">
        <ele>513</ele>
        <time>2016-04-30T08:10:21.000Z</time>
      </trkpt>
      <trkpt lat="43.68091" lon="5.91452">
        <ele>509</ele>
        <time>2016-04-30T08:10:23.000Z</time>
      </trkpt>
      <trkpt lat="43.68111" lon="5.91451">
        <ele>508</ele>
        <time>2016-04-30T08:10:25.000Z</time>
      </trkpt>
      <trkpt lat="43.6813" lon="5.91449">
        <ele>506</ele>
        <time>2016-04-30T08:10:27.000Z</time>
      </trkpt>
      <trkpt lat="43.6815" lon="5.91446">
        <ele>505</ele>
        <time>2016-04-30T08:10:29.000Z</time>
      </trkpt>
      <trkpt lat="43.68167" lon="5.91445">
        <ele>505</ele>
        <time>2016-04-30T08:10:31.000Z</time>
      </trkpt>
      <trkpt lat="43.68185" lon="5.91445">
        <ele>504</ele>
        <time>2016-04-30T08:10:33.000Z</time>
      </trkpt>
      <trkpt lat="43.68203" lon="5.91447">
        <ele>503</ele>
        <time>2016-04-30T08:10:35.000Z</time>
      </trkpt>
      <trkpt lat="43.68221" lon="5.91448">
        <ele>502</ele>
        <time>2016-04-30T08:10:37.000Z</time>
      </trkpt>
      <trkpt lat="43.68237" lon="5.91449">
        <ele>502</ele>
        <time>2016-04-30T08:10:39.000Z</time>
      </trkpt>
      <trkpt lat="43.68251" lon="5.9145">
        <ele>502</ele>
        <time>2016-04-30T08:10:41.000Z</time>
      </trkpt>
      <trkpt lat="43.68264" lon="5.91451">
        <ele>501</ele>
        <time>2016-04-30T08:10:43.000Z</time>
      </trkpt>
      <trkpt lat="43.68276" lon="5.91453">
        <ele>502</ele>
        <time>2016-04-30T08:10:45.000Z</time>
      </trkpt>
      <trkpt lat="43.68287" lon="5.91454">
        <ele>502</ele>
        <time>2016-04-30T08:10:47.000Z</time>
      </trkpt>
      <trkpt lat="43.68298" lon="5.91455">
        <ele>502</ele>
        <time>2016-04-30T08:10:49.000Z</time>
      </trkpt>
      <trkpt lat="43.68309" lon="5.91457">
        <ele>502</ele>
        <time>2016-04-30T08:10:51.000Z</time>
      </trkpt>
      <trkpt lat="43.68319" lon="5.91458">
        <ele>501</ele>
        <time>2016-04-30T08:10:53.000Z</time>
      </trkpt>
      <trkpt lat="43.68319" lon="5.91458">
        <ele>501</ele>
        <time>2016-04-30T08:10:55.000Z</time>
      </trkpt>
      <trkpt lat="43.68319" lon="5.91458">
        <ele>501</ele>
        <time>2016-04-30T08:10:57.000Z</time>
      </trkpt>
      <trkpt lat="43.68319" lon="5.91458">
        <ele>501</ele>
        <time>2016-04-30T08:10:59.000Z</time>
      </trkpt>
      <trkpt lat="43.68319" lon="5.91458">
        <ele>501</ele>
        <time>2016-04-30T08:11:01.000Z</time>
      </trkpt>
      <trkpt lat="43.68319" lon="5.91458">
        <ele>501</ele>
        <time>2016-04-30T08:11:03.000Z</time>
      </trkpt>
      <trkpt lat="43.68382" lon="5.91452">
        <ele>499</ele>
        <time>2016-04-30T08:11:07.000Z</time>
      </trkpt>
      <trkpt lat="43.68392" lon="5.91448">
        <ele>497</ele>
        <time>2016-04-30T08:11:09.000Z</time>
      </trkpt>
      <trkpt lat="43.68401" lon="5.91444">
        <ele>497</ele>
        <time>2016-04-30T08:11:11.000Z</time>
      </trkpt>
      <trkpt lat="43.68411" lon="5.91441">
        <ele>497</ele>
        <time>2016-04-30T08:11:13.000Z</time>
      </trkpt>
      <trkpt lat="43.68421" lon="5.91436">
        <ele>497</ele>
        <time>2016-04-30T08:11:15.000Z</time>
      </trkpt>
      <trkpt lat="43.6843" lon="5.91432">
        <ele>496</ele>
        <time>2016-04-30T08:11:17.000Z</time>
      </trkpt>
      <trkpt lat="43.68439" lon="5.91427">
        <ele>495</ele>
        <time>2016-04-30T08:11:19.000Z</time>
      </trkpt>
      <trkpt lat="43.68439" lon="5.91427">
        <ele>495</ele>
        <time>2016-04-30T08:11:21.000Z</time>
      </trkpt>
      <trkpt lat="43.68439" lon="5.91427">
        <ele>495</ele>
        <time>2016-04-30T08:11:23.000Z</time>
      </trkpt>
      <trkpt lat="43.68439" lon="5.91427">
        <ele>495</ele>
        <time>2016-04-30T08:11:25.000Z</time>
      </trkpt>
      <trkpt lat="43.68439" lon="5.91427">
        <ele>495</ele>
        <time>2016-04-30T08:11:27.000Z</time>
      </trkpt>
      <trkpt lat="43.68439" lon="5.91427">
        <ele>495</ele>
        <time>2016-04-30T08:11:29.000Z</time>
      </trkpt>
      <trkpt lat="43.68439" lon="5.91427">
        <ele>495</ele>
        <time>2016-04-30T08:11:31.000Z</time>
      </trkpt>
      <trkpt lat="43.68515" lon="5.91418">
        <ele>495</ele>
        <time>2016-04-30T08:11:35.000Z</time>
      </trkpt>
      <trkpt lat="43.68525" lon="5.91418">
        <ele>496</ele>
        <time>2016-04-30T08:11:37.000Z</time>
      </trkpt>
      <trkpt lat="43.68536" lon="5.91418">
        <ele>496</ele>
        <time>2016-04-30T08:11:39.000Z</time>
      </trkpt>
      <trkpt lat="43.68547" lon="5.91418">
        <ele>496</ele>
        <time>2016-04-30T08:11:41.000Z</time>
      </trkpt>
      <trkpt lat="43.68557" lon="5.91418">
        <ele>497</ele>
        <time>2016-04-30T08:11:43.000Z</time>
      </trkpt>
      <trkpt lat="43.68557" lon="5.91418">
        <ele>497</ele>
        <time>2016-04-30T08:11:45.000Z</time>
      </trkpt>
      <trkpt lat="43.68557" lon="5.91418">
        <ele>497</ele>
        <time>2016-04-30T08:11:47.000Z</time>
      </trkpt>
      <trkpt lat="43.68557" lon="5.91418">
        <ele>497</ele>
        <time>2016-04-30T08:11:49.000Z</time>
      </trkpt>
      <trkpt lat="43.68557" lon="5.91418">
        <ele>497</ele>
        <time>2016-04-30T08:11:51.000Z</time>
      </trkpt>
      <trkpt lat="43.68557" lon="5.91418">
        <ele>497</ele>
        <time>2016-04-30T08:11:53.000Z</time>
      </trkpt>
      <trkpt lat="43.68557" lon="5.91418">
        <ele>497</ele>
        <time>2016-04-30T08:11:55.000Z</time>
      </trkpt>
      <trkpt lat="43.68557" lon="5.91418">
        <ele>497</ele>
        <time>2016-04-30T08:11:57.000Z</time>
      </trkpt>
      <trkpt lat="43.68557" lon="5.91418">
        <ele>497</ele>
        <time>2016-04-30T08:11:59.000Z</time>
      </trkpt>
      <trkpt lat="43.68557" lon="5.91418">
        <ele>497</ele>
        <time>2016-04-30T08:12:01.000Z</time>
      </trkpt>
      <trkpt lat="43.68557" lon="5.91418">
        <ele>497</ele>
        <time>2016-04-30T08:12:03.000Z</time>
      </trkpt>
      <trkpt lat="43.68607" lon="5.91422">
        <ele>496</ele>
        <time>2016-04-30T08:12:09.000Z</time>
      </trkpt>
      <trkpt lat="43.68637" lon="5.91425">
        <ele>497</ele>
        <time>2016-04-30T08:12:11.000Z</time>
      </trkpt>
      <trkpt lat="43.68657" lon="5.91428">
        <ele>498</ele>
        <time>2016-04-30T08:12:13.000Z</time>
      </trkpt>
      <trkpt lat="43.68673" lon="5.91429">
        <ele>498</ele>
        <time>2016-04-30T08:12:15.000Z</time>
      </trkpt>
      <trkpt lat="43.68686" lon="5.9143">
        <ele>498</ele>
        <time>2016-04-30T08:12:17.000Z</time>
      </trkpt>
      <trkpt lat="43.6871" lon="5.91432">
        <ele>498</ele>
        <time>2016-04-30T08:12:19.000Z</time>
      </trkpt>
      <trkpt lat="43.68721" lon="5.91434">
        <ele>498</ele>
        <time>2016-04-30T08:12:21.000Z</time>
      </trkpt>
      <trkpt lat="43.68731" lon="5.91436">
        <ele>497</ele>
        <time>2016-04-30T08:12:23.000Z</time>
      </trkpt>
      <trkpt lat="43.68742" lon="5.91438">
        <ele>498</ele>
        <time>2016-04-30T08:12:25.000Z</time>
      </trkpt>
      <trkpt lat="43.68753" lon="5.91441">
        <ele>498</ele>
        <time>2016-04-30T08:12:27.000Z</time>
      </trkpt>
      <trkpt lat="43.68763" lon="5.91443">
        <ele>497</ele>
        <time>2016-04-30T08:12:29.000Z</time>
      </trkpt>
      <trkpt lat="43.68763" lon="5.91443">
        <ele>497</ele>
        <time>2016-04-30T08:12:31.000Z</time>
      </trkpt>
      <trkpt lat="43.68763" lon="5.91443">
        <ele>497</ele>
        <time>2016-04-30T08:12:33.000Z</time>
      </trkpt>
      <trkpt lat="43.68763" lon="5.91443">
        <ele>497</ele>
        <time>2016-04-30T08:12:39.000Z</time>
      </trkpt>
      <trkpt lat="43.68763" lon="5.91443">
        <ele>497</ele>
        <time>2016-04-30T08:12:41.000Z</time>
      </trkpt>
      <trkpt lat="43.68763" lon="5.91443">
        <ele>497</ele>
        <time>2016-04-30T08:12:43.000Z</time>
      </trkpt>
      <trkpt lat="43.68763" lon="5.91443">
        <ele>497</ele>
        <time>2016-04-30T08:12:45.000Z</time>
      </trkpt>
      <trkpt lat="43.68763" lon="5.91443">
        <ele>497</ele>
        <time>2016-04-30T08:12:47.000Z</time>
      </trkpt>
      <trkpt lat="43.68885" lon="5.91478">
        <ele>497</ele>
        <time>2016-04-30T08:12:55.000Z</time>
      </trkpt>
      <trkpt lat="43.68895" lon="5.91478">
        <ele>497</ele>
        <time>2016-04-30T08:12:57.000Z</time>
      </trkpt>
      <trkpt lat="43.68906" lon="5.91478">
        <ele>496</ele>
        <time>2016-04-30T08:12:59.000Z</time>
      </trkpt>
      <trkpt lat="43.68916" lon="5.91479">
        <ele>497</ele>
        <time>2016-04-30T08:13:01.000Z</time>
      </trkpt>
      <trkpt lat="43.68925" lon="5.91479">
        <ele>497</ele>
        <time>2016-04-30T08:13:03.000Z</time>
      </trkpt>
      <trkpt lat="43.68935" lon="5.9148">
        <ele>496</ele>
        <time>2016-04-30T08:13:05.000Z</time>
      </trkpt>
      <trkpt lat="43.68946" lon="5.91479">
        <ele>497</ele>
        <time>2016-04-30T08:13:07.000Z</time>
      </trkpt>
      <trkpt lat="43.68957" lon="5.91479">
        <ele>496</ele>
        <time>2016-04-30T08:13:09.000Z</time>
      </trkpt>
      <trkpt lat="43.68968" lon="5.9148">
        <ele>493</ele>
        <time>2016-04-30T08:13:11.000Z</time>
      </trkpt>
      <trkpt lat="43.68978" lon="5.9148">
        <ele>493</ele>
        <time>2016-04-30T08:13:13.000Z</time>
      </trkpt>
      <trkpt lat="43.68988" lon="5.9148">
        <ele>492</ele>
        <time>2016-04-30T08:13:15.000Z</time>
      </trkpt>
      <trkpt lat="43.68988" lon="5.9148">
        <ele>492</ele>
        <time>2016-04-30T08:13:17.000Z</time>
      </trkpt>
      <trkpt lat="43.68988" lon="5.9148">
        <ele>492</ele>
        <time>2016-04-30T08:13:19.000Z</time>
      </trkpt>
      <trkpt lat="43.6903" lon="5.91482">
        <ele>489</ele>
        <time>2016-04-30T08:13:23.000Z</time>
      </trkpt>
      <trkpt lat="43.69041" lon="5.91482">
        <ele>489</ele>
        <time>2016-04-30T08:13:25.000Z</time>
      </trkpt>
      <trkpt lat="43.69052" lon="5.91481">
        <ele>489</ele>
        <time>2016-04-30T08:13:27.000Z</time>
      </trkpt>
      <trkpt lat="43.69064" lon="5.9148">
        <ele>488</ele>
        <time>2016-04-30T08:13:29.000Z</time>
      </trkpt>
      <trkpt lat="43.69077" lon="5.91479">
        <ele>489</ele>
        <time>2016-04-30T08:13:31.000Z</time>
      </trkpt>
      <trkpt lat="43.6909" lon="5.91477">
        <ele>490</ele>
        <time>2016-04-30T08:13:33.000Z</time>
      </trkpt>
      <trkpt lat="43.69102" lon="5.91473">
        <ele>490</ele>
        <time>2016-04-30T08:13:35.000Z</time>
      </trkpt>
      <trkpt lat="43.69115" lon="5.91471">
        <ele>489</ele>
        <time>2016-04-30T08:13:37.000Z</time>
      </trkpt>
      <trkpt lat="43.69129" lon="5.91468">
        <ele>489</ele>
        <time>2016-04-30T08:13:39.000Z</time>
      </trkpt>
      <trkpt lat="43.69144" lon="5.91466">
        <ele>489</ele>
        <time>2016-04-30T08:13:41.000Z</time>
      </trkpt>
      <trkpt lat="43.69157" lon="5.91464">
        <ele>489</ele>
        <time>2016-04-30T08:13:43.000Z</time>
      </trkpt>
      <trkpt lat="43.69172" lon="5.91463">
        <ele>491</ele>
        <time>2016-04-30T08:13:45.000Z</time>
      </trkpt>
      <trkpt lat="43.69186" lon="5.91461">
        <ele>490</ele>
        <time>2016-04-30T08:13:47.000Z</time>
      </trkpt>
      <trkpt lat="43.69199" lon="5.91459">
        <ele>488</ele>
        <time>2016-04-30T08:13:49.000Z</time>
      </trkpt>
      <trkpt lat="43.69212" lon="5.91459">
        <ele>488</ele>
        <time>2016-04-30T08:13:51.000Z</time>
      </trkpt>
      <trkpt lat="43.69223" lon="5.91457">
        <ele>486</ele>
        <time>2016-04-30T08:13:53.000Z</time>
      </trkpt>
      <trkpt lat="43.69235" lon="5.91455">
        <ele>485</ele>
        <time>2016-04-30T08:13:55.000Z</time>
      </trkpt>
      <trkpt lat="43.69246" lon="5.91453">
        <ele>484</ele>
        <time>2016-04-30T08:13:57.000Z</time>
      </trkpt>
      <trkpt lat="43.69257" lon="5.9145">
        <ele>485</ele>
        <time>2016-04-30T08:13:59.000Z</time>
      </trkpt>
      <trkpt lat="43.69268" lon="5.91445">
        <ele>484</ele>
        <time>2016-04-30T08:14:01.000Z</time>
      </trkpt>
      <trkpt lat="43.6928" lon="5.91441">
        <ele>484</ele>
        <time>2016-04-30T08:14:03.000Z</time>
      </trkpt>
      <trkpt lat="43.69292" lon="5.9144">
        <ele>485</ele>
        <time>2016-04-30T08:14:05.000Z</time>
      </trkpt>
      <trkpt lat="43.69302" lon="5.91443">
        <ele>485</ele>
        <time>2016-04-30T08:14:07.000Z</time>
      </trkpt>
      <trkpt lat="43.69313" lon="5.91451">
        <ele>485</ele>
        <time>2016-04-30T08:14:09.000Z</time>
      </trkpt>
      <trkpt lat="43.69323" lon="5.91459">
        <ele>486</ele>
        <time>2016-04-30T08:14:11.000Z</time>
      </trkpt>
      <trkpt lat="43.69333" lon="5.91468">
        <ele>486</ele>
        <time>2016-04-30T08:14:13.000Z</time>
      </trkpt>
      <trkpt lat="43.69342" lon="5.91476">
        <ele>486</ele>
        <time>2016-04-30T08:14:15.000Z</time>
      </trkpt>
      <trkpt lat="43.69352" lon="5.91485">
        <ele>487</ele>
        <time>2016-04-30T08:14:17.000Z</time>
      </trkpt>
      <trkpt lat="43.69362" lon="5.91491">
        <ele>487</ele>
        <time>2016-04-30T08:14:19.000Z</time>
      </trkpt>
      <trkpt lat="43.69371" lon="5.91496">
        <ele>487</ele>
        <time>2016-04-30T08:14:21.000Z</time>
      </trkpt>
      <trkpt lat="43.69371" lon="5.91496">
        <ele>487</ele>
        <time>2016-04-30T08:14:23.000Z</time>
      </trkpt>
      <trkpt lat="43.69371" lon="5.91496">
        <ele>487</ele>
        <time>2016-04-30T08:14:25.000Z</time>
      </trkpt>
      <trkpt lat="43.69371" lon="5.91496">
        <ele>487</ele>
        <time>2016-04-30T08:14:27.000Z</time>
      </trkpt>
      <trkpt lat="43.69371" lon="5.91496">
        <ele>487</ele>
        <time>2016-04-30T08:14:29.000Z</time>
      </trkpt>
      <trkpt lat="43.69371" lon="5.91496">
        <ele>487</ele>
        <time>2016-04-30T08:14:31.000Z</time>
      </trkpt>
      <trkpt lat="43.69371" lon="5.91496">
        <ele>487</ele>
        <time>2016-04-30T08:14:33.000Z</time>
      </trkpt>
      <trkpt lat="43.69371" lon="5.91496">
        <ele>487</ele>
        <time>2016-04-30T08:14:36.000Z</time>
      </trkpt>
      <trkpt lat="43.69371" lon="5.91496">
        <ele>487</ele>
        <time>2016-04-30T08:14:38.000Z</time>
      </trkpt>
      <trkpt lat="43.69418" lon="5.91522">
        <ele>492</ele>
        <time>2016-04-30T08:15:52.000Z</time>
      </trkpt>
      <trkpt lat="43.69411" lon="5.91512">
        <ele>486</ele>
        <time>2016-04-30T08:15:56.000Z</time>
      </trkpt>
      <trkpt lat="43.694" lon="5.91504">
        <ele>484</ele>
        <time>2016-04-30T08:16:00.000Z</time>
      </trkpt>
      <trkpt lat="43.69388" lon="5.91498">
        <ele>483</ele>
        <time>2016-04-30T08:16:04.000Z</time>
      </trkpt>
      <trkpt lat="43.69374" lon="5.91491">
        <ele>485</ele>
        <time>2016-04-30T08:16:08.000Z</time>
      </trkpt>
      <trkpt lat="43.69359" lon="5.91484">
        <ele>486</ele>
        <time>2016-04-30T08:16:12.000Z</time>
      </trkpt>
      <trkpt lat="43.69345" lon="5.91473">
        <ele>486</ele>
        <time>2016-04-30T08:16:16.000Z</time>
      </trkpt>
      <trkpt lat="43.69332" lon="5.9146">
        <ele>486</ele>
        <time>2016-04-30T08:16:20.000Z</time>
      </trkpt>
      <trkpt lat="43.69318" lon="5.91448">
        <ele>486</ele>
        <time>2016-04-30T08:16:24.000Z</time>
      </trkpt>
      <trkpt lat="43.69304" lon="5.91437">
        <ele>486</ele>
        <time>2016-04-30T08:16:28.000Z</time>
      </trkpt>
      <trkpt lat="43.69304" lon="5.91437">
        <ele>486</ele>
        <time>2016-04-30T08:16:30.000Z</time>
      </trkpt>
      <trkpt lat="43.69304" lon="5.91437">
        <ele>486</ele>
        <time>2016-04-30T08:16:32.000Z</time>
      </trkpt>
      <trkpt lat="43.69304" lon="5.91437">
        <ele>486</ele>
        <time>2016-04-30T08:16:34.000Z</time>
      </trkpt>
      <trkpt lat="43.69304" lon="5.91437">
        <ele>486</ele>
        <time>2016-04-30T08:16:36.000Z</time>
      </trkpt>
      <trkpt lat="43.69304" lon="5.91437">
        <ele>486</ele>
        <time>2016-04-30T08:16:38.000Z</time>
      </trkpt>
      <trkpt lat="43.69316" lon="5.91401">
        <ele>484</ele>
        <time>2016-04-30T08:16:43.000Z</time>
      </trkpt>
      <trkpt lat="43.69326" lon="5.91391">
        <ele>485</ele>
        <time>2016-04-30T08:16:45.000Z</time>
      </trkpt>
      <trkpt lat="43.69334" lon="5.91381">
        <ele>484</ele>
        <time>2016-04-30T08:16:47.000Z</time>
      </trkpt>
      <trkpt lat="43.69342" lon="5.91371">
        <ele>484</ele>
        <time>2016-04-30T08:16:49.000Z</time>
      </trkpt>
      <trkpt lat="43.69351" lon="5.91362">
        <ele>483</ele>
        <time>2016-04-30T08:16:51.000Z</time>
      </trkpt>
      <trkpt lat="43.69359" lon="5.91353">
        <ele>483</ele>
        <time>2016-04-30T08:16:53.000Z</time>
      </trkpt>
      <trkpt lat="43.69359" lon="5.91353">
        <ele>483</ele>
        <time>2016-04-30T08:16:55.000Z</time>
      </trkpt>
      <trkpt lat="43.69359" lon="5.91353">
        <ele>483</ele>
        <time>2016-04-30T08:16:57.000Z</time>
      </trkpt>
      <trkpt lat="43.69359" lon="5.91353">
        <ele>483</ele>
        <time>2016-04-30T08:17:03.000Z</time>
      </trkpt>
      <trkpt lat="43.69359" lon="5.91353">
        <ele>483</ele>
        <time>2016-04-30T08:17:05.000Z</time>
      </trkpt>
      <trkpt lat="43.69359" lon="5.91353">
        <ele>483</ele>
        <time>2016-04-30T08:17:07.000Z</time>
      </trkpt>
      <trkpt lat="43.69359" lon="5.91353">
        <ele>483</ele>
        <time>2016-04-30T08:17:09.000Z</time>
      </trkpt>
      <trkpt lat="43.69359" lon="5.91353">
        <ele>483</ele>
        <time>2016-04-30T08:17:11.000Z</time>
      </trkpt>
      <trkpt lat="43.69359" lon="5.91353">
        <ele>483</ele>
        <time>2016-04-30T08:17:19.000Z</time>
      </trkpt>
      <trkpt lat="43.69359" lon="5.91353">
        <ele>483</ele>
        <time>2016-04-30T08:17:21.000Z</time>
      </trkpt>
      <trkpt lat="43.69426" lon="5.91288">
        <ele>483</ele>
        <time>2016-04-30T08:17:25.000Z</time>
      </trkpt>
      <trkpt lat="43.69462" lon="5.91251">
        <ele>483</ele>
        <time>2016-04-30T08:17:27.000Z</time>
      </trkpt>
      <trkpt lat="43.69484" lon="5.91228">
        <ele>482</ele>
        <time>2016-04-30T08:17:29.000Z</time>
      </trkpt>
      <trkpt lat="43.69484" lon="5.91228">
        <ele>482</ele>
        <time>2016-04-30T08:17:31.000Z</time>
      </trkpt>
      <trkpt lat="43.69484" lon="5.91228">
        <ele>482</ele>
        <time>2016-04-30T08:17:33.000Z</time>
      </trkpt>
      <trkpt lat="43.69484" lon="5.91228">
        <ele>482</ele>
        <time>2016-04-30T08:17:35.000Z</time>
      </trkpt>
      <trkpt lat="43.69484" lon="5.91228">
        <ele>482</ele>
        <time>2016-04-30T08:17:37.000Z</time>
      </trkpt>
      <trkpt lat="43.69484" lon="5.91228">
        <ele>482</ele>
        <time>2016-04-30T08:17:39.000Z</time>
      </trkpt>
      <trkpt lat="43.69484" lon="5.91228">
        <ele>482</ele>
        <time>2016-04-30T08:17:41.000Z</time>
      </trkpt>
      <trkpt lat="43.69484" lon="5.91228">
        <ele>482</ele>
        <time>2016-04-30T08:17:43.000Z</time>
      </trkpt>
      <trkpt lat="43.69484" lon="5.91228">
        <ele>482</ele>
        <time>2016-04-30T08:17:45.000Z</time>
      </trkpt>
      <trkpt lat="43.69484" lon="5.91228">
        <ele>482</ele>
        <time>2016-04-30T08:17:47.000Z</time>
      </trkpt>
      <trkpt lat="43.69484" lon="5.91228">
        <ele>482</ele>
        <time>2016-04-30T08:17:49.000Z</time>
      </trkpt>
      <trkpt lat="43.69484" lon="5.91228">
        <ele>482</ele>
        <time>2016-04-30T08:17:51.000Z</time>
      </trkpt>
      <trkpt lat="43.69484" lon="5.91228">
        <ele>482</ele>
        <time>2016-04-30T08:17:53.000Z</time>
      </trkpt>
      <trkpt lat="43.69484" lon="5.91228">
        <ele>482</ele>
        <time>2016-04-30T08:17:55.000Z</time>
      </trkpt>
      <trkpt lat="43.69484" lon="5.91228">
        <ele>482</ele>
        <time>2016-04-30T08:17:57.000Z</time>
      </trkpt>
      <trkpt lat="43.69484" lon="5.91228">
        <ele>482</ele>
        <time>2016-04-30T08:17:59.000Z</time>
      </trkpt>
      <trkpt lat="43.69484" lon="5.91228">
        <ele>482</ele>
        <time>2016-04-30T08:18:01.000Z</time>
      </trkpt>
      <trkpt lat="43.69484" lon="5.91228">
        <ele>482</ele>
        <time>2016-04-30T08:18:03.000Z</time>
      </trkpt>
      <trkpt lat="43.69516" lon="5.91159">
        <ele>487</ele>
        <time>2016-04-30T08:18:07.000Z</time>
      </trkpt>
      <trkpt lat="43.6953" lon="5.91121">
        <ele>487</ele>
        <time>2016-04-30T08:18:09.000Z</time>
      </trkpt>
      <trkpt lat="43.69535" lon="5.911">
        <ele>487</ele>
        <time>2016-04-30T08:18:11.000Z</time>
      </trkpt>
      <trkpt lat="43.69536" lon="5.91087">
        <ele>487</ele>
        <time>2016-04-30T08:18:13.000Z</time>
      </trkpt>
      <trkpt lat="43.69535" lon="5.91078">
        <ele>487</ele>
        <time>2016-04-30T08:18:15.000Z</time>
      </trkpt>
      <trkpt lat="43.69532" lon="5.91064">
        <ele>487</ele>
        <time>2016-04-30T08:18:17.000Z</time>
      </trkpt>
      <trkpt lat="43.69532" lon="5.91064">
        <ele>487</ele>
        <time>2016-04-30T08:18:21.000Z</time>
      </trkpt>
      <trkpt lat="43.69532" lon="5.91064">
        <ele>487</ele>
        <time>2016-04-30T08:18:23.000Z</time>
      </trkpt>
      <trkpt lat="43.69532" lon="5.91064">
        <ele>487</ele>
        <time>2016-04-30T08:18:25.000Z</time>
      </trkpt>
      <trkpt lat="43.69532" lon="5.91064">
        <ele>487</ele>
        <time>2016-04-30T08:18:27.000Z</time>
      </trkpt>
      <trkpt lat="43.69532" lon="5.91064">
        <ele>487</ele>
        <time>2016-04-30T08:18:29.000Z</time>
      </trkpt>
      <trkpt lat="43.69532" lon="5.91064">
        <ele>487</ele>
        <time>2016-04-30T08:18:31.000Z</time>
      </trkpt>
      <trkpt lat="43.69532" lon="5.91064">
        <ele>487</ele>
        <time>2016-04-30T08:18:33.000Z</time>
      </trkpt>
      <trkpt lat="43.69532" lon="5.91064">
        <ele>487</ele>
        <time>2016-04-30T08:18:35.000Z</time>
      </trkpt>
      <trkpt lat="43.69532" lon="5.91064">
        <ele>487</ele>
        <time>2016-04-30T08:18:37.000Z</time>
      </trkpt>
      <trkpt lat="43.69532" lon="5.91064">
        <ele>487</ele>
        <time>2016-04-30T08:18:39.000Z</time>
      </trkpt>
      <trkpt lat="43.69532" lon="5.91064">
        <ele>487</ele>
        <time>2016-04-30T08:18:41.000Z</time>
      </trkpt>
      <trkpt lat="43.69532" lon="5.91064">
        <ele>487</ele>
        <time>2016-04-30T08:18:43.000Z</time>
      </trkpt>
      <trkpt lat="43.69532" lon="5.91064">
        <ele>487</ele>
        <time>2016-04-30T08:18:45.000Z</time>
      </trkpt>
      <trkpt lat="43.69532" lon="5.91064">
        <ele>487</ele>
        <time>2016-04-30T08:18:47.000Z</time>
      </trkpt>
      <trkpt lat="43.69532" lon="5.91064">
        <ele>487</ele>
        <time>2016-04-30T08:18:49.000Z</time>
      </trkpt>
      <trkpt lat="43.69532" lon="5.91064">
        <ele>487</ele>
        <time>2016-04-30T08:18:51.000Z</time>
      </trkpt>
      <trkpt lat="43.69532" lon="5.91064">
        <ele>487</ele>
        <time>2016-04-30T08:18:53.000Z</time>
      </trkpt>
      <trkpt lat="43.69532" lon="5.91064">
        <ele>487</ele>
        <time>2016-04-30T08:18:55.000Z</time>
      </trkpt>
      <trkpt lat="43.69532" lon="5.91064">
        <ele>487</ele>
        <time>2016-04-30T08:18:57.000Z</time>
      </trkpt>
      <trkpt lat="43.69532" lon="5.91064">
        <ele>487</ele>
        <time>2016-04-30T08:18:59.000Z</time>
      </trkpt>
      <trkpt lat="43.69532" lon="5.91064">
        <ele>487</ele>
        <time>2016-04-30T08:19:01.000Z</time>
      </trkpt>
      <trkpt lat="43.69532" lon="5.91064">
        <ele>487</ele>
        <time>2016-04-30T08:19:03.000Z</time>
      </trkpt>
      <trkpt lat="43.69532" lon="5.91064">
        <ele>487</ele>
        <time>2016-04-30T08:19:05.000Z</time>
      </trkpt>
      <trkpt lat="43.69532" lon="5.91064">
        <ele>487</ele>
        <time>2016-04-30T08:19:07.000Z</time>
      </trkpt>
      <trkpt lat="43.69532" lon="5.91064">
        <ele>487</ele>
        <time>2016-04-30T08:19:09.000Z</time>
      </trkpt>
      <trkpt lat="43.69532" lon="5.91064">
        <ele>487</ele>
        <time>2016-04-30T08:19:11.000Z</time>
      </trkpt>
      <trkpt lat="43.69532" lon="5.91064">
        <ele>487</ele>
        <time>2016-04-30T08:19:13.000Z</time>
      </trkpt>
      <trkpt lat="43.69532" lon="5.91064">
        <ele>487</ele>
        <time>2016-04-30T08:19:15.000Z</time>
      </trkpt>
      <trkpt lat="43.69532" lon="5.91064">
        <ele>487</ele>
        <time>2016-04-30T08:19:17.000Z</time>
      </trkpt>
      <trkpt lat="43.69532" lon="5.91064">
        <ele>487</ele>
        <time>2016-04-30T08:19:19.000Z</time>
      </trkpt>
      <trkpt lat="43.69532" lon="5.91064">
        <ele>487</ele>
        <time>2016-04-30T08:19:21.000Z</time>
      </trkpt>
      <trkpt lat="43.69532" lon="5.91064">
        <ele>487</ele>
        <time>2016-04-30T08:19:23.000Z</time>
      </trkpt>
      <trkpt lat="43.69532" lon="5.91064">
        <ele>487</ele>
        <time>2016-04-30T08:19:25.000Z</time>
      </trkpt>
      <trkpt lat="43.69532" lon="5.91064">
        <ele>487</ele>
        <time>2016-04-30T08:19:27.000Z</time>
      </trkpt>
      <trkpt lat="43.69532" lon="5.91064">
        <ele>487</ele>
        <time>2016-04-30T08:19:29.000Z</time>
      </trkpt>
      <trkpt lat="43.69532" lon="5.91064">
        <ele>487</ele>
        <time>2016-04-30T08:19:31.000Z</time>
      </trkpt>
      <trkpt lat="43.69532" lon="5.91064">
        <ele>487</ele>
        <time>2016-04-30T08:19:33.000Z</time>
      </trkpt>
      <trkpt lat="43.69532" lon="5.91064">
        <ele>487</ele>
        <time>2016-04-30T08:19:35.000Z</time>
      </trkpt>
      <trkpt lat="43.69532" lon="5.91064">
        <ele>487</ele>
        <time>2016-04-30T08:19:37.000Z</time>
      </trkpt>
      <trkpt lat="43.69532" lon="5.91064">
        <ele>487</ele>
        <time>2016-04-30T08:19:39.000Z</time>
      </trkpt>
      <trkpt lat="43.69532" lon="5.91064">
        <ele>487</ele>
        <time>2016-04-30T08:19:41.000Z</time>
      </trkpt>
      <trkpt lat="43.69532" lon="5.91064">
        <ele>487</ele>
        <time>2016-04-30T08:19:43.000Z</time>
      </trkpt>
      <trkpt lat="43.695" lon="5.90991">
        <ele>510</ele>
        <time>2016-04-30T08:19:49.000Z</time>
      </trkpt>
      <trkpt lat="43.69484" lon="5.90955">
        <ele>510</ele>
        <time>2016-04-30T08:19:51.000Z</time>
      </trkpt>
      <trkpt lat="43.69474" lon="5.90938">
        <ele>510</ele>
        <time>2016-04-30T08:19:53.000Z</time>
      </trkpt>
      <trkpt lat="43.69468" lon="5.9093">
        <ele>509</ele>
        <time>2016-04-30T08:19:55.000Z</time>
      </trkpt>
      <trkpt lat="43.69464" lon="5.90926">
        <ele>509</ele>
        <time>2016-04-30T08:19:57.000Z</time>
      </trkpt>
      <trkpt lat="43.69454" lon="5.90921">
        <ele>510</ele>
        <time>2016-04-30T08:20:03.000Z</time>
      </trkpt>
      <trkpt lat="43.69449" lon="5.90909">
        <ele>512</ele>
        <time>2016-04-30T08:20:11.000Z</time>
      </trkpt>
      <trkpt lat="43.69449" lon="5.90909">
        <ele>512</ele>
        <time>2016-04-30T08:20:19.000Z</time>
      </trkpt>
      <trkpt lat="43.69449" lon="5.90909">
        <ele>512</ele>
        <time>2016-04-30T08:20:21.000Z</time>
      </trkpt>
      <trkpt lat="43.69449" lon="5.90909">
        <ele>512</ele>
        <time>2016-04-30T08:20:23.000Z</time>
      </trkpt>
      <trkpt lat="43.69449" lon="5.90909">
        <ele>512</ele>
        <time>2016-04-30T08:20:25.000Z</time>
      </trkpt>
      <trkpt lat="43.69449" lon="5.90909">
        <ele>512</ele>
        <time>2016-04-30T08:20:27.000Z</time>
      </trkpt>
      <trkpt lat="43.69449" lon="5.90909">
        <ele>512</ele>
        <time>2016-04-30T08:20:29.000Z</time>
      </trkpt>
      <trkpt lat="43.69449" lon="5.90909">
        <ele>512</ele>
        <time>2016-04-30T08:20:31.000Z</time>
      </trkpt>
      <trkpt lat="43.69449" lon="5.90909">
        <ele>512</ele>
        <time>2016-04-30T08:20:33.000Z</time>
      </trkpt>
      <trkpt lat="43.69449" lon="5.90909">
        <ele>512</ele>
        <time>2016-04-30T08:20:35.000Z</time>
      </trkpt>
      <trkpt lat="43.69449" lon="5.90909">
        <ele>512</ele>
        <time>2016-04-30T08:20:37.000Z</time>
      </trkpt>
      <trkpt lat="43.69449" lon="5.90909">
        <ele>512</ele>
        <time>2016-04-30T08:20:39.000Z</time>
      </trkpt>
      <trkpt lat="43.69442" lon="5.90869">
        <ele>520</ele>
        <time>2016-04-30T08:20:41.000Z</time>
      </trkpt>
      <trkpt lat="43.69449" lon="5.90857">
        <ele>522</ele>
        <time>2016-04-30T08:20:49.000Z</time>
      </trkpt>
      <trkpt lat="43.69453" lon="5.90844">
        <ele>522</ele>
        <time>2016-04-30T08:20:57.000Z</time>
      </trkpt>
      <trkpt lat="43.69453" lon="5.90844">
        <ele>522</ele>
        <time>2016-04-30T08:20:59.000Z</time>
      </trkpt>
      <trkpt lat="43.69453" lon="5.90844">
        <ele>522</ele>
        <time>2016-04-30T08:21:01.000Z</time>
      </trkpt>
      <trkpt lat="43.69453" lon="5.90844">
        <ele>522</ele>
        <time>2016-04-30T08:21:03.000Z</time>
      </trkpt>
      <trkpt lat="43.69453" lon="5.90844">
        <ele>522</ele>
        <time>2016-04-30T08:21:05.000Z</time>
      </trkpt>
      <trkpt lat="43.69453" lon="5.90844">
        <ele>522</ele>
        <time>2016-04-30T08:21:07.000Z</time>
      </trkpt>
      <trkpt lat="43.69446" lon="5.90844">
        <ele>518</ele>
        <time>2016-04-30T08:21:09.000Z</time>
      </trkpt>
      <trkpt lat="43.69441" lon="5.90845">
        <ele>518</ele>
        <time>2016-04-30T08:21:11.000Z</time>
      </trkpt>
      <trkpt lat="43.69437" lon="5.90845">
        <ele>519</ele>
        <time>2016-04-30T08:21:15.000Z</time>
      </trkpt>
      <trkpt lat="43.69437" lon="5.90845">
        <ele>519</ele>
        <time>2016-04-30T08:21:17.000Z</time>
      </trkpt>
      <trkpt lat="43.69437" lon="5.90845">
        <ele>519</ele>
        <time>2016-04-30T08:21:19.000Z</time>
      </trkpt>
      <trkpt lat="43.69431" lon="5.90842">
        <ele>520</ele>
        <time>2016-04-30T08:21:21.000Z</time>
      </trkpt>
      <trkpt lat="43.69426" lon="5.90837">
        <ele>522</ele>
        <time>2016-04-30T08:21:25.000Z</time>
      </trkpt>
      <trkpt lat="43.69423" lon="5.90832">
        <ele>524</ele>
        <time>2016-04-30T08:21:29.000Z</time>
      </trkpt>
      <trkpt lat="43.69421" lon="5.90825">
        <ele>526</ele>
        <time>2016-04-30T08:21:33.000Z</time>
      </trkpt>
      <trkpt lat="43.6942" lon="5.90818">
        <ele>528</ele>
        <time>2016-04-30T08:21:37.000Z</time>
      </trkpt>
      <trkpt lat="43.69419" lon="5.9081">
        <ele>528</ele>
        <time>2016-04-30T08:21:41.000Z</time>
      </trkpt>
      <trkpt lat="43.69418" lon="5.90803">
        <ele>530</ele>
        <time>2016-04-30T08:21:45.000Z</time>
      </trkpt>
      <trkpt lat="43.69417" lon="5.90796">
        <ele>532</ele>
        <time>2016-04-30T08:21:49.000Z</time>
      </trkpt>
      <trkpt lat="43.69417" lon="5.90796">
        <ele>532</ele>
        <time>2016-04-30T08:21:51.000Z</time>
      </trkpt>
      <trkpt lat="43.69417" lon="5.90796">
        <ele>532</ele>
        <time>2016-04-30T08:21:53.000Z</time>
      </trkpt>
      <trkpt lat="43.69417" lon="5.90796">
        <ele>532</ele>
        <time>2016-04-30T08:21:55.000Z</time>
      </trkpt>
      <trkpt lat="43.69418" lon="5.90784">
        <ele>535</ele>
        <time>2016-04-30T08:21:59.000Z</time>
      </trkpt>
      <trkpt lat="43.69419" lon="5.90777">
        <ele>536</ele>
        <time>2016-04-30T08:22:01.000Z</time>
      </trkpt>
      <trkpt lat="43.69419" lon="5.90777">
        <ele>536</ele>
        <time>2016-04-30T08:22:07.000Z</time>
      </trkpt>
      <trkpt lat="43.69419" lon="5.90777">
        <ele>536</ele>
        <time>2016-04-30T08:22:07.000Z</time>
      </trkpt>
      <trkpt lat="43.69419" lon="5.90777">
        <ele>536</ele>
        <time>2016-04-30T08:22:15.000Z</time>
      </trkpt>
      <trkpt lat="43.69419" lon="5.90777">
        <ele>536</ele>
        <time>2016-04-30T08:22:17.000Z</time>
      </trkpt>
      <trkpt lat="43.69419" lon="5.90777">
        <ele>536</ele>
        <time>2016-04-30T08:22:20.000Z</time>
      </trkpt>
      <trkpt lat="43.69419" lon="5.90777">
        <ele>536</ele>
        <time>2016-04-30T08:22:21.000Z</time>
      </trkpt>
      <trkpt lat="43.69419" lon="5.90777">
        <ele>536</ele>
        <time>2016-04-30T08:22:23.000Z</time>
      </trkpt>
      <trkpt lat="43.69419" lon="5.90777">
        <ele>536</ele>
        <time>2016-04-30T08:22:25.000Z</time>
      </trkpt>
      <trkpt lat="43.69417" lon="5.90765">
        <ele>534</ele>
        <time>2016-04-30T08:22:29.000Z</time>
      </trkpt>
      <trkpt lat="43.69416" lon="5.90758">
        <ele>537</ele>
        <time>2016-04-30T08:22:31.000Z</time>
      </trkpt>
      <trkpt lat="43.69416" lon="5.90751">
        <ele>544</ele>
        <time>2016-04-30T08:22:35.000Z</time>
      </trkpt>
      <trkpt lat="43.69416" lon="5.90751">
        <ele>544</ele>
        <time>2016-04-30T08:22:39.000Z</time>
      </trkpt>
      <trkpt lat="43.69416" lon="5.90751">
        <ele>544</ele>
        <time>2016-04-30T08:22:41.000Z</time>
      </trkpt>
      <trkpt lat="43.69416" lon="5.90751">
        <ele>544</ele>
        <time>2016-04-30T08:22:43.000Z</time>
      </trkpt>
      <trkpt lat="43.69416" lon="5.90751">
        <ele>544</ele>
        <time>2016-04-30T08:22:45.000Z</time>
      </trkpt>
      <trkpt lat="43.6943" lon="5.90717">
        <ele>545</ele>
        <time>2016-04-30T08:23:05.000Z</time>
      </trkpt>
      <trkpt lat="43.6943" lon="5.90717">
        <ele>545</ele>
        <time>2016-04-30T08:23:07.000Z</time>
      </trkpt>
      <trkpt lat="43.6943" lon="5.90717">
        <ele>545</ele>
        <time>2016-04-30T08:23:09.000Z</time>
      </trkpt>
      <trkpt lat="43.6943" lon="5.90717">
        <ele>545</ele>
        <time>2016-04-30T08:23:11.000Z</time>
      </trkpt>
      <trkpt lat="43.6943" lon="5.90717">
        <ele>545</ele>
        <time>2016-04-30T08:23:13.000Z</time>
      </trkpt>
      <trkpt lat="43.6943" lon="5.90717">
        <ele>545</ele>
        <time>2016-04-30T08:23:15.000Z</time>
      </trkpt>
      <trkpt lat="43.6943" lon="5.90717">
        <ele>545</ele>
        <time>2016-04-30T08:23:17.000Z</time>
      </trkpt>
      <trkpt lat="43.6943" lon="5.90717">
        <ele>545</ele>
        <time>2016-04-30T08:23:19.000Z</time>
      </trkpt>
      <trkpt lat="43.6943" lon="5.90717">
        <ele>545</ele>
        <time>2016-04-30T08:23:21.000Z</time>
      </trkpt>
      <trkpt lat="43.6943" lon="5.90717">
        <ele>545</ele>
        <time>2016-04-30T08:23:23.000Z</time>
      </trkpt>
      <trkpt lat="43.6943" lon="5.90717">
        <ele>545</ele>
        <time>2016-04-30T08:23:25.000Z</time>
      </trkpt>
      <trkpt lat="43.6943" lon="5.90717">
        <ele>545</ele>
        <time>2016-04-30T08:23:27.000Z</time>
      </trkpt>
      <trkpt lat="43.6943" lon="5.90717">
        <ele>545</ele>
        <time>2016-04-30T08:23:29.000Z</time>
      </trkpt>
      <trkpt lat="43.6943" lon="5.90717">
        <ele>545</ele>
        <time>2016-04-30T08:23:31.000Z</time>
      </trkpt>
      <trkpt lat="43.6943" lon="5.90717">
        <ele>545</ele>
        <time>2016-04-30T08:23:33.000Z</time>
      </trkpt>
      <trkpt lat="43.6943" lon="5.90717">
        <ele>545</ele>
        <time>2016-04-30T08:23:35.000Z</time>
      </trkpt>
      <trkpt lat="43.6943" lon="5.90717">
        <ele>545</ele>
        <time>2016-04-30T08:23:37.000Z</time>
      </trkpt>
      <trkpt lat="43.6943" lon="5.90717">
        <ele>545</ele>
        <time>2016-04-30T08:23:39.000Z</time>
      </trkpt>
      <trkpt lat="43.6943" lon="5.90717">
        <ele>545</ele>
        <time>2016-04-30T08:23:41.000Z</time>
      </trkpt>
      <trkpt lat="43.6943" lon="5.90717">
        <ele>545</ele>
        <time>2016-04-30T08:23:43.000Z</time>
      </trkpt>
      <trkpt lat="43.69467" lon="5.90661">
        <ele>555</ele>
        <time>2016-04-30T08:23:45.000Z</time>
      </trkpt>
      <trkpt lat="43.69473" lon="5.90651">
        <ele>555</ele>
        <time>2016-04-30T08:23:51.000Z</time>
      </trkpt>
      <trkpt lat="43.69479" lon="5.90641">
        <ele>554</ele>
        <time>2016-04-30T08:23:57.000Z</time>
      </trkpt>
      <trkpt lat="43.69481" lon="5.90628">
        <ele>552</ele>
        <time>2016-04-30T08:24:03.000Z</time>
      </trkpt>
      <trkpt lat="43.6947" lon="5.90626">
        <ele>548</ele>
        <time>2016-04-30T08:24:11.000Z</time>
      </trkpt>
      <trkpt lat="43.69465" lon="5.90629">
        <ele>549</ele>
        <time>2016-04-30T08:24:19.000Z</time>
      </trkpt>
      <trkpt lat="43.69461" lon="5.90633">
        <ele>550</ele>
        <time>2016-04-30T08:24:23.000Z</time>
      </trkpt>
      <trkpt lat="43.69456" lon="5.90636">
        <ele>550</ele>
        <time>2016-04-30T08:24:27.000Z</time>
      </trkpt>
      <trkpt lat="43.69451" lon="5.9064">
        <ele>550</ele>
        <time>2016-04-30T08:24:31.000Z</time>
      </trkpt>
      <trkpt lat="43.69446" lon="5.90644">
        <ele>551</ele>
        <time>2016-04-30T08:24:35.000Z</time>
      </trkpt>
      <trkpt lat="43.69442" lon="5.90648">
        <ele>551</ele>
        <time>2016-04-30T08:24:37.000Z</time>
      </trkpt>
      <trkpt lat="43.69438" lon="5.90651">
        <ele>550</ele>
        <time>2016-04-30T08:24:41.000Z</time>
      </trkpt>
      <trkpt lat="43.69434" lon="5.90655">
        <ele>551</ele>
        <time>2016-04-30T08:24:45.000Z</time>
      </trkpt>
      <trkpt lat="43.69434" lon="5.90655">
        <ele>551</ele>
        <time>2016-04-30T08:24:47.000Z</time>
      </trkpt>
      <trkpt lat="43.6943" lon="5.90658">
        <ele>552</ele>
        <time>2016-04-30T08:24:51.000Z</time>
      </trkpt>
      <trkpt lat="43.69426" lon="5.90663">
        <ele>552</ele>
        <time>2016-04-30T08:24:55.000Z</time>
      </trkpt>
      <trkpt lat="43.69422" lon="5.90666">
        <ele>551</ele>
        <time>2016-04-30T08:24:57.000Z</time>
      </trkpt>
      <trkpt lat="43.69417" lon="5.9067">
        <ele>552</ele>
        <time>2016-04-30T08:25:01.000Z</time>
      </trkpt>
      <trkpt lat="43.69417" lon="5.9067">
        <ele>552</ele>
        <time>2016-04-30T08:25:03.000Z</time>
      </trkpt>
      <trkpt lat="43.69413" lon="5.90675">
        <ele>551</ele>
        <time>2016-04-30T08:25:05.000Z</time>
      </trkpt>
      <trkpt lat="43.69413" lon="5.90675">
        <ele>551</ele>
        <time>2016-04-30T08:25:07.000Z</time>
      </trkpt>
      <trkpt lat="43.69406" lon="5.90681">
        <ele>549</ele>
        <time>2016-04-30T08:25:11.000Z</time>
      </trkpt>
      <trkpt lat="43.69402" lon="5.90685">
        <ele>549</ele>
        <time>2016-04-30T08:25:13.000Z</time>
      </trkpt>
      <trkpt lat="43.69398" lon="5.90688">
        <ele>549</ele>
        <time>2016-04-30T08:25:15.000Z</time>
      </trkpt>
      <trkpt lat="43.69398" lon="5.90688">
        <ele>549</ele>
        <time>2016-04-30T08:25:19.000Z</time>
      </trkpt>
      <trkpt lat="43.69398" lon="5.90688">
        <ele>549</ele>
        <time>2016-04-30T08:25:21.000Z</time>
      </trkpt>
      <trkpt lat="43.69398" lon="5.90688">
        <ele>549</ele>
        <time>2016-04-30T08:25:23.000Z</time>
      </trkpt>
      <trkpt lat="43.69398" lon="5.90688">
        <ele>549</ele>
        <time>2016-04-30T08:25:25.000Z</time>
      </trkpt>
      <trkpt lat="43.69398" lon="5.90688">
        <ele>549</ele>
        <time>2016-04-30T08:25:27.000Z</time>
      </trkpt>
      <trkpt lat="43.69398" lon="5.90688">
        <ele>549</ele>
        <time>2016-04-30T08:25:29.000Z</time>
      </trkpt>
      <trkpt lat="43.69398" lon="5.90688">
        <ele>549</ele>
        <time>2016-04-30T08:25:31.000Z</time>
      </trkpt>
      <trkpt lat="43.69398" lon="5.90688">
        <ele>549</ele>
        <time>2016-04-30T08:25:33.000Z</time>
      </trkpt>
      <trkpt lat="43.69398" lon="5.90688">
        <ele>549</ele>
        <time>2016-04-30T08:25:35.000Z</time>
      </trkpt>
      <trkpt lat="43.69398" lon="5.90688">
        <ele>549</ele>
        <time>2016-04-30T08:25:37.000Z</time>
      </trkpt>
      <trkpt lat="43.69398" lon="5.90688">
        <ele>549</ele>
        <time>2016-04-30T08:25:39.000Z</time>
      </trkpt>
      <trkpt lat="43.69398" lon="5.90688">
        <ele>549</ele>
        <time>2016-04-30T08:25:41.000Z</time>
      </trkpt>
      <trkpt lat="43.69398" lon="5.90688">
        <ele>549</ele>
        <time>2016-04-30T08:25:43.000Z</time>
      </trkpt>
      <trkpt lat="43.69398" lon="5.90688">
        <ele>549</ele>
        <time>2016-04-30T08:25:45.000Z</time>
      </trkpt>
      <trkpt lat="43.69398" lon="5.90688">
        <ele>549</ele>
        <time>2016-04-30T08:25:47.000Z</time>
      </trkpt>
      <trkpt lat="43.69398" lon="5.90688">
        <ele>549</ele>
        <time>2016-04-30T08:25:49.000Z</time>
      </trkpt>
      <trkpt lat="43.69398" lon="5.90688">
        <ele>549</ele>
        <time>2016-04-30T08:25:51.000Z</time>
      </trkpt>
      <trkpt lat="43.69398" lon="5.90688">
        <ele>549</ele>
        <time>2016-04-30T08:25:53.000Z</time>
      </trkpt>
      <trkpt lat="43.69398" lon="5.90688">
        <ele>549</ele>
        <time>2016-04-30T08:25:55.000Z</time>
      </trkpt>
      <trkpt lat="43.69374" lon="5.90713">
        <ele>561</ele>
        <time>2016-04-30T08:25:57.000Z</time>
      </trkpt>
      <trkpt lat="43.69361" lon="5.90727">
        <ele>561</ele>
        <time>2016-04-30T08:25:59.000Z</time>
      </trkpt>
      <trkpt lat="43.69353" lon="5.90734">
        <ele>562</ele>
        <time>2016-04-30T08:26:01.000Z</time>
      </trkpt>
      <trkpt lat="43.69348" lon="5.9074">
        <ele>562</ele>
        <time>2016-04-30T08:26:03.000Z</time>
      </trkpt>
      <trkpt lat="43.69345" lon="5.90744">
        <ele>561</ele>
        <time>2016-04-30T08:26:05.000Z</time>
      </trkpt>
      <trkpt lat="43.69337" lon="5.90753">
        <ele>563</ele>
        <time>2016-04-30T08:26:09.000Z</time>
      </trkpt>
      <trkpt lat="43.69331" lon="5.90762">
        <ele>565</ele>
        <time>2016-04-30T08:26:15.000Z</time>
      </trkpt>
      <trkpt lat="43.69323" lon="5.90768">
        <ele>566</ele>
        <time>2016-04-30T08:26:21.000Z</time>
      </trkpt>
      <trkpt lat="43.69323" lon="5.90768">
        <ele>566</ele>
        <time>2016-04-30T08:26:31.000Z</time>
      </trkpt>
      <trkpt lat="43.69323" lon="5.90768">
        <ele>566</ele>
        <time>2016-04-30T08:26:33.000Z</time>
      </trkpt>
      <trkpt lat="43.69323" lon="5.90768">
        <ele>566</ele>
        <time>2016-04-30T08:26:35.000Z</time>
      </trkpt>
      <trkpt lat="43.69323" lon="5.90768">
        <ele>566</ele>
        <time>2016-04-30T08:26:37.000Z</time>
      </trkpt>
      <trkpt lat="43.69323" lon="5.90768">
        <ele>566</ele>
        <time>2016-04-30T08:26:39.000Z</time>
      </trkpt>
      <trkpt lat="43.69323" lon="5.90768">
        <ele>566</ele>
        <time>2016-04-30T08:26:41.000Z</time>
      </trkpt>
      <trkpt lat="43.69323" lon="5.90768">
        <ele>566</ele>
        <time>2016-04-30T08:26:43.000Z</time>
      </trkpt>
      <trkpt lat="43.69323" lon="5.90768">
        <ele>566</ele>
        <time>2016-04-30T08:26:45.000Z</time>
      </trkpt>
      <trkpt lat="43.69323" lon="5.90768">
        <ele>566</ele>
        <time>2016-04-30T08:26:47.000Z</time>
      </trkpt>
      <trkpt lat="43.69323" lon="5.90768">
        <ele>566</ele>
        <time>2016-04-30T08:26:49.000Z</time>
      </trkpt>
      <trkpt lat="43.69323" lon="5.90768">
        <ele>566</ele>
        <time>2016-04-30T08:26:51.000Z</time>
      </trkpt>
      <trkpt lat="43.69323" lon="5.90768">
        <ele>566</ele>
        <time>2016-04-30T08:26:53.000Z</time>
      </trkpt>
      <trkpt lat="43.69323" lon="5.90768">
        <ele>566</ele>
        <time>2016-04-30T08:26:55.000Z</time>
      </trkpt>
      <trkpt lat="43.69323" lon="5.90768">
        <ele>566</ele>
        <time>2016-04-30T08:26:57.000Z</time>
      </trkpt>
      <trkpt lat="43.69323" lon="5.90768">
        <ele>566</ele>
        <time>2016-04-30T08:26:59.000Z</time>
      </trkpt>
      <trkpt lat="43.69323" lon="5.90768">
        <ele>566</ele>
        <time>2016-04-30T08:27:01.000Z</time>
      </trkpt>
      <trkpt lat="43.69323" lon="5.90768">
        <ele>566</ele>
        <time>2016-04-30T08:27:03.000Z</time>
      </trkpt>
      <trkpt lat="43.69323" lon="5.90768">
        <ele>566</ele>
        <time>2016-04-30T08:27:05.000Z</time>
      </trkpt>
      <trkpt lat="43.69323" lon="5.90768">
        <ele>566</ele>
        <time>2016-04-30T08:27:07.000Z</time>
      </trkpt>
      <trkpt lat="43.69323" lon="5.90768">
        <ele>566</ele>
        <time>2016-04-30T08:27:09.000Z</time>
      </trkpt>
      <trkpt lat="43.69339" lon="5.90707">
        <ele>583</ele>
        <time>2016-04-30T08:27:11.000Z</time>
      </trkpt>
      <trkpt lat="43.69341" lon="5.90701">
        <ele>581</ele>
        <time>2016-04-30T08:27:17.000Z</time>
      </trkpt>
      <trkpt lat="43.69342" lon="5.90695">
        <ele>580</ele>
        <time>2016-04-30T08:27:21.000Z</time>
      </trkpt>
      <trkpt lat="43.69345" lon="5.90688">
        <ele>578</ele>
        <time>2016-04-30T08:27:25.000Z</time>
      </trkpt>
      <trkpt lat="43.69348" lon="5.90681">
        <ele>581</ele>
        <time>2016-04-30T08:27:29.000Z</time>
      </trkpt>
      <trkpt lat="43.69348" lon="5.90681">
        <ele>581</ele>
        <time>2016-04-30T08:27:31.000Z</time>
      </trkpt>
      <trkpt lat="43.69348" lon="5.90681">
        <ele>581</ele>
        <time>2016-04-30T08:27:33.000Z</time>
      </trkpt>
      <trkpt lat="43.69351" lon="5.90672">
        <ele>583</ele>
        <time>2016-04-30T08:27:35.000Z</time>
      </trkpt>
      <trkpt lat="43.69354" lon="5.90666">
        <ele>584</ele>
        <time>2016-04-30T08:27:37.000Z</time>
      </trkpt>
      <trkpt lat="43.69357" lon="5.90659">
        <ele>584</ele>
        <time>2016-04-30T08:27:41.000Z</time>
      </trkpt>
      <trkpt lat="43.69359" lon="5.90652">
        <ele>584</ele>
        <time>2016-04-30T08:27:45.000Z</time>
      </trkpt>
      <trkpt lat="43.6936" lon="5.90644">
        <ele>583</ele>
        <time>2016-04-30T08:27:49.000Z</time>
      </trkpt>
      <trkpt lat="43.69357" lon="5.90636">
        <ele>584</ele>
        <time>2016-04-30T08:27:53.000Z</time>
      </trkpt>
      <trkpt lat="43.69353" lon="5.90631">
        <ele>585</ele>
        <time>2016-04-30T08:27:57.000Z</time>
      </trkpt>
      <trkpt lat="43.69349" lon="5.90628">
        <ele>584</ele>
        <time>2016-04-30T08:28:01.000Z</time>
      </trkpt>
      <trkpt lat="43.69343" lon="5.90627">
        <ele>583</ele>
        <time>2016-04-30T08:28:05.000Z</time>
      </trkpt>
      <trkpt lat="43.69337" lon="5.90626">
        <ele>585</ele>
        <time>2016-04-30T08:28:09.000Z</time>
      </trkpt>
      <trkpt lat="43.69332" lon="5.90625">
        <ele>585</ele>
        <time>2016-04-30T08:28:13.000Z</time>
      </trkpt>
      <trkpt lat="43.69326" lon="5.90625">
        <ele>584</ele>
        <time>2016-04-30T08:28:17.000Z</time>
      </trkpt>
      <trkpt lat="43.6932" lon="5.90626">
        <ele>585</ele>
        <time>2016-04-30T08:28:21.000Z</time>
      </trkpt>
      <trkpt lat="43.69314" lon="5.90627">
        <ele>585</ele>
        <time>2016-04-30T08:28:25.000Z</time>
      </trkpt>
      <trkpt lat="43.69309" lon="5.9063">
        <ele>585</ele>
        <time>2016-04-30T08:28:29.000Z</time>
      </trkpt>
      <trkpt lat="43.69304" lon="5.90634">
        <ele>587</ele>
        <time>2016-04-30T08:28:33.000Z</time>
      </trkpt>
      <trkpt lat="43.69299" lon="5.90637">
        <ele>586</ele>
        <time>2016-04-30T08:28:37.000Z</time>
      </trkpt>
      <trkpt lat="43.69294" lon="5.9064">
        <ele>585</ele>
        <time>2016-04-30T08:28:41.000Z</time>
      </trkpt>
      <trkpt lat="43.69289" lon="5.90644">
        <ele>586</ele>
        <time>2016-04-30T08:28:45.000Z</time>
      </trkpt>
      <trkpt lat="43.69285" lon="5.90648">
        <ele>588</ele>
        <time>2016-04-30T08:28:49.000Z</time>
      </trkpt>
      <trkpt lat="43.69281" lon="5.90651">
        <ele>589</ele>
        <time>2016-04-30T08:28:53.000Z</time>
      </trkpt>
      <trkpt lat="43.69276" lon="5.90655">
        <ele>590</ele>
        <time>2016-04-30T08:28:57.000Z</time>
      </trkpt>
      <trkpt lat="43.69272" lon="5.90659">
        <ele>589</ele>
        <time>2016-04-30T08:29:01.000Z</time>
      </trkpt>
      <trkpt lat="43.69268" lon="5.90664">
        <ele>590</ele>
        <time>2016-04-30T08:29:05.000Z</time>
      </trkpt>
      <trkpt lat="43.69265" lon="5.90668">
        <ele>590</ele>
        <time>2016-04-30T08:29:07.000Z</time>
      </trkpt>
      <trkpt lat="43.6926" lon="5.90673">
        <ele>589</ele>
        <time>2016-04-30T08:29:11.000Z</time>
      </trkpt>
      <trkpt lat="43.69256" lon="5.90678">
        <ele>586</ele>
        <time>2016-04-30T08:29:15.000Z</time>
      </trkpt>
      <trkpt lat="43.69252" lon="5.90683">
        <ele>589</ele>
        <time>2016-04-30T08:29:19.000Z</time>
      </trkpt>
      <trkpt lat="43.69248" lon="5.90688">
        <ele>593</ele>
        <time>2016-04-30T08:29:23.000Z</time>
      </trkpt>
      <trkpt lat="43.69244" lon="5.90693">
        <ele>594</ele>
        <time>2016-04-30T08:29:27.000Z</time>
      </trkpt>
      <trkpt lat="43.69239" lon="5.90697">
        <ele>595</ele>
        <time>2016-04-30T08:29:31.000Z</time>
      </trkpt>
      <trkpt lat="43.69234" lon="5.90702">
        <ele>597</ele>
        <time>2016-04-30T08:29:35.000Z</time>
      </trkpt>
      <trkpt lat="43.69231" lon="5.90706">
        <ele>598</ele>
        <time>2016-04-30T08:29:37.000Z</time>
      </trkpt>
      <trkpt lat="43.69226" lon="5.90711">
        <ele>599</ele>
        <time>2016-04-30T08:29:41.000Z</time>
      </trkpt>
      <trkpt lat="43.69222" lon="5.90715">
        <ele>600</ele>
        <time>2016-04-30T08:29:45.000Z</time>
      </trkpt>
      <trkpt lat="43.69218" lon="5.90719">
        <ele>601</ele>
        <time>2016-04-30T08:29:47.000Z</time>
      </trkpt>
      <trkpt lat="43.69214" lon="5.90724">
        <ele>601</ele>
        <time>2016-04-30T08:29:51.000Z</time>
      </trkpt>
      <trkpt lat="43.69214" lon="5.90724">
        <ele>601</ele>
        <time>2016-04-30T08:29:55.000Z</time>
      </trkpt>
      <trkpt lat="43.69214" lon="5.90724">
        <ele>601</ele>
        <time>2016-04-30T08:29:57.000Z</time>
      </trkpt>
      <trkpt lat="43.69214" lon="5.90724">
        <ele>601</ele>
        <time>2016-04-30T08:29:59.000Z</time>
      </trkpt>
      <trkpt lat="43.69214" lon="5.90724">
        <ele>601</ele>
        <time>2016-04-30T08:30:01.000Z</time>
      </trkpt>
      <trkpt lat="43.69214" lon="5.90724">
        <ele>601</ele>
        <time>2016-04-30T08:30:03.000Z</time>
      </trkpt>
      <trkpt lat="43.69208" lon="5.90731">
        <ele>603</ele>
        <time>2016-04-30T08:30:41.000Z</time>
      </trkpt>
      <trkpt lat="43.69208" lon="5.90731">
        <ele>603</ele>
        <time>2016-04-30T08:30:43.000Z</time>
      </trkpt>
      <trkpt lat="43.6922" lon="5.90711">
        <ele>605</ele>
        <time>2016-04-30T08:30:49.000Z</time>
      </trkpt>
      <trkpt lat="43.69226" lon="5.907">
        <ele>606</ele>
        <time>2016-04-30T08:30:53.000Z</time>
      </trkpt>
      <trkpt lat="43.69233" lon="5.90689">
        <ele>609</ele>
        <time>2016-04-30T08:30:57.000Z</time>
      </trkpt>
      <trkpt lat="43.69238" lon="5.90678">
        <ele>609</ele>
        <time>2016-04-30T08:31:01.000Z</time>
      </trkpt>
      <trkpt lat="43.69238" lon="5.90678">
        <ele>609</ele>
        <time>2016-04-30T08:31:03.000Z</time>
      </trkpt>
      <trkpt lat="43.69238" lon="5.90678">
        <ele>609</ele>
        <time>2016-04-30T08:31:05.000Z</time>
      </trkpt>
      <trkpt lat="43.69238" lon="5.90678">
        <ele>609</ele>
        <time>2016-04-30T08:31:07.000Z</time>
      </trkpt>
      <trkpt lat="43.69238" lon="5.90678">
        <ele>609</ele>
        <time>2016-04-30T08:31:09.000Z</time>
      </trkpt>
      <trkpt lat="43.69257" lon="5.90647">
        <ele>616</ele>
        <time>2016-04-30T08:31:13.000Z</time>
      </trkpt>
      <trkpt lat="43.69263" lon="5.90637">
        <ele>616</ele>
        <time>2016-04-30T08:31:17.000Z</time>
      </trkpt>
      <trkpt lat="43.69263" lon="5.90637">
        <ele>616</ele>
        <time>2016-04-30T08:31:19.000Z</time>
      </trkpt>
      <trkpt lat="43.69263" lon="5.90637">
        <ele>616</ele>
        <time>2016-04-30T08:31:21.000Z</time>
      </trkpt>
      <trkpt lat="43.69263" lon="5.90637">
        <ele>616</ele>
        <time>2016-04-30T08:31:23.000Z</time>
      </trkpt>
      <trkpt lat="43.69263" lon="5.90637">
        <ele>616</ele>
        <time>2016-04-30T08:31:25.000Z</time>
      </trkpt>
      <trkpt lat="43.69263" lon="5.90637">
        <ele>616</ele>
        <time>2016-04-30T08:31:27.000Z</time>
      </trkpt>
      <trkpt lat="43.69263" lon="5.90637">
        <ele>616</ele>
        <time>2016-04-30T08:31:29.000Z</time>
      </trkpt>
      <trkpt lat="43.69263" lon="5.90637">
        <ele>616</ele>
        <time>2016-04-30T08:31:31.000Z</time>
      </trkpt>
      <trkpt lat="43.69263" lon="5.90637">
        <ele>616</ele>
        <time>2016-04-30T08:31:33.000Z</time>
      </trkpt>
      <trkpt lat="43.69263" lon="5.90637">
        <ele>616</ele>
        <time>2016-04-30T08:31:35.000Z</time>
      </trkpt>
      <trkpt lat="43.69263" lon="5.90637">
        <ele>616</ele>
        <time>2016-04-30T08:31:37.000Z</time>
      </trkpt>
      <trkpt lat="43.69288" lon="5.90588">
        <ele>618</ele>
        <time>2016-04-30T08:31:41.000Z</time>
      </trkpt>
      <trkpt lat="43.69288" lon="5.90588">
        <ele>618</ele>
        <time>2016-04-30T08:31:47.000Z</time>
      </trkpt>
      <trkpt lat="43.69288" lon="5.90588">
        <ele>618</ele>
        <time>2016-04-30T08:31:49.000Z</time>
      </trkpt>
      <trkpt lat="43.69288" lon="5.90588">
        <ele>618</ele>
        <time>2016-04-30T08:31:51.000Z</time>
      </trkpt>
      <trkpt lat="43.69288" lon="5.90588">
        <ele>618</ele>
        <time>2016-04-30T08:31:53.000Z</time>
      </trkpt>
      <trkpt lat="43.69288" lon="5.90588">
        <ele>618</ele>
        <time>2016-04-30T08:31:55.000Z</time>
      </trkpt>
      <trkpt lat="43.69288" lon="5.90588">
        <ele>618</ele>
        <time>2016-04-30T08:31:57.000Z</time>
      </trkpt>
      <trkpt lat="43.69288" lon="5.90588">
        <ele>618</ele>
        <time>2016-04-30T08:31:59.000Z</time>
      </trkpt>
      <trkpt lat="43.69288" lon="5.90588">
        <ele>618</ele>
        <time>2016-04-30T08:32:01.000Z</time>
      </trkpt>
      <trkpt lat="43.69288" lon="5.90588">
        <ele>618</ele>
        <time>2016-04-30T08:32:03.000Z</time>
      </trkpt>
      <trkpt lat="43.69288" lon="5.90588">
        <ele>618</ele>
        <time>2016-04-30T08:32:05.000Z</time>
      </trkpt>
      <trkpt lat="43.69288" lon="5.90588">
        <ele>618</ele>
        <time>2016-04-30T08:32:07.000Z</time>
      </trkpt>
      <trkpt lat="43.69281" lon="5.90585">
        <ele>614</ele>
        <time>2016-04-30T08:32:09.000Z</time>
      </trkpt>
      <trkpt lat="43.69277" lon="5.90585">
        <ele>615</ele>
        <time>2016-04-30T08:32:11.000Z</time>
      </trkpt>
      <trkpt lat="43.69271" lon="5.90587">
        <ele>615</ele>
        <time>2016-04-30T08:32:15.000Z</time>
      </trkpt>
      <trkpt lat="43.69271" lon="5.90587">
        <ele>615</ele>
        <time>2016-04-30T08:32:17.000Z</time>
      </trkpt>
      <trkpt lat="43.69271" lon="5.90587">
        <ele>615</ele>
        <time>2016-04-30T08:32:19.000Z</time>
      </trkpt>
      <trkpt lat="43.69271" lon="5.90587">
        <ele>615</ele>
        <time>2016-04-30T08:32:21.000Z</time>
      </trkpt>
      <trkpt lat="43.69271" lon="5.90587">
        <ele>615</ele>
        <time>2016-04-30T08:32:23.000Z</time>
      </trkpt>
      <trkpt lat="43.69271" lon="5.90587">
        <ele>615</ele>
        <time>2016-04-30T08:32:25.000Z</time>
      </trkpt>
      <trkpt lat="43.69271" lon="5.90587">
        <ele>615</ele>
        <time>2016-04-30T08:32:27.000Z</time>
      </trkpt>
      <trkpt lat="43.69271" lon="5.90587">
        <ele>615</ele>
        <time>2016-04-30T08:32:29.000Z</time>
      </trkpt>
      <trkpt lat="43.69271" lon="5.90587">
        <ele>615</ele>
        <time>2016-04-30T08:32:31.000Z</time>
      </trkpt>
      <trkpt lat="43.69271" lon="5.90587">
        <ele>615</ele>
        <time>2016-04-30T08:32:33.000Z</time>
      </trkpt>
      <trkpt lat="43.69271" lon="5.90587">
        <ele>615</ele>
        <time>2016-04-30T08:32:35.000Z</time>
      </trkpt>
      <trkpt lat="43.69271" lon="5.90587">
        <ele>615</ele>
        <time>2016-04-30T08:32:37.000Z</time>
      </trkpt>
      <trkpt lat="43.69271" lon="5.90587">
        <ele>615</ele>
        <time>2016-04-30T08:32:39.000Z</time>
      </trkpt>
      <trkpt lat="43.69271" lon="5.90587">
        <ele>615</ele>
        <time>2016-04-30T08:32:41.000Z</time>
      </trkpt>
      <trkpt lat="43.69271" lon="5.90587">
        <ele>615</ele>
        <time>2016-04-30T08:32:43.000Z</time>
      </trkpt>
      <trkpt lat="43.69271" lon="5.90587">
        <ele>615</ele>
        <time>2016-04-30T08:32:45.000Z</time>
      </trkpt>
      <trkpt lat="43.69271" lon="5.90587">
        <ele>615</ele>
        <time>2016-04-30T08:32:47.000Z</time>
      </trkpt>
      <trkpt lat="43.69271" lon="5.90587">
        <ele>615</ele>
        <time>2016-04-30T08:32:49.000Z</time>
      </trkpt>
      <trkpt lat="43.69271" lon="5.90587">
        <ele>615</ele>
        <time>2016-04-30T08:32:51.000Z</time>
      </trkpt>
      <trkpt lat="43.69257" lon="5.90579">
        <ele>617</ele>
        <time>2016-04-30T08:32:55.000Z</time>
      </trkpt>
      <trkpt lat="43.69248" lon="5.90575">
        <ele>617</ele>
        <time>2016-04-30T08:32:57.000Z</time>
      </trkpt>
      <trkpt lat="43.69242" lon="5.90573">
        <ele>616</ele>
        <time>2016-04-30T08:32:59.000Z</time>
      </trkpt>
      <trkpt lat="43.69237" lon="5.90576">
        <ele>617</ele>
        <time>2016-04-30T08:33:03.000Z</time>
      </trkpt>
      <trkpt lat="43.69233" lon="5.90578">
        <ele>617</ele>
        <time>2016-04-30T08:33:05.000Z</time>
      </trkpt>
      <trkpt lat="43.69228" lon="5.90583">
        <ele>616</ele>
        <time>2016-04-30T08:33:09.000Z</time>
      </trkpt>
      <trkpt lat="43.69223" lon="5.90586">
        <ele>614</ele>
        <time>2016-04-30T08:33:11.000Z</time>
      </trkpt>
      <trkpt lat="43.69219" lon="5.90589">
        <ele>615</ele>
        <time>2016-04-30T08:33:13.000Z</time>
      </trkpt>
      <trkpt lat="43.69214" lon="5.90592">
        <ele>616</ele>
        <time>2016-04-30T08:33:15.000Z</time>
      </trkpt>
      <trkpt lat="43.69209" lon="5.90595">
        <ele>617</ele>
        <time>2016-04-30T08:33:17.000Z</time>
      </trkpt>
      <trkpt lat="43.69199" lon="5.90601">
        <ele>617</ele>
        <time>2016-04-30T08:33:19.000Z</time>
      </trkpt>
      <trkpt lat="43.6919" lon="5.90609">
        <ele>619</ele>
        <time>2016-04-30T08:33:23.000Z</time>
      </trkpt>
      <trkpt lat="43.69183" lon="5.90615">
        <ele>621</ele>
        <time>2016-04-30T08:33:27.000Z</time>
      </trkpt>
      <trkpt lat="43.69183" lon="5.90615">
        <ele>621</ele>
        <time>2016-04-30T08:33:29.000Z</time>
      </trkpt>
      <trkpt lat="43.69183" lon="5.90615">
        <ele>621</ele>
        <time>2016-04-30T08:33:31.000Z</time>
      </trkpt>
      <trkpt lat="43.69183" lon="5.90615">
        <ele>621</ele>
        <time>2016-04-30T08:33:33.000Z</time>
      </trkpt>
      <trkpt lat="43.69183" lon="5.90615">
        <ele>621</ele>
        <time>2016-04-30T08:33:35.000Z</time>
      </trkpt>
      <trkpt lat="43.69158" lon="5.9063">
        <ele>622</ele>
        <time>2016-04-30T08:33:39.000Z</time>
      </trkpt>
      <trkpt lat="43.69147" lon="5.90637">
        <ele>622</ele>
        <time>2016-04-30T08:33:43.000Z</time>
      </trkpt>
      <trkpt lat="43.69137" lon="5.90648">
        <ele>627</ele>
        <time>2016-04-30T08:33:47.000Z</time>
      </trkpt>
      <trkpt lat="43.69129" lon="5.9066">
        <ele>627</ele>
        <time>2016-04-30T08:33:51.000Z</time>
      </trkpt>
      <trkpt lat="43.69122" lon="5.90672">
        <ele>625</ele>
        <time>2016-04-30T08:33:55.000Z</time>
      </trkpt>
      <trkpt lat="43.69113" lon="5.90684">
        <ele>626</ele>
        <time>2016-04-30T08:33:59.000Z</time>
      </trkpt>
      <trkpt lat="43.69106" lon="5.90698">
        <ele>629</ele>
        <time>2016-04-30T08:34:03.000Z</time>
      </trkpt>
      <trkpt lat="43.69106" lon="5.90698">
        <ele>629</ele>
        <time>2016-04-30T08:34:05.000Z</time>
      </trkpt>
      <trkpt lat="43.69106" lon="5.90698">
        <ele>629</ele>
        <time>2016-04-30T08:34:07.000Z</time>
      </trkpt>
      <trkpt lat="43.69106" lon="5.90698">
        <ele>629</ele>
        <time>2016-04-30T08:34:09.000Z</time>
      </trkpt>
      <trkpt lat="43.69106" lon="5.90698">
        <ele>629</ele>
        <time>2016-04-30T08:34:11.000Z</time>
      </trkpt>
      <trkpt lat="43.69106" lon="5.90698">
        <ele>629</ele>
        <time>2016-04-30T08:34:13.000Z</time>
      </trkpt>
      <trkpt lat="43.69106" lon="5.90698">
        <ele>629</ele>
        <time>2016-04-30T08:34:15.000Z</time>
      </trkpt>
      <trkpt lat="43.69106" lon="5.90698">
        <ele>629</ele>
        <time>2016-04-30T08:34:17.000Z</time>
      </trkpt>
      <trkpt lat="43.69106" lon="5.90698">
        <ele>629</ele>
        <time>2016-04-30T08:34:19.000Z</time>
      </trkpt>
      <trkpt lat="43.69093" lon="5.90714">
        <ele>639</ele>
        <time>2016-04-30T08:35:40.000Z</time>
      </trkpt>
      <trkpt lat="43.69102" lon="5.90707">
        <ele>642</ele>
        <time>2016-04-30T08:35:48.000Z</time>
      </trkpt>
      <trkpt lat="43.6911" lon="5.90695">
        <ele>646</ele>
        <time>2016-04-30T08:35:56.000Z</time>
      </trkpt>
      <trkpt lat="43.6912" lon="5.90678">
        <ele>643</ele>
        <time>2016-04-30T08:36:00.000Z</time>
      </trkpt>
      <trkpt lat="43.69131" lon="5.9066">
        <ele>641</ele>
        <time>2016-04-30T08:36:04.000Z</time>
      </trkpt>
      <trkpt lat="43.69143" lon="5.90644">
        <ele>642</ele>
        <time>2016-04-30T08:36:08.000Z</time>
      </trkpt>
      <trkpt lat="43.69151" lon="5.90635">
        <ele>643</ele>
        <time>2016-04-30T08:36:10.000Z</time>
      </trkpt>
      <trkpt lat="43.69166" lon="5.90628">
        <ele>644</ele>
        <time>2016-04-30T08:36:14.000Z</time>
      </trkpt>
      <trkpt lat="43.69166" lon="5.90628">
        <ele>644</ele>
        <time>2016-04-30T08:36:16.000Z</time>
      </trkpt>
      <trkpt lat="43.6918" lon="5.9062">
        <ele>641</ele>
        <time>2016-04-30T08:36:18.000Z</time>
      </trkpt>
      <trkpt lat="43.69188" lon="5.90612">
        <ele>641</ele>
        <time>2016-04-30T08:36:20.000Z</time>
      </trkpt>
      <trkpt lat="43.69197" lon="5.90606">
        <ele>641</ele>
        <time>2016-04-30T08:36:22.000Z</time>
      </trkpt>
      <trkpt lat="43.69197" lon="5.90606">
        <ele>641</ele>
        <time>2016-04-30T08:36:24.000Z</time>
      </trkpt>
      <trkpt lat="43.69197" lon="5.90606">
        <ele>641</ele>
        <time>2016-04-30T08:36:26.000Z</time>
      </trkpt>
      <trkpt lat="43.69197" lon="5.90606">
        <ele>641</ele>
        <time>2016-04-30T08:36:28.000Z</time>
      </trkpt>
      <trkpt lat="43.69197" lon="5.90606">
        <ele>641</ele>
        <time>2016-04-30T08:36:30.000Z</time>
      </trkpt>
      <trkpt lat="43.69197" lon="5.90606">
        <ele>641</ele>
        <time>2016-04-30T08:36:32.000Z</time>
      </trkpt>
      <trkpt lat="43.69197" lon="5.90606">
        <ele>641</ele>
        <time>2016-04-30T08:36:34.000Z</time>
      </trkpt>
      <trkpt lat="43.69197" lon="5.90606">
        <ele>641</ele>
        <time>2016-04-30T08:36:36.000Z</time>
      </trkpt>
      <trkpt lat="43.69197" lon="5.90606">
        <ele>641</ele>
        <time>2016-04-30T08:36:38.000Z</time>
      </trkpt>
      <trkpt lat="43.69197" lon="5.90606">
        <ele>641</ele>
        <time>2016-04-30T08:36:40.000Z</time>
      </trkpt>
      <trkpt lat="43.69197" lon="5.90606">
        <ele>641</ele>
        <time>2016-04-30T08:36:42.000Z</time>
      </trkpt>
      <trkpt lat="43.69197" lon="5.90606">
        <ele>641</ele>
        <time>2016-04-30T08:36:44.000Z</time>
      </trkpt>
      <trkpt lat="43.6924" lon="5.90566">
        <ele>619</ele>
        <time>2016-04-30T08:38:24.000Z</time>
      </trkpt>
      <trkpt lat="43.6924" lon="5.90566">
        <ele>619</ele>
        <time>2016-04-30T08:38:26.000Z</time>
      </trkpt>
      <trkpt lat="43.6924" lon="5.90566">
        <ele>619</ele>
        <time>2016-04-30T08:38:28.000Z</time>
      </trkpt>
      <trkpt lat="43.6924" lon="5.90566">
        <ele>619</ele>
        <time>2016-04-30T08:38:30.000Z</time>
      </trkpt>
      <trkpt lat="43.6924" lon="5.90566">
        <ele>619</ele>
        <time>2016-04-30T08:38:32.000Z</time>
      </trkpt>
      <trkpt lat="43.6924" lon="5.90566">
        <ele>619</ele>
        <time>2016-04-30T08:38:34.000Z</time>
      </trkpt>
      <trkpt lat="43.6924" lon="5.90566">
        <ele>619</ele>
        <time>2016-04-30T08:38:36.000Z</time>
      </trkpt>
      <trkpt lat="43.6924" lon="5.90566">
        <ele>619</ele>
        <time>2016-04-30T08:38:38.000Z</time>
      </trkpt>
      <trkpt lat="43.6924" lon="5.90566">
        <ele>619</ele>
        <time>2016-04-30T08:38:40.000Z</time>
      </trkpt>
      <trkpt lat="43.6924" lon="5.90566">
        <ele>619</ele>
        <time>2016-04-30T08:38:42.000Z</time>
      </trkpt>
      <trkpt lat="43.6924" lon="5.90566">
        <ele>619</ele>
        <time>2016-04-30T08:38:44.000Z</time>
      </trkpt>
      <trkpt lat="43.6924" lon="5.90566">
        <ele>619</ele>
        <time>2016-04-30T08:38:46.000Z</time>
      </trkpt>
      <trkpt lat="43.69225" lon="5.90543">
        <ele>611</ele>
        <time>2016-04-30T08:39:03.000Z</time>
      </trkpt>
      <trkpt lat="43.6922" lon="5.9053">
        <ele>609</ele>
        <time>2016-04-30T08:39:07.000Z</time>
      </trkpt>
      <trkpt lat="43.69212" lon="5.90521">
        <ele>608</ele>
        <time>2016-04-30T08:39:11.000Z</time>
      </trkpt>
      <trkpt lat="43.69202" lon="5.90525">
        <ele>607</ele>
        <time>2016-04-30T08:39:15.000Z</time>
      </trkpt>
      <trkpt lat="43.69202" lon="5.90525">
        <ele>607</ele>
        <time>2016-04-30T08:39:17.000Z</time>
      </trkpt>
      <trkpt lat="43.69202" lon="5.90525">
        <ele>607</ele>
        <time>2016-04-30T08:39:19.000Z</time>
      </trkpt>
      <trkpt lat="43.69202" lon="5.90525">
        <ele>607</ele>
        <time>2016-04-30T08:39:21.000Z</time>
      </trkpt>
      <trkpt lat="43.69202" lon="5.90525">
        <ele>607</ele>
        <time>2016-04-30T08:39:23.000Z</time>
      </trkpt>
      <trkpt lat="43.69202" lon="5.90525">
        <ele>607</ele>
        <time>2016-04-30T08:39:25.000Z</time>
      </trkpt>
      <trkpt lat="43.69202" lon="5.90525">
        <ele>607</ele>
        <time>2016-04-30T08:39:27.000Z</time>
      </trkpt>
      <trkpt lat="43.69202" lon="5.90525">
        <ele>607</ele>
        <time>2016-04-30T08:39:29.000Z</time>
      </trkpt>
      <trkpt lat="43.69202" lon="5.90525">
        <ele>607</ele>
        <time>2016-04-30T08:39:31.000Z</time>
      </trkpt>
      <trkpt lat="43.69202" lon="5.90525">
        <ele>607</ele>
        <time>2016-04-30T08:39:33.000Z</time>
      </trkpt>
      <trkpt lat="43.69202" lon="5.90525">
        <ele>607</ele>
        <time>2016-04-30T08:39:35.000Z</time>
      </trkpt>
      <trkpt lat="43.6917" lon="5.90554">
        <ele>607</ele>
        <time>2016-04-30T08:39:52.000Z</time>
      </trkpt>
      <trkpt lat="43.6917" lon="5.90554">
        <ele>607</ele>
        <time>2016-04-30T08:39:54.000Z</time>
      </trkpt>
      <trkpt lat="43.6917" lon="5.90554">
        <ele>607</ele>
        <time>2016-04-30T08:39:56.000Z</time>
      </trkpt>
      <trkpt lat="43.6917" lon="5.90554">
        <ele>607</ele>
        <time>2016-04-30T08:39:58.000Z</time>
      </trkpt>
      <trkpt lat="43.6917" lon="5.90554">
        <ele>607</ele>
        <time>2016-04-30T08:40:00.000Z</time>
      </trkpt>
      <trkpt lat="43.6917" lon="5.90554">
        <ele>607</ele>
        <time>2016-04-30T08:40:02.000Z</time>
      </trkpt>
      <trkpt lat="43.6917" lon="5.90554">
        <ele>607</ele>
        <time>2016-04-30T08:40:04.000Z</time>
      </trkpt>
      <trkpt lat="43.69138" lon="5.90577">
        <ele>609</ele>
        <time>2016-04-30T08:40:10.000Z</time>
      </trkpt>
      <trkpt lat="43.69127" lon="5.90582">
        <ele>609</ele>
        <time>2016-04-30T08:40:14.000Z</time>
      </trkpt>
      <trkpt lat="43.6912" lon="5.90589">
        <ele>610</ele>
        <time>2016-04-30T08:40:18.000Z</time>
      </trkpt>
      <trkpt lat="43.6912" lon="5.90589">
        <ele>610</ele>
        <time>2016-04-30T08:40:20.000Z</time>
      </trkpt>
      <trkpt lat="43.6912" lon="5.90589">
        <ele>610</ele>
        <time>2016-04-30T08:40:22.000Z</time>
      </trkpt>
      <trkpt lat="43.6912" lon="5.90589">
        <ele>610</ele>
        <time>2016-04-30T08:40:24.000Z</time>
      </trkpt>
      <trkpt lat="43.691" lon="5.90607">
        <ele>610</ele>
        <time>2016-04-30T08:40:28.000Z</time>
      </trkpt>
      <trkpt lat="43.69092" lon="5.90617">
        <ele>611</ele>
        <time>2016-04-30T08:40:32.000Z</time>
      </trkpt>
      <trkpt lat="43.69092" lon="5.90617">
        <ele>611</ele>
        <time>2016-04-30T08:40:34.000Z</time>
      </trkpt>
      <trkpt lat="43.69092" lon="5.90617">
        <ele>611</ele>
        <time>2016-04-30T08:40:36.000Z</time>
      </trkpt>
      <trkpt lat="43.69092" lon="5.90617">
        <ele>611</ele>
        <time>2016-04-30T08:40:38.000Z</time>
      </trkpt>
      <trkpt lat="43.69092" lon="5.90617">
        <ele>611</ele>
        <time>2016-04-30T08:40:40.000Z</time>
      </trkpt>
      <trkpt lat="43.69092" lon="5.90617">
        <ele>611</ele>
        <time>2016-04-30T08:40:42.000Z</time>
      </trkpt>
      <trkpt lat="43.69092" lon="5.90617">
        <ele>611</ele>
        <time>2016-04-30T08:40:44.000Z</time>
      </trkpt>
      <trkpt lat="43.69092" lon="5.90617">
        <ele>611</ele>
        <time>2016-04-30T08:40:46.000Z</time>
      </trkpt>
      <trkpt lat="43.69079" lon="5.90642">
        <ele>612</ele>
        <time>2016-04-30T08:40:50.000Z</time>
      </trkpt>
      <trkpt lat="43.69071" lon="5.90657">
        <ele>613</ele>
        <time>2016-04-30T08:40:54.000Z</time>
      </trkpt>
      <trkpt lat="43.69065" lon="5.9067">
        <ele>613</ele>
        <time>2016-04-30T08:40:58.000Z</time>
      </trkpt>
      <trkpt lat="43.6906" lon="5.90682">
        <ele>614</ele>
        <time>2016-04-30T08:41:02.000Z</time>
      </trkpt>
      <trkpt lat="43.6906" lon="5.90682">
        <ele>614</ele>
        <time>2016-04-30T08:41:04.000Z</time>
      </trkpt>
      <trkpt lat="43.6906" lon="5.90682">
        <ele>614</ele>
        <time>2016-04-30T08:41:06.000Z</time>
      </trkpt>
      <trkpt lat="43.6906" lon="5.90682">
        <ele>614</ele>
        <time>2016-04-30T08:41:08.000Z</time>
      </trkpt>
      <trkpt lat="43.6906" lon="5.90682">
        <ele>614</ele>
        <time>2016-04-30T08:41:10.000Z</time>
      </trkpt>
      <trkpt lat="43.6906" lon="5.90682">
        <ele>614</ele>
        <time>2016-04-30T08:41:12.000Z</time>
      </trkpt>
      <trkpt lat="43.6906" lon="5.90682">
        <ele>614</ele>
        <time>2016-04-30T08:41:14.000Z</time>
      </trkpt>
      <trkpt lat="43.6906" lon="5.90682">
        <ele>614</ele>
        <time>2016-04-30T08:41:16.000Z</time>
      </trkpt>
      <trkpt lat="43.6906" lon="5.90682">
        <ele>614</ele>
        <time>2016-04-30T08:41:18.000Z</time>
      </trkpt>
      <trkpt lat="43.6906" lon="5.90682">
        <ele>614</ele>
        <time>2016-04-30T08:41:20.000Z</time>
      </trkpt>
      <trkpt lat="43.6906" lon="5.90682">
        <ele>614</ele>
        <time>2016-04-30T08:41:22.000Z</time>
      </trkpt>
      <trkpt lat="43.6906" lon="5.90682">
        <ele>614</ele>
        <time>2016-04-30T08:41:24.000Z</time>
      </trkpt>
      <trkpt lat="43.6906" lon="5.90682">
        <ele>614</ele>
        <time>2016-04-30T08:41:26.000Z</time>
      </trkpt>
      <trkpt lat="43.6906" lon="5.90682">
        <ele>614</ele>
        <time>2016-04-30T08:41:28.000Z</time>
      </trkpt>
      <trkpt lat="43.6906" lon="5.90682">
        <ele>614</ele>
        <time>2016-04-30T08:41:30.000Z</time>
      </trkpt>
      <trkpt lat="43.6906" lon="5.90682">
        <ele>614</ele>
        <time>2016-04-30T08:41:32.000Z</time>
      </trkpt>
      <trkpt lat="43.6906" lon="5.90682">
        <ele>614</ele>
        <time>2016-04-30T08:41:34.000Z</time>
      </trkpt>
      <trkpt lat="43.69036" lon="5.9072">
        <ele>611</ele>
        <time>2016-04-30T08:41:38.000Z</time>
      </trkpt>
      <trkpt lat="43.69022" lon="5.90741">
        <ele>612</ele>
        <time>2016-04-30T08:41:40.000Z</time>
      </trkpt>
      <trkpt lat="43.69012" lon="5.90755">
        <ele>612</ele>
        <time>2016-04-30T08:41:42.000Z</time>
      </trkpt>
      <trkpt lat="43.69006" lon="5.90764">
        <ele>612</ele>
        <time>2016-04-30T08:41:44.000Z</time>
      </trkpt>
      <trkpt lat="43.69001" lon="5.90771">
        <ele>611</ele>
        <time>2016-04-30T08:41:46.000Z</time>
      </trkpt>
      <trkpt lat="43.6899" lon="5.90784">
        <ele>612</ele>
        <time>2016-04-30T08:41:48.000Z</time>
      </trkpt>
      <trkpt lat="43.68975" lon="5.90803">
        <ele>610</ele>
        <time>2016-04-30T08:41:51.000Z</time>
      </trkpt>
      <trkpt lat="43.68969" lon="5.90812">
        <ele>609</ele>
        <time>2016-04-30T08:41:53.000Z</time>
      </trkpt>
      <trkpt lat="43.68969" lon="5.90812">
        <ele>609</ele>
        <time>2016-04-30T08:41:55.000Z</time>
      </trkpt>
      <trkpt lat="43.68969" lon="5.90812">
        <ele>609</ele>
        <time>2016-04-30T08:41:57.000Z</time>
      </trkpt>
      <trkpt lat="43.68969" lon="5.90812">
        <ele>609</ele>
        <time>2016-04-30T08:41:59.000Z</time>
      </trkpt>
      <trkpt lat="43.68975" lon="5.90779">
        <ele>610</ele>
        <time>2016-04-30T08:42:03.000Z</time>
      </trkpt>
      <trkpt lat="43.68979" lon="5.90765">
        <ele>610</ele>
        <time>2016-04-30T08:42:05.000Z</time>
      </trkpt>
      <trkpt lat="43.68984" lon="5.90749">
        <ele>607</ele>
        <time>2016-04-30T08:42:07.000Z</time>
      </trkpt>
      <trkpt lat="43.6899" lon="5.90729">
        <ele>605</ele>
        <time>2016-04-30T08:42:09.000Z</time>
      </trkpt>
      <trkpt lat="43.68993" lon="5.90707">
        <ele>601</ele>
        <time>2016-04-30T08:42:11.000Z</time>
      </trkpt>
      <trkpt lat="43.68997" lon="5.90683">
        <ele>599</ele>
        <time>2016-04-30T08:42:13.000Z</time>
      </trkpt>
      <trkpt lat="43.69" lon="5.90662">
        <ele>597</ele>
        <time>2016-04-30T08:42:15.000Z</time>
      </trkpt>
      <trkpt lat="43.69006" lon="5.9064">
        <ele>595</ele>
        <time>2016-04-30T08:42:17.000Z</time>
      </trkpt>
      <trkpt lat="43.69012" lon="5.90617">
        <ele>593</ele>
        <time>2016-04-30T08:42:19.000Z</time>
      </trkpt>
      <trkpt lat="43.69015" lon="5.90597">
        <ele>590</ele>
        <time>2016-04-30T08:42:21.000Z</time>
      </trkpt>
      <trkpt lat="43.69019" lon="5.90581">
        <ele>588</ele>
        <time>2016-04-30T08:42:23.000Z</time>
      </trkpt>
      <trkpt lat="43.69021" lon="5.90566">
        <ele>586</ele>
        <time>2016-04-30T08:42:25.000Z</time>
      </trkpt>
      <trkpt lat="43.69021" lon="5.9055">
        <ele>583</ele>
        <time>2016-04-30T08:42:27.000Z</time>
      </trkpt>
      <trkpt lat="43.69024" lon="5.90534">
        <ele>581</ele>
        <time>2016-04-30T08:42:29.000Z</time>
      </trkpt>
      <trkpt lat="43.6903" lon="5.90518">
        <ele>579</ele>
        <time>2016-04-30T08:42:31.000Z</time>
      </trkpt>
      <trkpt lat="43.6904" lon="5.90502">
        <ele>580</ele>
        <time>2016-04-30T08:42:33.000Z</time>
      </trkpt>
      <trkpt lat="43.69047" lon="5.90485">
        <ele>580</ele>
        <time>2016-04-30T08:42:35.000Z</time>
      </trkpt>
      <trkpt lat="43.69053" lon="5.90471">
        <ele>579</ele>
        <time>2016-04-30T08:42:37.000Z</time>
      </trkpt>
      <trkpt lat="43.6906" lon="5.90459">
        <ele>578</ele>
        <time>2016-04-30T08:42:39.000Z</time>
      </trkpt>
      <trkpt lat="43.69069" lon="5.90446">
        <ele>578</ele>
        <time>2016-04-30T08:42:41.000Z</time>
      </trkpt>
      <trkpt lat="43.69078" lon="5.90438">
        <ele>578</ele>
        <time>2016-04-30T08:42:43.000Z</time>
      </trkpt>
      <trkpt lat="43.69086" lon="5.90428">
        <ele>577</ele>
        <time>2016-04-30T08:42:45.000Z</time>
      </trkpt>
      <trkpt lat="43.69094" lon="5.9042">
        <ele>577</ele>
        <time>2016-04-30T08:42:47.000Z</time>
      </trkpt>
      <trkpt lat="43.69094" lon="5.9042">
        <ele>577</ele>
        <time>2016-04-30T08:42:49.000Z</time>
      </trkpt>
      <trkpt lat="43.69094" lon="5.9042">
        <ele>577</ele>
        <time>2016-04-30T08:42:51.000Z</time>
      </trkpt>
      <trkpt lat="43.69094" lon="5.9042">
        <ele>577</ele>
        <time>2016-04-30T08:42:53.000Z</time>
      </trkpt>
      <trkpt lat="43.69094" lon="5.9042">
        <ele>577</ele>
        <time>2016-04-30T08:42:55.000Z</time>
      </trkpt>
      <trkpt lat="43.69094" lon="5.9042">
        <ele>577</ele>
        <time>2016-04-30T08:42:57.000Z</time>
      </trkpt>
      <trkpt lat="43.69094" lon="5.9042">
        <ele>577</ele>
        <time>2016-04-30T08:42:59.000Z</time>
      </trkpt>
      <trkpt lat="43.69094" lon="5.9042">
        <ele>577</ele>
        <time>2016-04-30T08:43:01.000Z</time>
      </trkpt>
      <trkpt lat="43.69094" lon="5.9042">
        <ele>577</ele>
        <time>2016-04-30T08:43:03.000Z</time>
      </trkpt>
      <trkpt lat="43.69094" lon="5.9042">
        <ele>577</ele>
        <time>2016-04-30T08:43:05.000Z</time>
      </trkpt>
      <trkpt lat="43.69094" lon="5.9042">
        <ele>577</ele>
        <time>2016-04-30T08:43:07.000Z</time>
      </trkpt>
      <trkpt lat="43.69133" lon="5.90334">
        <ele>578</ele>
        <time>2016-04-30T08:43:11.000Z</time>
      </trkpt>
      <trkpt lat="43.69134" lon="5.90308">
        <ele>573</ele>
        <time>2016-04-30T08:43:14.000Z</time>
      </trkpt>
      <trkpt lat="43.69135" lon="5.90292">
        <ele>572</ele>
        <time>2016-04-30T08:43:16.000Z</time>
      </trkpt>
      <trkpt lat="43.69135" lon="5.90279">
        <ele>570</ele>
        <time>2016-04-30T08:43:19.000Z</time>
      </trkpt>
      <trkpt lat="43.69135" lon="5.90279">
        <ele>570</ele>
        <time>2016-04-30T08:43:21.000Z</time>
      </trkpt>
      <trkpt lat="43.69135" lon="5.90279">
        <ele>570</ele>
        <time>2016-04-30T08:43:23.000Z</time>
      </trkpt>
      <trkpt lat="43.69124" lon="5.9024">
        <ele>567</ele>
        <time>2016-04-30T08:43:27.000Z</time>
      </trkpt>
      <trkpt lat="43.69118" lon="5.90219">
        <ele>567</ele>
        <time>2016-04-30T08:43:31.000Z</time>
      </trkpt>
      <trkpt lat="43.69118" lon="5.90196">
        <ele>567</ele>
        <time>2016-04-30T08:43:35.000Z</time>
      </trkpt>
      <trkpt lat="43.69118" lon="5.90196">
        <ele>567</ele>
        <time>2016-04-30T08:43:37.000Z</time>
      </trkpt>
      <trkpt lat="43.69118" lon="5.90196">
        <ele>567</ele>
        <time>2016-04-30T08:43:39.000Z</time>
      </trkpt>
      <trkpt lat="43.69118" lon="5.90196">
        <ele>567</ele>
        <time>2016-04-30T08:43:41.000Z</time>
      </trkpt>
      <trkpt lat="43.69118" lon="5.90196">
        <ele>567</ele>
        <time>2016-04-30T08:43:43.000Z</time>
      </trkpt>
      <trkpt lat="43.69118" lon="5.90196">
        <ele>567</ele>
        <time>2016-04-30T08:43:45.000Z</time>
      </trkpt>
      <trkpt lat="43.69118" lon="5.90196">
        <ele>567</ele>
        <time>2016-04-30T08:43:47.000Z</time>
      </trkpt>
      <trkpt lat="43.69118" lon="5.90196">
        <ele>567</ele>
        <time>2016-04-30T08:43:49.000Z</time>
      </trkpt>
      <trkpt lat="43.69118" lon="5.90196">
        <ele>567</ele>
        <time>2016-04-30T08:43:51.000Z</time>
      </trkpt>
      <trkpt lat="43.69118" lon="5.90196">
        <ele>567</ele>
        <time>2016-04-30T08:43:53.000Z</time>
      </trkpt>
      <trkpt lat="43.69118" lon="5.90196">
        <ele>567</ele>
        <time>2016-04-30T08:43:55.000Z</time>
      </trkpt>
      <trkpt lat="43.69118" lon="5.90196">
        <ele>567</ele>
        <time>2016-04-30T08:43:57.000Z</time>
      </trkpt>
      <trkpt lat="43.69118" lon="5.90196">
        <ele>567</ele>
        <time>2016-04-30T08:43:59.000Z</time>
      </trkpt>
      <trkpt lat="43.69118" lon="5.90196">
        <ele>567</ele>
        <time>2016-04-30T08:44:01.000Z</time>
      </trkpt>
      <trkpt lat="43.69118" lon="5.90196">
        <ele>567</ele>
        <time>2016-04-30T08:44:03.000Z</time>
      </trkpt>
      <trkpt lat="43.69118" lon="5.90196">
        <ele>567</ele>
        <time>2016-04-30T08:44:05.000Z</time>
      </trkpt>
      <trkpt lat="43.69128" lon="5.90137">
        <ele>568</ele>
        <time>2016-04-30T08:44:07.000Z</time>
      </trkpt>
      <trkpt lat="43.69131" lon="5.90103">
        <ele>567</ele>
        <time>2016-04-30T08:44:09.000Z</time>
      </trkpt>
      <trkpt lat="43.69128" lon="5.90073">
        <ele>564</ele>
        <time>2016-04-30T08:44:12.000Z</time>
      </trkpt>
      <trkpt lat="43.69125" lon="5.90049">
        <ele>563</ele>
        <time>2016-04-30T08:44:14.000Z</time>
      </trkpt>
      <trkpt lat="43.69122" lon="5.90026">
        <ele>562</ele>
        <time>2016-04-30T08:44:16.000Z</time>
      </trkpt>
      <trkpt lat="43.69121" lon="5.89987">
        <ele>562</ele>
        <time>2016-04-30T08:44:18.000Z</time>
      </trkpt>
      <trkpt lat="43.69124" lon="5.89971">
        <ele>562</ele>
        <time>2016-04-30T08:44:20.000Z</time>
      </trkpt>
      <trkpt lat="43.69127" lon="5.89955">
        <ele>561</ele>
        <time>2016-04-30T08:44:22.000Z</time>
      </trkpt>
      <trkpt lat="43.6913" lon="5.8994">
        <ele>560</ele>
        <time>2016-04-30T08:44:24.000Z</time>
      </trkpt>
      <trkpt lat="43.69131" lon="5.89924">
        <ele>559</ele>
        <time>2016-04-30T08:44:26.000Z</time>
      </trkpt>
      <trkpt lat="43.69128" lon="5.8991">
        <ele>559</ele>
        <time>2016-04-30T08:44:28.000Z</time>
      </trkpt>
      <trkpt lat="43.69128" lon="5.8991">
        <ele>559</ele>
        <time>2016-04-30T08:44:30.000Z</time>
      </trkpt>
      <trkpt lat="43.69128" lon="5.8991">
        <ele>559</ele>
        <time>2016-04-30T08:44:32.000Z</time>
      </trkpt>
      <trkpt lat="43.69128" lon="5.8991">
        <ele>559</ele>
        <time>2016-04-30T08:44:34.000Z</time>
      </trkpt>
      <trkpt lat="43.69128" lon="5.8991">
        <ele>559</ele>
        <time>2016-04-30T08:44:36.000Z</time>
      </trkpt>
      <trkpt lat="43.69128" lon="5.8991">
        <ele>559</ele>
        <time>2016-04-30T08:44:38.000Z</time>
      </trkpt>
      <trkpt lat="43.69128" lon="5.8991">
        <ele>559</ele>
        <time>2016-04-30T08:44:40.000Z</time>
      </trkpt>
      <trkpt lat="43.6913" lon="5.89802">
        <ele>555</ele>
        <time>2016-04-30T08:44:46.000Z</time>
      </trkpt>
      <trkpt lat="43.69132" lon="5.89789">
        <ele>553</ele>
        <time>2016-04-30T08:44:48.000Z</time>
      </trkpt>
      <trkpt lat="43.69136" lon="5.89765">
        <ele>552</ele>
        <time>2016-04-30T08:44:52.000Z</time>
      </trkpt>
      <trkpt lat="43.69136" lon="5.89765">
        <ele>552</ele>
        <time>2016-04-30T08:44:54.000Z</time>
      </trkpt>
      <trkpt lat="43.69136" lon="5.89765">
        <ele>552</ele>
        <time>2016-04-30T08:44:56.000Z</time>
      </trkpt>
      <trkpt lat="43.69136" lon="5.89765">
        <ele>552</ele>
        <time>2016-04-30T08:44:58.000Z</time>
      </trkpt>
      <trkpt lat="43.69136" lon="5.89765">
        <ele>552</ele>
        <time>2016-04-30T08:45:00.000Z</time>
      </trkpt>
      <trkpt lat="43.69136" lon="5.89765">
        <ele>552</ele>
        <time>2016-04-30T08:45:02.000Z</time>
      </trkpt>
      <trkpt lat="43.69136" lon="5.89765">
        <ele>552</ele>
        <time>2016-04-30T08:45:04.000Z</time>
      </trkpt>
      <trkpt lat="43.69136" lon="5.89765">
        <ele>552</ele>
        <time>2016-04-30T08:45:06.000Z</time>
      </trkpt>
      <trkpt lat="43.69136" lon="5.89765">
        <ele>552</ele>
        <time>2016-04-30T08:45:08.000Z</time>
      </trkpt>
      <trkpt lat="43.69136" lon="5.89765">
        <ele>552</ele>
        <time>2016-04-30T08:45:10.000Z</time>
      </trkpt>
      <trkpt lat="43.69136" lon="5.89765">
        <ele>552</ele>
        <time>2016-04-30T08:45:12.000Z</time>
      </trkpt>
      <trkpt lat="43.69136" lon="5.89765">
        <ele>552</ele>
        <time>2016-04-30T08:45:14.000Z</time>
      </trkpt>
      <trkpt lat="43.69156" lon="5.89627">
        <ele>555</ele>
        <time>2016-04-30T08:45:16.000Z</time>
      </trkpt>
      <trkpt lat="43.69158" lon="5.89614">
        <ele>554</ele>
        <time>2016-04-30T08:45:18.000Z</time>
      </trkpt>
      <trkpt lat="43.69159" lon="5.896">
        <ele>552</ele>
        <time>2016-04-30T08:45:20.000Z</time>
      </trkpt>
      <trkpt lat="43.6916" lon="5.89588">
        <ele>551</ele>
        <time>2016-04-30T08:45:22.000Z</time>
      </trkpt>
      <trkpt lat="43.6916" lon="5.89588">
        <ele>551</ele>
        <time>2016-04-30T08:45:24.000Z</time>
      </trkpt>
      <trkpt lat="43.69162" lon="5.89565">
        <ele>551</ele>
        <time>2016-04-30T08:45:26.000Z</time>
      </trkpt>
      <trkpt lat="43.69162" lon="5.89565">
        <ele>551</ele>
        <time>2016-04-30T08:45:28.000Z</time>
      </trkpt>
      <trkpt lat="43.69162" lon="5.89565">
        <ele>551</ele>
        <time>2016-04-30T08:45:30.000Z</time>
      </trkpt>
      <trkpt lat="43.69158" lon="5.89523">
        <ele>548</ele>
        <time>2016-04-30T08:45:32.000Z</time>
      </trkpt>
      <trkpt lat="43.69156" lon="5.89511">
        <ele>548</ele>
        <time>2016-04-30T08:45:34.000Z</time>
      </trkpt>
      <trkpt lat="43.69151" lon="5.8949">
        <ele>546</ele>
        <time>2016-04-30T08:45:38.000Z</time>
      </trkpt>
      <trkpt lat="43.69151" lon="5.8949">
        <ele>546</ele>
        <time>2016-04-30T08:45:40.000Z</time>
      </trkpt>
      <trkpt lat="43.69151" lon="5.8949">
        <ele>546</ele>
        <time>2016-04-30T08:45:42.000Z</time>
      </trkpt>
      <trkpt lat="43.69151" lon="5.8949">
        <ele>546</ele>
        <time>2016-04-30T08:45:44.000Z</time>
      </trkpt>
      <trkpt lat="43.69151" lon="5.8949">
        <ele>546</ele>
        <time>2016-04-30T08:45:46.000Z</time>
      </trkpt>
      <trkpt lat="43.69151" lon="5.8949">
        <ele>546</ele>
        <time>2016-04-30T08:45:48.000Z</time>
      </trkpt>
      <trkpt lat="43.69148" lon="5.89455">
        <ele>547</ele>
        <time>2016-04-30T08:45:52.000Z</time>
      </trkpt>
      <trkpt lat="43.69146" lon="5.89432">
        <ele>547</ele>
        <time>2016-04-30T08:45:54.000Z</time>
      </trkpt>
      <trkpt lat="43.69144" lon="5.89412">
        <ele>547</ele>
        <time>2016-04-30T08:45:56.000Z</time>
      </trkpt>
      <trkpt lat="43.69143" lon="5.89396">
        <ele>546</ele>
        <time>2016-04-30T08:45:58.000Z</time>
      </trkpt>
      <trkpt lat="43.69142" lon="5.89384">
        <ele>547</ele>
        <time>2016-04-30T08:46:00.000Z</time>
      </trkpt>
      <trkpt lat="43.69142" lon="5.89384">
        <ele>547</ele>
        <time>2016-04-30T08:46:02.000Z</time>
      </trkpt>
      <trkpt lat="43.69142" lon="5.89384">
        <ele>547</ele>
        <time>2016-04-30T08:46:04.000Z</time>
      </trkpt>
      <trkpt lat="43.69142" lon="5.89384">
        <ele>547</ele>
        <time>2016-04-30T08:46:06.000Z</time>
      </trkpt>
      <trkpt lat="43.69142" lon="5.89384">
        <ele>547</ele>
        <time>2016-04-30T08:46:08.000Z</time>
      </trkpt>
      <trkpt lat="43.69134" lon="5.8931">
        <ele>544</ele>
        <time>2016-04-30T08:46:12.000Z</time>
      </trkpt>
      <trkpt lat="43.6913" lon="5.89287">
        <ele>544</ele>
        <time>2016-04-30T08:46:16.000Z</time>
      </trkpt>
      <trkpt lat="43.69124" lon="5.89266">
        <ele>547</ele>
        <time>2016-04-30T08:46:20.000Z</time>
      </trkpt>
      <trkpt lat="43.69118" lon="5.89244">
        <ele>548</ele>
        <time>2016-04-30T08:46:24.000Z</time>
      </trkpt>
      <trkpt lat="43.69117" lon="5.8923">
        <ele>550</ele>
        <time>2016-04-30T08:46:26.000Z</time>
      </trkpt>
      <trkpt lat="43.69117" lon="5.8923">
        <ele>550</ele>
        <time>2016-04-30T08:46:30.000Z</time>
      </trkpt>
      <trkpt lat="43.69117" lon="5.8923">
        <ele>550</ele>
        <time>2016-04-30T08:46:32.000Z</time>
      </trkpt>
      <trkpt lat="43.69117" lon="5.8923">
        <ele>550</ele>
        <time>2016-04-30T08:46:34.000Z</time>
      </trkpt>
      <trkpt lat="43.69117" lon="5.8923">
        <ele>550</ele>
        <time>2016-04-30T08:46:36.000Z</time>
      </trkpt>
      <trkpt lat="43.69117" lon="5.8923">
        <ele>550</ele>
        <time>2016-04-30T08:46:38.000Z</time>
      </trkpt>
      <trkpt lat="43.69117" lon="5.8923">
        <ele>550</ele>
        <time>2016-04-30T08:46:40.000Z</time>
      </trkpt>
      <trkpt lat="43.6909" lon="5.89151">
        <ele>537</ele>
        <time>2016-04-30T08:46:46.000Z</time>
      </trkpt>
      <trkpt lat="43.69085" lon="5.89132">
        <ele>536</ele>
        <time>2016-04-30T08:46:50.000Z</time>
      </trkpt>
      <trkpt lat="43.69086" lon="5.89117">
        <ele>536</ele>
        <time>2016-04-30T08:46:54.000Z</time>
      </trkpt>
      <trkpt lat="43.69086" lon="5.89117">
        <ele>536</ele>
        <time>2016-04-30T08:46:56.000Z</time>
      </trkpt>
      <trkpt lat="43.69103" lon="5.89102">
        <ele>534</ele>
        <time>2016-04-30T08:47:00.000Z</time>
      </trkpt>
      <trkpt lat="43.69115" lon="5.89092">
        <ele>535</ele>
        <time>2016-04-30T08:47:04.000Z</time>
      </trkpt>
      <trkpt lat="43.69127" lon="5.89082">
        <ele>537</ele>
        <time>2016-04-30T08:47:08.000Z</time>
      </trkpt>
      <trkpt lat="43.6914" lon="5.89075">
        <ele>537</ele>
        <time>2016-04-30T08:47:12.000Z</time>
      </trkpt>
      <trkpt lat="43.69155" lon="5.89066">
        <ele>539</ele>
        <time>2016-04-30T08:47:16.000Z</time>
      </trkpt>
      <trkpt lat="43.69166" lon="5.8906">
        <ele>539</ele>
        <time>2016-04-30T08:47:20.000Z</time>
      </trkpt>
      <trkpt lat="43.69182" lon="5.8905">
        <ele>538</ele>
        <time>2016-04-30T08:47:23.000Z</time>
      </trkpt>
      <trkpt lat="43.69182" lon="5.8905">
        <ele>538</ele>
        <time>2016-04-30T08:47:25.000Z</time>
      </trkpt>
      <trkpt lat="43.69195" lon="5.89038">
        <ele>537</ele>
        <time>2016-04-30T08:47:27.000Z</time>
      </trkpt>
      <trkpt lat="43.69195" lon="5.89038">
        <ele>537</ele>
        <time>2016-04-30T08:47:29.000Z</time>
      </trkpt>
      <trkpt lat="43.69212" lon="5.89014">
        <ele>539</ele>
        <time>2016-04-30T08:47:33.000Z</time>
      </trkpt>
      <trkpt lat="43.69212" lon="5.89014">
        <ele>539</ele>
        <time>2016-04-30T08:47:35.000Z</time>
      </trkpt>
      <trkpt lat="43.69212" lon="5.89014">
        <ele>539</ele>
        <time>2016-04-30T08:47:37.000Z</time>
      </trkpt>
      <trkpt lat="43.69212" lon="5.89014">
        <ele>539</ele>
        <time>2016-04-30T08:47:39.000Z</time>
      </trkpt>
      <trkpt lat="43.69212" lon="5.89014">
        <ele>539</ele>
        <time>2016-04-30T08:47:41.000Z</time>
      </trkpt>
      <trkpt lat="43.69212" lon="5.89014">
        <ele>539</ele>
        <time>2016-04-30T08:47:43.000Z</time>
      </trkpt>
      <trkpt lat="43.69212" lon="5.89014">
        <ele>539</ele>
        <time>2016-04-30T08:47:45.000Z</time>
      </trkpt>
      <trkpt lat="43.69212" lon="5.89014">
        <ele>539</ele>
        <time>2016-04-30T08:47:47.000Z</time>
      </trkpt>
      <trkpt lat="43.69212" lon="5.89014">
        <ele>539</ele>
        <time>2016-04-30T08:47:49.000Z</time>
      </trkpt>
      <trkpt lat="43.69212" lon="5.89014">
        <ele>539</ele>
        <time>2016-04-30T08:47:51.000Z</time>
      </trkpt>
      <trkpt lat="43.69212" lon="5.89014">
        <ele>539</ele>
        <time>2016-04-30T08:47:53.000Z</time>
      </trkpt>
      <trkpt lat="43.69212" lon="5.89014">
        <ele>539</ele>
        <time>2016-04-30T08:47:55.000Z</time>
      </trkpt>
      <trkpt lat="43.6925" lon="5.88981">
        <ele>534</ele>
        <time>2016-04-30T08:48:01.000Z</time>
      </trkpt>
      <trkpt lat="43.69273" lon="5.88963">
        <ele>533</ele>
        <time>2016-04-30T08:48:03.000Z</time>
      </trkpt>
      <trkpt lat="43.69273" lon="5.88963">
        <ele>533</ele>
        <time>2016-04-30T08:48:05.000Z</time>
      </trkpt>
      <trkpt lat="43.69273" lon="5.88963">
        <ele>533</ele>
        <time>2016-04-30T08:48:07.000Z</time>
      </trkpt>
      <trkpt lat="43.69273" lon="5.88963">
        <ele>533</ele>
        <time>2016-04-30T08:48:09.000Z</time>
      </trkpt>
      <trkpt lat="43.69273" lon="5.88963">
        <ele>533</ele>
        <time>2016-04-30T08:48:11.000Z</time>
      </trkpt>
      <trkpt lat="43.69273" lon="5.88963">
        <ele>533</ele>
        <time>2016-04-30T08:48:13.000Z</time>
      </trkpt>
      <trkpt lat="43.69273" lon="5.88963">
        <ele>533</ele>
        <time>2016-04-30T08:48:15.000Z</time>
      </trkpt>
      <trkpt lat="43.6929" lon="5.88935">
        <ele>532</ele>
        <time>2016-04-30T08:48:21.000Z</time>
      </trkpt>
      <trkpt lat="43.69301" lon="5.88919">
        <ele>532</ele>
        <time>2016-04-30T08:48:23.000Z</time>
      </trkpt>
      <trkpt lat="43.69309" lon="5.88908">
        <ele>532</ele>
        <time>2016-04-30T08:48:25.000Z</time>
      </trkpt>
      <trkpt lat="43.69315" lon="5.88901">
        <ele>532</ele>
        <time>2016-04-30T08:48:27.000Z</time>
      </trkpt>
      <trkpt lat="43.69319" lon="5.88895">
        <ele>532</ele>
        <time>2016-04-30T08:48:29.000Z</time>
      </trkpt>
      <trkpt lat="43.69327" lon="5.88885">
        <ele>532</ele>
        <time>2016-04-30T08:48:31.000Z</time>
      </trkpt>
      <trkpt lat="43.69327" lon="5.88885">
        <ele>532</ele>
        <time>2016-04-30T08:48:33.000Z</time>
      </trkpt>
      <trkpt lat="43.69327" lon="5.88885">
        <ele>532</ele>
        <time>2016-04-30T08:48:35.000Z</time>
      </trkpt>
      <trkpt lat="43.69327" lon="5.88885">
        <ele>532</ele>
        <time>2016-04-30T08:48:37.000Z</time>
      </trkpt>
      <trkpt lat="43.69343" lon="5.88862">
        <ele>532</ele>
        <time>2016-04-30T08:48:41.000Z</time>
      </trkpt>
      <trkpt lat="43.69351" lon="5.88848">
        <ele>532</ele>
        <time>2016-04-30T08:48:45.000Z</time>
      </trkpt>
      <trkpt lat="43.69359" lon="5.88837">
        <ele>532</ele>
        <time>2016-04-30T08:48:49.000Z</time>
      </trkpt>
      <trkpt lat="43.69359" lon="5.88837">
        <ele>532</ele>
        <time>2016-04-30T08:48:51.000Z</time>
      </trkpt>
      <trkpt lat="43.69359" lon="5.88837">
        <ele>532</ele>
        <time>2016-04-30T08:48:53.000Z</time>
      </trkpt>
      <trkpt lat="43.69371" lon="5.88824">
        <ele>533</ele>
        <time>2016-04-30T08:48:59.000Z</time>
      </trkpt>
      <trkpt lat="43.69379" lon="5.88814">
        <ele>534</ele>
        <time>2016-04-30T08:49:03.000Z</time>
      </trkpt>
      <trkpt lat="43.69379" lon="5.88814">
        <ele>534</ele>
        <time>2016-04-30T08:49:05.000Z</time>
      </trkpt>
      <trkpt lat="43.69387" lon="5.88806">
        <ele>535</ele>
        <time>2016-04-30T08:49:07.000Z</time>
      </trkpt>
      <trkpt lat="43.69387" lon="5.88806">
        <ele>535</ele>
        <time>2016-04-30T08:49:09.000Z</time>
      </trkpt>
      <trkpt lat="43.69402" lon="5.8879">
        <ele>536</ele>
        <time>2016-04-30T08:49:15.000Z</time>
      </trkpt>
      <trkpt lat="43.6941" lon="5.88783">
        <ele>536</ele>
        <time>2016-04-30T08:49:19.000Z</time>
      </trkpt>
      <trkpt lat="43.69423" lon="5.8878">
        <ele>535</ele>
        <time>2016-04-30T08:49:23.000Z</time>
      </trkpt>
      <trkpt lat="43.69435" lon="5.8878">
        <ele>535</ele>
        <time>2016-04-30T08:49:27.000Z</time>
      </trkpt>
      <trkpt lat="43.69435" lon="5.8878">
        <ele>535</ele>
        <time>2016-04-30T08:49:29.000Z</time>
      </trkpt>
      <trkpt lat="43.69435" lon="5.8878">
        <ele>535</ele>
        <time>2016-04-30T08:49:31.000Z</time>
      </trkpt>
      <trkpt lat="43.69435" lon="5.8878">
        <ele>535</ele>
        <time>2016-04-30T08:49:33.000Z</time>
      </trkpt>
      <trkpt lat="43.69435" lon="5.8878">
        <ele>535</ele>
        <time>2016-04-30T08:49:43.000Z</time>
      </trkpt>
      <trkpt lat="43.69435" lon="5.8878">
        <ele>535</ele>
        <time>2016-04-30T08:49:45.000Z</time>
      </trkpt>
      <trkpt lat="43.69475" lon="5.88734">
        <ele>534</ele>
        <time>2016-04-30T08:49:49.000Z</time>
      </trkpt>
      <trkpt lat="43.69475" lon="5.88715">
        <ele>533</ele>
        <time>2016-04-30T08:49:53.000Z</time>
      </trkpt>
      <trkpt lat="43.69476" lon="5.88706">
        <ele>532</ele>
        <time>2016-04-30T08:49:57.000Z</time>
      </trkpt>
      <trkpt lat="43.69476" lon="5.88697">
        <ele>532</ele>
        <time>2016-04-30T08:49:59.000Z</time>
      </trkpt>
      <trkpt lat="43.69478" lon="5.88689">
        <ele>532</ele>
        <time>2016-04-30T08:50:01.000Z</time>
      </trkpt>
      <trkpt lat="43.69478" lon="5.88689">
        <ele>532</ele>
        <time>2016-04-30T08:50:03.000Z</time>
      </trkpt>
      <trkpt lat="43.69478" lon="5.88689">
        <ele>532</ele>
        <time>2016-04-30T08:50:05.000Z</time>
      </trkpt>
      <trkpt lat="43.69478" lon="5.88689">
        <ele>532</ele>
        <time>2016-04-30T08:50:07.000Z</time>
      </trkpt>
      <trkpt lat="43.69478" lon="5.88689">
        <ele>532</ele>
        <time>2016-04-30T08:50:09.000Z</time>
      </trkpt>
      <trkpt lat="43.69478" lon="5.88689">
        <ele>532</ele>
        <time>2016-04-30T08:50:11.000Z</time>
      </trkpt>
      <trkpt lat="43.69478" lon="5.88689">
        <ele>532</ele>
        <time>2016-04-30T08:50:13.000Z</time>
      </trkpt>
      <trkpt lat="43.69478" lon="5.88689">
        <ele>532</ele>
        <time>2016-04-30T08:50:15.000Z</time>
      </trkpt>
      <trkpt lat="43.69478" lon="5.88689">
        <ele>532</ele>
        <time>2016-04-30T08:50:17.000Z</time>
      </trkpt>
      <trkpt lat="43.69484" lon="5.88646">
        <ele>533</ele>
        <time>2016-04-30T08:50:23.000Z</time>
      </trkpt>
      <trkpt lat="43.69484" lon="5.88646">
        <ele>533</ele>
        <time>2016-04-30T08:50:25.000Z</time>
      </trkpt>
      <trkpt lat="43.69484" lon="5.88646">
        <ele>533</ele>
        <time>2016-04-30T08:50:27.000Z</time>
      </trkpt>
      <trkpt lat="43.69496" lon="5.88617">
        <ele>533</ele>
        <time>2016-04-30T08:50:31.000Z</time>
      </trkpt>
      <trkpt lat="43.69504" lon="5.88602">
        <ele>533</ele>
        <time>2016-04-30T08:50:33.000Z</time>
      </trkpt>
      <trkpt lat="43.69504" lon="5.88602">
        <ele>533</ele>
        <time>2016-04-30T08:50:35.000Z</time>
      </trkpt>
      <trkpt lat="43.69504" lon="5.88602">
        <ele>533</ele>
        <time>2016-04-30T08:50:37.000Z</time>
      </trkpt>
      <trkpt lat="43.69513" lon="5.88588">
        <ele>532</ele>
        <time>2016-04-30T08:50:41.000Z</time>
      </trkpt>
      <trkpt lat="43.69521" lon="5.88578">
        <ele>531</ele>
        <time>2016-04-30T08:50:43.000Z</time>
      </trkpt>
      <trkpt lat="43.69527" lon="5.88568">
        <ele>530</ele>
        <time>2016-04-30T08:50:45.000Z</time>
      </trkpt>
      <trkpt lat="43.69534" lon="5.88559">
        <ele>529</ele>
        <time>2016-04-30T08:50:47.000Z</time>
      </trkpt>
      <trkpt lat="43.69541" lon="5.88549">
        <ele>528</ele>
        <time>2016-04-30T08:50:49.000Z</time>
      </trkpt>
      <trkpt lat="43.69554" lon="5.88525">
        <ele>527</ele>
        <time>2016-04-30T08:50:51.000Z</time>
      </trkpt>
      <trkpt lat="43.6956" lon="5.88512">
        <ele>526</ele>
        <time>2016-04-30T08:50:53.000Z</time>
      </trkpt>
      <trkpt lat="43.69566" lon="5.885">
        <ele>525</ele>
        <time>2016-04-30T08:50:55.000Z</time>
      </trkpt>
      <trkpt lat="43.69572" lon="5.88486">
        <ele>523</ele>
        <time>2016-04-30T08:50:57.000Z</time>
      </trkpt>
      <trkpt lat="43.69572" lon="5.88486">
        <ele>523</ele>
        <time>2016-04-30T08:50:59.000Z</time>
      </trkpt>
      <trkpt lat="43.69572" lon="5.88486">
        <ele>523</ele>
        <time>2016-04-30T08:51:01.000Z</time>
      </trkpt>
      <trkpt lat="43.69572" lon="5.88486">
        <ele>523</ele>
        <time>2016-04-30T08:51:03.000Z</time>
      </trkpt>
      <trkpt lat="43.69572" lon="5.88486">
        <ele>523</ele>
        <time>2016-04-30T08:51:05.000Z</time>
      </trkpt>
      <trkpt lat="43.69572" lon="5.88486">
        <ele>523</ele>
        <time>2016-04-30T08:51:07.000Z</time>
      </trkpt>
      <trkpt lat="43.69572" lon="5.88486">
        <ele>523</ele>
        <time>2016-04-30T08:51:09.000Z</time>
      </trkpt>
      <trkpt lat="43.69572" lon="5.88486">
        <ele>523</ele>
        <time>2016-04-30T08:51:11.000Z</time>
      </trkpt>
      <trkpt lat="43.69572" lon="5.88486">
        <ele>523</ele>
        <time>2016-04-30T08:51:13.000Z</time>
      </trkpt>
      <trkpt lat="43.69572" lon="5.88486">
        <ele>523</ele>
        <time>2016-04-30T08:51:15.000Z</time>
      </trkpt>
      <trkpt lat="43.69572" lon="5.88486">
        <ele>523</ele>
        <time>2016-04-30T08:51:17.000Z</time>
      </trkpt>
      <trkpt lat="43.69572" lon="5.88486">
        <ele>523</ele>
        <time>2016-04-30T08:51:19.000Z</time>
      </trkpt>
      <trkpt lat="43.69572" lon="5.88486">
        <ele>523</ele>
        <time>2016-04-30T08:51:21.000Z</time>
      </trkpt>
      <trkpt lat="43.69572" lon="5.88486">
        <ele>523</ele>
        <time>2016-04-30T08:51:23.000Z</time>
      </trkpt>
      <trkpt lat="43.69637" lon="5.88451">
        <ele>528</ele>
        <time>2016-04-30T08:51:29.000Z</time>
      </trkpt>
      <trkpt lat="43.69648" lon="5.88449">
        <ele>530</ele>
        <time>2016-04-30T08:51:35.000Z</time>
      </trkpt>
      <trkpt lat="43.69658" lon="5.88445">
        <ele>531</ele>
        <time>2016-04-30T08:51:41.000Z</time>
      </trkpt>
      <trkpt lat="43.69667" lon="5.88439">
        <ele>532</ele>
        <time>2016-04-30T08:51:47.000Z</time>
      </trkpt>
      <trkpt lat="43.69667" lon="5.88439">
        <ele>532</ele>
        <time>2016-04-30T08:51:49.000Z</time>
      </trkpt>
      <trkpt lat="43.69667" lon="5.88439">
        <ele>532</ele>
        <time>2016-04-30T08:51:51.000Z</time>
      </trkpt>
      <trkpt lat="43.69667" lon="5.88439">
        <ele>532</ele>
        <time>2016-04-30T08:51:53.000Z</time>
      </trkpt>
      <trkpt lat="43.69667" lon="5.88439">
        <ele>532</ele>
        <time>2016-04-30T08:51:55.000Z</time>
      </trkpt>
      <trkpt lat="43.69667" lon="5.88439">
        <ele>532</ele>
        <time>2016-04-30T08:51:57.000Z</time>
      </trkpt>
      <trkpt lat="43.6969" lon="5.8843">
        <ele>535</ele>
        <time>2016-04-30T08:52:01.000Z</time>
      </trkpt>
      <trkpt lat="43.69698" lon="5.88437">
        <ele>537</ele>
        <time>2016-04-30T08:52:07.000Z</time>
      </trkpt>
      <trkpt lat="43.69704" lon="5.88437">
        <ele>539</ele>
        <time>2016-04-30T08:52:13.000Z</time>
      </trkpt>
      <trkpt lat="43.69704" lon="5.88437">
        <ele>539</ele>
        <time>2016-04-30T08:52:15.000Z</time>
      </trkpt>
      <trkpt lat="43.69704" lon="5.88437">
        <ele>539</ele>
        <time>2016-04-30T08:52:17.000Z</time>
      </trkpt>
      <trkpt lat="43.69704" lon="5.88437">
        <ele>539</ele>
        <time>2016-04-30T08:52:19.000Z</time>
      </trkpt>
      <trkpt lat="43.69704" lon="5.88437">
        <ele>539</ele>
        <time>2016-04-30T08:52:21.000Z</time>
      </trkpt>
      <trkpt lat="43.69704" lon="5.88437">
        <ele>539</ele>
        <time>2016-04-30T08:52:23.000Z</time>
      </trkpt>
      <trkpt lat="43.69711" lon="5.88426">
        <ele>543</ele>
        <time>2016-04-30T08:52:27.000Z</time>
      </trkpt>
      <trkpt lat="43.69712" lon="5.88418">
        <ele>542</ele>
        <time>2016-04-30T08:52:29.000Z</time>
      </trkpt>
      <trkpt lat="43.69711" lon="5.88411">
        <ele>540</ele>
        <time>2016-04-30T08:52:31.000Z</time>
      </trkpt>
      <trkpt lat="43.69709" lon="5.88404">
        <ele>540</ele>
        <time>2016-04-30T08:52:33.000Z</time>
      </trkpt>
      <trkpt lat="43.69706" lon="5.88398">
        <ele>538</ele>
        <time>2016-04-30T08:52:35.000Z</time>
      </trkpt>
      <trkpt lat="43.69701" lon="5.88384">
        <ele>537</ele>
        <time>2016-04-30T08:52:37.000Z</time>
      </trkpt>
      <trkpt lat="43.69698" lon="5.88368">
        <ele>535</ele>
        <time>2016-04-30T08:52:41.000Z</time>
      </trkpt>
      <trkpt lat="43.69696" lon="5.8835">
        <ele>533</ele>
        <time>2016-04-30T08:52:45.000Z</time>
      </trkpt>
      <trkpt lat="43.69698" lon="5.88331">
        <ele>533</ele>
        <time>2016-04-30T08:52:49.000Z</time>
      </trkpt>
      <trkpt lat="43.697" lon="5.88309">
        <ele>534</ele>
        <time>2016-04-30T08:52:53.000Z</time>
      </trkpt>
      <trkpt lat="43.69704" lon="5.88285">
        <ele>533</ele>
        <time>2016-04-30T08:52:57.000Z</time>
      </trkpt>
      <trkpt lat="43.69706" lon="5.88269">
        <ele>532</ele>
        <time>2016-04-30T08:52:59.000Z</time>
      </trkpt>
      <trkpt lat="43.69709" lon="5.88255">
        <ele>531</ele>
        <time>2016-04-30T08:53:01.000Z</time>
      </trkpt>
      <trkpt lat="43.69711" lon="5.88241">
        <ele>530</ele>
        <time>2016-04-30T08:53:03.000Z</time>
      </trkpt>
      <trkpt lat="43.69715" lon="5.88227">
        <ele>528</ele>
        <time>2016-04-30T08:53:05.000Z</time>
      </trkpt>
      <trkpt lat="43.69718" lon="5.88213">
        <ele>528</ele>
        <time>2016-04-30T08:53:07.000Z</time>
      </trkpt>
      <trkpt lat="43.69722" lon="5.882">
        <ele>528</ele>
        <time>2016-04-30T08:53:09.000Z</time>
      </trkpt>
      <trkpt lat="43.69725" lon="5.88187">
        <ele>528</ele>
        <time>2016-04-30T08:53:11.000Z</time>
      </trkpt>
      <trkpt lat="43.69729" lon="5.88174">
        <ele>527</ele>
        <time>2016-04-30T08:53:13.000Z</time>
      </trkpt>
      <trkpt lat="43.69729" lon="5.88174">
        <ele>527</ele>
        <time>2016-04-30T08:53:15.000Z</time>
      </trkpt>
      <trkpt lat="43.69729" lon="5.88174">
        <ele>527</ele>
        <time>2016-04-30T08:53:17.000Z</time>
      </trkpt>
      <trkpt lat="43.69729" lon="5.88174">
        <ele>527</ele>
        <time>2016-04-30T08:53:19.000Z</time>
      </trkpt>
      <trkpt lat="43.69729" lon="5.88174">
        <ele>527</ele>
        <time>2016-04-30T08:53:21.000Z</time>
      </trkpt>
      <trkpt lat="43.69729" lon="5.88174">
        <ele>527</ele>
        <time>2016-04-30T08:53:23.000Z</time>
      </trkpt>
      <trkpt lat="43.69729" lon="5.88174">
        <ele>527</ele>
        <time>2016-04-30T08:53:25.000Z</time>
      </trkpt>
      <trkpt lat="43.69764" lon="5.88065">
        <ele>527</ele>
        <time>2016-04-30T08:53:31.000Z</time>
      </trkpt>
      <trkpt lat="43.69768" lon="5.88053">
        <ele>526</ele>
        <time>2016-04-30T08:53:33.000Z</time>
      </trkpt>
      <trkpt lat="43.69768" lon="5.88053">
        <ele>526</ele>
        <time>2016-04-30T08:53:35.000Z</time>
      </trkpt>
      <trkpt lat="43.69768" lon="5.88053">
        <ele>526</ele>
        <time>2016-04-30T08:53:37.000Z</time>
      </trkpt>
      <trkpt lat="43.69768" lon="5.88053">
        <ele>526</ele>
        <time>2016-04-30T08:53:39.000Z</time>
      </trkpt>
      <trkpt lat="43.69768" lon="5.88053">
        <ele>526</ele>
        <time>2016-04-30T08:53:41.000Z</time>
      </trkpt>
      <trkpt lat="43.69768" lon="5.88053">
        <ele>526</ele>
        <time>2016-04-30T08:53:43.000Z</time>
      </trkpt>
      <trkpt lat="43.69768" lon="5.88053">
        <ele>526</ele>
        <time>2016-04-30T08:53:45.000Z</time>
      </trkpt>
      <trkpt lat="43.69768" lon="5.88053">
        <ele>526</ele>
        <time>2016-04-30T08:53:47.000Z</time>
      </trkpt>
      <trkpt lat="43.69768" lon="5.88053">
        <ele>526</ele>
        <time>2016-04-30T08:53:49.000Z</time>
      </trkpt>
      <trkpt lat="43.69768" lon="5.88053">
        <ele>526</ele>
        <time>2016-04-30T08:53:51.000Z</time>
      </trkpt>
      <trkpt lat="43.6981" lon="5.8792">
        <ele>524</ele>
        <time>2016-04-30T08:53:57.000Z</time>
      </trkpt>
      <trkpt lat="43.6981" lon="5.8792">
        <ele>524</ele>
        <time>2016-04-30T08:53:59.000Z</time>
      </trkpt>
      <trkpt lat="43.6981" lon="5.8792">
        <ele>524</ele>
        <time>2016-04-30T08:54:01.000Z</time>
      </trkpt>
      <trkpt lat="43.6981" lon="5.8792">
        <ele>524</ele>
        <time>2016-04-30T08:54:03.000Z</time>
      </trkpt>
      <trkpt lat="43.6983" lon="5.87867">
        <ele>525</ele>
        <time>2016-04-30T08:54:07.000Z</time>
      </trkpt>
      <trkpt lat="43.69834" lon="5.87856">
        <ele>525</ele>
        <time>2016-04-30T08:54:09.000Z</time>
      </trkpt>
      <trkpt lat="43.69842" lon="5.87834">
        <ele>524</ele>
        <time>2016-04-30T08:54:13.000Z</time>
      </trkpt>
      <trkpt lat="43.69846" lon="5.87824">
        <ele>524</ele>
        <time>2016-04-30T08:54:15.000Z</time>
      </trkpt>
      <trkpt lat="43.69851" lon="5.87813">
        <ele>524</ele>
        <time>2016-04-30T08:54:17.000Z</time>
      </trkpt>
      <trkpt lat="43.69854" lon="5.87802">
        <ele>525</ele>
        <time>2016-04-30T08:54:19.000Z</time>
      </trkpt>
      <trkpt lat="43.69858" lon="5.87791">
        <ele>524</ele>
        <time>2016-04-30T08:54:23.000Z</time>
      </trkpt>
      <trkpt lat="43.69862" lon="5.87779">
        <ele>524</ele>
        <time>2016-04-30T08:54:25.000Z</time>
      </trkpt>
      <trkpt lat="43.69866" lon="5.87766">
        <ele>524</ele>
        <time>2016-04-30T08:54:27.000Z</time>
      </trkpt>
      <trkpt lat="43.6987" lon="5.87753">
        <ele>524</ele>
        <time>2016-04-30T08:54:29.000Z</time>
      </trkpt>
      <trkpt lat="43.69873" lon="5.8774">
        <ele>524</ele>
        <time>2016-04-30T08:54:31.000Z</time>
      </trkpt>
      <trkpt lat="43.6988" lon="5.87712">
        <ele>523</ele>
        <time>2016-04-30T08:54:33.000Z</time>
      </trkpt>
      <trkpt lat="43.69883" lon="5.87698">
        <ele>522</ele>
        <time>2016-04-30T08:54:35.000Z</time>
      </trkpt>
      <trkpt lat="43.69884" lon="5.87684">
        <ele>521</ele>
        <time>2016-04-30T08:54:37.000Z</time>
      </trkpt>
      <trkpt lat="43.69887" lon="5.87669">
        <ele>520</ele>
        <time>2016-04-30T08:54:39.000Z</time>
      </trkpt>
      <trkpt lat="43.6989" lon="5.87655">
        <ele>520</ele>
        <time>2016-04-30T08:54:41.000Z</time>
      </trkpt>
      <trkpt lat="43.69894" lon="5.87642">
        <ele>520</ele>
        <time>2016-04-30T08:54:43.000Z</time>
      </trkpt>
      <trkpt lat="43.69897" lon="5.87626">
        <ele>519</ele>
        <time>2016-04-30T08:54:45.000Z</time>
      </trkpt>
      <trkpt lat="43.69901" lon="5.87613">
        <ele>519</ele>
        <time>2016-04-30T08:54:47.000Z</time>
      </trkpt>
      <trkpt lat="43.69907" lon="5.87598">
        <ele>517</ele>
        <time>2016-04-30T08:54:49.000Z</time>
      </trkpt>
      <trkpt lat="43.6991" lon="5.87584">
        <ele>516</ele>
        <time>2016-04-30T08:54:51.000Z</time>
      </trkpt>
      <trkpt lat="43.69915" lon="5.8757">
        <ele>515</ele>
        <time>2016-04-30T08:54:53.000Z</time>
      </trkpt>
      <trkpt lat="43.69915" lon="5.8757">
        <ele>515</ele>
        <time>2016-04-30T08:54:55.000Z</time>
      </trkpt>
      <trkpt lat="43.69915" lon="5.8757">
        <ele>515</ele>
        <time>2016-04-30T08:54:57.000Z</time>
      </trkpt>
      <trkpt lat="43.69915" lon="5.8757">
        <ele>515</ele>
        <time>2016-04-30T08:54:59.000Z</time>
      </trkpt>
      <trkpt lat="43.69915" lon="5.8757">
        <ele>515</ele>
        <time>2016-04-30T08:55:01.000Z</time>
      </trkpt>
      <trkpt lat="43.69915" lon="5.8757">
        <ele>515</ele>
        <time>2016-04-30T08:55:03.000Z</time>
      </trkpt>
      <trkpt lat="43.69937" lon="5.87478">
        <ele>515</ele>
        <time>2016-04-30T08:55:07.000Z</time>
      </trkpt>
      <trkpt lat="43.6994" lon="5.87465">
        <ele>515</ele>
        <time>2016-04-30T08:55:09.000Z</time>
      </trkpt>
      <trkpt lat="43.69943" lon="5.87451">
        <ele>516</ele>
        <time>2016-04-30T08:55:11.000Z</time>
      </trkpt>
      <trkpt lat="43.69946" lon="5.8744">
        <ele>516</ele>
        <time>2016-04-30T08:55:13.000Z</time>
      </trkpt>
      <trkpt lat="43.69946" lon="5.8744">
        <ele>516</ele>
        <time>2016-04-30T08:55:15.000Z</time>
      </trkpt>
      <trkpt lat="43.69946" lon="5.8744">
        <ele>516</ele>
        <time>2016-04-30T08:55:17.000Z</time>
      </trkpt>
      <trkpt lat="43.69946" lon="5.8744">
        <ele>516</ele>
        <time>2016-04-30T08:55:19.000Z</time>
      </trkpt>
      <trkpt lat="43.69946" lon="5.8744">
        <ele>516</ele>
        <time>2016-04-30T08:55:21.000Z</time>
      </trkpt>
      <trkpt lat="43.69946" lon="5.8744">
        <ele>516</ele>
        <time>2016-04-30T08:55:23.000Z</time>
      </trkpt>
      <trkpt lat="43.69991" lon="5.87328">
        <ele>522</ele>
        <time>2016-04-30T08:55:33.000Z</time>
      </trkpt>
      <trkpt lat="43.69995" lon="5.87316">
        <ele>521</ele>
        <time>2016-04-30T08:55:35.000Z</time>
      </trkpt>
      <trkpt lat="43.7" lon="5.87305">
        <ele>520</ele>
        <time>2016-04-30T08:55:37.000Z</time>
      </trkpt>
      <trkpt lat="43.70005" lon="5.87292">
        <ele>520</ele>
        <time>2016-04-30T08:55:39.000Z</time>
      </trkpt>
      <trkpt lat="43.70009" lon="5.87281">
        <ele>518</ele>
        <time>2016-04-30T08:55:41.000Z</time>
      </trkpt>
      <trkpt lat="43.70009" lon="5.87281">
        <ele>518</ele>
        <time>2016-04-30T08:55:43.000Z</time>
      </trkpt>
      <trkpt lat="43.70009" lon="5.87281">
        <ele>518</ele>
        <time>2016-04-30T08:55:45.000Z</time>
      </trkpt>
      <trkpt lat="43.70009" lon="5.87281">
        <ele>518</ele>
        <time>2016-04-30T08:55:47.000Z</time>
      </trkpt>
      <trkpt lat="43.70009" lon="5.87281">
        <ele>518</ele>
        <time>2016-04-30T08:55:49.000Z</time>
      </trkpt>
      <trkpt lat="43.70009" lon="5.87281">
        <ele>518</ele>
        <time>2016-04-30T08:55:51.000Z</time>
      </trkpt>
      <trkpt lat="43.70009" lon="5.87281">
        <ele>518</ele>
        <time>2016-04-30T08:55:53.000Z</time>
      </trkpt>
      <trkpt lat="43.70009" lon="5.87281">
        <ele>518</ele>
        <time>2016-04-30T08:55:55.000Z</time>
      </trkpt>
      <trkpt lat="43.70009" lon="5.87281">
        <ele>518</ele>
        <time>2016-04-30T08:55:57.000Z</time>
      </trkpt>
      <trkpt lat="43.70009" lon="5.87281">
        <ele>518</ele>
        <time>2016-04-30T08:55:59.000Z</time>
      </trkpt>
      <trkpt lat="43.70009" lon="5.87281">
        <ele>518</ele>
        <time>2016-04-30T08:56:01.000Z</time>
      </trkpt>
      <trkpt lat="43.70009" lon="5.87281">
        <ele>518</ele>
        <time>2016-04-30T08:56:03.000Z</time>
      </trkpt>
      <trkpt lat="43.69997" lon="5.87153">
        <ele>513</ele>
        <time>2016-04-30T08:56:07.000Z</time>
      </trkpt>
      <trkpt lat="43.69993" lon="5.87132">
        <ele>516</ele>
        <time>2016-04-30T08:56:11.000Z</time>
      </trkpt>
      <trkpt lat="43.69993" lon="5.87132">
        <ele>516</ele>
        <time>2016-04-30T08:56:13.000Z</time>
      </trkpt>
      <trkpt lat="43.69993" lon="5.87132">
        <ele>516</ele>
        <time>2016-04-30T08:56:15.000Z</time>
      </trkpt>
      <trkpt lat="43.69994" lon="5.87111">
        <ele>518</ele>
        <time>2016-04-30T08:56:19.000Z</time>
      </trkpt>
      <trkpt lat="43.69994" lon="5.87095">
        <ele>516</ele>
        <time>2016-04-30T08:56:21.000Z</time>
      </trkpt>
      <trkpt lat="43.69995" lon="5.87081">
        <ele>512</ele>
        <time>2016-04-30T08:56:23.000Z</time>
      </trkpt>
      <trkpt lat="43.69997" lon="5.87069">
        <ele>512</ele>
        <time>2016-04-30T08:56:25.000Z</time>
      </trkpt>
      <trkpt lat="43.69998" lon="5.87056">
        <ele>511</ele>
        <time>2016-04-30T08:56:27.000Z</time>
      </trkpt>
      <trkpt lat="43.70001" lon="5.87031">
        <ele>512</ele>
        <time>2016-04-30T08:56:29.000Z</time>
      </trkpt>
      <trkpt lat="43.70004" lon="5.87008">
        <ele>512</ele>
        <time>2016-04-30T08:56:33.000Z</time>
      </trkpt>
      <trkpt lat="43.70004" lon="5.87008">
        <ele>512</ele>
        <time>2016-04-30T08:56:35.000Z</time>
      </trkpt>
      <trkpt lat="43.70007" lon="5.86984">
        <ele>513</ele>
        <time>2016-04-30T08:56:37.000Z</time>
      </trkpt>
      <trkpt lat="43.7001" lon="5.86959">
        <ele>516</ele>
        <time>2016-04-30T08:56:41.000Z</time>
      </trkpt>
      <trkpt lat="43.70011" lon="5.86947">
        <ele>517</ele>
        <time>2016-04-30T08:56:43.000Z</time>
      </trkpt>
      <trkpt lat="43.70013" lon="5.86924">
        <ele>520</ele>
        <time>2016-04-30T08:56:47.000Z</time>
      </trkpt>
      <trkpt lat="43.70013" lon="5.86924">
        <ele>520</ele>
        <time>2016-04-30T08:56:49.000Z</time>
      </trkpt>
      <trkpt lat="43.70013" lon="5.86924">
        <ele>520</ele>
        <time>2016-04-30T08:56:51.000Z</time>
      </trkpt>
      <trkpt lat="43.70013" lon="5.86924">
        <ele>520</ele>
        <time>2016-04-30T08:56:53.000Z</time>
      </trkpt>
      <trkpt lat="43.70013" lon="5.86924">
        <ele>520</ele>
        <time>2016-04-30T08:56:55.000Z</time>
      </trkpt>
      <trkpt lat="43.70013" lon="5.86924">
        <ele>520</ele>
        <time>2016-04-30T08:56:57.000Z</time>
      </trkpt>
      <trkpt lat="43.70013" lon="5.86924">
        <ele>520</ele>
        <time>2016-04-30T08:56:59.000Z</time>
      </trkpt>
      <trkpt lat="43.70013" lon="5.86924">
        <ele>520</ele>
        <time>2016-04-30T08:57:01.000Z</time>
      </trkpt>
      <trkpt lat="43.70026" lon="5.8683">
        <ele>520</ele>
        <time>2016-04-30T08:57:03.000Z</time>
      </trkpt>
      <trkpt lat="43.70028" lon="5.86818">
        <ele>520</ele>
        <time>2016-04-30T08:57:05.000Z</time>
      </trkpt>
      <trkpt lat="43.7003" lon="5.86806">
        <ele>520</ele>
        <time>2016-04-30T08:57:07.000Z</time>
      </trkpt>
      <trkpt lat="43.70033" lon="5.86794">
        <ele>521</ele>
        <time>2016-04-30T08:57:09.000Z</time>
      </trkpt>
      <trkpt lat="43.7004" lon="5.86772">
        <ele>518</ele>
        <time>2016-04-30T08:57:13.000Z</time>
      </trkpt>
      <trkpt lat="43.70042" lon="5.86759">
        <ele>517</ele>
        <time>2016-04-30T08:57:15.000Z</time>
      </trkpt>
      <trkpt lat="43.70041" lon="5.86744">
        <ele>518</ele>
        <time>2016-04-30T08:57:17.000Z</time>
      </trkpt>
      <trkpt lat="43.70042" lon="5.8672">
        <ele>517</ele>
        <time>2016-04-30T08:57:21.000Z</time>
      </trkpt>
      <trkpt lat="43.70042" lon="5.86706">
        <ele>515</ele>
        <time>2016-04-30T08:57:23.000Z</time>
      </trkpt>
      <trkpt lat="43.70042" lon="5.86692">
        <ele>514</ele>
        <time>2016-04-30T08:57:25.000Z</time>
      </trkpt>
      <trkpt lat="43.70041" lon="5.86678">
        <ele>513</ele>
        <time>2016-04-30T08:57:27.000Z</time>
      </trkpt>
      <trkpt lat="43.70041" lon="5.86665">
        <ele>513</ele>
        <time>2016-04-30T08:57:29.000Z</time>
      </trkpt>
      <trkpt lat="43.70041" lon="5.8665">
        <ele>515</ele>
        <time>2016-04-30T08:57:31.000Z</time>
      </trkpt>
      <trkpt lat="43.70042" lon="5.86638">
        <ele>513</ele>
        <time>2016-04-30T08:57:33.000Z</time>
      </trkpt>
      <trkpt lat="43.70043" lon="5.86624">
        <ele>512</ele>
        <time>2016-04-30T08:57:35.000Z</time>
      </trkpt>
      <trkpt lat="43.70044" lon="5.86609">
        <ele>513</ele>
        <time>2016-04-30T08:57:37.000Z</time>
      </trkpt>
      <trkpt lat="43.70047" lon="5.86595">
        <ele>509</ele>
        <time>2016-04-30T08:57:39.000Z</time>
      </trkpt>
      <trkpt lat="43.7005" lon="5.86583">
        <ele>507</ele>
        <time>2016-04-30T08:57:41.000Z</time>
      </trkpt>
      <trkpt lat="43.7005" lon="5.86583">
        <ele>507</ele>
        <time>2016-04-30T08:57:43.000Z</time>
      </trkpt>
      <trkpt lat="43.7005" lon="5.86583">
        <ele>507</ele>
        <time>2016-04-30T08:57:45.000Z</time>
      </trkpt>
      <trkpt lat="43.7005" lon="5.86515">
        <ele>507</ele>
        <time>2016-04-30T08:57:51.000Z</time>
      </trkpt>
      <trkpt lat="43.7005" lon="5.86501">
        <ele>507</ele>
        <time>2016-04-30T08:57:53.000Z</time>
      </trkpt>
      <trkpt lat="43.7005" lon="5.86487">
        <ele>507</ele>
        <time>2016-04-30T08:57:55.000Z</time>
      </trkpt>
      <trkpt lat="43.7005" lon="5.86473">
        <ele>507</ele>
        <time>2016-04-30T08:57:57.000Z</time>
      </trkpt>
      <trkpt lat="43.7005" lon="5.86473">
        <ele>507</ele>
        <time>2016-04-30T08:57:59.000Z</time>
      </trkpt>
      <trkpt lat="43.7005" lon="5.86473">
        <ele>507</ele>
        <time>2016-04-30T08:58:01.000Z</time>
      </trkpt>
      <trkpt lat="43.7005" lon="5.86473">
        <ele>507</ele>
        <time>2016-04-30T08:58:03.000Z</time>
      </trkpt>
      <trkpt lat="43.7005" lon="5.86473">
        <ele>507</ele>
        <time>2016-04-30T08:58:05.000Z</time>
      </trkpt>
      <trkpt lat="43.7005" lon="5.86473">
        <ele>507</ele>
        <time>2016-04-30T08:58:07.000Z</time>
      </trkpt>
      <trkpt lat="43.7005" lon="5.86473">
        <ele>507</ele>
        <time>2016-04-30T08:58:09.000Z</time>
      </trkpt>
      <trkpt lat="43.7005" lon="5.86473">
        <ele>507</ele>
        <time>2016-04-30T08:58:11.000Z</time>
      </trkpt>
      <trkpt lat="43.7005" lon="5.86473">
        <ele>507</ele>
        <time>2016-04-30T08:58:13.000Z</time>
      </trkpt>
      <trkpt lat="43.70059" lon="5.86347">
        <ele>510</ele>
        <time>2016-04-30T08:58:17.000Z</time>
      </trkpt>
      <trkpt lat="43.7006" lon="5.86332">
        <ele>510</ele>
        <time>2016-04-30T08:58:19.000Z</time>
      </trkpt>
      <trkpt lat="43.70061" lon="5.86319">
        <ele>510</ele>
        <time>2016-04-30T08:58:21.000Z</time>
      </trkpt>
      <trkpt lat="43.70061" lon="5.86305">
        <ele>511</ele>
        <time>2016-04-30T08:58:23.000Z</time>
      </trkpt>
      <trkpt lat="43.70062" lon="5.86292">
        <ele>511</ele>
        <time>2016-04-30T08:58:25.000Z</time>
      </trkpt>
      <trkpt lat="43.70063" lon="5.86279">
        <ele>510</ele>
        <time>2016-04-30T08:58:27.000Z</time>
      </trkpt>
      <trkpt lat="43.70063" lon="5.86279">
        <ele>510</ele>
        <time>2016-04-30T08:58:29.000Z</time>
      </trkpt>
      <trkpt lat="43.70063" lon="5.86279">
        <ele>510</ele>
        <time>2016-04-30T08:58:31.000Z</time>
      </trkpt>
      <trkpt lat="43.70063" lon="5.86279">
        <ele>510</ele>
        <time>2016-04-30T08:58:33.000Z</time>
      </trkpt>
      <trkpt lat="43.70063" lon="5.86279">
        <ele>510</ele>
        <time>2016-04-30T08:58:35.000Z</time>
      </trkpt>
      <trkpt lat="43.70063" lon="5.86279">
        <ele>510</ele>
        <time>2016-04-30T08:58:37.000Z</time>
      </trkpt>
      <trkpt lat="43.70063" lon="5.86279">
        <ele>510</ele>
        <time>2016-04-30T08:58:43.000Z</time>
      </trkpt>
      <trkpt lat="43.70063" lon="5.86279">
        <ele>510</ele>
        <time>2016-04-30T08:58:45.000Z</time>
      </trkpt>
      <trkpt lat="43.70063" lon="5.86279">
        <ele>510</ele>
        <time>2016-04-30T08:58:47.000Z</time>
      </trkpt>
      <trkpt lat="43.70063" lon="5.86279">
        <ele>510</ele>
        <time>2016-04-30T08:58:49.000Z</time>
      </trkpt>
      <trkpt lat="43.70063" lon="5.86279">
        <ele>510</ele>
        <time>2016-04-30T08:58:51.000Z</time>
      </trkpt>
      <trkpt lat="43.70063" lon="5.86279">
        <ele>510</ele>
        <time>2016-04-30T08:58:53.000Z</time>
      </trkpt>
      <trkpt lat="43.70063" lon="5.86279">
        <ele>510</ele>
        <time>2016-04-30T08:58:55.000Z</time>
      </trkpt>
      <trkpt lat="43.70089" lon="5.86199">
        <ele>506</ele>
        <time>2016-04-30T08:58:58.000Z</time>
      </trkpt>
      <trkpt lat="43.70105" lon="5.86155">
        <ele>505</ele>
        <time>2016-04-30T08:59:00.000Z</time>
      </trkpt>
      <trkpt lat="43.70117" lon="5.86127">
        <ele>505</ele>
        <time>2016-04-30T08:59:02.000Z</time>
      </trkpt>
      <trkpt lat="43.70131" lon="5.86104">
        <ele>503</ele>
        <time>2016-04-30T08:59:05.000Z</time>
      </trkpt>
      <trkpt lat="43.70144" lon="5.86085">
        <ele>501</ele>
        <time>2016-04-30T08:59:07.000Z</time>
      </trkpt>
      <trkpt lat="43.70168" lon="5.86052">
        <ele>500</ele>
        <time>2016-04-30T08:59:09.000Z</time>
      </trkpt>
      <trkpt lat="43.70178" lon="5.86037">
        <ele>499</ele>
        <time>2016-04-30T08:59:11.000Z</time>
      </trkpt>
      <trkpt lat="43.70188" lon="5.86021">
        <ele>498</ele>
        <time>2016-04-30T08:59:13.000Z</time>
      </trkpt>
      <trkpt lat="43.70196" lon="5.86009">
        <ele>497</ele>
        <time>2016-04-30T08:59:15.000Z</time>
      </trkpt>
      <trkpt lat="43.70204" lon="5.85997">
        <ele>494</ele>
        <time>2016-04-30T08:59:17.000Z</time>
      </trkpt>
      <trkpt lat="43.70211" lon="5.85983">
        <ele>494</ele>
        <time>2016-04-30T08:59:19.000Z</time>
      </trkpt>
      <trkpt lat="43.7022" lon="5.85967">
        <ele>491</ele>
        <time>2016-04-30T08:59:21.000Z</time>
      </trkpt>
      <trkpt lat="43.70227" lon="5.85949">
        <ele>489</ele>
        <time>2016-04-30T08:59:23.000Z</time>
      </trkpt>
      <trkpt lat="43.70237" lon="5.85931">
        <ele>489</ele>
        <time>2016-04-30T08:59:25.000Z</time>
      </trkpt>
      <trkpt lat="43.70247" lon="5.85915">
        <ele>488</ele>
        <time>2016-04-30T08:59:27.000Z</time>
      </trkpt>
      <trkpt lat="43.70257" lon="5.85897">
        <ele>487</ele>
        <time>2016-04-30T08:59:29.000Z</time>
      </trkpt>
      <trkpt lat="43.70265" lon="5.85879">
        <ele>485</ele>
        <time>2016-04-30T08:59:31.000Z</time>
      </trkpt>
      <trkpt lat="43.70272" lon="5.85864">
        <ele>482</ele>
        <time>2016-04-30T08:59:34.000Z</time>
      </trkpt>
      <trkpt lat="43.70272" lon="5.85864">
        <ele>482</ele>
        <time>2016-04-30T08:59:37.000Z</time>
      </trkpt>
      <trkpt lat="43.70272" lon="5.85864">
        <ele>482</ele>
        <time>2016-04-30T08:59:39.000Z</time>
      </trkpt>
      <trkpt lat="43.70288" lon="5.85818">
        <ele>480</ele>
        <time>2016-04-30T08:59:45.000Z</time>
      </trkpt>
      <trkpt lat="43.70288" lon="5.85818">
        <ele>480</ele>
        <time>2016-04-30T08:59:47.000Z</time>
      </trkpt>
      <trkpt lat="43.70288" lon="5.85818">
        <ele>480</ele>
        <time>2016-04-30T08:59:49.000Z</time>
      </trkpt>
      <trkpt lat="43.70288" lon="5.85818">
        <ele>480</ele>
        <time>2016-04-30T08:59:51.000Z</time>
      </trkpt>
      <trkpt lat="43.70288" lon="5.85818">
        <ele>480</ele>
        <time>2016-04-30T08:59:53.000Z</time>
      </trkpt>
      <trkpt lat="43.70288" lon="5.85818">
        <ele>480</ele>
        <time>2016-04-30T08:59:55.000Z</time>
      </trkpt>
      <trkpt lat="43.70288" lon="5.85818">
        <ele>480</ele>
        <time>2016-04-30T08:59:57.000Z</time>
      </trkpt>
      <trkpt lat="43.70288" lon="5.85818">
        <ele>480</ele>
        <time>2016-04-30T08:59:59.000Z</time>
      </trkpt>
      <trkpt lat="43.70288" lon="5.85818">
        <ele>480</ele>
        <time>2016-04-30T09:00:01.000Z</time>
      </trkpt>
      <trkpt lat="43.70295" lon="5.85761">
        <ele>476</ele>
        <time>2016-04-30T09:00:20.000Z</time>
      </trkpt>
      <trkpt lat="43.70298" lon="5.85748">
        <ele>476</ele>
        <time>2016-04-30T09:00:23.000Z</time>
      </trkpt>
      <trkpt lat="43.70301" lon="5.8573">
        <ele>478</ele>
        <time>2016-04-30T09:00:27.000Z</time>
      </trkpt>
      <trkpt lat="43.70305" lon="5.85714">
        <ele>480</ele>
        <time>2016-04-30T09:00:31.000Z</time>
      </trkpt>
      <trkpt lat="43.70305" lon="5.85714">
        <ele>480</ele>
        <time>2016-04-30T09:00:33.000Z</time>
      </trkpt>
      <trkpt lat="43.70305" lon="5.85714">
        <ele>480</ele>
        <time>2016-04-30T09:00:35.000Z</time>
      </trkpt>
      <trkpt lat="43.70305" lon="5.85714">
        <ele>480</ele>
        <time>2016-04-30T09:00:37.000Z</time>
      </trkpt>
      <trkpt lat="43.70305" lon="5.85714">
        <ele>480</ele>
        <time>2016-04-30T09:00:39.000Z</time>
      </trkpt>
      <trkpt lat="43.70305" lon="5.85714">
        <ele>480</ele>
        <time>2016-04-30T09:00:41.000Z</time>
      </trkpt>
      <trkpt lat="43.70305" lon="5.85714">
        <ele>480</ele>
        <time>2016-04-30T09:00:43.000Z</time>
      </trkpt>
      <trkpt lat="43.70301" lon="5.8566">
        <ele>482</ele>
        <time>2016-04-30T09:00:49.000Z</time>
      </trkpt>
      <trkpt lat="43.70301" lon="5.85644">
        <ele>481</ele>
        <time>2016-04-30T09:00:53.000Z</time>
      </trkpt>
      <trkpt lat="43.70298" lon="5.85628">
        <ele>480</ele>
        <time>2016-04-30T09:00:57.000Z</time>
      </trkpt>
      <trkpt lat="43.70291" lon="5.85613">
        <ele>479</ele>
        <time>2016-04-30T09:01:01.000Z</time>
      </trkpt>
      <trkpt lat="43.7029" lon="5.85594">
        <ele>475</ele>
        <time>2016-04-30T09:01:05.000Z</time>
      </trkpt>
      <trkpt lat="43.7029" lon="5.85578">
        <ele>480</ele>
        <time>2016-04-30T09:01:09.000Z</time>
      </trkpt>
      <trkpt lat="43.7029" lon="5.85578">
        <ele>480</ele>
        <time>2016-04-30T09:01:11.000Z</time>
      </trkpt>
      <trkpt lat="43.70292" lon="5.85553">
        <ele>477</ele>
        <time>2016-04-30T09:01:13.000Z</time>
      </trkpt>
      <trkpt lat="43.70294" lon="5.85531">
        <ele>478</ele>
        <time>2016-04-30T09:01:15.000Z</time>
      </trkpt>
      <trkpt lat="43.70298" lon="5.85518">
        <ele>477</ele>
        <time>2016-04-30T09:01:17.000Z</time>
      </trkpt>
      <trkpt lat="43.70304" lon="5.85504">
        <ele>473</ele>
        <time>2016-04-30T09:01:19.000Z</time>
      </trkpt>
      <trkpt lat="43.70307" lon="5.85487">
        <ele>470</ele>
        <time>2016-04-30T09:01:21.000Z</time>
      </trkpt>
      <trkpt lat="43.70309" lon="5.85473">
        <ele>468</ele>
        <time>2016-04-30T09:01:23.000Z</time>
      </trkpt>
      <trkpt lat="43.70311" lon="5.85459">
        <ele>468</ele>
        <time>2016-04-30T09:01:25.000Z</time>
      </trkpt>
      <trkpt lat="43.70311" lon="5.85459">
        <ele>468</ele>
        <time>2016-04-30T09:01:27.000Z</time>
      </trkpt>
      <trkpt lat="43.70311" lon="5.85459">
        <ele>468</ele>
        <time>2016-04-30T09:01:29.000Z</time>
      </trkpt>
      <trkpt lat="43.70311" lon="5.85459">
        <ele>468</ele>
        <time>2016-04-30T09:01:31.000Z</time>
      </trkpt>
      <trkpt lat="43.7032" lon="5.85394">
        <ele>464</ele>
        <time>2016-04-30T09:01:35.000Z</time>
      </trkpt>
      <trkpt lat="43.7032" lon="5.85375">
        <ele>462</ele>
        <time>2016-04-30T09:01:37.000Z</time>
      </trkpt>
      <trkpt lat="43.70322" lon="5.85354">
        <ele>462</ele>
        <time>2016-04-30T09:01:39.000Z</time>
      </trkpt>
      <trkpt lat="43.70324" lon="5.85334">
        <ele>463</ele>
        <time>2016-04-30T09:01:41.000Z</time>
      </trkpt>
      <trkpt lat="43.70325" lon="5.8532">
        <ele>460</ele>
        <time>2016-04-30T09:01:43.000Z</time>
      </trkpt>
      <trkpt lat="43.70332" lon="5.85309">
        <ele>457</ele>
        <time>2016-04-30T09:01:45.000Z</time>
      </trkpt>
      <trkpt lat="43.70332" lon="5.85309">
        <ele>457</ele>
        <time>2016-04-30T09:01:47.000Z</time>
      </trkpt>
      <trkpt lat="43.70332" lon="5.85309">
        <ele>457</ele>
        <time>2016-04-30T09:01:49.000Z</time>
      </trkpt>
      <trkpt lat="43.70332" lon="5.85309">
        <ele>457</ele>
        <time>2016-04-30T09:01:51.000Z</time>
      </trkpt>
      <trkpt lat="43.70346" lon="5.85221">
        <ele>449</ele>
        <time>2016-04-30T09:01:57.000Z</time>
      </trkpt>
      <trkpt lat="43.7035" lon="5.8521">
        <ele>447</ele>
        <time>2016-04-30T09:01:59.000Z</time>
      </trkpt>
      <trkpt lat="43.70354" lon="5.85196">
        <ele>444</ele>
        <time>2016-04-30T09:02:01.000Z</time>
      </trkpt>
      <trkpt lat="43.70358" lon="5.85183">
        <ele>443</ele>
        <time>2016-04-30T09:02:03.000Z</time>
      </trkpt>
      <trkpt lat="43.70358" lon="5.85183">
        <ele>443</ele>
        <time>2016-04-30T09:02:05.000Z</time>
      </trkpt>
      <trkpt lat="43.70358" lon="5.85183">
        <ele>443</ele>
        <time>2016-04-30T09:02:07.000Z</time>
      </trkpt>
      <trkpt lat="43.70358" lon="5.85183">
        <ele>443</ele>
        <time>2016-04-30T09:02:09.000Z</time>
      </trkpt>
      <trkpt lat="43.70358" lon="5.85183">
        <ele>443</ele>
        <time>2016-04-30T09:02:11.000Z</time>
      </trkpt>
      <trkpt lat="43.70358" lon="5.85183">
        <ele>443</ele>
        <time>2016-04-30T09:02:13.000Z</time>
      </trkpt>
      <trkpt lat="43.70358" lon="5.85183">
        <ele>443</ele>
        <time>2016-04-30T09:02:15.000Z</time>
      </trkpt>
      <trkpt lat="43.70358" lon="5.85183">
        <ele>443</ele>
        <time>2016-04-30T09:02:17.000Z</time>
      </trkpt>
      <trkpt lat="43.70358" lon="5.85183">
        <ele>443</ele>
        <time>2016-04-30T09:02:19.000Z</time>
      </trkpt>
      <trkpt lat="43.70375" lon="5.85123">
        <ele>435</ele>
        <time>2016-04-30T09:02:23.000Z</time>
      </trkpt>
      <trkpt lat="43.70385" lon="5.85087">
        <ele>434</ele>
        <time>2016-04-30T09:02:25.000Z</time>
      </trkpt>
      <trkpt lat="43.70391" lon="5.85062">
        <ele>433</ele>
        <time>2016-04-30T09:02:27.000Z</time>
      </trkpt>
      <trkpt lat="43.70396" lon="5.85044">
        <ele>431</ele>
        <time>2016-04-30T09:02:29.000Z</time>
      </trkpt>
      <trkpt lat="43.70399" lon="5.85028">
        <ele>429</ele>
        <time>2016-04-30T09:02:31.000Z</time>
      </trkpt>
      <trkpt lat="43.70399" lon="5.85028">
        <ele>429</ele>
        <time>2016-04-30T09:02:33.000Z</time>
      </trkpt>
      <trkpt lat="43.70414" lon="5.84968">
        <ele>427</ele>
        <time>2016-04-30T09:02:37.000Z</time>
      </trkpt>
      <trkpt lat="43.70413" lon="5.84953">
        <ele>427</ele>
        <time>2016-04-30T09:02:39.000Z</time>
      </trkpt>
      <trkpt lat="43.70408" lon="5.8494">
        <ele>427</ele>
        <time>2016-04-30T09:02:41.000Z</time>
      </trkpt>
      <trkpt lat="43.70407" lon="5.84926">
        <ele>426</ele>
        <time>2016-04-30T09:02:43.000Z</time>
      </trkpt>
      <trkpt lat="43.70407" lon="5.84926">
        <ele>426</ele>
        <time>2016-04-30T09:02:45.000Z</time>
      </trkpt>
      <trkpt lat="43.70407" lon="5.84926">
        <ele>426</ele>
        <time>2016-04-30T09:02:48.000Z</time>
      </trkpt>
      <trkpt lat="43.70407" lon="5.84926">
        <ele>426</ele>
        <time>2016-04-30T09:02:50.000Z</time>
      </trkpt>
      <trkpt lat="43.70407" lon="5.84926">
        <ele>426</ele>
        <time>2016-04-30T09:02:52.000Z</time>
      </trkpt>
      <trkpt lat="43.70406" lon="5.84891">
        <ele>422</ele>
        <time>2016-04-30T09:03:38.000Z</time>
      </trkpt>
      <trkpt lat="43.70409" lon="5.84878">
        <ele>423</ele>
        <time>2016-04-30T09:03:42.000Z</time>
      </trkpt>
      <trkpt lat="43.70414" lon="5.84864">
        <ele>422</ele>
        <time>2016-04-30T09:03:46.000Z</time>
      </trkpt>
      <trkpt lat="43.7042" lon="5.84843">
        <ele>422</ele>
        <time>2016-04-30T09:03:50.000Z</time>
      </trkpt>
      <trkpt lat="43.70422" lon="5.84829">
        <ele>422</ele>
        <time>2016-04-30T09:03:52.000Z</time>
      </trkpt>
      <trkpt lat="43.70417" lon="5.84804">
        <ele>424</ele>
        <time>2016-04-30T09:03:56.000Z</time>
      </trkpt>
      <trkpt lat="43.70417" lon="5.84781">
        <ele>427</ele>
        <time>2016-04-30T09:04:00.000Z</time>
      </trkpt>
      <trkpt lat="43.70417" lon="5.84781">
        <ele>427</ele>
        <time>2016-04-30T09:04:02.000Z</time>
      </trkpt>
      <trkpt lat="43.70417" lon="5.84781">
        <ele>427</ele>
        <time>2016-04-30T09:04:04.000Z</time>
      </trkpt>
      <trkpt lat="43.70417" lon="5.84781">
        <ele>427</ele>
        <time>2016-04-30T09:04:06.000Z</time>
      </trkpt>
      <trkpt lat="43.70417" lon="5.84781">
        <ele>427</ele>
        <time>2016-04-30T09:04:08.000Z</time>
      </trkpt>
      <trkpt lat="43.70417" lon="5.84781">
        <ele>427</ele>
        <time>2016-04-30T09:04:10.000Z</time>
      </trkpt>
      <trkpt lat="43.70417" lon="5.84781">
        <ele>427</ele>
        <time>2016-04-30T09:04:12.000Z</time>
      </trkpt>
      <trkpt lat="43.70417" lon="5.84781">
        <ele>427</ele>
        <time>2016-04-30T09:04:14.000Z</time>
      </trkpt>
      <trkpt lat="43.70417" lon="5.84781">
        <ele>427</ele>
        <time>2016-04-30T09:04:16.000Z</time>
      </trkpt>
      <trkpt lat="43.70417" lon="5.84781">
        <ele>427</ele>
        <time>2016-04-30T09:04:18.000Z</time>
      </trkpt>
      <trkpt lat="43.70417" lon="5.84781">
        <ele>427</ele>
        <time>2016-04-30T09:04:20.000Z</time>
      </trkpt>
      <trkpt lat="43.70417" lon="5.84781">
        <ele>427</ele>
        <time>2016-04-30T09:04:22.000Z</time>
      </trkpt>
      <trkpt lat="43.70428" lon="5.84692">
        <ele>429</ele>
        <time>2016-04-30T09:04:25.000Z</time>
      </trkpt>
      <trkpt lat="43.70441" lon="5.84666">
        <ele>426</ele>
        <time>2016-04-30T09:04:28.000Z</time>
      </trkpt>
      <trkpt lat="43.70449" lon="5.8465">
        <ele>424</ele>
        <time>2016-04-30T09:04:30.000Z</time>
      </trkpt>
      <trkpt lat="43.70458" lon="5.84634">
        <ele>422</ele>
        <time>2016-04-30T09:04:32.000Z</time>
      </trkpt>
      <trkpt lat="43.70466" lon="5.84615">
        <ele>420</ele>
        <time>2016-04-30T09:04:34.000Z</time>
      </trkpt>
      <trkpt lat="43.70475" lon="5.84596">
        <ele>418</ele>
        <time>2016-04-30T09:04:36.000Z</time>
      </trkpt>
      <trkpt lat="43.70484" lon="5.84577">
        <ele>416</ele>
        <time>2016-04-30T09:04:38.000Z</time>
      </trkpt>
      <trkpt lat="43.70493" lon="5.84559">
        <ele>414</ele>
        <time>2016-04-30T09:04:40.000Z</time>
      </trkpt>
      <trkpt lat="43.70502" lon="5.84542">
        <ele>414</ele>
        <time>2016-04-30T09:04:42.000Z</time>
      </trkpt>
      <trkpt lat="43.70511" lon="5.84528">
        <ele>414</ele>
        <time>2016-04-30T09:04:44.000Z</time>
      </trkpt>
      <trkpt lat="43.7052" lon="5.84515">
        <ele>415</ele>
        <time>2016-04-30T09:04:46.000Z</time>
      </trkpt>
      <trkpt lat="43.70531" lon="5.84505">
        <ele>414</ele>
        <time>2016-04-30T09:04:48.000Z</time>
      </trkpt>
      <trkpt lat="43.70538" lon="5.84492">
        <ele>415</ele>
        <time>2016-04-30T09:04:50.000Z</time>
      </trkpt>
      <trkpt lat="43.70545" lon="5.8448">
        <ele>415</ele>
        <time>2016-04-30T09:04:52.000Z</time>
      </trkpt>
      <trkpt lat="43.70551" lon="5.84472">
        <ele>415</ele>
        <time>2016-04-30T09:04:54.000Z</time>
      </trkpt>
      <trkpt lat="43.70551" lon="5.84472">
        <ele>415</ele>
        <time>2016-04-30T09:04:56.000Z</time>
      </trkpt>
      <trkpt lat="43.70551" lon="5.84472">
        <ele>415</ele>
        <time>2016-04-30T09:04:58.000Z</time>
      </trkpt>
      <trkpt lat="43.70551" lon="5.84472">
        <ele>415</ele>
        <time>2016-04-30T09:05:00.000Z</time>
      </trkpt>
      <trkpt lat="43.70551" lon="5.84472">
        <ele>415</ele>
        <time>2016-04-30T09:05:02.000Z</time>
      </trkpt>
      <trkpt lat="43.70551" lon="5.84472">
        <ele>415</ele>
        <time>2016-04-30T09:05:04.000Z</time>
      </trkpt>
      <trkpt lat="43.70551" lon="5.84472">
        <ele>415</ele>
        <time>2016-04-30T09:05:06.000Z</time>
      </trkpt>
      <trkpt lat="43.70551" lon="5.84472">
        <ele>415</ele>
        <time>2016-04-30T09:05:08.000Z</time>
      </trkpt>
      <trkpt lat="43.70551" lon="5.84472">
        <ele>415</ele>
        <time>2016-04-30T09:05:10.000Z</time>
      </trkpt>
      <trkpt lat="43.70551" lon="5.84472">
        <ele>415</ele>
        <time>2016-04-30T09:05:12.000Z</time>
      </trkpt>
      <trkpt lat="43.70551" lon="5.84472">
        <ele>415</ele>
        <time>2016-04-30T09:05:14.000Z</time>
      </trkpt>
      <trkpt lat="43.70551" lon="5.84472">
        <ele>415</ele>
        <time>2016-04-30T09:05:16.000Z</time>
      </trkpt>
      <trkpt lat="43.70551" lon="5.84472">
        <ele>415</ele>
        <time>2016-04-30T09:05:18.000Z</time>
      </trkpt>
      <trkpt lat="43.70551" lon="5.84472">
        <ele>415</ele>
        <time>2016-04-30T09:05:20.000Z</time>
      </trkpt>
      <trkpt lat="43.70551" lon="5.84472">
        <ele>415</ele>
        <time>2016-04-30T09:05:22.000Z</time>
      </trkpt>
      <trkpt lat="43.70551" lon="5.84472">
        <ele>415</ele>
        <time>2016-04-30T09:05:24.000Z</time>
      </trkpt>
      <trkpt lat="43.70551" lon="5.84472">
        <ele>415</ele>
        <time>2016-04-30T09:05:26.000Z</time>
      </trkpt>
      <trkpt lat="43.70551" lon="5.84472">
        <ele>415</ele>
        <time>2016-04-30T09:05:28.000Z</time>
      </trkpt>
      <trkpt lat="43.70594" lon="5.84366">
        <ele>412</ele>
        <time>2016-04-30T09:15:30.000Z</time>
      </trkpt>
      <trkpt lat="43.70596" lon="5.84354">
        <ele>412</ele>
        <time>2016-04-30T09:15:34.000Z</time>
      </trkpt>
      <trkpt lat="43.70597" lon="5.84341">
        <ele>410</ele>
        <time>2016-04-30T09:15:36.000Z</time>
      </trkpt>
      <trkpt lat="43.706" lon="5.84325">
        <ele>408</ele>
        <time>2016-04-30T09:15:38.000Z</time>
      </trkpt>
      <trkpt lat="43.70603" lon="5.84308">
        <ele>407</ele>
        <time>2016-04-30T09:15:40.000Z</time>
      </trkpt>
      <trkpt lat="43.70606" lon="5.84289">
        <ele>407</ele>
        <time>2016-04-30T09:15:42.000Z</time>
      </trkpt>
      <trkpt lat="43.70608" lon="5.84271">
        <ele>406</ele>
        <time>2016-04-30T09:15:44.000Z</time>
      </trkpt>
      <trkpt lat="43.70611" lon="5.84256">
        <ele>406</ele>
        <time>2016-04-30T09:15:46.000Z</time>
      </trkpt>
      <trkpt lat="43.70614" lon="5.84242">
        <ele>406</ele>
        <time>2016-04-30T09:15:48.000Z</time>
      </trkpt>
      <trkpt lat="43.70617" lon="5.8423">
        <ele>406</ele>
        <time>2016-04-30T09:15:50.000Z</time>
      </trkpt>
      <trkpt lat="43.70617" lon="5.8423">
        <ele>406</ele>
        <time>2016-04-30T09:15:52.000Z</time>
      </trkpt>
      <trkpt lat="43.70617" lon="5.8423">
        <ele>406</ele>
        <time>2016-04-30T09:15:54.000Z</time>
      </trkpt>
      <trkpt lat="43.70617" lon="5.8423">
        <ele>406</ele>
        <time>2016-04-30T09:15:56.000Z</time>
      </trkpt>
      <trkpt lat="43.70617" lon="5.8423">
        <ele>406</ele>
        <time>2016-04-30T09:15:58.000Z</time>
      </trkpt>
      <trkpt lat="43.70643" lon="5.84133">
        <ele>405</ele>
        <time>2016-04-30T09:16:06.000Z</time>
      </trkpt>
      <trkpt lat="43.70647" lon="5.8412">
        <ele>405</ele>
        <time>2016-04-30T09:16:08.000Z</time>
      </trkpt>
      <trkpt lat="43.7065" lon="5.84108">
        <ele>405</ele>
        <time>2016-04-30T09:16:10.000Z</time>
      </trkpt>
      <trkpt lat="43.70655" lon="5.84096">
        <ele>404</ele>
        <time>2016-04-30T09:16:12.000Z</time>
      </trkpt>
      <trkpt lat="43.70658" lon="5.84083">
        <ele>404</ele>
        <time>2016-04-30T09:16:14.000Z</time>
      </trkpt>
      <trkpt lat="43.70662" lon="5.8407">
        <ele>404</ele>
        <time>2016-04-30T09:16:16.000Z</time>
      </trkpt>
      <trkpt lat="43.70665" lon="5.84057">
        <ele>404</ele>
        <time>2016-04-30T09:16:18.000Z</time>
      </trkpt>
      <trkpt lat="43.70669" lon="5.84044">
        <ele>404</ele>
        <time>2016-04-30T09:16:20.000Z</time>
      </trkpt>
      <trkpt lat="43.70672" lon="5.8403">
        <ele>404</ele>
        <time>2016-04-30T09:16:22.000Z</time>
      </trkpt>
      <trkpt lat="43.70672" lon="5.8403">
        <ele>404</ele>
        <time>2016-04-30T09:16:24.000Z</time>
      </trkpt>
      <trkpt lat="43.70672" lon="5.8403">
        <ele>404</ele>
        <time>2016-04-30T09:16:26.000Z</time>
      </trkpt>
      <trkpt lat="43.70672" lon="5.8403">
        <ele>404</ele>
        <time>2016-04-30T09:16:28.000Z</time>
      </trkpt>
      <trkpt lat="43.70672" lon="5.8403">
        <ele>404</ele>
        <time>2016-04-30T09:16:30.000Z</time>
      </trkpt>
      <trkpt lat="43.70693" lon="5.83955">
        <ele>402</ele>
        <time>2016-04-30T09:16:34.000Z</time>
      </trkpt>
      <trkpt lat="43.70697" lon="5.83942">
        <ele>402</ele>
        <time>2016-04-30T09:16:36.000Z</time>
      </trkpt>
      <trkpt lat="43.707" lon="5.8393">
        <ele>402</ele>
        <time>2016-04-30T09:16:38.000Z</time>
      </trkpt>
      <trkpt lat="43.70705" lon="5.83917">
        <ele>402</ele>
        <time>2016-04-30T09:16:40.000Z</time>
      </trkpt>
      <trkpt lat="43.70705" lon="5.83917">
        <ele>402</ele>
        <time>2016-04-30T09:16:42.000Z</time>
      </trkpt>
      <trkpt lat="43.70705" lon="5.83917">
        <ele>402</ele>
        <time>2016-04-30T09:16:44.000Z</time>
      </trkpt>
      <trkpt lat="43.70705" lon="5.83917">
        <ele>402</ele>
        <time>2016-04-30T09:16:46.000Z</time>
      </trkpt>
      <trkpt lat="43.70705" lon="5.83917">
        <ele>402</ele>
        <time>2016-04-30T09:16:50.000Z</time>
      </trkpt>
      <trkpt lat="43.70705" lon="5.83917">
        <ele>402</ele>
        <time>2016-04-30T09:16:52.000Z</time>
      </trkpt>
      <trkpt lat="43.70705" lon="5.83917">
        <ele>402</ele>
        <time>2016-04-30T09:16:54.000Z</time>
      </trkpt>
      <trkpt lat="43.70705" lon="5.83917">
        <ele>402</ele>
        <time>2016-04-30T09:16:56.000Z</time>
      </trkpt>
      <trkpt lat="43.70705" lon="5.83917">
        <ele>402</ele>
        <time>2016-04-30T09:16:58.000Z</time>
      </trkpt>
      <trkpt lat="43.70705" lon="5.83917">
        <ele>402</ele>
        <time>2016-04-30T09:17:00.000Z</time>
      </trkpt>
      <trkpt lat="43.70705" lon="5.83917">
        <ele>402</ele>
        <time>2016-04-30T09:17:02.000Z</time>
      </trkpt>
      <trkpt lat="43.70705" lon="5.83917">
        <ele>402</ele>
        <time>2016-04-30T09:17:04.000Z</time>
      </trkpt>
      <trkpt lat="43.70705" lon="5.83917">
        <ele>402</ele>
        <time>2016-04-30T09:17:06.000Z</time>
      </trkpt>
      <trkpt lat="43.70705" lon="5.83917">
        <ele>402</ele>
        <time>2016-04-30T09:17:08.000Z</time>
      </trkpt>
      <trkpt lat="43.70705" lon="5.83917">
        <ele>402</ele>
        <time>2016-04-30T09:17:10.000Z</time>
      </trkpt>
      <trkpt lat="43.70705" lon="5.83917">
        <ele>402</ele>
        <time>2016-04-30T09:17:12.000Z</time>
      </trkpt>
      <trkpt lat="43.70705" lon="5.83917">
        <ele>402</ele>
        <time>2016-04-30T09:17:14.000Z</time>
      </trkpt>
      <trkpt lat="43.70705" lon="5.83917">
        <ele>402</ele>
        <time>2016-04-30T09:17:16.000Z</time>
      </trkpt>
      <trkpt lat="43.70705" lon="5.83917">
        <ele>402</ele>
        <time>2016-04-30T09:17:18.000Z</time>
      </trkpt>
      <trkpt lat="43.70705" lon="5.83917">
        <ele>402</ele>
        <time>2016-04-30T09:17:20.000Z</time>
      </trkpt>
      <trkpt lat="43.70705" lon="5.83917">
        <ele>402</ele>
        <time>2016-04-30T09:17:22.000Z</time>
      </trkpt>
      <trkpt lat="43.70705" lon="5.83917">
        <ele>402</ele>
        <time>2016-04-30T09:17:24.000Z</time>
      </trkpt>
      <trkpt lat="43.70705" lon="5.83917">
        <ele>402</ele>
        <time>2016-04-30T09:17:26.000Z</time>
      </trkpt>
      <trkpt lat="43.70705" lon="5.83917">
        <ele>402</ele>
        <time>2016-04-30T09:17:28.000Z</time>
      </trkpt>
      <trkpt lat="43.70705" lon="5.83917">
        <ele>402</ele>
        <time>2016-04-30T09:17:30.000Z</time>
      </trkpt>
      <trkpt lat="43.70705" lon="5.83917">
        <ele>402</ele>
        <time>2016-04-30T09:17:32.000Z</time>
      </trkpt>
      <trkpt lat="43.70705" lon="5.83917">
        <ele>402</ele>
        <time>2016-04-30T09:17:34.000Z</time>
      </trkpt>
      <trkpt lat="43.70705" lon="5.83917">
        <ele>402</ele>
        <time>2016-04-30T09:17:36.000Z</time>
      </trkpt>
      <trkpt lat="43.70705" lon="5.83917">
        <ele>402</ele>
        <time>2016-04-30T09:17:38.000Z</time>
      </trkpt>
      <trkpt lat="43.70705" lon="5.83917">
        <ele>402</ele>
        <time>2016-04-30T09:17:40.000Z</time>
      </trkpt>
      <trkpt lat="43.70785" lon="5.83862">
        <ele>410</ele>
        <time>2016-04-30T09:17:46.000Z</time>
      </trkpt>
      <trkpt lat="43.70828" lon="5.83834">
        <ele>410</ele>
        <time>2016-04-30T09:17:48.000Z</time>
      </trkpt>
      <trkpt lat="43.70852" lon="5.8382">
        <ele>410</ele>
        <time>2016-04-30T09:17:50.000Z</time>
      </trkpt>
      <trkpt lat="43.70868" lon="5.83812">
        <ele>410</ele>
        <time>2016-04-30T09:17:52.000Z</time>
      </trkpt>
      <trkpt lat="43.70878" lon="5.83808">
        <ele>410</ele>
        <time>2016-04-30T09:17:54.000Z</time>
      </trkpt>
      <trkpt lat="43.70896" lon="5.83803">
        <ele>411</ele>
        <time>2016-04-30T09:17:56.000Z</time>
      </trkpt>
      <trkpt lat="43.7091" lon="5.83801">
        <ele>409</ele>
        <time>2016-04-30T09:18:00.000Z</time>
      </trkpt>
      <trkpt lat="43.70925" lon="5.83799">
        <ele>410</ele>
        <time>2016-04-30T09:18:04.000Z</time>
      </trkpt>
      <trkpt lat="43.70939" lon="5.83796">
        <ele>409</ele>
        <time>2016-04-30T09:18:08.000Z</time>
      </trkpt>
      <trkpt lat="43.70954" lon="5.8379">
        <ele>409</ele>
        <time>2016-04-30T09:18:12.000Z</time>
      </trkpt>
      <trkpt lat="43.70968" lon="5.83783">
        <ele>409</ele>
        <time>2016-04-30T09:18:16.000Z</time>
      </trkpt>
      <trkpt lat="43.70968" lon="5.83783">
        <ele>409</ele>
        <time>2016-04-30T09:18:20.000Z</time>
      </trkpt>
      <trkpt lat="43.70968" lon="5.83783">
        <ele>409</ele>
        <time>2016-04-30T09:18:22.000Z</time>
      </trkpt>
      <trkpt lat="43.70968" lon="5.83783">
        <ele>409</ele>
        <time>2016-04-30T09:18:24.000Z</time>
      </trkpt>
      <trkpt lat="43.70997" lon="5.83756">
        <ele>410</ele>
        <time>2016-04-30T09:18:26.000Z</time>
      </trkpt>
      <trkpt lat="43.71008" lon="5.83745">
        <ele>411</ele>
        <time>2016-04-30T09:18:30.000Z</time>
      </trkpt>
      <trkpt lat="43.71008" lon="5.83745">
        <ele>411</ele>
        <time>2016-04-30T09:18:32.000Z</time>
      </trkpt>
      <trkpt lat="43.71008" lon="5.83745">
        <ele>411</ele>
        <time>2016-04-30T09:18:34.000Z</time>
      </trkpt>
      <trkpt lat="43.71008" lon="5.83745">
        <ele>411</ele>
        <time>2016-04-30T09:18:36.000Z</time>
      </trkpt>
      <trkpt lat="43.71008" lon="5.83745">
        <ele>411</ele>
        <time>2016-04-30T09:18:38.000Z</time>
      </trkpt>
      <trkpt lat="43.71008" lon="5.83745">
        <ele>411</ele>
        <time>2016-04-30T09:18:40.000Z</time>
      </trkpt>
      <trkpt lat="43.71008" lon="5.83745">
        <ele>411</ele>
        <time>2016-04-30T09:18:42.000Z</time>
      </trkpt>
      <trkpt lat="43.71008" lon="5.83745">
        <ele>411</ele>
        <time>2016-04-30T09:18:44.000Z</time>
      </trkpt>
      <trkpt lat="43.71008" lon="5.83745">
        <ele>411</ele>
        <time>2016-04-30T09:18:46.000Z</time>
      </trkpt>
      <trkpt lat="43.71008" lon="5.83745">
        <ele>411</ele>
        <time>2016-04-30T09:18:48.000Z</time>
      </trkpt>
      <trkpt lat="43.71063" lon="5.83677">
        <ele>411</ele>
        <time>2016-04-30T09:18:54.000Z</time>
      </trkpt>
      <trkpt lat="43.7107" lon="5.83662">
        <ele>412</ele>
        <time>2016-04-30T09:18:58.000Z</time>
      </trkpt>
      <trkpt lat="43.71071" lon="5.83647">
        <ele>413</ele>
        <time>2016-04-30T09:19:02.000Z</time>
      </trkpt>
      <trkpt lat="43.71071" lon="5.83647">
        <ele>413</ele>
        <time>2016-04-30T09:19:04.000Z</time>
      </trkpt>
      <trkpt lat="43.71071" lon="5.83647">
        <ele>413</ele>
        <time>2016-04-30T09:19:06.000Z</time>
      </trkpt>
      <trkpt lat="43.71071" lon="5.83647">
        <ele>413</ele>
        <time>2016-04-30T09:19:08.000Z</time>
      </trkpt>
      <trkpt lat="43.71048" lon="5.83598">
        <ele>411</ele>
        <time>2016-04-30T09:19:12.000Z</time>
      </trkpt>
      <trkpt lat="43.71038" lon="5.83584">
        <ele>408</ele>
        <time>2016-04-30T09:19:14.000Z</time>
      </trkpt>
      <trkpt lat="43.71029" lon="5.83569">
        <ele>407</ele>
        <time>2016-04-30T09:19:16.000Z</time>
      </trkpt>
      <trkpt lat="43.71021" lon="5.83553">
        <ele>405</ele>
        <time>2016-04-30T09:19:18.000Z</time>
      </trkpt>
      <trkpt lat="43.71009" lon="5.83537">
        <ele>403</ele>
        <time>2016-04-30T09:19:20.000Z</time>
      </trkpt>
      <trkpt lat="43.70996" lon="5.83522">
        <ele>401</ele>
        <time>2016-04-30T09:19:22.000Z</time>
      </trkpt>
      <trkpt lat="43.70983" lon="5.83509">
        <ele>399</ele>
        <time>2016-04-30T09:19:24.000Z</time>
      </trkpt>
      <trkpt lat="43.7097" lon="5.835">
        <ele>399</ele>
        <time>2016-04-30T09:19:26.000Z</time>
      </trkpt>
      <trkpt lat="43.70961" lon="5.83495">
        <ele>398</ele>
        <time>2016-04-30T09:19:28.000Z</time>
      </trkpt>
      <trkpt lat="43.70961" lon="5.83495">
        <ele>398</ele>
        <time>2016-04-30T09:19:30.000Z</time>
      </trkpt>
      <trkpt lat="43.70961" lon="5.83495">
        <ele>398</ele>
        <time>2016-04-30T09:19:32.000Z</time>
      </trkpt>
      <trkpt lat="43.70961" lon="5.83495">
        <ele>398</ele>
        <time>2016-04-30T09:19:34.000Z</time>
      </trkpt>
      <trkpt lat="43.70961" lon="5.83495">
        <ele>398</ele>
        <time>2016-04-30T09:19:36.000Z</time>
      </trkpt>
      <trkpt lat="43.70961" lon="5.83495">
        <ele>398</ele>
        <time>2016-04-30T09:19:38.000Z</time>
      </trkpt>
      <trkpt lat="43.70961" lon="5.83495">
        <ele>398</ele>
        <time>2016-04-30T09:19:40.000Z</time>
      </trkpt>
      <trkpt lat="43.70961" lon="5.83495">
        <ele>398</ele>
        <time>2016-04-30T09:19:42.000Z</time>
      </trkpt>
      <trkpt lat="43.70961" lon="5.83495">
        <ele>398</ele>
        <time>2016-04-30T09:19:44.000Z</time>
      </trkpt>
      <trkpt lat="43.70961" lon="5.83495">
        <ele>398</ele>
        <time>2016-04-30T09:19:46.000Z</time>
      </trkpt>
      <trkpt lat="43.7097" lon="5.83433">
        <ele>397</ele>
        <time>2016-04-30T09:19:52.000Z</time>
      </trkpt>
      <trkpt lat="43.70974" lon="5.83398">
        <ele>397</ele>
        <time>2016-04-30T09:19:54.000Z</time>
      </trkpt>
      <trkpt lat="43.70974" lon="5.83398">
        <ele>397</ele>
        <time>2016-04-30T09:19:56.000Z</time>
      </trkpt>
      <trkpt lat="43.70974" lon="5.83398">
        <ele>397</ele>
        <time>2016-04-30T09:19:58.000Z</time>
      </trkpt>
      <trkpt lat="43.70974" lon="5.83398">
        <ele>397</ele>
        <time>2016-04-30T09:20:00.000Z</time>
      </trkpt>
      <trkpt lat="43.70974" lon="5.83398">
        <ele>397</ele>
        <time>2016-04-30T09:20:02.000Z</time>
      </trkpt>
      <trkpt lat="43.70974" lon="5.83398">
        <ele>397</ele>
        <time>2016-04-30T09:20:04.000Z</time>
      </trkpt>
      <trkpt lat="43.70974" lon="5.83398">
        <ele>397</ele>
        <time>2016-04-30T09:20:06.000Z</time>
      </trkpt>
      <trkpt lat="43.70974" lon="5.83398">
        <ele>397</ele>
        <time>2016-04-30T09:20:08.000Z</time>
      </trkpt>
      <trkpt lat="43.70977" lon="5.83339">
        <ele>398</ele>
        <time>2016-04-30T09:20:10.000Z</time>
      </trkpt>
      <trkpt lat="43.7098" lon="5.83304">
        <ele>398</ele>
        <time>2016-04-30T09:20:12.000Z</time>
      </trkpt>
      <trkpt lat="43.70981" lon="5.8328">
        <ele>398</ele>
        <time>2016-04-30T09:20:14.000Z</time>
      </trkpt>
      <trkpt lat="43.70981" lon="5.83263">
        <ele>398</ele>
        <time>2016-04-30T09:20:16.000Z</time>
      </trkpt>
      <trkpt lat="43.70981" lon="5.83251">
        <ele>398</ele>
        <time>2016-04-30T09:20:18.000Z</time>
      </trkpt>
      <trkpt lat="43.70981" lon="5.83251">
        <ele>398</ele>
        <time>2016-04-30T09:20:20.000Z</time>
      </trkpt>
      <trkpt lat="43.70981" lon="5.83251">
        <ele>398</ele>
        <time>2016-04-30T09:20:22.000Z</time>
      </trkpt>
      <trkpt lat="43.70981" lon="5.83251">
        <ele>398</ele>
        <time>2016-04-30T09:20:24.000Z</time>
      </trkpt>
      <trkpt lat="43.70961" lon="5.83181">
        <ele>397</ele>
        <time>2016-04-30T09:20:30.000Z</time>
      </trkpt>
      <trkpt lat="43.70949" lon="5.83179">
        <ele>396</ele>
        <time>2016-04-30T09:20:32.000Z</time>
      </trkpt>
      <trkpt lat="43.70938" lon="5.83173">
        <ele>394</ele>
        <time>2016-04-30T09:20:34.000Z</time>
      </trkpt>
      <trkpt lat="43.70927" lon="5.83167">
        <ele>393</ele>
        <time>2016-04-30T09:20:36.000Z</time>
      </trkpt>
      <trkpt lat="43.70916" lon="5.83161">
        <ele>393</ele>
        <time>2016-04-30T09:20:38.000Z</time>
      </trkpt>
      <trkpt lat="43.70906" lon="5.83155">
        <ele>392</ele>
        <time>2016-04-30T09:20:40.000Z</time>
      </trkpt>
      <trkpt lat="43.70897" lon="5.8315">
        <ele>392</ele>
        <time>2016-04-30T09:20:42.000Z</time>
      </trkpt>
      <trkpt lat="43.70897" lon="5.8315">
        <ele>392</ele>
        <time>2016-04-30T09:20:44.000Z</time>
      </trkpt>
      <trkpt lat="43.70897" lon="5.8315">
        <ele>392</ele>
        <time>2016-04-30T09:20:46.000Z</time>
      </trkpt>
      <trkpt lat="43.70897" lon="5.8315">
        <ele>392</ele>
        <time>2016-04-30T09:20:48.000Z</time>
      </trkpt>
      <trkpt lat="43.70897" lon="5.8315">
        <ele>392</ele>
        <time>2016-04-30T09:20:50.000Z</time>
      </trkpt>
      <trkpt lat="43.70897" lon="5.8315">
        <ele>392</ele>
        <time>2016-04-30T09:20:52.000Z</time>
      </trkpt>
      <trkpt lat="43.70897" lon="5.8315">
        <ele>392</ele>
        <time>2016-04-30T09:20:54.000Z</time>
      </trkpt>
      <trkpt lat="43.70897" lon="5.8315">
        <ele>392</ele>
        <time>2016-04-30T09:20:56.000Z</time>
      </trkpt>
      <trkpt lat="43.70897" lon="5.8315">
        <ele>392</ele>
        <time>2016-04-30T09:20:58.000Z</time>
      </trkpt>
      <trkpt lat="43.70897" lon="5.8315">
        <ele>392</ele>
        <time>2016-04-30T09:21:00.000Z</time>
      </trkpt>
      <trkpt lat="43.70897" lon="5.8315">
        <ele>392</ele>
        <time>2016-04-30T09:21:02.000Z</time>
      </trkpt>
      <trkpt lat="43.70897" lon="5.8315">
        <ele>392</ele>
        <time>2016-04-30T09:21:04.000Z</time>
      </trkpt>
      <trkpt lat="43.70897" lon="5.8315">
        <ele>392</ele>
        <time>2016-04-30T09:21:06.000Z</time>
      </trkpt>
      <trkpt lat="43.70897" lon="5.8315">
        <ele>392</ele>
        <time>2016-04-30T09:21:08.000Z</time>
      </trkpt>
      <trkpt lat="43.70897" lon="5.8315">
        <ele>392</ele>
        <time>2016-04-30T09:21:10.000Z</time>
      </trkpt>
      <trkpt lat="43.70897" lon="5.8315">
        <ele>392</ele>
        <time>2016-04-30T09:21:12.000Z</time>
      </trkpt>
      <trkpt lat="43.70897" lon="5.8315">
        <ele>392</ele>
        <time>2016-04-30T09:21:14.000Z</time>
      </trkpt>
      <trkpt lat="43.70897" lon="5.8315">
        <ele>392</ele>
        <time>2016-04-30T09:21:16.000Z</time>
      </trkpt>
      <trkpt lat="43.70897" lon="5.8315">
        <ele>392</ele>
        <time>2016-04-30T09:21:18.000Z</time>
      </trkpt>
      <trkpt lat="43.70897" lon="5.8315">
        <ele>392</ele>
        <time>2016-04-30T09:21:20.000Z</time>
      </trkpt>
      <trkpt lat="43.70897" lon="5.8315">
        <ele>392</ele>
        <time>2016-04-30T09:21:22.000Z</time>
      </trkpt>
      <trkpt lat="43.70897" lon="5.8315">
        <ele>392</ele>
        <time>2016-04-30T09:21:24.000Z</time>
      </trkpt>
      <trkpt lat="43.70897" lon="5.8315">
        <ele>392</ele>
        <time>2016-04-30T09:21:26.000Z</time>
      </trkpt>
      <trkpt lat="43.70897" lon="5.8315">
        <ele>392</ele>
        <time>2016-04-30T09:21:28.000Z</time>
      </trkpt>
      <trkpt lat="43.70897" lon="5.8315">
        <ele>392</ele>
        <time>2016-04-30T09:21:30.000Z</time>
      </trkpt>
      <trkpt lat="43.70897" lon="5.8315">
        <ele>392</ele>
        <time>2016-04-30T09:21:32.000Z</time>
      </trkpt>
      <trkpt lat="43.70897" lon="5.8315">
        <ele>392</ele>
        <time>2016-04-30T09:21:34.000Z</time>
      </trkpt>
      <trkpt lat="43.70897" lon="5.8315">
        <ele>392</ele>
        <time>2016-04-30T09:21:36.000Z</time>
      </trkpt>
      <trkpt lat="43.70897" lon="5.8315">
        <ele>392</ele>
        <time>2016-04-30T09:21:38.000Z</time>
      </trkpt>
      <trkpt lat="43.70897" lon="5.8315">
        <ele>392</ele>
        <time>2016-04-30T09:21:40.000Z</time>
      </trkpt>
      <trkpt lat="43.70897" lon="5.8315">
        <ele>392</ele>
        <time>2016-04-30T09:21:42.000Z</time>
      </trkpt>
      <trkpt lat="43.70897" lon="5.8315">
        <ele>392</ele>
        <time>2016-04-30T09:21:44.000Z</time>
      </trkpt>
      <trkpt lat="43.70897" lon="5.8315">
        <ele>392</ele>
        <time>2016-04-30T09:21:46.000Z</time>
      </trkpt>
      <trkpt lat="43.70897" lon="5.8315">
        <ele>392</ele>
        <time>2016-04-30T09:21:48.000Z</time>
      </trkpt>
      <trkpt lat="43.70897" lon="5.8315">
        <ele>392</ele>
        <time>2016-04-30T09:21:50.000Z</time>
      </trkpt>
      <trkpt lat="43.70897" lon="5.8315">
        <ele>392</ele>
        <time>2016-04-30T09:21:52.000Z</time>
      </trkpt>
      <trkpt lat="43.70897" lon="5.8315">
        <ele>392</ele>
        <time>2016-04-30T09:21:54.000Z</time>
      </trkpt>
      <trkpt lat="43.70897" lon="5.8315">
        <ele>392</ele>
        <time>2016-04-30T09:21:56.000Z</time>
      </trkpt>
      <trkpt lat="43.70897" lon="5.8315">
        <ele>392</ele>
        <time>2016-04-30T09:21:58.000Z</time>
      </trkpt>
      <trkpt lat="43.70897" lon="5.8315">
        <ele>392</ele>
        <time>2016-04-30T09:22:00.000Z</time>
      </trkpt>
      <trkpt lat="43.70897" lon="5.8315">
        <ele>392</ele>
        <time>2016-04-30T09:22:02.000Z</time>
      </trkpt>
      <trkpt lat="43.70748" lon="5.83107">
        <ele>398</ele>
        <time>2016-04-30T09:22:06.000Z</time>
      </trkpt>
      <trkpt lat="43.70672" lon="5.83083">
        <ele>398</ele>
        <time>2016-04-30T09:22:08.000Z</time>
      </trkpt>
      <trkpt lat="43.70631" lon="5.83068">
        <ele>399</ele>
        <time>2016-04-30T09:22:10.000Z</time>
      </trkpt>
      <trkpt lat="43.70609" lon="5.83058">
        <ele>399</ele>
        <time>2016-04-30T09:22:12.000Z</time>
      </trkpt>
      <trkpt lat="43.70596" lon="5.8305">
        <ele>399</ele>
        <time>2016-04-30T09:22:14.000Z</time>
      </trkpt>
      <trkpt lat="43.70578" lon="5.83037">
        <ele>399</ele>
        <time>2016-04-30T09:22:16.000Z</time>
      </trkpt>
      <trkpt lat="43.70568" lon="5.83028">
        <ele>400</ele>
        <time>2016-04-30T09:22:20.000Z</time>
      </trkpt>
      <trkpt lat="43.70559" lon="5.83017">
        <ele>401</ele>
        <time>2016-04-30T09:22:24.000Z</time>
      </trkpt>
      <trkpt lat="43.70549" lon="5.83008">
        <ele>401</ele>
        <time>2016-04-30T09:22:28.000Z</time>
      </trkpt>
      <trkpt lat="43.70539" lon="5.82999">
        <ele>401</ele>
        <time>2016-04-30T09:22:32.000Z</time>
      </trkpt>
      <trkpt lat="43.70531" lon="5.8299">
        <ele>403</ele>
        <time>2016-04-30T09:22:36.000Z</time>
      </trkpt>
      <trkpt lat="43.70521" lon="5.82981">
        <ele>403</ele>
        <time>2016-04-30T09:22:40.000Z</time>
      </trkpt>
      <trkpt lat="43.70511" lon="5.82972">
        <ele>405</ele>
        <time>2016-04-30T09:22:44.000Z</time>
      </trkpt>
      <trkpt lat="43.70501" lon="5.82965">
        <ele>406</ele>
        <time>2016-04-30T09:22:48.000Z</time>
      </trkpt>
      <trkpt lat="43.70491" lon="5.82957">
        <ele>405</ele>
        <time>2016-04-30T09:22:52.000Z</time>
      </trkpt>
      <trkpt lat="43.7048" lon="5.8295">
        <ele>404</ele>
        <time>2016-04-30T09:22:56.000Z</time>
      </trkpt>
      <trkpt lat="43.70467" lon="5.82941">
        <ele>404</ele>
        <time>2016-04-30T09:23:00.000Z</time>
      </trkpt>
      <trkpt lat="43.70453" lon="5.82931">
        <ele>405</ele>
        <time>2016-04-30T09:23:04.000Z</time>
      </trkpt>
      <trkpt lat="43.70441" lon="5.82922">
        <ele>404</ele>
        <time>2016-04-30T09:23:08.000Z</time>
      </trkpt>
      <trkpt lat="43.70428" lon="5.82912">
        <ele>404</ele>
        <time>2016-04-30T09:23:12.000Z</time>
      </trkpt>
      <trkpt lat="43.70415" lon="5.82901">
        <ele>404</ele>
        <time>2016-04-30T09:23:16.000Z</time>
      </trkpt>
      <trkpt lat="43.70415" lon="5.82901">
        <ele>404</ele>
        <time>2016-04-30T09:23:20.000Z</time>
      </trkpt>
      <trkpt lat="43.70415" lon="5.82901">
        <ele>404</ele>
        <time>2016-04-30T09:23:22.000Z</time>
      </trkpt>
      <trkpt lat="43.70415" lon="5.82901">
        <ele>404</ele>
        <time>2016-04-30T09:23:24.000Z</time>
      </trkpt>
      <trkpt lat="43.70415" lon="5.82901">
        <ele>404</ele>
        <time>2016-04-30T09:23:26.000Z</time>
      </trkpt>
      <trkpt lat="43.70415" lon="5.82901">
        <ele>404</ele>
        <time>2016-04-30T09:23:28.000Z</time>
      </trkpt>
      <trkpt lat="43.70415" lon="5.82901">
        <ele>404</ele>
        <time>2016-04-30T09:23:30.000Z</time>
      </trkpt>
      <trkpt lat="43.70369" lon="5.82871">
        <ele>404</ele>
        <time>2016-04-30T09:23:34.000Z</time>
      </trkpt>
      <trkpt lat="43.70353" lon="5.82862">
        <ele>403</ele>
        <time>2016-04-30T09:23:38.000Z</time>
      </trkpt>
      <trkpt lat="43.70344" lon="5.82857">
        <ele>402</ele>
        <time>2016-04-30T09:23:40.000Z</time>
      </trkpt>
      <trkpt lat="43.70333" lon="5.82849">
        <ele>400</ele>
        <time>2016-04-30T09:23:42.000Z</time>
      </trkpt>
      <trkpt lat="43.70321" lon="5.8284">
        <ele>399</ele>
        <time>2016-04-30T09:23:44.000Z</time>
      </trkpt>
      <trkpt lat="43.70309" lon="5.82829">
        <ele>397</ele>
        <time>2016-04-30T09:23:46.000Z</time>
      </trkpt>
      <trkpt lat="43.70296" lon="5.82818">
        <ele>396</ele>
        <time>2016-04-30T09:23:48.000Z</time>
      </trkpt>
      <trkpt lat="43.70283" lon="5.82807">
        <ele>395</ele>
        <time>2016-04-30T09:23:50.000Z</time>
      </trkpt>
      <trkpt lat="43.70273" lon="5.82799">
        <ele>394</ele>
        <time>2016-04-30T09:23:52.000Z</time>
      </trkpt>
      <trkpt lat="43.70273" lon="5.82799">
        <ele>394</ele>
        <time>2016-04-30T09:23:54.000Z</time>
      </trkpt>
      <trkpt lat="43.70273" lon="5.82799">
        <ele>394</ele>
        <time>2016-04-30T09:23:56.000Z</time>
      </trkpt>
      <trkpt lat="43.70273" lon="5.82799">
        <ele>394</ele>
        <time>2016-04-30T09:23:58.000Z</time>
      </trkpt>
      <trkpt lat="43.70273" lon="5.82799">
        <ele>394</ele>
        <time>2016-04-30T09:24:01.000Z</time>
      </trkpt>
      <trkpt lat="43.70273" lon="5.82799">
        <ele>394</ele>
        <time>2016-04-30T09:24:02.000Z</time>
      </trkpt>
      <trkpt lat="43.70243" lon="5.82778">
        <ele>392</ele>
        <time>2016-04-30T09:24:04.000Z</time>
      </trkpt>
      <trkpt lat="43.70234" lon="5.82769">
        <ele>391</ele>
        <time>2016-04-30T09:24:06.000Z</time>
      </trkpt>
      <trkpt lat="43.70226" lon="5.8276">
        <ele>391</ele>
        <time>2016-04-30T09:24:08.000Z</time>
      </trkpt>
      <trkpt lat="43.70218" lon="5.82751">
        <ele>390</ele>
        <time>2016-04-30T09:24:10.000Z</time>
      </trkpt>
      <trkpt lat="43.70212" lon="5.82743">
        <ele>389</ele>
        <time>2016-04-30T09:24:14.000Z</time>
      </trkpt>
      <trkpt lat="43.70205" lon="5.82735">
        <ele>388</ele>
        <time>2016-04-30T09:24:16.000Z</time>
      </trkpt>
      <trkpt lat="43.70205" lon="5.82735">
        <ele>388</ele>
        <time>2016-04-30T09:24:18.000Z</time>
      </trkpt>
      <trkpt lat="43.70205" lon="5.82735">
        <ele>388</ele>
        <time>2016-04-30T09:24:20.000Z</time>
      </trkpt>
      <trkpt lat="43.70205" lon="5.82735">
        <ele>388</ele>
        <time>2016-04-30T09:24:22.000Z</time>
      </trkpt>
      <trkpt lat="43.70205" lon="5.82735">
        <ele>388</ele>
        <time>2016-04-30T09:24:24.000Z</time>
      </trkpt>
      <trkpt lat="43.70205" lon="5.82735">
        <ele>388</ele>
        <time>2016-04-30T09:24:26.000Z</time>
      </trkpt>
      <trkpt lat="43.70205" lon="5.82735">
        <ele>388</ele>
        <time>2016-04-30T09:24:28.000Z</time>
      </trkpt>
      <trkpt lat="43.70205" lon="5.82735">
        <ele>388</ele>
        <time>2016-04-30T09:24:30.000Z</time>
      </trkpt>
      <trkpt lat="43.70205" lon="5.82735">
        <ele>388</ele>
        <time>2016-04-30T09:24:32.000Z</time>
      </trkpt>
      <trkpt lat="43.70205" lon="5.82735">
        <ele>388</ele>
        <time>2016-04-30T09:24:34.000Z</time>
      </trkpt>
      <trkpt lat="43.70205" lon="5.82735">
        <ele>388</ele>
        <time>2016-04-30T09:24:36.000Z</time>
      </trkpt>
      <trkpt lat="43.70205" lon="5.82735">
        <ele>388</ele>
        <time>2016-04-30T09:24:38.000Z</time>
      </trkpt>
      <trkpt lat="43.70205" lon="5.82735">
        <ele>388</ele>
        <time>2016-04-30T09:24:46.000Z</time>
      </trkpt>
      <trkpt lat="43.70205" lon="5.82735">
        <ele>388</ele>
        <time>2016-04-30T09:24:48.000Z</time>
      </trkpt>
      <trkpt lat="43.70205" lon="5.82735">
        <ele>388</ele>
        <time>2016-04-30T09:24:50.000Z</time>
      </trkpt>
      <trkpt lat="43.70205" lon="5.82735">
        <ele>388</ele>
        <time>2016-04-30T09:24:52.000Z</time>
      </trkpt>
      <trkpt lat="43.70153" lon="5.82667">
        <ele>388</ele>
        <time>2016-04-30T09:24:58.000Z</time>
      </trkpt>
      <trkpt lat="43.70126" lon="5.82632">
        <ele>388</ele>
        <time>2016-04-30T09:25:00.000Z</time>
      </trkpt>
      <trkpt lat="43.70126" lon="5.82632">
        <ele>388</ele>
        <time>2016-04-30T09:25:02.000Z</time>
      </trkpt>
      <trkpt lat="43.70126" lon="5.82632">
        <ele>388</ele>
        <time>2016-04-30T09:25:04.000Z</time>
      </trkpt>
      <trkpt lat="43.70126" lon="5.82632">
        <ele>388</ele>
        <time>2016-04-30T09:25:06.000Z</time>
      </trkpt>
      <trkpt lat="43.70126" lon="5.82632">
        <ele>388</ele>
        <time>2016-04-30T09:25:08.000Z</time>
      </trkpt>
      <trkpt lat="43.70126" lon="5.82632">
        <ele>388</ele>
        <time>2016-04-30T09:25:10.000Z</time>
      </trkpt>
      <trkpt lat="43.70126" lon="5.82632">
        <ele>388</ele>
        <time>2016-04-30T09:25:12.000Z</time>
      </trkpt>
      <trkpt lat="43.701" lon="5.82627">
        <ele>388</ele>
        <time>2016-04-30T09:25:16.000Z</time>
      </trkpt>
      <trkpt lat="43.70086" lon="5.82628">
        <ele>388</ele>
        <time>2016-04-30T09:25:18.000Z</time>
      </trkpt>
      <trkpt lat="43.70077" lon="5.82632">
        <ele>388</ele>
        <time>2016-04-30T09:25:20.000Z</time>
      </trkpt>
      <trkpt lat="43.7007" lon="5.82637">
        <ele>389</ele>
        <time>2016-04-30T09:25:22.000Z</time>
      </trkpt>
      <trkpt lat="43.70065" lon="5.82643">
        <ele>389</ele>
        <time>2016-04-30T09:25:24.000Z</time>
      </trkpt>
      <trkpt lat="43.70057" lon="5.82657">
        <ele>389</ele>
        <time>2016-04-30T09:25:26.000Z</time>
      </trkpt>
      <trkpt lat="43.70049" lon="5.82673">
        <ele>389</ele>
        <time>2016-04-30T09:25:30.000Z</time>
      </trkpt>
      <trkpt lat="43.70041" lon="5.82686">
        <ele>389</ele>
        <time>2016-04-30T09:25:34.000Z</time>
      </trkpt>
      <trkpt lat="43.70041" lon="5.82686">
        <ele>389</ele>
        <time>2016-04-30T09:25:36.000Z</time>
      </trkpt>
      <trkpt lat="43.70029" lon="5.82691">
        <ele>389</ele>
        <time>2016-04-30T09:25:38.000Z</time>
      </trkpt>
      <trkpt lat="43.70029" lon="5.82691">
        <ele>389</ele>
        <time>2016-04-30T09:25:40.000Z</time>
      </trkpt>
      <trkpt lat="43.70029" lon="5.82691">
        <ele>389</ele>
        <time>2016-04-30T09:25:42.000Z</time>
      </trkpt>
      <trkpt lat="43.70029" lon="5.82691">
        <ele>389</ele>
        <time>2016-04-30T09:25:44.000Z</time>
      </trkpt>
      <trkpt lat="43.70029" lon="5.82691">
        <ele>389</ele>
        <time>2016-04-30T09:25:46.000Z</time>
      </trkpt>
      <trkpt lat="43.69991" lon="5.82712">
        <ele>394</ele>
        <time>2016-04-30T09:25:52.000Z</time>
      </trkpt>
      <trkpt lat="43.69981" lon="5.82716">
        <ele>394</ele>
        <time>2016-04-30T09:25:56.000Z</time>
      </trkpt>
      <trkpt lat="43.69981" lon="5.82716">
        <ele>394</ele>
        <time>2016-04-30T09:26:00.000Z</time>
      </trkpt>
      <trkpt lat="43.69981" lon="5.82716">
        <ele>394</ele>
        <time>2016-04-30T09:26:02.000Z</time>
      </trkpt>
      <trkpt lat="43.69981" lon="5.82716">
        <ele>394</ele>
        <time>2016-04-30T09:26:04.000Z</time>
      </trkpt>
      <trkpt lat="43.69981" lon="5.82716">
        <ele>394</ele>
        <time>2016-04-30T09:26:06.000Z</time>
      </trkpt>
      <trkpt lat="43.69948" lon="5.82732">
        <ele>395</ele>
        <time>2016-04-30T09:26:10.000Z</time>
      </trkpt>
      <trkpt lat="43.69936" lon="5.82736">
        <ele>395</ele>
        <time>2016-04-30T09:26:14.000Z</time>
      </trkpt>
      <trkpt lat="43.69924" lon="5.82734">
        <ele>395</ele>
        <time>2016-04-30T09:26:18.000Z</time>
      </trkpt>
      <trkpt lat="43.69924" lon="5.82734">
        <ele>395</ele>
        <time>2016-04-30T09:26:20.000Z</time>
      </trkpt>
      <trkpt lat="43.69924" lon="5.82734">
        <ele>395</ele>
        <time>2016-04-30T09:26:22.000Z</time>
      </trkpt>
      <trkpt lat="43.69924" lon="5.82734">
        <ele>395</ele>
        <time>2016-04-30T09:26:24.000Z</time>
      </trkpt>
      <trkpt lat="43.69924" lon="5.82734">
        <ele>395</ele>
        <time>2016-04-30T09:26:26.000Z</time>
      </trkpt>
      <trkpt lat="43.69924" lon="5.82734">
        <ele>395</ele>
        <time>2016-04-30T09:26:28.000Z</time>
      </trkpt>
      <trkpt lat="43.69924" lon="5.82734">
        <ele>395</ele>
        <time>2016-04-30T09:26:30.000Z</time>
      </trkpt>
      <trkpt lat="43.69924" lon="5.82734">
        <ele>395</ele>
        <time>2016-04-30T09:26:32.000Z</time>
      </trkpt>
      <trkpt lat="43.69924" lon="5.82734">
        <ele>395</ele>
        <time>2016-04-30T09:26:34.000Z</time>
      </trkpt>
      <trkpt lat="43.69924" lon="5.82734">
        <ele>395</ele>
        <time>2016-04-30T09:26:36.000Z</time>
      </trkpt>
      <trkpt lat="43.69924" lon="5.82734">
        <ele>395</ele>
        <time>2016-04-30T09:26:38.000Z</time>
      </trkpt>
      <trkpt lat="43.69924" lon="5.82734">
        <ele>395</ele>
        <time>2016-04-30T09:26:40.000Z</time>
      </trkpt>
      <trkpt lat="43.69924" lon="5.82734">
        <ele>395</ele>
        <time>2016-04-30T09:26:42.000Z</time>
      </trkpt>
      <trkpt lat="43.69924" lon="5.82734">
        <ele>395</ele>
        <time>2016-04-30T09:26:44.000Z</time>
      </trkpt>
      <trkpt lat="43.69924" lon="5.82734">
        <ele>395</ele>
        <time>2016-04-30T09:26:46.000Z</time>
      </trkpt>
      <trkpt lat="43.69924" lon="5.82734">
        <ele>395</ele>
        <time>2016-04-30T09:26:48.000Z</time>
      </trkpt>
      <trkpt lat="43.6989" lon="5.82754">
        <ele>400</ele>
        <time>2016-04-30T09:26:50.000Z</time>
      </trkpt>
      <trkpt lat="43.69871" lon="5.82766">
        <ele>399</ele>
        <time>2016-04-30T09:26:52.000Z</time>
      </trkpt>
      <trkpt lat="43.69857" lon="5.82774">
        <ele>399</ele>
        <time>2016-04-30T09:26:54.000Z</time>
      </trkpt>
      <trkpt lat="43.69847" lon="5.8278">
        <ele>398</ele>
        <time>2016-04-30T09:26:56.000Z</time>
      </trkpt>
      <trkpt lat="43.69839" lon="5.82785">
        <ele>399</ele>
        <time>2016-04-30T09:26:58.000Z</time>
      </trkpt>
      <trkpt lat="43.69824" lon="5.82795">
        <ele>399</ele>
        <time>2016-04-30T09:27:00.000Z</time>
      </trkpt>
      <trkpt lat="43.69812" lon="5.82805">
        <ele>399</ele>
        <time>2016-04-30T09:27:04.000Z</time>
      </trkpt>
      <trkpt lat="43.698" lon="5.82814">
        <ele>399</ele>
        <time>2016-04-30T09:27:08.000Z</time>
      </trkpt>
      <trkpt lat="43.69787" lon="5.82824">
        <ele>398</ele>
        <time>2016-04-30T09:27:12.000Z</time>
      </trkpt>
      <trkpt lat="43.69775" lon="5.82833">
        <ele>398</ele>
        <time>2016-04-30T09:27:16.000Z</time>
      </trkpt>
      <trkpt lat="43.69762" lon="5.82842">
        <ele>397</ele>
        <time>2016-04-30T09:27:20.000Z</time>
      </trkpt>
      <trkpt lat="43.69762" lon="5.82842">
        <ele>397</ele>
        <time>2016-04-30T09:27:24.000Z</time>
      </trkpt>
      <trkpt lat="43.69762" lon="5.82842">
        <ele>397</ele>
        <time>2016-04-30T09:27:26.000Z</time>
      </trkpt>
      <trkpt lat="43.69762" lon="5.82842">
        <ele>397</ele>
        <time>2016-04-30T09:27:28.000Z</time>
      </trkpt>
      <trkpt lat="43.69762" lon="5.82842">
        <ele>397</ele>
        <time>2016-04-30T09:27:30.000Z</time>
      </trkpt>
      <trkpt lat="43.69762" lon="5.82842">
        <ele>397</ele>
        <time>2016-04-30T09:27:32.000Z</time>
      </trkpt>
      <trkpt lat="43.69762" lon="5.82842">
        <ele>397</ele>
        <time>2016-04-30T09:27:34.000Z</time>
      </trkpt>
      <trkpt lat="43.69715" lon="5.82877">
        <ele>399</ele>
        <time>2016-04-30T09:27:40.000Z</time>
      </trkpt>
      <trkpt lat="43.69715" lon="5.82877">
        <ele>399</ele>
        <time>2016-04-30T09:27:44.000Z</time>
      </trkpt>
      <trkpt lat="43.69715" lon="5.82877">
        <ele>399</ele>
        <time>2016-04-30T09:27:46.000Z</time>
      </trkpt>
      <trkpt lat="43.69715" lon="5.82877">
        <ele>399</ele>
        <time>2016-04-30T09:27:48.000Z</time>
      </trkpt>
      <trkpt lat="43.69715" lon="5.82877">
        <ele>399</ele>
        <time>2016-04-30T09:27:52.000Z</time>
      </trkpt>
      <trkpt lat="43.69715" lon="5.82877">
        <ele>399</ele>
        <time>2016-04-30T09:27:54.000Z</time>
      </trkpt>
      <trkpt lat="43.69715" lon="5.82877">
        <ele>399</ele>
        <time>2016-04-30T09:27:56.000Z</time>
      </trkpt>
      <trkpt lat="43.69715" lon="5.82877">
        <ele>399</ele>
        <time>2016-04-30T09:27:58.000Z</time>
      </trkpt>
      <trkpt lat="43.69715" lon="5.82877">
        <ele>399</ele>
        <time>2016-04-30T09:28:00.000Z</time>
      </trkpt>
      <trkpt lat="43.69715" lon="5.82877">
        <ele>399</ele>
        <time>2016-04-30T09:28:02.000Z</time>
      </trkpt>
      <trkpt lat="43.69715" lon="5.82877">
        <ele>399</ele>
        <time>2016-04-30T09:28:04.000Z</time>
      </trkpt>
      <trkpt lat="43.69715" lon="5.82877">
        <ele>399</ele>
        <time>2016-04-30T09:28:06.000Z</time>
      </trkpt>
      <trkpt lat="43.6969" lon="5.82888">
        <ele>396</ele>
        <time>2016-04-30T09:28:52.000Z</time>
      </trkpt>
      <trkpt lat="43.6969" lon="5.82888">
        <ele>396</ele>
        <time>2016-04-30T09:28:58.000Z</time>
      </trkpt>
      <trkpt lat="43.6969" lon="5.82888">
        <ele>396</ele>
        <time>2016-04-30T09:29:00.000Z</time>
      </trkpt>
      <trkpt lat="43.69678" lon="5.829">
        <ele>398</ele>
        <time>2016-04-30T09:29:19.000Z</time>
      </trkpt>
      <trkpt lat="43.6967" lon="5.82907">
        <ele>398</ele>
        <time>2016-04-30T09:29:23.000Z</time>
      </trkpt>
      <trkpt lat="43.6966" lon="5.82913">
        <ele>398</ele>
        <time>2016-04-30T09:29:27.000Z</time>
      </trkpt>
      <trkpt lat="43.6965" lon="5.82919">
        <ele>398</ele>
        <time>2016-04-30T09:29:31.000Z</time>
      </trkpt>
      <trkpt lat="43.69639" lon="5.82926">
        <ele>399</ele>
        <time>2016-04-30T09:29:35.000Z</time>
      </trkpt>
      <trkpt lat="43.69629" lon="5.82934">
        <ele>400</ele>
        <time>2016-04-30T09:29:39.000Z</time>
      </trkpt>
      <trkpt lat="43.69617" lon="5.82942">
        <ele>400</ele>
        <time>2016-04-30T09:29:43.000Z</time>
      </trkpt>
      <trkpt lat="43.69606" lon="5.82949">
        <ele>400</ele>
        <time>2016-04-30T09:29:47.000Z</time>
      </trkpt>
      <trkpt lat="43.69594" lon="5.82955">
        <ele>400</ele>
        <time>2016-04-30T09:29:51.000Z</time>
      </trkpt>
      <trkpt lat="43.69581" lon="5.82953">
        <ele>401</ele>
        <time>2016-04-30T09:29:55.000Z</time>
      </trkpt>
      <trkpt lat="43.69568" lon="5.82949">
        <ele>400</ele>
        <time>2016-04-30T09:29:59.000Z</time>
      </trkpt>
      <trkpt lat="43.69556" lon="5.82946">
        <ele>399</ele>
        <time>2016-04-30T09:30:03.000Z</time>
      </trkpt>
      <trkpt lat="43.69544" lon="5.82943">
        <ele>399</ele>
        <time>2016-04-30T09:30:07.000Z</time>
      </trkpt>
      <trkpt lat="43.69531" lon="5.8294">
        <ele>398</ele>
        <time>2016-04-30T09:30:11.000Z</time>
      </trkpt>
      <trkpt lat="43.69518" lon="5.82935">
        <ele>399</ele>
        <time>2016-04-30T09:30:15.000Z</time>
      </trkpt>
      <trkpt lat="43.69505" lon="5.82931">
        <ele>398</ele>
        <time>2016-04-30T09:30:19.000Z</time>
      </trkpt>
      <trkpt lat="43.69505" lon="5.82931">
        <ele>398</ele>
        <time>2016-04-30T09:30:23.000Z</time>
      </trkpt>
      <trkpt lat="43.69505" lon="5.82931">
        <ele>398</ele>
        <time>2016-04-30T09:30:25.000Z</time>
      </trkpt>
      <trkpt lat="43.69505" lon="5.82931">
        <ele>398</ele>
        <time>2016-04-30T09:30:27.000Z</time>
      </trkpt>
      <trkpt lat="43.69505" lon="5.82931">
        <ele>398</ele>
        <time>2016-04-30T09:30:29.000Z</time>
      </trkpt>
      <trkpt lat="43.69505" lon="5.82931">
        <ele>398</ele>
        <time>2016-04-30T09:30:31.000Z</time>
      </trkpt>
      <trkpt lat="43.69505" lon="5.82931">
        <ele>398</ele>
        <time>2016-04-30T09:30:33.000Z</time>
      </trkpt>
      <trkpt lat="43.69505" lon="5.82931">
        <ele>398</ele>
        <time>2016-04-30T09:30:35.000Z</time>
      </trkpt>
      <trkpt lat="43.69505" lon="5.82931">
        <ele>398</ele>
        <time>2016-04-30T09:30:37.000Z</time>
      </trkpt>
      <trkpt lat="43.69505" lon="5.82931">
        <ele>398</ele>
        <time>2016-04-30T09:30:39.000Z</time>
      </trkpt>
      <trkpt lat="43.69505" lon="5.82931">
        <ele>398</ele>
        <time>2016-04-30T09:30:41.000Z</time>
      </trkpt>
      <trkpt lat="43.69505" lon="5.82931">
        <ele>398</ele>
        <time>2016-04-30T09:30:43.000Z</time>
      </trkpt>
      <trkpt lat="43.69505" lon="5.82931">
        <ele>398</ele>
        <time>2016-04-30T09:30:45.000Z</time>
      </trkpt>
      <trkpt lat="43.69505" lon="5.82931">
        <ele>398</ele>
        <time>2016-04-30T09:30:47.000Z</time>
      </trkpt>
      <trkpt lat="43.69505" lon="5.82931">
        <ele>398</ele>
        <time>2016-04-30T09:30:49.000Z</time>
      </trkpt>
      <trkpt lat="43.69505" lon="5.82931">
        <ele>398</ele>
        <time>2016-04-30T09:30:51.000Z</time>
      </trkpt>
      <trkpt lat="43.69505" lon="5.82931">
        <ele>398</ele>
        <time>2016-04-30T09:30:53.000Z</time>
      </trkpt>
      <trkpt lat="43.69505" lon="5.82931">
        <ele>398</ele>
        <time>2016-04-30T09:30:55.000Z</time>
      </trkpt>
      <trkpt lat="43.69505" lon="5.82931">
        <ele>398</ele>
        <time>2016-04-30T09:30:57.000Z</time>
      </trkpt>
      <trkpt lat="43.69505" lon="5.82931">
        <ele>398</ele>
        <time>2016-04-30T09:30:59.000Z</time>
      </trkpt>
      <trkpt lat="43.69505" lon="5.82931">
        <ele>398</ele>
        <time>2016-04-30T09:31:01.000Z</time>
      </trkpt>
      <trkpt lat="43.69505" lon="5.82931">
        <ele>398</ele>
        <time>2016-04-30T09:31:03.000Z</time>
      </trkpt>
      <trkpt lat="43.69452" lon="5.82915">
        <ele>403</ele>
        <time>2016-04-30T09:31:07.000Z</time>
      </trkpt>
      <trkpt lat="43.69423" lon="5.82905">
        <ele>404</ele>
        <time>2016-04-30T09:31:09.000Z</time>
      </trkpt>
      <trkpt lat="43.69407" lon="5.82899">
        <ele>404</ele>
        <time>2016-04-30T09:31:11.000Z</time>
      </trkpt>
      <trkpt lat="43.69397" lon="5.82895">
        <ele>404</ele>
        <time>2016-04-30T09:31:13.000Z</time>
      </trkpt>
      <trkpt lat="43.69389" lon="5.82892">
        <ele>404</ele>
        <time>2016-04-30T09:31:15.000Z</time>
      </trkpt>
      <trkpt lat="43.69378" lon="5.82888">
        <ele>404</ele>
        <time>2016-04-30T09:31:17.000Z</time>
      </trkpt>
      <trkpt lat="43.69378" lon="5.82888">
        <ele>404</ele>
        <time>2016-04-30T09:31:19.000Z</time>
      </trkpt>
      <trkpt lat="43.69378" lon="5.82888">
        <ele>404</ele>
        <time>2016-04-30T09:31:21.000Z</time>
      </trkpt>
      <trkpt lat="43.69378" lon="5.82888">
        <ele>404</ele>
        <time>2016-04-30T09:31:23.000Z</time>
      </trkpt>
      <trkpt lat="43.69378" lon="5.82888">
        <ele>404</ele>
        <time>2016-04-30T09:31:25.000Z</time>
      </trkpt>
      <trkpt lat="43.69378" lon="5.82888">
        <ele>404</ele>
        <time>2016-04-30T09:31:27.000Z</time>
      </trkpt>
      <trkpt lat="43.69378" lon="5.82888">
        <ele>404</ele>
        <time>2016-04-30T09:31:29.000Z</time>
      </trkpt>
      <trkpt lat="43.69378" lon="5.82888">
        <ele>404</ele>
        <time>2016-04-30T09:31:31.000Z</time>
      </trkpt>
      <trkpt lat="43.69348" lon="5.82861">
        <ele>408</ele>
        <time>2016-04-30T09:31:37.000Z</time>
      </trkpt>
      <trkpt lat="43.69342" lon="5.8285">
        <ele>411</ele>
        <time>2016-04-30T09:31:43.000Z</time>
      </trkpt>
      <trkpt lat="43.69334" lon="5.82838">
        <ele>411</ele>
        <time>2016-04-30T09:31:49.000Z</time>
      </trkpt>
      <trkpt lat="43.69328" lon="5.82824">
        <ele>414</ele>
        <time>2016-04-30T09:31:55.000Z</time>
      </trkpt>
      <trkpt lat="43.69324" lon="5.8281">
        <ele>415</ele>
        <time>2016-04-30T09:32:01.000Z</time>
      </trkpt>
      <trkpt lat="43.69316" lon="5.828">
        <ele>417</ele>
        <time>2016-04-30T09:32:07.000Z</time>
      </trkpt>
      <trkpt lat="43.69316" lon="5.828">
        <ele>417</ele>
        <time>2016-04-30T09:32:13.000Z</time>
      </trkpt>
      <trkpt lat="43.69316" lon="5.828">
        <ele>417</ele>
        <time>2016-04-30T09:32:15.000Z</time>
      </trkpt>
      <trkpt lat="43.69316" lon="5.828">
        <ele>417</ele>
        <time>2016-04-30T09:32:17.000Z</time>
      </trkpt>
      <trkpt lat="43.69316" lon="5.828">
        <ele>417</ele>
        <time>2016-04-30T09:32:19.000Z</time>
      </trkpt>
      <trkpt lat="43.69316" lon="5.828">
        <ele>417</ele>
        <time>2016-04-30T09:32:21.000Z</time>
      </trkpt>
      <trkpt lat="43.69316" lon="5.828">
        <ele>417</ele>
        <time>2016-04-30T09:32:23.000Z</time>
      </trkpt>
      <trkpt lat="43.69316" lon="5.828">
        <ele>417</ele>
        <time>2016-04-30T09:32:25.000Z</time>
      </trkpt>
      <trkpt lat="43.69316" lon="5.828">
        <ele>417</ele>
        <time>2016-04-30T09:32:27.000Z</time>
      </trkpt>
      <trkpt lat="43.69316" lon="5.828">
        <ele>417</ele>
        <time>2016-04-30T09:32:29.000Z</time>
      </trkpt>
      <trkpt lat="43.69316" lon="5.828">
        <ele>417</ele>
        <time>2016-04-30T09:32:31.000Z</time>
      </trkpt>
      <trkpt lat="43.69316" lon="5.828">
        <ele>417</ele>
        <time>2016-04-30T09:32:33.000Z</time>
      </trkpt>
      <trkpt lat="43.69316" lon="5.828">
        <ele>417</ele>
        <time>2016-04-30T09:32:35.000Z</time>
      </trkpt>
      <trkpt lat="43.69316" lon="5.828">
        <ele>417</ele>
        <time>2016-04-30T09:32:37.000Z</time>
      </trkpt>
      <trkpt lat="43.69316" lon="5.828">
        <ele>417</ele>
        <time>2016-04-30T09:32:39.000Z</time>
      </trkpt>
      <trkpt lat="43.69316" lon="5.828">
        <ele>417</ele>
        <time>2016-04-30T09:32:41.000Z</time>
      </trkpt>
      <trkpt lat="43.69316" lon="5.828">
        <ele>417</ele>
        <time>2016-04-30T09:32:43.000Z</time>
      </trkpt>
      <trkpt lat="43.69316" lon="5.828">
        <ele>417</ele>
        <time>2016-04-30T09:32:45.000Z</time>
      </trkpt>
      <trkpt lat="43.69299" lon="5.82765">
        <ele>432</ele>
        <time>2016-04-30T09:32:51.000Z</time>
      </trkpt>
      <trkpt lat="43.69289" lon="5.82746">
        <ele>434</ele>
        <time>2016-04-30T09:32:53.000Z</time>
      </trkpt>
      <trkpt lat="43.69284" lon="5.82734">
        <ele>433</ele>
        <time>2016-04-30T09:32:55.000Z</time>
      </trkpt>
      <trkpt lat="43.69282" lon="5.82727">
        <ele>432</ele>
        <time>2016-04-30T09:32:57.000Z</time>
      </trkpt>
      <trkpt lat="43.69282" lon="5.82719">
        <ele>431</ele>
        <time>2016-04-30T09:33:01.000Z</time>
      </trkpt>
      <trkpt lat="43.69282" lon="5.82712">
        <ele>430</ele>
        <time>2016-04-30T09:33:05.000Z</time>
      </trkpt>
      <trkpt lat="43.69284" lon="5.82705">
        <ele>430</ele>
        <time>2016-04-30T09:33:09.000Z</time>
      </trkpt>
      <trkpt lat="43.69284" lon="5.82705">
        <ele>430</ele>
        <time>2016-04-30T09:33:11.000Z</time>
      </trkpt>
      <trkpt lat="43.69284" lon="5.82705">
        <ele>430</ele>
        <time>2016-04-30T09:33:13.000Z</time>
      </trkpt>
      <trkpt lat="43.69284" lon="5.82705">
        <ele>430</ele>
        <time>2016-04-30T09:33:15.000Z</time>
      </trkpt>
      <trkpt lat="43.69275" lon="5.82701">
        <ele>432</ele>
        <time>2016-04-30T09:33:22.000Z</time>
      </trkpt>
      <trkpt lat="43.69268" lon="5.82709">
        <ele>432</ele>
        <time>2016-04-30T09:33:26.000Z</time>
      </trkpt>
      <trkpt lat="43.69262" lon="5.8272">
        <ele>434</ele>
        <time>2016-04-30T09:33:30.000Z</time>
      </trkpt>
      <trkpt lat="43.69262" lon="5.8272">
        <ele>434</ele>
        <time>2016-04-30T09:33:34.000Z</time>
      </trkpt>
      <trkpt lat="43.69262" lon="5.8272">
        <ele>434</ele>
        <time>2016-04-30T09:33:36.000Z</time>
      </trkpt>
      <trkpt lat="43.69262" lon="5.8272">
        <ele>434</ele>
        <time>2016-04-30T09:33:38.000Z</time>
      </trkpt>
      <trkpt lat="43.69262" lon="5.8272">
        <ele>434</ele>
        <time>2016-04-30T09:33:40.000Z</time>
      </trkpt>
      <trkpt lat="43.69262" lon="5.8272">
        <ele>434</ele>
        <time>2016-04-30T09:33:42.000Z</time>
      </trkpt>
      <trkpt lat="43.69262" lon="5.8272">
        <ele>434</ele>
        <time>2016-04-30T09:33:44.000Z</time>
      </trkpt>
      <trkpt lat="43.69262" lon="5.8272">
        <ele>434</ele>
        <time>2016-04-30T09:33:46.000Z</time>
      </trkpt>
      <trkpt lat="43.69262" lon="5.8272">
        <ele>434</ele>
        <time>2016-04-30T09:33:48.000Z</time>
      </trkpt>
      <trkpt lat="43.69262" lon="5.8272">
        <ele>434</ele>
        <time>2016-04-30T09:33:50.000Z</time>
      </trkpt>
      <trkpt lat="43.69233" lon="5.82759">
        <ele>435</ele>
        <time>2016-04-30T09:33:52.000Z</time>
      </trkpt>
      <trkpt lat="43.69222" lon="5.82766">
        <ele>436</ele>
        <time>2016-04-30T09:33:58.000Z</time>
      </trkpt>
      <trkpt lat="43.69212" lon="5.82776">
        <ele>435</ele>
        <time>2016-04-30T09:34:04.000Z</time>
      </trkpt>
      <trkpt lat="43.69208" lon="5.8279">
        <ele>434</ele>
        <time>2016-04-30T09:34:08.000Z</time>
      </trkpt>
      <trkpt lat="43.69203" lon="5.82801">
        <ele>435</ele>
        <time>2016-04-30T09:34:12.000Z</time>
      </trkpt>
      <trkpt lat="43.69196" lon="5.82811">
        <ele>434</ele>
        <time>2016-04-30T09:34:16.000Z</time>
      </trkpt>
      <trkpt lat="43.69189" lon="5.82819">
        <ele>435</ele>
        <time>2016-04-30T09:34:20.000Z</time>
      </trkpt>
      <trkpt lat="43.69189" lon="5.82819">
        <ele>435</ele>
        <time>2016-04-30T09:34:24.000Z</time>
      </trkpt>
      <trkpt lat="43.69189" lon="5.82819">
        <ele>435</ele>
        <time>2016-04-30T09:34:26.000Z</time>
      </trkpt>
      <trkpt lat="43.69189" lon="5.82819">
        <ele>435</ele>
        <time>2016-04-30T09:34:28.000Z</time>
      </trkpt>
      <trkpt lat="43.69168" lon="5.82837">
        <ele>435</ele>
        <time>2016-04-30T09:34:30.000Z</time>
      </trkpt>
      <trkpt lat="43.69168" lon="5.82837">
        <ele>435</ele>
        <time>2016-04-30T09:34:32.000Z</time>
      </trkpt>
      <trkpt lat="43.69168" lon="5.82837">
        <ele>435</ele>
        <time>2016-04-30T09:34:34.000Z</time>
      </trkpt>
      <trkpt lat="43.69168" lon="5.82837">
        <ele>435</ele>
        <time>2016-04-30T09:34:36.000Z</time>
      </trkpt>
      <trkpt lat="43.69168" lon="5.82837">
        <ele>435</ele>
        <time>2016-04-30T09:34:38.000Z</time>
      </trkpt>
      <trkpt lat="43.69168" lon="5.82837">
        <ele>435</ele>
        <time>2016-04-30T09:34:40.000Z</time>
      </trkpt>
      <trkpt lat="43.69168" lon="5.82837">
        <ele>435</ele>
        <time>2016-04-30T09:34:42.000Z</time>
      </trkpt>
      <trkpt lat="43.69168" lon="5.82837">
        <ele>435</ele>
        <time>2016-04-30T09:34:44.000Z</time>
      </trkpt>
      <trkpt lat="43.69168" lon="5.82837">
        <ele>435</ele>
        <time>2016-04-30T09:34:46.000Z</time>
      </trkpt>
      <trkpt lat="43.69168" lon="5.82837">
        <ele>435</ele>
        <time>2016-04-30T09:34:48.000Z</time>
      </trkpt>
      <trkpt lat="43.69168" lon="5.82837">
        <ele>435</ele>
        <time>2016-04-30T09:34:50.000Z</time>
      </trkpt>
      <trkpt lat="43.69168" lon="5.82837">
        <ele>435</ele>
        <time>2016-04-30T09:34:52.000Z</time>
      </trkpt>
      <trkpt lat="43.69168" lon="5.82837">
        <ele>435</ele>
        <time>2016-04-30T09:34:54.000Z</time>
      </trkpt>
      <trkpt lat="43.69168" lon="5.82837">
        <ele>435</ele>
        <time>2016-04-30T09:34:56.000Z</time>
      </trkpt>
      <trkpt lat="43.69138" lon="5.82837">
        <ele>436</ele>
        <time>2016-04-30T09:34:58.000Z</time>
      </trkpt>
      <trkpt lat="43.69121" lon="5.8284">
        <ele>436</ele>
        <time>2016-04-30T09:35:00.000Z</time>
      </trkpt>
      <trkpt lat="43.69111" lon="5.82844">
        <ele>436</ele>
        <time>2016-04-30T09:35:02.000Z</time>
      </trkpt>
      <trkpt lat="43.69105" lon="5.8285">
        <ele>435</ele>
        <time>2016-04-30T09:35:04.000Z</time>
      </trkpt>
      <trkpt lat="43.69101" lon="5.82856">
        <ele>435</ele>
        <time>2016-04-30T09:35:06.000Z</time>
      </trkpt>
      <trkpt lat="43.69094" lon="5.82868">
        <ele>435</ele>
        <time>2016-04-30T09:35:08.000Z</time>
      </trkpt>
      <trkpt lat="43.69085" lon="5.8288">
        <ele>437</ele>
        <time>2016-04-30T09:35:12.000Z</time>
      </trkpt>
      <trkpt lat="43.69073" lon="5.8289">
        <ele>436</ele>
        <time>2016-04-30T09:35:16.000Z</time>
      </trkpt>
      <trkpt lat="43.69064" lon="5.82898">
        <ele>438</ele>
        <time>2016-04-30T09:35:20.000Z</time>
      </trkpt>
      <trkpt lat="43.69064" lon="5.82898">
        <ele>438</ele>
        <time>2016-04-30T09:35:22.000Z</time>
      </trkpt>
      <trkpt lat="43.69064" lon="5.82898">
        <ele>438</ele>
        <time>2016-04-30T09:35:24.000Z</time>
      </trkpt>
      <trkpt lat="43.69064" lon="5.82898">
        <ele>438</ele>
        <time>2016-04-30T09:35:26.000Z</time>
      </trkpt>
      <trkpt lat="43.69064" lon="5.82898">
        <ele>438</ele>
        <time>2016-04-30T09:35:28.000Z</time>
      </trkpt>
      <trkpt lat="43.69051" lon="5.82913">
        <ele>437</ele>
        <time>2016-04-30T09:37:06.000Z</time>
      </trkpt>
      <trkpt lat="43.69042" lon="5.82924">
        <ele>438</ele>
        <time>2016-04-30T09:37:12.000Z</time>
      </trkpt>
      <trkpt lat="43.69042" lon="5.82924">
        <ele>438</ele>
        <time>2016-04-30T09:37:18.000Z</time>
      </trkpt>
      <trkpt lat="43.69042" lon="5.82924">
        <ele>438</ele>
        <time>2016-04-30T09:37:20.000Z</time>
      </trkpt>
      <trkpt lat="43.69042" lon="5.82924">
        <ele>438</ele>
        <time>2016-04-30T09:37:22.000Z</time>
      </trkpt>
      <trkpt lat="43.69042" lon="5.82924">
        <ele>438</ele>
        <time>2016-04-30T09:37:24.000Z</time>
      </trkpt>
      <trkpt lat="43.69042" lon="5.82924">
        <ele>438</ele>
        <time>2016-04-30T09:37:27.000Z</time>
      </trkpt>
      <trkpt lat="43.69042" lon="5.82924">
        <ele>438</ele>
        <time>2016-04-30T09:37:28.000Z</time>
      </trkpt>
      <trkpt lat="43.69042" lon="5.82924">
        <ele>438</ele>
        <time>2016-04-30T09:37:30.000Z</time>
      </trkpt>
      <trkpt lat="43.69042" lon="5.82924">
        <ele>438</ele>
        <time>2016-04-30T09:37:32.000Z</time>
      </trkpt>
      <trkpt lat="43.69042" lon="5.82924">
        <ele>438</ele>
        <time>2016-04-30T09:37:34.000Z</time>
      </trkpt>
      <trkpt lat="43.69042" lon="5.82924">
        <ele>438</ele>
        <time>2016-04-30T09:37:36.000Z</time>
      </trkpt>
      <trkpt lat="43.69042" lon="5.82924">
        <ele>438</ele>
        <time>2016-04-30T09:37:38.000Z</time>
      </trkpt>
      <trkpt lat="43.69042" lon="5.82924">
        <ele>438</ele>
        <time>2016-04-30T09:37:40.000Z</time>
      </trkpt>
      <trkpt lat="43.69042" lon="5.82924">
        <ele>438</ele>
        <time>2016-04-30T09:37:42.000Z</time>
      </trkpt>
      <trkpt lat="43.69042" lon="5.82924">
        <ele>438</ele>
        <time>2016-04-30T09:37:44.000Z</time>
      </trkpt>
      <trkpt lat="43.69042" lon="5.82924">
        <ele>438</ele>
        <time>2016-04-30T09:37:46.000Z</time>
      </trkpt>
      <trkpt lat="43.69042" lon="5.82924">
        <ele>438</ele>
        <time>2016-04-30T09:37:48.000Z</time>
      </trkpt>
      <trkpt lat="43.69042" lon="5.82924">
        <ele>438</ele>
        <time>2016-04-30T09:37:50.000Z</time>
      </trkpt>
      <trkpt lat="43.69042" lon="5.82924">
        <ele>438</ele>
        <time>2016-04-30T09:37:52.000Z</time>
      </trkpt>
      <trkpt lat="43.69042" lon="5.82924">
        <ele>438</ele>
        <time>2016-04-30T09:37:54.000Z</time>
      </trkpt>
      <trkpt lat="43.6898" lon="5.82967">
        <ele>443</ele>
        <time>2016-04-30T09:38:01.000Z</time>
      </trkpt>
      <trkpt lat="43.6898" lon="5.82967">
        <ele>443</ele>
        <time>2016-04-30T09:38:07.000Z</time>
      </trkpt>
      <trkpt lat="43.6898" lon="5.82967">
        <ele>443</ele>
        <time>2016-04-30T09:38:09.000Z</time>
      </trkpt>
      <trkpt lat="43.6898" lon="5.82967">
        <ele>443</ele>
        <time>2016-04-30T09:38:11.000Z</time>
      </trkpt>
      <trkpt lat="43.6898" lon="5.82967">
        <ele>443</ele>
        <time>2016-04-30T09:38:13.000Z</time>
      </trkpt>
      <trkpt lat="43.6898" lon="5.82967">
        <ele>443</ele>
        <time>2016-04-30T09:38:15.000Z</time>
      </trkpt>
      <trkpt lat="43.6898" lon="5.82967">
        <ele>443</ele>
        <time>2016-04-30T09:38:17.000Z</time>
      </trkpt>
      <trkpt lat="43.6898" lon="5.82967">
        <ele>443</ele>
        <time>2016-04-30T09:38:19.000Z</time>
      </trkpt>
      <trkpt lat="43.6898" lon="5.82967">
        <ele>443</ele>
        <time>2016-04-30T09:38:21.000Z</time>
      </trkpt>
      <trkpt lat="43.6898" lon="5.82967">
        <ele>443</ele>
        <time>2016-04-30T09:38:23.000Z</time>
      </trkpt>
      <trkpt lat="43.6898" lon="5.82967">
        <ele>443</ele>
        <time>2016-04-30T09:38:25.000Z</time>
      </trkpt>
      <trkpt lat="43.6898" lon="5.82967">
        <ele>443</ele>
        <time>2016-04-30T09:38:27.000Z</time>
      </trkpt>
      <trkpt lat="43.6898" lon="5.82967">
        <ele>443</ele>
        <time>2016-04-30T09:38:29.000Z</time>
      </trkpt>
      <trkpt lat="43.6898" lon="5.82967">
        <ele>443</ele>
        <time>2016-04-30T09:38:31.000Z</time>
      </trkpt>
      <trkpt lat="43.6898" lon="5.82967">
        <ele>443</ele>
        <time>2016-04-30T09:38:33.000Z</time>
      </trkpt>
      <trkpt lat="43.6898" lon="5.82967">
        <ele>443</ele>
        <time>2016-04-30T09:38:35.000Z</time>
      </trkpt>
      <trkpt lat="43.6898" lon="5.82967">
        <ele>443</ele>
        <time>2016-04-30T09:38:37.000Z</time>
      </trkpt>
      <trkpt lat="43.6898" lon="5.82967">
        <ele>443</ele>
        <time>2016-04-30T09:38:39.000Z</time>
      </trkpt>
      <trkpt lat="43.6898" lon="5.82967">
        <ele>443</ele>
        <time>2016-04-30T09:38:41.000Z</time>
      </trkpt>
      <trkpt lat="43.6898" lon="5.82967">
        <ele>443</ele>
        <time>2016-04-30T09:38:43.000Z</time>
      </trkpt>
      <trkpt lat="43.6898" lon="5.82967">
        <ele>443</ele>
        <time>2016-04-30T09:38:45.000Z</time>
      </trkpt>
      <trkpt lat="43.6898" lon="5.82967">
        <ele>443</ele>
        <time>2016-04-30T09:38:47.000Z</time>
      </trkpt>
      <trkpt lat="43.6894" lon="5.82892">
        <ele>454</ele>
        <time>2016-04-30T09:38:49.000Z</time>
      </trkpt>
      <trkpt lat="43.68935" lon="5.82879">
        <ele>455</ele>
        <time>2016-04-30T09:38:55.000Z</time>
      </trkpt>
      <trkpt lat="43.68928" lon="5.82869">
        <ele>457</ele>
        <time>2016-04-30T09:39:01.000Z</time>
      </trkpt>
      <trkpt lat="43.68919" lon="5.82861">
        <ele>457</ele>
        <time>2016-04-30T09:39:07.000Z</time>
      </trkpt>
      <trkpt lat="43.68914" lon="5.82858">
        <ele>457</ele>
        <time>2016-04-30T09:39:13.000Z</time>
      </trkpt>
      <trkpt lat="43.68909" lon="5.82855">
        <ele>457</ele>
        <time>2016-04-30T09:39:17.000Z</time>
      </trkpt>
      <trkpt lat="43.68903" lon="5.82853">
        <ele>457</ele>
        <time>2016-04-30T09:39:21.000Z</time>
      </trkpt>
      <trkpt lat="43.68903" lon="5.82853">
        <ele>457</ele>
        <time>2016-04-30T09:39:23.000Z</time>
      </trkpt>
      <trkpt lat="43.68903" lon="5.82853">
        <ele>457</ele>
        <time>2016-04-30T09:39:25.000Z</time>
      </trkpt>
      <trkpt lat="43.68903" lon="5.82853">
        <ele>457</ele>
        <time>2016-04-30T09:39:27.000Z</time>
      </trkpt>
      <trkpt lat="43.68903" lon="5.82853">
        <ele>457</ele>
        <time>2016-04-30T09:39:29.000Z</time>
      </trkpt>
      <trkpt lat="43.68903" lon="5.82853">
        <ele>457</ele>
        <time>2016-04-30T09:39:31.000Z</time>
      </trkpt>
      <trkpt lat="43.68903" lon="5.82853">
        <ele>457</ele>
        <time>2016-04-30T09:39:33.000Z</time>
      </trkpt>
      <trkpt lat="43.68903" lon="5.82853">
        <ele>457</ele>
        <time>2016-04-30T09:39:35.000Z</time>
      </trkpt>
      <trkpt lat="43.68903" lon="5.82853">
        <ele>457</ele>
        <time>2016-04-30T09:39:37.000Z</time>
      </trkpt>
      <trkpt lat="43.68903" lon="5.82853">
        <ele>457</ele>
        <time>2016-04-30T09:39:39.000Z</time>
      </trkpt>
      <trkpt lat="43.68892" lon="5.82844">
        <ele>458</ele>
        <time>2016-04-30T09:39:45.000Z</time>
      </trkpt>
      <trkpt lat="43.68885" lon="5.82839">
        <ele>459</ele>
        <time>2016-04-30T09:39:47.000Z</time>
      </trkpt>
      <trkpt lat="43.6888" lon="5.82835">
        <ele>458</ele>
        <time>2016-04-30T09:39:49.000Z</time>
      </trkpt>
      <trkpt lat="43.68876" lon="5.8283">
        <ele>460</ele>
        <time>2016-04-30T09:39:53.000Z</time>
      </trkpt>
      <trkpt lat="43.68871" lon="5.82826">
        <ele>461</ele>
        <time>2016-04-30T09:39:57.000Z</time>
      </trkpt>
      <trkpt lat="43.68867" lon="5.82822">
        <ele>461</ele>
        <time>2016-04-30T09:39:59.000Z</time>
      </trkpt>
      <trkpt lat="43.68862" lon="5.82818">
        <ele>462</ele>
        <time>2016-04-30T09:40:03.000Z</time>
      </trkpt>
      <trkpt lat="43.68857" lon="5.82814">
        <ele>463</ele>
        <time>2016-04-30T09:40:07.000Z</time>
      </trkpt>
      <trkpt lat="43.68852" lon="5.82809">
        <ele>463</ele>
        <time>2016-04-30T09:40:11.000Z</time>
      </trkpt>
      <trkpt lat="43.68848" lon="5.82804">
        <ele>463</ele>
        <time>2016-04-30T09:40:15.000Z</time>
      </trkpt>
      <trkpt lat="43.68843" lon="5.82799">
        <ele>464</ele>
        <time>2016-04-30T09:40:19.000Z</time>
      </trkpt>
      <trkpt lat="43.68839" lon="5.82794">
        <ele>465</ele>
        <time>2016-04-30T09:40:23.000Z</time>
      </trkpt>
      <trkpt lat="43.68835" lon="5.82789">
        <ele>467</ele>
        <time>2016-04-30T09:40:27.000Z</time>
      </trkpt>
      <trkpt lat="43.68831" lon="5.82785">
        <ele>468</ele>
        <time>2016-04-30T09:40:31.000Z</time>
      </trkpt>
      <trkpt lat="43.68827" lon="5.8278">
        <ele>469</ele>
        <time>2016-04-30T09:40:35.000Z</time>
      </trkpt>
      <trkpt lat="43.68824" lon="5.82775">
        <ele>470</ele>
        <time>2016-04-30T09:40:39.000Z</time>
      </trkpt>
      <trkpt lat="43.68821" lon="5.8277">
        <ele>470</ele>
        <time>2016-04-30T09:40:43.000Z</time>
      </trkpt>
      <trkpt lat="43.68817" lon="5.82765">
        <ele>471</ele>
        <time>2016-04-30T09:40:47.000Z</time>
      </trkpt>
      <trkpt lat="43.68813" lon="5.82761">
        <ele>470</ele>
        <time>2016-04-30T09:40:51.000Z</time>
      </trkpt>
      <trkpt lat="43.68808" lon="5.82757">
        <ele>470</ele>
        <time>2016-04-30T09:40:55.000Z</time>
      </trkpt>
      <trkpt lat="43.68803" lon="5.82753">
        <ele>470</ele>
        <time>2016-04-30T09:40:59.000Z</time>
      </trkpt>
      <trkpt lat="43.68799" lon="5.8275">
        <ele>470</ele>
        <time>2016-04-30T09:41:03.000Z</time>
      </trkpt>
      <trkpt lat="43.68794" lon="5.82747">
        <ele>470</ele>
        <time>2016-04-30T09:41:07.000Z</time>
      </trkpt>
      <trkpt lat="43.6879" lon="5.82743">
        <ele>469</ele>
        <time>2016-04-30T09:41:11.000Z</time>
      </trkpt>
      <trkpt lat="43.6879" lon="5.82743">
        <ele>469</ele>
        <time>2016-04-30T09:41:15.000Z</time>
      </trkpt>
      <trkpt lat="43.6879" lon="5.82743">
        <ele>469</ele>
        <time>2016-04-30T09:41:17.000Z</time>
      </trkpt>
      <trkpt lat="43.6879" lon="5.82743">
        <ele>469</ele>
        <time>2016-04-30T09:41:19.000Z</time>
      </trkpt>
      <trkpt lat="43.6879" lon="5.82743">
        <ele>469</ele>
        <time>2016-04-30T09:41:21.000Z</time>
      </trkpt>
      <trkpt lat="43.68785" lon="5.82731">
        <ele>470</ele>
        <time>2016-04-30T09:41:25.000Z</time>
      </trkpt>
      <trkpt lat="43.68784" lon="5.82722">
        <ele>470</ele>
        <time>2016-04-30T09:41:27.000Z</time>
      </trkpt>
      <trkpt lat="43.68784" lon="5.82716">
        <ele>470</ele>
        <time>2016-04-30T09:41:29.000Z</time>
      </trkpt>
      <trkpt lat="43.68786" lon="5.82708">
        <ele>470</ele>
        <time>2016-04-30T09:41:33.000Z</time>
      </trkpt>
      <trkpt lat="43.68789" lon="5.82701">
        <ele>471</ele>
        <time>2016-04-30T09:41:35.000Z</time>
      </trkpt>
      <trkpt lat="43.68791" lon="5.82695">
        <ele>471</ele>
        <time>2016-04-30T09:41:37.000Z</time>
      </trkpt>
      <trkpt lat="43.68794" lon="5.8269">
        <ele>471</ele>
        <time>2016-04-30T09:41:39.000Z</time>
      </trkpt>
      <trkpt lat="43.68797" lon="5.82683">
        <ele>471</ele>
        <time>2016-04-30T09:41:41.000Z</time>
      </trkpt>
      <trkpt lat="43.688" lon="5.82667">
        <ele>471</ele>
        <time>2016-04-30T09:41:43.000Z</time>
      </trkpt>
      <trkpt lat="43.68794" lon="5.82652">
        <ele>470</ele>
        <time>2016-04-30T09:41:47.000Z</time>
      </trkpt>
      <trkpt lat="43.68794" lon="5.82652">
        <ele>470</ele>
        <time>2016-04-30T09:41:49.000Z</time>
      </trkpt>
      <trkpt lat="43.68787" lon="5.82641">
        <ele>470</ele>
        <time>2016-04-30T09:41:51.000Z</time>
      </trkpt>
      <trkpt lat="43.68787" lon="5.82641">
        <ele>470</ele>
        <time>2016-04-30T09:41:53.000Z</time>
      </trkpt>
      <trkpt lat="43.68777" lon="5.82612">
        <ele>470</ele>
        <time>2016-04-30T09:41:59.000Z</time>
      </trkpt>
      <trkpt lat="43.68773" lon="5.82597">
        <ele>470</ele>
        <time>2016-04-30T09:42:03.000Z</time>
      </trkpt>
      <trkpt lat="43.68773" lon="5.82597">
        <ele>470</ele>
        <time>2016-04-30T09:42:05.000Z</time>
      </trkpt>
      <trkpt lat="43.68773" lon="5.82597">
        <ele>470</ele>
        <time>2016-04-30T09:42:07.000Z</time>
      </trkpt>
      <trkpt lat="43.68773" lon="5.82597">
        <ele>470</ele>
        <time>2016-04-30T09:42:09.000Z</time>
      </trkpt>
      <trkpt lat="43.68773" lon="5.82597">
        <ele>470</ele>
        <time>2016-04-30T09:42:11.000Z</time>
      </trkpt>
      <trkpt lat="43.68773" lon="5.82597">
        <ele>470</ele>
        <time>2016-04-30T09:42:13.000Z</time>
      </trkpt>
      <trkpt lat="43.68773" lon="5.82597">
        <ele>470</ele>
        <time>2016-04-30T09:42:15.000Z</time>
      </trkpt>
      <trkpt lat="43.68773" lon="5.82597">
        <ele>470</ele>
        <time>2016-04-30T09:42:17.000Z</time>
      </trkpt>
      <trkpt lat="43.68773" lon="5.82597">
        <ele>470</ele>
        <time>2016-04-30T09:42:19.000Z</time>
      </trkpt>
      <trkpt lat="43.68773" lon="5.82597">
        <ele>470</ele>
        <time>2016-04-30T09:42:21.000Z</time>
      </trkpt>
      <trkpt lat="43.68754" lon="5.82534">
        <ele>474</ele>
        <time>2016-04-30T09:42:27.000Z</time>
      </trkpt>
      <trkpt lat="43.68748" lon="5.82518">
        <ele>475</ele>
        <time>2016-04-30T09:42:33.000Z</time>
      </trkpt>
      <trkpt lat="43.6874" lon="5.82507">
        <ele>477</ele>
        <time>2016-04-30T09:42:39.000Z</time>
      </trkpt>
      <trkpt lat="43.6874" lon="5.82507">
        <ele>477</ele>
        <time>2016-04-30T09:42:43.000Z</time>
      </trkpt>
      <trkpt lat="43.6874" lon="5.82507">
        <ele>477</ele>
        <time>2016-04-30T09:42:45.000Z</time>
      </trkpt>
      <trkpt lat="43.6874" lon="5.82507">
        <ele>477</ele>
        <time>2016-04-30T09:42:47.000Z</time>
      </trkpt>
      <trkpt lat="43.6874" lon="5.82507">
        <ele>477</ele>
        <time>2016-04-30T09:42:49.000Z</time>
      </trkpt>
      <trkpt lat="43.6874" lon="5.82507">
        <ele>477</ele>
        <time>2016-04-30T09:42:51.000Z</time>
      </trkpt>
      <trkpt lat="43.6874" lon="5.82507">
        <ele>477</ele>
        <time>2016-04-30T09:42:53.000Z</time>
      </trkpt>
      <trkpt lat="43.6874" lon="5.82507">
        <ele>477</ele>
        <time>2016-04-30T09:42:55.000Z</time>
      </trkpt>
      <trkpt lat="43.6874" lon="5.82507">
        <ele>477</ele>
        <time>2016-04-30T09:42:57.000Z</time>
      </trkpt>
      <trkpt lat="43.68731" lon="5.82484">
        <ele>479</ele>
        <time>2016-04-30T09:42:59.000Z</time>
      </trkpt>
      <trkpt lat="43.68726" lon="5.82471">
        <ele>480</ele>
        <time>2016-04-30T09:43:01.000Z</time>
      </trkpt>
      <trkpt lat="43.68721" lon="5.82461">
        <ele>480</ele>
        <time>2016-04-30T09:43:03.000Z</time>
      </trkpt>
      <trkpt lat="43.68718" lon="5.82454">
        <ele>480</ele>
        <time>2016-04-30T09:43:05.000Z</time>
      </trkpt>
      <trkpt lat="43.68716" lon="5.82447">
        <ele>480</ele>
        <time>2016-04-30T09:43:07.000Z</time>
      </trkpt>
      <trkpt lat="43.68715" lon="5.82434">
        <ele>479</ele>
        <time>2016-04-30T09:43:09.000Z</time>
      </trkpt>
      <trkpt lat="43.68715" lon="5.82434">
        <ele>479</ele>
        <time>2016-04-30T09:43:11.000Z</time>
      </trkpt>
      <trkpt lat="43.68715" lon="5.82434">
        <ele>479</ele>
        <time>2016-04-30T09:43:13.000Z</time>
      </trkpt>
      <trkpt lat="43.68715" lon="5.82434">
        <ele>479</ele>
        <time>2016-04-30T09:43:15.000Z</time>
      </trkpt>
      <trkpt lat="43.68715" lon="5.82434">
        <ele>479</ele>
        <time>2016-04-30T09:43:17.000Z</time>
      </trkpt>
      <trkpt lat="43.68715" lon="5.82434">
        <ele>479</ele>
        <time>2016-04-30T09:43:19.000Z</time>
      </trkpt>
      <trkpt lat="43.68715" lon="5.82434">
        <ele>479</ele>
        <time>2016-04-30T09:43:21.000Z</time>
      </trkpt>
      <trkpt lat="43.68715" lon="5.82434">
        <ele>479</ele>
        <time>2016-04-30T09:43:23.000Z</time>
      </trkpt>
      <trkpt lat="43.68715" lon="5.82434">
        <ele>479</ele>
        <time>2016-04-30T09:43:25.000Z</time>
      </trkpt>
      <trkpt lat="43.68715" lon="5.82434">
        <ele>479</ele>
        <time>2016-04-30T09:43:27.000Z</time>
      </trkpt>
      <trkpt lat="43.68715" lon="5.82434">
        <ele>479</ele>
        <time>2016-04-30T09:43:29.000Z</time>
      </trkpt>
      <trkpt lat="43.68715" lon="5.82434">
        <ele>479</ele>
        <time>2016-04-30T09:43:31.000Z</time>
      </trkpt>
      <trkpt lat="43.68715" lon="5.82434">
        <ele>479</ele>
        <time>2016-04-30T09:43:33.000Z</time>
      </trkpt>
      <trkpt lat="43.68715" lon="5.82434">
        <ele>479</ele>
        <time>2016-04-30T09:43:35.000Z</time>
      </trkpt>
      <trkpt lat="43.68715" lon="5.82434">
        <ele>479</ele>
        <time>2016-04-30T09:43:37.000Z</time>
      </trkpt>
      <trkpt lat="43.68715" lon="5.82434">
        <ele>479</ele>
        <time>2016-04-30T09:43:39.000Z</time>
      </trkpt>
      <trkpt lat="43.68715" lon="5.82434">
        <ele>479</ele>
        <time>2016-04-30T09:43:41.000Z</time>
      </trkpt>
      <trkpt lat="43.68715" lon="5.82434">
        <ele>479</ele>
        <time>2016-04-30T09:43:43.000Z</time>
      </trkpt>
      <trkpt lat="43.68715" lon="5.82434">
        <ele>479</ele>
        <time>2016-04-30T09:43:45.000Z</time>
      </trkpt>
      <trkpt lat="43.68715" lon="5.82434">
        <ele>479</ele>
        <time>2016-04-30T09:43:47.000Z</time>
      </trkpt>
      <trkpt lat="43.68715" lon="5.82434">
        <ele>479</ele>
        <time>2016-04-30T09:43:49.000Z</time>
      </trkpt>
      <trkpt lat="43.68715" lon="5.82434">
        <ele>479</ele>
        <time>2016-04-30T09:43:51.000Z</time>
      </trkpt>
      <trkpt lat="43.68715" lon="5.82434">
        <ele>479</ele>
        <time>2016-04-30T09:43:53.000Z</time>
      </trkpt>
      <trkpt lat="43.68641" lon="5.82401">
        <ele>487</ele>
        <time>2016-04-30T09:43:55.000Z</time>
      </trkpt>
      <trkpt lat="43.68629" lon="5.82408">
        <ele>488</ele>
        <time>2016-04-30T09:44:01.000Z</time>
      </trkpt>
      <trkpt lat="43.68629" lon="5.82408">
        <ele>488</ele>
        <time>2016-04-30T09:44:03.000Z</time>
      </trkpt>
      <trkpt lat="43.68629" lon="5.82408">
        <ele>488</ele>
        <time>2016-04-30T09:44:05.000Z</time>
      </trkpt>
      <trkpt lat="43.68618" lon="5.82413">
        <ele>489</ele>
        <time>2016-04-30T09:44:07.000Z</time>
      </trkpt>
      <trkpt lat="43.68618" lon="5.82413">
        <ele>489</ele>
        <time>2016-04-30T09:44:09.000Z</time>
      </trkpt>
      <trkpt lat="43.68618" lon="5.82413">
        <ele>489</ele>
        <time>2016-04-30T09:44:11.000Z</time>
      </trkpt>
      <trkpt lat="43.68618" lon="5.82413">
        <ele>489</ele>
        <time>2016-04-30T09:44:13.000Z</time>
      </trkpt>
      <trkpt lat="43.68618" lon="5.82413">
        <ele>489</ele>
        <time>2016-04-30T09:44:15.000Z</time>
      </trkpt>
      <trkpt lat="43.68618" lon="5.82413">
        <ele>489</ele>
        <time>2016-04-30T09:44:17.000Z</time>
      </trkpt>
      <trkpt lat="43.68618" lon="5.82413">
        <ele>489</ele>
        <time>2016-04-30T09:44:19.000Z</time>
      </trkpt>
      <trkpt lat="43.68595" lon="5.82419">
        <ele>492</ele>
        <time>2016-04-30T09:44:29.000Z</time>
      </trkpt>
      <trkpt lat="43.68581" lon="5.82422">
        <ele>492</ele>
        <time>2016-04-30T09:44:31.000Z</time>
      </trkpt>
      <trkpt lat="43.68571" lon="5.82424">
        <ele>492</ele>
        <time>2016-04-30T09:44:33.000Z</time>
      </trkpt>
      <trkpt lat="43.68565" lon="5.82425">
        <ele>492</ele>
        <time>2016-04-30T09:44:35.000Z</time>
      </trkpt>
      <trkpt lat="43.68559" lon="5.82427">
        <ele>492</ele>
        <time>2016-04-30T09:44:37.000Z</time>
      </trkpt>
      <trkpt lat="43.68549" lon="5.82431">
        <ele>492</ele>
        <time>2016-04-30T09:44:39.000Z</time>
      </trkpt>
      <trkpt lat="43.68538" lon="5.82436">
        <ele>491</ele>
        <time>2016-04-30T09:44:43.000Z</time>
      </trkpt>
      <trkpt lat="43.68526" lon="5.82438">
        <ele>492</ele>
        <time>2016-04-30T09:44:47.000Z</time>
      </trkpt>
      <trkpt lat="43.68514" lon="5.82444">
        <ele>491</ele>
        <time>2016-04-30T09:44:51.000Z</time>
      </trkpt>
      <trkpt lat="43.68502" lon="5.82448">
        <ele>490</ele>
        <time>2016-04-30T09:44:55.000Z</time>
      </trkpt>
      <trkpt lat="43.68491" lon="5.82451">
        <ele>491</ele>
        <time>2016-04-30T09:44:59.000Z</time>
      </trkpt>
      <trkpt lat="43.68478" lon="5.82454">
        <ele>491</ele>
        <time>2016-04-30T09:45:03.000Z</time>
      </trkpt>
      <trkpt lat="43.68466" lon="5.8246">
        <ele>492</ele>
        <time>2016-04-30T09:45:07.000Z</time>
      </trkpt>
      <trkpt lat="43.68456" lon="5.82472">
        <ele>492</ele>
        <time>2016-04-30T09:45:11.000Z</time>
      </trkpt>
      <trkpt lat="43.68445" lon="5.82482">
        <ele>491</ele>
        <time>2016-04-30T09:45:15.000Z</time>
      </trkpt>
      <trkpt lat="43.68433" lon="5.82489">
        <ele>491</ele>
        <time>2016-04-30T09:45:19.000Z</time>
      </trkpt>
      <trkpt lat="43.6842" lon="5.82497">
        <ele>490</ele>
        <time>2016-04-30T09:45:23.000Z</time>
      </trkpt>
      <trkpt lat="43.68406" lon="5.82509">
        <ele>490</ele>
        <time>2016-04-30T09:45:27.000Z</time>
      </trkpt>
      <trkpt lat="43.68394" lon="5.82523">
        <ele>490</ele>
        <time>2016-04-30T09:45:31.000Z</time>
      </trkpt>
      <trkpt lat="43.68383" lon="5.82538">
        <ele>491</ele>
        <time>2016-04-30T09:45:35.000Z</time>
      </trkpt>
      <trkpt lat="43.68383" lon="5.82538">
        <ele>491</ele>
        <time>2016-04-30T09:45:39.000Z</time>
      </trkpt>
      <trkpt lat="43.68383" lon="5.82538">
        <ele>491</ele>
        <time>2016-04-30T09:45:41.000Z</time>
      </trkpt>
      <trkpt lat="43.68383" lon="5.82538">
        <ele>491</ele>
        <time>2016-04-30T09:45:43.000Z</time>
      </trkpt>
      <trkpt lat="43.68383" lon="5.82538">
        <ele>491</ele>
        <time>2016-04-30T09:45:45.000Z</time>
      </trkpt>
      <trkpt lat="43.68383" lon="5.82538">
        <ele>491</ele>
        <time>2016-04-30T09:45:47.000Z</time>
      </trkpt>
      <trkpt lat="43.68383" lon="5.82538">
        <ele>491</ele>
        <time>2016-04-30T09:45:49.000Z</time>
      </trkpt>
      <trkpt lat="43.68383" lon="5.82538">
        <ele>491</ele>
        <time>2016-04-30T09:45:51.000Z</time>
      </trkpt>
      <trkpt lat="43.68383" lon="5.82538">
        <ele>491</ele>
        <time>2016-04-30T09:45:53.000Z</time>
      </trkpt>
      <trkpt lat="43.68322" lon="5.82597">
        <ele>492</ele>
        <time>2016-04-30T09:45:55.000Z</time>
      </trkpt>
      <trkpt lat="43.6831" lon="5.8261">
        <ele>492</ele>
        <time>2016-04-30T09:45:59.000Z</time>
      </trkpt>
      <trkpt lat="43.6831" lon="5.8261">
        <ele>492</ele>
        <time>2016-04-30T09:46:01.000Z</time>
      </trkpt>
      <trkpt lat="43.68299" lon="5.82623">
        <ele>492</ele>
        <time>2016-04-30T09:46:03.000Z</time>
      </trkpt>
      <trkpt lat="43.68299" lon="5.82623">
        <ele>492</ele>
        <time>2016-04-30T09:46:05.000Z</time>
      </trkpt>
      <trkpt lat="43.68299" lon="5.82623">
        <ele>492</ele>
        <time>2016-04-30T09:46:07.000Z</time>
      </trkpt>
      <trkpt lat="43.68299" lon="5.82623">
        <ele>492</ele>
        <time>2016-04-30T09:46:09.000Z</time>
      </trkpt>
      <trkpt lat="43.68299" lon="5.82623">
        <ele>492</ele>
        <time>2016-04-30T09:46:11.000Z</time>
      </trkpt>
      <trkpt lat="43.68299" lon="5.82623">
        <ele>492</ele>
        <time>2016-04-30T09:46:13.000Z</time>
      </trkpt>
      <trkpt lat="43.68299" lon="5.82623">
        <ele>492</ele>
        <time>2016-04-30T09:46:15.000Z</time>
      </trkpt>
      <trkpt lat="43.68299" lon="5.82623">
        <ele>492</ele>
        <time>2016-04-30T09:46:17.000Z</time>
      </trkpt>
      <trkpt lat="43.68299" lon="5.82623">
        <ele>492</ele>
        <time>2016-04-30T09:46:19.000Z</time>
      </trkpt>
      <trkpt lat="43.68299" lon="5.82623">
        <ele>492</ele>
        <time>2016-04-30T09:46:21.000Z</time>
      </trkpt>
      <trkpt lat="43.68299" lon="5.82623">
        <ele>492</ele>
        <time>2016-04-30T09:46:23.000Z</time>
      </trkpt>
      <trkpt lat="43.68299" lon="5.82623">
        <ele>492</ele>
        <time>2016-04-30T09:46:25.000Z</time>
      </trkpt>
      <trkpt lat="43.68299" lon="5.82623">
        <ele>492</ele>
        <time>2016-04-30T09:46:27.000Z</time>
      </trkpt>
      <trkpt lat="43.68299" lon="5.82623">
        <ele>492</ele>
        <time>2016-04-30T09:46:29.000Z</time>
      </trkpt>
      <trkpt lat="43.68299" lon="5.82623">
        <ele>492</ele>
        <time>2016-04-30T09:46:31.000Z</time>
      </trkpt>
      <trkpt lat="43.68299" lon="5.82623">
        <ele>492</ele>
        <time>2016-04-30T09:46:33.000Z</time>
      </trkpt>
      <trkpt lat="43.68299" lon="5.82623">
        <ele>492</ele>
        <time>2016-04-30T09:46:35.000Z</time>
      </trkpt>
      <trkpt lat="43.68299" lon="5.82623">
        <ele>492</ele>
        <time>2016-04-30T09:46:37.000Z</time>
      </trkpt>
      <trkpt lat="43.68244" lon="5.82703">
        <ele>493</ele>
        <time>2016-04-30T09:46:47.000Z</time>
      </trkpt>
      <trkpt lat="43.68214" lon="5.82747">
        <ele>493</ele>
        <time>2016-04-30T09:46:49.000Z</time>
      </trkpt>
      <trkpt lat="43.68196" lon="5.82773">
        <ele>493</ele>
        <time>2016-04-30T09:46:51.000Z</time>
      </trkpt>
      <trkpt lat="43.68185" lon="5.8279">
        <ele>493</ele>
        <time>2016-04-30T09:46:53.000Z</time>
      </trkpt>
      <trkpt lat="43.68176" lon="5.82801">
        <ele>493</ele>
        <time>2016-04-30T09:46:55.000Z</time>
      </trkpt>
      <trkpt lat="43.6816" lon="5.82818">
        <ele>493</ele>
        <time>2016-04-30T09:46:57.000Z</time>
      </trkpt>
      <trkpt lat="43.68147" lon="5.82828">
        <ele>493</ele>
        <time>2016-04-30T09:47:01.000Z</time>
      </trkpt>
      <trkpt lat="43.68134" lon="5.82839">
        <ele>493</ele>
        <time>2016-04-30T09:47:05.000Z</time>
      </trkpt>
      <trkpt lat="43.68121" lon="5.8285">
        <ele>493</ele>
        <time>2016-04-30T09:47:09.000Z</time>
      </trkpt>
      <trkpt lat="43.68108" lon="5.8286">
        <ele>493</ele>
        <time>2016-04-30T09:47:13.000Z</time>
      </trkpt>
      <trkpt lat="43.68094" lon="5.82868">
        <ele>493</ele>
        <time>2016-04-30T09:47:17.000Z</time>
      </trkpt>
      <trkpt lat="43.6808" lon="5.82875">
        <ele>493</ele>
        <time>2016-04-30T09:47:21.000Z</time>
      </trkpt>
      <trkpt lat="43.68066" lon="5.82886">
        <ele>492</ele>
        <time>2016-04-30T09:47:25.000Z</time>
      </trkpt>
      <trkpt lat="43.68053" lon="5.82897">
        <ele>493</ele>
        <time>2016-04-30T09:47:29.000Z</time>
      </trkpt>
      <trkpt lat="43.6804" lon="5.82908">
        <ele>493</ele>
        <time>2016-04-30T09:47:33.000Z</time>
      </trkpt>
      <trkpt lat="43.6804" lon="5.82908">
        <ele>493</ele>
        <time>2016-04-30T09:47:37.000Z</time>
      </trkpt>
      <trkpt lat="43.6804" lon="5.82908">
        <ele>493</ele>
        <time>2016-04-30T09:47:39.000Z</time>
      </trkpt>
      <trkpt lat="43.6804" lon="5.82908">
        <ele>493</ele>
        <time>2016-04-30T09:47:41.000Z</time>
      </trkpt>
      <trkpt lat="43.68004" lon="5.82941">
        <ele>495</ele>
        <time>2016-04-30T09:47:45.000Z</time>
      </trkpt>
      <trkpt lat="43.67995" lon="5.82958">
        <ele>496</ele>
        <time>2016-04-30T09:47:49.000Z</time>
      </trkpt>
      <trkpt lat="43.67995" lon="5.82958">
        <ele>496</ele>
        <time>2016-04-30T09:47:51.000Z</time>
      </trkpt>
      <trkpt lat="43.67995" lon="5.82958">
        <ele>496</ele>
        <time>2016-04-30T09:47:53.000Z</time>
      </trkpt>
      <trkpt lat="43.67995" lon="5.82958">
        <ele>496</ele>
        <time>2016-04-30T09:47:55.000Z</time>
      </trkpt>
      <trkpt lat="43.6797" lon="5.82981">
        <ele>496</ele>
        <time>2016-04-30T09:47:57.000Z</time>
      </trkpt>
      <trkpt lat="43.67961" lon="5.82992">
        <ele>496</ele>
        <time>2016-04-30T09:47:59.000Z</time>
      </trkpt>
      <trkpt lat="43.6795" lon="5.83001">
        <ele>497</ele>
        <time>2016-04-30T09:48:01.000Z</time>
      </trkpt>
      <trkpt lat="43.67938" lon="5.83009">
        <ele>497</ele>
        <time>2016-04-30T09:48:03.000Z</time>
      </trkpt>
      <trkpt lat="43.67927" lon="5.83019">
        <ele>497</ele>
        <time>2016-04-30T09:48:05.000Z</time>
      </trkpt>
      <trkpt lat="43.67916" lon="5.83025">
        <ele>496</ele>
        <time>2016-04-30T09:48:07.000Z</time>
      </trkpt>
      <trkpt lat="43.67903" lon="5.83026">
        <ele>496</ele>
        <time>2016-04-30T09:48:09.000Z</time>
      </trkpt>
      <trkpt lat="43.67891" lon="5.83027">
        <ele>495</ele>
        <time>2016-04-30T09:48:11.000Z</time>
      </trkpt>
      <trkpt lat="43.67879" lon="5.83027">
        <ele>494</ele>
        <time>2016-04-30T09:48:13.000Z</time>
      </trkpt>
      <trkpt lat="43.67867" lon="5.83031">
        <ele>495</ele>
        <time>2016-04-30T09:48:15.000Z</time>
      </trkpt>
      <trkpt lat="43.67855" lon="5.83034">
        <ele>495</ele>
        <time>2016-04-30T09:48:17.000Z</time>
      </trkpt>
      <trkpt lat="43.67844" lon="5.83037">
        <ele>495</ele>
        <time>2016-04-30T09:48:19.000Z</time>
      </trkpt>
      <trkpt lat="43.67832" lon="5.83043">
        <ele>495</ele>
        <time>2016-04-30T09:48:21.000Z</time>
      </trkpt>
      <trkpt lat="43.67821" lon="5.83051">
        <ele>495</ele>
        <time>2016-04-30T09:48:23.000Z</time>
      </trkpt>
      <trkpt lat="43.67809" lon="5.83058">
        <ele>496</ele>
        <time>2016-04-30T09:48:25.000Z</time>
      </trkpt>
      <trkpt lat="43.67797" lon="5.83066">
        <ele>496</ele>
        <time>2016-04-30T09:48:27.000Z</time>
      </trkpt>
      <trkpt lat="43.67787" lon="5.83072">
        <ele>497</ele>
        <time>2016-04-30T09:48:29.000Z</time>
      </trkpt>
      <trkpt lat="43.67776" lon="5.83078">
        <ele>497</ele>
        <time>2016-04-30T09:48:31.000Z</time>
      </trkpt>
      <trkpt lat="43.67765" lon="5.83084">
        <ele>497</ele>
        <time>2016-04-30T09:48:33.000Z</time>
      </trkpt>
      <trkpt lat="43.67755" lon="5.83088">
        <ele>497</ele>
        <time>2016-04-30T09:48:35.000Z</time>
      </trkpt>
      <trkpt lat="43.67744" lon="5.83093">
        <ele>497</ele>
        <time>2016-04-30T09:48:37.000Z</time>
      </trkpt>
      <trkpt lat="43.67735" lon="5.83099">
        <ele>498</ele>
        <time>2016-04-30T09:48:39.000Z</time>
      </trkpt>
      <trkpt lat="43.67735" lon="5.83099">
        <ele>498</ele>
        <time>2016-04-30T09:48:41.000Z</time>
      </trkpt>
      <trkpt lat="43.67735" lon="5.83099">
        <ele>498</ele>
        <time>2016-04-30T09:48:43.000Z</time>
      </trkpt>
      <trkpt lat="43.67735" lon="5.83099">
        <ele>498</ele>
        <time>2016-04-30T09:48:45.000Z</time>
      </trkpt>
      <trkpt lat="43.67735" lon="5.83099">
        <ele>498</ele>
        <time>2016-04-30T09:48:47.000Z</time>
      </trkpt>
      <trkpt lat="43.67735" lon="5.83099">
        <ele>498</ele>
        <time>2016-04-30T09:48:49.000Z</time>
      </trkpt>
      <trkpt lat="43.67735" lon="5.83099">
        <ele>498</ele>
        <time>2016-04-30T09:48:51.000Z</time>
      </trkpt>
      <trkpt lat="43.67735" lon="5.83099">
        <ele>498</ele>
        <time>2016-04-30T09:48:53.000Z</time>
      </trkpt>
      <trkpt lat="43.67735" lon="5.83099">
        <ele>498</ele>
        <time>2016-04-30T09:48:55.000Z</time>
      </trkpt>
      <trkpt lat="43.67654" lon="5.83154">
        <ele>501</ele>
        <time>2016-04-30T09:48:59.000Z</time>
      </trkpt>
      <trkpt lat="43.67645" lon="5.83158">
        <ele>501</ele>
        <time>2016-04-30T09:49:01.000Z</time>
      </trkpt>
      <trkpt lat="43.67636" lon="5.83162">
        <ele>501</ele>
        <time>2016-04-30T09:49:03.000Z</time>
      </trkpt>
      <trkpt lat="43.67627" lon="5.83168">
        <ele>501</ele>
        <time>2016-04-30T09:49:05.000Z</time>
      </trkpt>
      <trkpt lat="43.67619" lon="5.83174">
        <ele>501</ele>
        <time>2016-04-30T09:49:07.000Z</time>
      </trkpt>
      <trkpt lat="43.67611" lon="5.8318">
        <ele>501</ele>
        <time>2016-04-30T09:49:09.000Z</time>
      </trkpt>
      <trkpt lat="43.67611" lon="5.8318">
        <ele>501</ele>
        <time>2016-04-30T09:49:11.000Z</time>
      </trkpt>
      <trkpt lat="43.67611" lon="5.8318">
        <ele>501</ele>
        <time>2016-04-30T09:49:13.000Z</time>
      </trkpt>
      <trkpt lat="43.67611" lon="5.8318">
        <ele>501</ele>
        <time>2016-04-30T09:49:15.000Z</time>
      </trkpt>
      <trkpt lat="43.67611" lon="5.8318">
        <ele>501</ele>
        <time>2016-04-30T09:49:17.000Z</time>
      </trkpt>
      <trkpt lat="43.67611" lon="5.8318">
        <ele>501</ele>
        <time>2016-04-30T09:49:19.000Z</time>
      </trkpt>
      <trkpt lat="43.67611" lon="5.8318">
        <ele>501</ele>
        <time>2016-04-30T09:49:21.000Z</time>
      </trkpt>
      <trkpt lat="43.67611" lon="5.8318">
        <ele>501</ele>
        <time>2016-04-30T09:49:23.000Z</time>
      </trkpt>
      <trkpt lat="43.67572" lon="5.83208">
        <ele>503</ele>
        <time>2016-04-30T09:49:29.000Z</time>
      </trkpt>
      <trkpt lat="43.6755" lon="5.83225">
        <ele>504</ele>
        <time>2016-04-30T09:49:31.000Z</time>
      </trkpt>
      <trkpt lat="43.6755" lon="5.83225">
        <ele>504</ele>
        <time>2016-04-30T09:49:33.000Z</time>
      </trkpt>
      <trkpt lat="43.6755" lon="5.83225">
        <ele>504</ele>
        <time>2016-04-30T09:49:35.000Z</time>
      </trkpt>
      <trkpt lat="43.6755" lon="5.83225">
        <ele>504</ele>
        <time>2016-04-30T09:49:37.000Z</time>
      </trkpt>
      <trkpt lat="43.6755" lon="5.83225">
        <ele>504</ele>
        <time>2016-04-30T09:49:39.000Z</time>
      </trkpt>
      <trkpt lat="43.6755" lon="5.83225">
        <ele>504</ele>
        <time>2016-04-30T09:49:41.000Z</time>
      </trkpt>
      <trkpt lat="43.6755" lon="5.83225">
        <ele>504</ele>
        <time>2016-04-30T09:49:43.000Z</time>
      </trkpt>
      <trkpt lat="43.67515" lon="5.83265">
        <ele>505</ele>
        <time>2016-04-30T09:49:47.000Z</time>
      </trkpt>
      <trkpt lat="43.67494" lon="5.83288">
        <ele>505</ele>
        <time>2016-04-30T09:49:49.000Z</time>
      </trkpt>
      <trkpt lat="43.6748" lon="5.83303">
        <ele>505</ele>
        <time>2016-04-30T09:49:51.000Z</time>
      </trkpt>
      <trkpt lat="43.6748" lon="5.83303">
        <ele>505</ele>
        <time>2016-04-30T09:49:53.000Z</time>
      </trkpt>
      <trkpt lat="43.6748" lon="5.83303">
        <ele>505</ele>
        <time>2016-04-30T09:49:55.000Z</time>
      </trkpt>
      <trkpt lat="43.67457" lon="5.83312">
        <ele>505</ele>
        <time>2016-04-30T09:49:59.000Z</time>
      </trkpt>
      <trkpt lat="43.67441" lon="5.83316">
        <ele>505</ele>
        <time>2016-04-30T09:50:01.000Z</time>
      </trkpt>
      <trkpt lat="43.67428" lon="5.8332">
        <ele>504</ele>
        <time>2016-04-30T09:50:03.000Z</time>
      </trkpt>
      <trkpt lat="43.67417" lon="5.83324">
        <ele>504</ele>
        <time>2016-04-30T09:50:05.000Z</time>
      </trkpt>
      <trkpt lat="43.67408" lon="5.83327">
        <ele>504</ele>
        <time>2016-04-30T09:50:07.000Z</time>
      </trkpt>
      <trkpt lat="43.67389" lon="5.83334">
        <ele>504</ele>
        <time>2016-04-30T09:50:09.000Z</time>
      </trkpt>
      <trkpt lat="43.67389" lon="5.83334">
        <ele>504</ele>
        <time>2016-04-30T09:50:11.000Z</time>
      </trkpt>
      <trkpt lat="43.67389" lon="5.83334">
        <ele>504</ele>
        <time>2016-04-30T09:50:13.000Z</time>
      </trkpt>
      <trkpt lat="43.67389" lon="5.83334">
        <ele>504</ele>
        <time>2016-04-30T09:50:15.000Z</time>
      </trkpt>
      <trkpt lat="43.67389" lon="5.83334">
        <ele>504</ele>
        <time>2016-04-30T09:50:17.000Z</time>
      </trkpt>
      <trkpt lat="43.67389" lon="5.83334">
        <ele>504</ele>
        <time>2016-04-30T09:50:19.000Z</time>
      </trkpt>
      <trkpt lat="43.67389" lon="5.83334">
        <ele>504</ele>
        <time>2016-04-30T09:50:21.000Z</time>
      </trkpt>
      <trkpt lat="43.67389" lon="5.83334">
        <ele>504</ele>
        <time>2016-04-30T09:50:23.000Z</time>
      </trkpt>
      <trkpt lat="43.67389" lon="5.83334">
        <ele>504</ele>
        <time>2016-04-30T09:50:25.000Z</time>
      </trkpt>
      <trkpt lat="43.67389" lon="5.83334">
        <ele>504</ele>
        <time>2016-04-30T09:50:27.000Z</time>
      </trkpt>
      <trkpt lat="43.67389" lon="5.83334">
        <ele>504</ele>
        <time>2016-04-30T09:50:29.000Z</time>
      </trkpt>
      <trkpt lat="43.67389" lon="5.83334">
        <ele>504</ele>
        <time>2016-04-30T09:50:31.000Z</time>
      </trkpt>
      <trkpt lat="43.67389" lon="5.83334">
        <ele>504</ele>
        <time>2016-04-30T09:50:33.000Z</time>
      </trkpt>
      <trkpt lat="43.67389" lon="5.83334">
        <ele>504</ele>
        <time>2016-04-30T09:50:35.000Z</time>
      </trkpt>
      <trkpt lat="43.67389" lon="5.83334">
        <ele>504</ele>
        <time>2016-04-30T09:50:37.000Z</time>
      </trkpt>
      <trkpt lat="43.67283" lon="5.83392">
        <ele>503</ele>
        <time>2016-04-30T09:50:39.000Z</time>
      </trkpt>
      <trkpt lat="43.67273" lon="5.83397">
        <ele>502</ele>
        <time>2016-04-30T09:50:41.000Z</time>
      </trkpt>
      <trkpt lat="43.67273" lon="5.83397">
        <ele>502</ele>
        <time>2016-04-30T09:50:44.000Z</time>
      </trkpt>
      <trkpt lat="43.67273" lon="5.83397">
        <ele>502</ele>
        <time>2016-04-30T09:50:46.000Z</time>
      </trkpt>
      <trkpt lat="43.67273" lon="5.83397">
        <ele>502</ele>
        <time>2016-04-30T09:50:48.000Z</time>
      </trkpt>
      <trkpt lat="43.67273" lon="5.83397">
        <ele>502</ele>
        <time>2016-04-30T09:50:50.000Z</time>
      </trkpt>
      <trkpt lat="43.67273" lon="5.83397">
        <ele>502</ele>
        <time>2016-04-30T09:50:52.000Z</time>
      </trkpt>
      <trkpt lat="43.67273" lon="5.83397">
        <ele>502</ele>
        <time>2016-04-30T09:50:54.000Z</time>
      </trkpt>
      <trkpt lat="43.67273" lon="5.83397">
        <ele>502</ele>
        <time>2016-04-30T09:50:56.000Z</time>
      </trkpt>
      <trkpt lat="43.67273" lon="5.83397">
        <ele>502</ele>
        <time>2016-04-30T09:51:02.000Z</time>
      </trkpt>
      <trkpt lat="43.67273" lon="5.83397">
        <ele>502</ele>
        <time>2016-04-30T09:51:04.000Z</time>
      </trkpt>
      <trkpt lat="43.67242" lon="5.83492">
        <ele>496</ele>
        <time>2016-04-30T09:51:08.000Z</time>
      </trkpt>
      <trkpt lat="43.67235" lon="5.83517">
        <ele>496</ele>
        <time>2016-04-30T09:51:12.000Z</time>
      </trkpt>
      <trkpt lat="43.67232" lon="5.83529">
        <ele>496</ele>
        <time>2016-04-30T09:51:14.000Z</time>
      </trkpt>
      <trkpt lat="43.67228" lon="5.83544">
        <ele>495</ele>
        <time>2016-04-30T09:51:16.000Z</time>
      </trkpt>
      <trkpt lat="43.67225" lon="5.8356">
        <ele>494</ele>
        <time>2016-04-30T09:51:18.000Z</time>
      </trkpt>
      <trkpt lat="43.67221" lon="5.83577">
        <ele>493</ele>
        <time>2016-04-30T09:51:20.000Z</time>
      </trkpt>
      <trkpt lat="43.67217" lon="5.83595">
        <ele>492</ele>
        <time>2016-04-30T09:51:22.000Z</time>
      </trkpt>
      <trkpt lat="43.67212" lon="5.83612">
        <ele>491</ele>
        <time>2016-04-30T09:51:24.000Z</time>
      </trkpt>
      <trkpt lat="43.67207" lon="5.83632">
        <ele>490</ele>
        <time>2016-04-30T09:51:26.000Z</time>
      </trkpt>
      <trkpt lat="43.67204" lon="5.83651">
        <ele>490</ele>
        <time>2016-04-30T09:51:28.000Z</time>
      </trkpt>
      <trkpt lat="43.672" lon="5.83668">
        <ele>490</ele>
        <time>2016-04-30T09:51:30.000Z</time>
      </trkpt>
      <trkpt lat="43.67195" lon="5.83686">
        <ele>490</ele>
        <time>2016-04-30T09:51:32.000Z</time>
      </trkpt>
      <trkpt lat="43.67191" lon="5.83702">
        <ele>488</ele>
        <time>2016-04-30T09:51:34.000Z</time>
      </trkpt>
      <trkpt lat="43.67186" lon="5.83718">
        <ele>487</ele>
        <time>2016-04-30T09:51:36.000Z</time>
      </trkpt>
      <trkpt lat="43.67182" lon="5.83733">
        <ele>486</ele>
        <time>2016-04-30T09:51:38.000Z</time>
      </trkpt>
      <trkpt lat="43.6718" lon="5.83745">
        <ele>485</ele>
        <time>2016-04-30T09:51:40.000Z</time>
      </trkpt>
      <trkpt lat="43.6718" lon="5.83745">
        <ele>485</ele>
        <time>2016-04-30T09:51:42.000Z</time>
      </trkpt>
      <trkpt lat="43.6718" lon="5.83745">
        <ele>485</ele>
        <time>2016-04-30T09:51:44.000Z</time>
      </trkpt>
      <trkpt lat="43.6718" lon="5.83745">
        <ele>485</ele>
        <time>2016-04-30T09:51:46.000Z</time>
      </trkpt>
      <trkpt lat="43.6718" lon="5.83745">
        <ele>485</ele>
        <time>2016-04-30T09:51:48.000Z</time>
      </trkpt>
      <trkpt lat="43.6718" lon="5.83745">
        <ele>485</ele>
        <time>2016-04-30T09:51:50.000Z</time>
      </trkpt>
      <trkpt lat="43.6718" lon="5.83745">
        <ele>485</ele>
        <time>2016-04-30T09:51:52.000Z</time>
      </trkpt>
      <trkpt lat="43.6718" lon="5.83745">
        <ele>485</ele>
        <time>2016-04-30T09:51:54.000Z</time>
      </trkpt>
      <trkpt lat="43.67174" lon="5.83769">
        <ele>483</ele>
        <time>2016-04-30T09:51:58.000Z</time>
      </trkpt>
      <trkpt lat="43.6717" lon="5.83785">
        <ele>483</ele>
        <time>2016-04-30T09:52:00.000Z</time>
      </trkpt>
      <trkpt lat="43.67167" lon="5.83797">
        <ele>483</ele>
        <time>2016-04-30T09:52:02.000Z</time>
      </trkpt>
      <trkpt lat="43.67165" lon="5.83806">
        <ele>483</ele>
        <time>2016-04-30T09:52:04.000Z</time>
      </trkpt>
      <trkpt lat="43.67162" lon="5.83814">
        <ele>481</ele>
        <time>2016-04-30T09:52:06.000Z</time>
      </trkpt>
      <trkpt lat="43.67157" lon="5.83829">
        <ele>481</ele>
        <time>2016-04-30T09:52:08.000Z</time>
      </trkpt>
      <trkpt lat="43.67157" lon="5.83829">
        <ele>481</ele>
        <time>2016-04-30T09:52:10.000Z</time>
      </trkpt>
      <trkpt lat="43.67154" lon="5.83846">
        <ele>480</ele>
        <time>2016-04-30T09:52:12.000Z</time>
      </trkpt>
      <trkpt lat="43.6715" lon="5.83861">
        <ele>479</ele>
        <time>2016-04-30T09:52:14.000Z</time>
      </trkpt>
      <trkpt lat="43.67152" lon="5.83875">
        <ele>478</ele>
        <time>2016-04-30T09:52:18.000Z</time>
      </trkpt>
      <trkpt lat="43.67152" lon="5.83875">
        <ele>478</ele>
        <time>2016-04-30T09:52:20.000Z</time>
      </trkpt>
      <trkpt lat="43.67152" lon="5.83875">
        <ele>478</ele>
        <time>2016-04-30T09:52:22.000Z</time>
      </trkpt>
      <trkpt lat="43.67152" lon="5.83875">
        <ele>478</ele>
        <time>2016-04-30T09:52:24.000Z</time>
      </trkpt>
      <trkpt lat="43.67152" lon="5.83875">
        <ele>478</ele>
        <time>2016-04-30T09:52:26.000Z</time>
      </trkpt>
      <trkpt lat="43.67153" lon="5.83878">
        <ele>480</ele>
        <time>2016-04-30T09:52:40.000Z</time>
      </trkpt>
      <trkpt lat="43.67148" lon="5.83866">
        <ele>480</ele>
        <time>2016-04-30T09:52:48.000Z</time>
      </trkpt>
      <trkpt lat="43.67148" lon="5.83866">
        <ele>480</ele>
        <time>2016-04-30T09:52:56.000Z</time>
      </trkpt>
      <trkpt lat="43.67148" lon="5.83866">
        <ele>480</ele>
        <time>2016-04-30T09:52:58.000Z</time>
      </trkpt>
      <trkpt lat="43.67148" lon="5.83866">
        <ele>480</ele>
        <time>2016-04-30T09:53:00.000Z</time>
      </trkpt>
      <trkpt lat="43.67168" lon="5.83875">
        <ele>478</ele>
        <time>2016-04-30T09:53:11.000Z</time>
      </trkpt>
      <trkpt lat="43.67184" lon="5.83896">
        <ele>475</ele>
        <time>2016-04-30T09:53:15.000Z</time>
      </trkpt>
      <trkpt lat="43.67184" lon="5.83896">
        <ele>475</ele>
        <time>2016-04-30T09:53:17.000Z</time>
      </trkpt>
      <trkpt lat="43.67184" lon="5.83896">
        <ele>475</ele>
        <time>2016-04-30T09:53:19.000Z</time>
      </trkpt>
      <trkpt lat="43.67184" lon="5.83896">
        <ele>475</ele>
        <time>2016-04-30T09:53:21.000Z</time>
      </trkpt>
      <trkpt lat="43.67184" lon="5.83896">
        <ele>475</ele>
        <time>2016-04-30T09:53:23.000Z</time>
      </trkpt>
      <trkpt lat="43.67184" lon="5.83896">
        <ele>475</ele>
        <time>2016-04-30T09:53:25.000Z</time>
      </trkpt>
      <trkpt lat="43.67184" lon="5.83896">
        <ele>475</ele>
        <time>2016-04-30T09:53:27.000Z</time>
      </trkpt>
      <trkpt lat="43.67184" lon="5.83896">
        <ele>475</ele>
        <time>2016-04-30T09:53:29.000Z</time>
      </trkpt>
      <trkpt lat="43.67184" lon="5.83896">
        <ele>475</ele>
        <time>2016-04-30T09:53:31.000Z</time>
      </trkpt>
      <trkpt lat="43.67184" lon="5.83896">
        <ele>475</ele>
        <time>2016-04-30T09:53:33.000Z</time>
      </trkpt>
      <trkpt lat="43.67184" lon="5.83896">
        <ele>475</ele>
        <time>2016-04-30T09:53:35.000Z</time>
      </trkpt>
      <trkpt lat="43.67184" lon="5.83896">
        <ele>475</ele>
        <time>2016-04-30T09:53:37.000Z</time>
      </trkpt>
      <trkpt lat="43.67184" lon="5.83896">
        <ele>475</ele>
        <time>2016-04-30T09:53:39.000Z</time>
      </trkpt>
      <trkpt lat="43.67118" lon="5.84011">
        <ele>472</ele>
        <time>2016-04-30T09:53:45.000Z</time>
      </trkpt>
      <trkpt lat="43.67111" lon="5.8402">
        <ele>472</ele>
        <time>2016-04-30T09:53:47.000Z</time>
      </trkpt>
      <trkpt lat="43.67105" lon="5.84029">
        <ele>472</ele>
        <time>2016-04-30T09:53:49.000Z</time>
      </trkpt>
      <trkpt lat="43.67094" lon="5.84044">
        <ele>472</ele>
        <time>2016-04-30T09:53:53.000Z</time>
      </trkpt>
      <trkpt lat="43.67094" lon="5.84044">
        <ele>472</ele>
        <time>2016-04-30T09:53:55.000Z</time>
      </trkpt>
      <trkpt lat="43.67094" lon="5.84044">
        <ele>472</ele>
        <time>2016-04-30T09:53:57.000Z</time>
      </trkpt>
      <trkpt lat="43.67094" lon="5.84044">
        <ele>472</ele>
        <time>2016-04-30T09:54:07.000Z</time>
      </trkpt>
      <trkpt lat="43.67094" lon="5.84044">
        <ele>472</ele>
        <time>2016-04-30T09:54:09.000Z</time>
      </trkpt>
      <trkpt lat="43.67094" lon="5.84044">
        <ele>472</ele>
        <time>2016-04-30T09:54:11.000Z</time>
      </trkpt>
      <trkpt lat="43.67094" lon="5.84044">
        <ele>472</ele>
        <time>2016-04-30T09:54:13.000Z</time>
      </trkpt>
      <trkpt lat="43.67094" lon="5.84044">
        <ele>472</ele>
        <time>2016-04-30T09:54:15.000Z</time>
      </trkpt>
      <trkpt lat="43.67094" lon="5.84044">
        <ele>472</ele>
        <time>2016-04-30T09:54:17.000Z</time>
      </trkpt>
      <trkpt lat="43.67094" lon="5.84044">
        <ele>472</ele>
        <time>2016-04-30T09:54:19.000Z</time>
      </trkpt>
      <trkpt lat="43.67094" lon="5.84044">
        <ele>472</ele>
        <time>2016-04-30T09:54:21.000Z</time>
      </trkpt>
      <trkpt lat="43.67094" lon="5.84044">
        <ele>472</ele>
        <time>2016-04-30T09:54:23.000Z</time>
      </trkpt>
      <trkpt lat="43.67094" lon="5.84044">
        <ele>472</ele>
        <time>2016-04-30T09:54:25.000Z</time>
      </trkpt>
      <trkpt lat="43.67094" lon="5.84044">
        <ele>472</ele>
        <time>2016-04-30T09:54:27.000Z</time>
      </trkpt>
      <trkpt lat="43.67094" lon="5.84044">
        <ele>472</ele>
        <time>2016-04-30T09:54:29.000Z</time>
      </trkpt>
      <trkpt lat="43.67094" lon="5.84044">
        <ele>472</ele>
        <time>2016-04-30T09:54:31.000Z</time>
      </trkpt>
      <trkpt lat="43.67051" lon="5.84128">
        <ele>473</ele>
        <time>2016-04-30T09:54:35.000Z</time>
      </trkpt>
      <trkpt lat="43.67027" lon="5.84182">
        <ele>472</ele>
        <time>2016-04-30T09:54:38.000Z</time>
      </trkpt>
      <trkpt lat="43.67014" lon="5.84216">
        <ele>473</ele>
        <time>2016-04-30T09:54:40.000Z</time>
      </trkpt>
      <trkpt lat="43.67006" lon="5.84239">
        <ele>473</ele>
        <time>2016-04-30T09:54:42.000Z</time>
      </trkpt>
      <trkpt lat="43.66999" lon="5.84255">
        <ele>472</ele>
        <time>2016-04-30T09:54:44.000Z</time>
      </trkpt>
      <trkpt lat="43.66999" lon="5.84255">
        <ele>472</ele>
        <time>2016-04-30T09:54:46.000Z</time>
      </trkpt>
      <trkpt lat="43.66999" lon="5.84255">
        <ele>472</ele>
        <time>2016-04-30T09:54:48.000Z</time>
      </trkpt>
      <trkpt lat="43.66999" lon="5.84255">
        <ele>472</ele>
        <time>2016-04-30T09:54:50.000Z</time>
      </trkpt>
      <trkpt lat="43.66951" lon="5.84308">
        <ele>472</ele>
        <time>2016-04-30T09:54:56.000Z</time>
      </trkpt>
      <trkpt lat="43.66944" lon="5.84317">
        <ele>471</ele>
        <time>2016-04-30T09:54:58.000Z</time>
      </trkpt>
      <trkpt lat="43.66937" lon="5.84325">
        <ele>472</ele>
        <time>2016-04-30T09:55:00.000Z</time>
      </trkpt>
      <trkpt lat="43.6693" lon="5.84335">
        <ele>472</ele>
        <time>2016-04-30T09:55:02.000Z</time>
      </trkpt>
      <trkpt lat="43.66923" lon="5.84345">
        <ele>471</ele>
        <time>2016-04-30T09:55:04.000Z</time>
      </trkpt>
      <trkpt lat="43.66917" lon="5.84354">
        <ele>471</ele>
        <time>2016-04-30T09:55:06.000Z</time>
      </trkpt>
      <trkpt lat="43.66904" lon="5.84371">
        <ele>472</ele>
        <time>2016-04-30T09:55:10.000Z</time>
      </trkpt>
      <trkpt lat="43.66897" lon="5.8438">
        <ele>472</ele>
        <time>2016-04-30T09:55:12.000Z</time>
      </trkpt>
      <trkpt lat="43.6689" lon="5.84388">
        <ele>472</ele>
        <time>2016-04-30T09:55:14.000Z</time>
      </trkpt>
      <trkpt lat="43.6689" lon="5.84388">
        <ele>472</ele>
        <time>2016-04-30T09:55:16.000Z</time>
      </trkpt>
      <trkpt lat="43.6689" lon="5.84388">
        <ele>472</ele>
        <time>2016-04-30T09:55:18.000Z</time>
      </trkpt>
      <trkpt lat="43.6689" lon="5.84388">
        <ele>472</ele>
        <time>2016-04-30T09:55:20.000Z</time>
      </trkpt>
      <trkpt lat="43.6689" lon="5.84388">
        <ele>472</ele>
        <time>2016-04-30T09:55:22.000Z</time>
      </trkpt>
      <trkpt lat="43.6689" lon="5.84388">
        <ele>472</ele>
        <time>2016-04-30T09:55:24.000Z</time>
      </trkpt>
      <trkpt lat="43.6689" lon="5.84388">
        <ele>472</ele>
        <time>2016-04-30T09:55:26.000Z</time>
      </trkpt>
      <trkpt lat="43.6689" lon="5.84388">
        <ele>472</ele>
        <time>2016-04-30T09:55:28.000Z</time>
      </trkpt>
      <trkpt lat="43.6689" lon="5.84388">
        <ele>472</ele>
        <time>2016-04-30T09:55:36.000Z</time>
      </trkpt>
      <trkpt lat="43.6689" lon="5.84388">
        <ele>472</ele>
        <time>2016-04-30T09:55:38.000Z</time>
      </trkpt>
      <trkpt lat="43.6689" lon="5.84388">
        <ele>472</ele>
        <time>2016-04-30T09:55:40.000Z</time>
      </trkpt>
      <trkpt lat="43.6689" lon="5.84388">
        <ele>472</ele>
        <time>2016-04-30T09:55:42.000Z</time>
      </trkpt>
      <trkpt lat="43.6682" lon="5.84555">
        <ele>472</ele>
        <time>2016-04-30T09:55:46.000Z</time>
      </trkpt>
      <trkpt lat="43.66818" lon="5.84567">
        <ele>472</ele>
        <time>2016-04-30T09:55:48.000Z</time>
      </trkpt>
      <trkpt lat="43.66815" lon="5.84579">
        <ele>472</ele>
        <time>2016-04-30T09:55:50.000Z</time>
      </trkpt>
      <trkpt lat="43.66813" lon="5.84592">
        <ele>472</ele>
        <time>2016-04-30T09:55:52.000Z</time>
      </trkpt>
      <trkpt lat="43.6681" lon="5.84605">
        <ele>472</ele>
        <time>2016-04-30T09:55:54.000Z</time>
      </trkpt>
      <trkpt lat="43.66808" lon="5.84617">
        <ele>472</ele>
        <time>2016-04-30T09:55:56.000Z</time>
      </trkpt>
      <trkpt lat="43.66805" lon="5.8463">
        <ele>472</ele>
        <time>2016-04-30T09:55:58.000Z</time>
      </trkpt>
      <trkpt lat="43.66802" lon="5.84643">
        <ele>471</ele>
        <time>2016-04-30T09:56:00.000Z</time>
      </trkpt>
      <trkpt lat="43.66799" lon="5.84655">
        <ele>471</ele>
        <time>2016-04-30T09:56:02.000Z</time>
      </trkpt>
      <trkpt lat="43.66796" lon="5.84667">
        <ele>472</ele>
        <time>2016-04-30T09:56:04.000Z</time>
      </trkpt>
      <trkpt lat="43.66796" lon="5.84667">
        <ele>472</ele>
        <time>2016-04-30T09:56:06.000Z</time>
      </trkpt>
      <trkpt lat="43.66796" lon="5.84667">
        <ele>472</ele>
        <time>2016-04-30T09:56:08.000Z</time>
      </trkpt>
      <trkpt lat="43.66785" lon="5.8472">
        <ele>471</ele>
        <time>2016-04-30T09:56:12.000Z</time>
      </trkpt>
      <trkpt lat="43.66782" lon="5.84734">
        <ele>471</ele>
        <time>2016-04-30T09:56:14.000Z</time>
      </trkpt>
      <trkpt lat="43.66778" lon="5.84749">
        <ele>470</ele>
        <time>2016-04-30T09:56:16.000Z</time>
      </trkpt>
      <trkpt lat="43.66773" lon="5.84764">
        <ele>469</ele>
        <time>2016-04-30T09:56:18.000Z</time>
      </trkpt>
      <trkpt lat="43.66768" lon="5.8478">
        <ele>468</ele>
        <time>2016-04-30T09:56:20.000Z</time>
      </trkpt>
      <trkpt lat="43.66763" lon="5.84797">
        <ele>468</ele>
        <time>2016-04-30T09:56:22.000Z</time>
      </trkpt>
      <trkpt lat="43.66757" lon="5.84813">
        <ele>467</ele>
        <time>2016-04-30T09:56:24.000Z</time>
      </trkpt>
      <trkpt lat="43.66752" lon="5.8483">
        <ele>467</ele>
        <time>2016-04-30T09:56:26.000Z</time>
      </trkpt>
      <trkpt lat="43.66747" lon="5.84845">
        <ele>466</ele>
        <time>2016-04-30T09:56:28.000Z</time>
      </trkpt>
      <trkpt lat="43.66742" lon="5.8486">
        <ele>466</ele>
        <time>2016-04-30T09:56:30.000Z</time>
      </trkpt>
      <trkpt lat="43.66737" lon="5.84875">
        <ele>465</ele>
        <time>2016-04-30T09:56:32.000Z</time>
      </trkpt>
      <trkpt lat="43.66732" lon="5.84889">
        <ele>466</ele>
        <time>2016-04-30T09:56:34.000Z</time>
      </trkpt>
      <trkpt lat="43.66727" lon="5.84901">
        <ele>465</ele>
        <time>2016-04-30T09:56:36.000Z</time>
      </trkpt>
      <trkpt lat="43.66721" lon="5.84914">
        <ele>465</ele>
        <time>2016-04-30T09:56:38.000Z</time>
      </trkpt>
      <trkpt lat="43.66717" lon="5.84927">
        <ele>465</ele>
        <time>2016-04-30T09:56:40.000Z</time>
      </trkpt>
      <trkpt lat="43.66717" lon="5.84927">
        <ele>465</ele>
        <time>2016-04-30T09:56:42.000Z</time>
      </trkpt>
      <trkpt lat="43.66717" lon="5.84927">
        <ele>465</ele>
        <time>2016-04-30T09:56:44.000Z</time>
      </trkpt>
      <trkpt lat="43.66717" lon="5.84927">
        <ele>465</ele>
        <time>2016-04-30T09:56:46.000Z</time>
      </trkpt>
      <trkpt lat="43.66717" lon="5.84927">
        <ele>465</ele>
        <time>2016-04-30T09:56:48.000Z</time>
      </trkpt>
      <trkpt lat="43.66717" lon="5.84927">
        <ele>465</ele>
        <time>2016-04-30T09:56:50.000Z</time>
      </trkpt>
      <trkpt lat="43.66717" lon="5.84927">
        <ele>465</ele>
        <time>2016-04-30T09:56:52.000Z</time>
      </trkpt>
      <trkpt lat="43.66737" lon="5.84948">
        <ele>464</ele>
        <time>2016-04-30T09:56:56.000Z</time>
      </trkpt>
      <trkpt lat="43.66752" lon="5.84956">
        <ele>465</ele>
        <time>2016-04-30T09:56:58.000Z</time>
      </trkpt>
      <trkpt lat="43.66764" lon="5.84958">
        <ele>466</ele>
        <time>2016-04-30T09:57:00.000Z</time>
      </trkpt>
      <trkpt lat="43.66774" lon="5.84957">
        <ele>466</ele>
        <time>2016-04-30T09:57:02.000Z</time>
      </trkpt>
      <trkpt lat="43.66785" lon="5.84954">
        <ele>466</ele>
        <time>2016-04-30T09:57:04.000Z</time>
      </trkpt>
      <trkpt lat="43.66805" lon="5.84949">
        <ele>466</ele>
        <time>2016-04-30T09:57:06.000Z</time>
      </trkpt>
      <trkpt lat="43.66815" lon="5.84944">
        <ele>467</ele>
        <time>2016-04-30T09:57:08.000Z</time>
      </trkpt>
      <trkpt lat="43.66826" lon="5.8494">
        <ele>467</ele>
        <time>2016-04-30T09:57:10.000Z</time>
      </trkpt>
      <trkpt lat="43.66837" lon="5.84937">
        <ele>467</ele>
        <time>2016-04-30T09:57:12.000Z</time>
      </trkpt>
      <trkpt lat="43.66849" lon="5.84934">
        <ele>468</ele>
        <time>2016-04-30T09:57:14.000Z</time>
      </trkpt>
      <trkpt lat="43.66859" lon="5.84932">
        <ele>468</ele>
        <time>2016-04-30T09:57:16.000Z</time>
      </trkpt>
      <trkpt lat="43.6687" lon="5.84929">
        <ele>468</ele>
        <time>2016-04-30T09:57:18.000Z</time>
      </trkpt>
      <trkpt lat="43.6687" lon="5.84929">
        <ele>468</ele>
        <time>2016-04-30T09:57:20.000Z</time>
      </trkpt>
      <trkpt lat="43.6687" lon="5.84929">
        <ele>468</ele>
        <time>2016-04-30T09:57:22.000Z</time>
      </trkpt>
      <trkpt lat="43.6687" lon="5.84929">
        <ele>468</ele>
        <time>2016-04-30T09:57:24.000Z</time>
      </trkpt>
      <trkpt lat="43.6687" lon="5.84929">
        <ele>468</ele>
        <time>2016-04-30T09:57:26.000Z</time>
      </trkpt>
      <trkpt lat="43.6687" lon="5.84929">
        <ele>468</ele>
        <time>2016-04-30T09:57:28.000Z</time>
      </trkpt>
      <trkpt lat="43.6687" lon="5.84929">
        <ele>468</ele>
        <time>2016-04-30T09:57:30.000Z</time>
      </trkpt>
      <trkpt lat="43.6687" lon="5.84929">
        <ele>468</ele>
        <time>2016-04-30T09:57:32.000Z</time>
      </trkpt>
      <trkpt lat="43.6687" lon="5.84929">
        <ele>468</ele>
        <time>2016-04-30T09:57:34.000Z</time>
      </trkpt>
      <trkpt lat="43.6687" lon="5.84929">
        <ele>468</ele>
        <time>2016-04-30T09:57:36.000Z</time>
      </trkpt>
      <trkpt lat="43.6687" lon="5.84929">
        <ele>468</ele>
        <time>2016-04-30T09:57:38.000Z</time>
      </trkpt>
      <trkpt lat="43.66962" lon="5.84893">
        <ele>470</ele>
        <time>2016-04-30T09:57:42.000Z</time>
      </trkpt>
      <trkpt lat="43.66971" lon="5.84889">
        <ele>471</ele>
        <time>2016-04-30T09:57:44.000Z</time>
      </trkpt>
      <trkpt lat="43.66979" lon="5.84882">
        <ele>470</ele>
        <time>2016-04-30T09:57:46.000Z</time>
      </trkpt>
      <trkpt lat="43.66979" lon="5.84882">
        <ele>470</ele>
        <time>2016-04-30T09:57:48.000Z</time>
      </trkpt>
      <trkpt lat="43.66979" lon="5.84882">
        <ele>470</ele>
        <time>2016-04-30T09:57:50.000Z</time>
      </trkpt>
      <trkpt lat="43.66979" lon="5.84882">
        <ele>470</ele>
        <time>2016-04-30T09:57:52.000Z</time>
      </trkpt>
      <trkpt lat="43.66979" lon="5.84882">
        <ele>470</ele>
        <time>2016-04-30T09:57:54.000Z</time>
      </trkpt>
      <trkpt lat="43.66979" lon="5.84882">
        <ele>470</ele>
        <time>2016-04-30T09:57:56.000Z</time>
      </trkpt>
      <trkpt lat="43.66979" lon="5.84882">
        <ele>470</ele>
        <time>2016-04-30T09:57:58.000Z</time>
      </trkpt>
      <trkpt lat="43.67007" lon="5.84878">
        <ele>469</ele>
        <time>2016-04-30T09:58:10.000Z</time>
      </trkpt>
      <trkpt lat="43.67007" lon="5.84878">
        <ele>469</ele>
        <time>2016-04-30T09:58:12.000Z</time>
      </trkpt>
      <trkpt lat="43.67007" lon="5.84878">
        <ele>469</ele>
        <time>2016-04-30T09:58:14.000Z</time>
      </trkpt>
      <trkpt lat="43.67007" lon="5.84878">
        <ele>469</ele>
        <time>2016-04-30T09:58:16.000Z</time>
      </trkpt>
      <trkpt lat="43.67007" lon="5.84878">
        <ele>469</ele>
        <time>2016-04-30T09:58:18.000Z</time>
      </trkpt>
      <trkpt lat="43.67023" lon="5.84876">
        <ele>471</ele>
        <time>2016-04-30T09:58:26.000Z</time>
      </trkpt>
      <trkpt lat="43.67034" lon="5.8487">
        <ele>472</ele>
        <time>2016-04-30T09:58:30.000Z</time>
      </trkpt>
      <trkpt lat="43.67046" lon="5.84863">
        <ele>468</ele>
        <time>2016-04-30T09:58:34.000Z</time>
      </trkpt>
      <trkpt lat="43.67057" lon="5.84856">
        <ele>468</ele>
        <time>2016-04-30T09:58:38.000Z</time>
      </trkpt>
      <trkpt lat="43.67067" lon="5.84849">
        <ele>468</ele>
        <time>2016-04-30T09:58:42.000Z</time>
      </trkpt>
      <trkpt lat="43.67079" lon="5.84843">
        <ele>469</ele>
        <time>2016-04-30T09:58:46.000Z</time>
      </trkpt>
      <trkpt lat="43.67091" lon="5.84837">
        <ele>469</ele>
        <time>2016-04-30T09:58:50.000Z</time>
      </trkpt>
      <trkpt lat="43.67091" lon="5.84837">
        <ele>469</ele>
        <time>2016-04-30T09:58:54.000Z</time>
      </trkpt>
      <trkpt lat="43.67091" lon="5.84837">
        <ele>469</ele>
        <time>2016-04-30T09:58:56.000Z</time>
      </trkpt>
      <trkpt lat="43.67091" lon="5.84837">
        <ele>469</ele>
        <time>2016-04-30T09:58:58.000Z</time>
      </trkpt>
      <trkpt lat="43.67091" lon="5.84837">
        <ele>469</ele>
        <time>2016-04-30T09:59:00.000Z</time>
      </trkpt>
      <trkpt lat="43.67091" lon="5.84837">
        <ele>469</ele>
        <time>2016-04-30T09:59:02.000Z</time>
      </trkpt>
      <trkpt lat="43.67091" lon="5.84837">
        <ele>469</ele>
        <time>2016-04-30T09:59:04.000Z</time>
      </trkpt>
      <trkpt lat="43.67091" lon="5.84837">
        <ele>469</ele>
        <time>2016-04-30T09:59:06.000Z</time>
      </trkpt>
      <trkpt lat="43.67091" lon="5.84837">
        <ele>469</ele>
        <time>2016-04-30T09:59:08.000Z</time>
      </trkpt>
      <trkpt lat="43.67091" lon="5.84837">
        <ele>469</ele>
        <time>2016-04-30T09:59:10.000Z</time>
      </trkpt>
      <trkpt lat="43.67124" lon="5.84882">
        <ele>473</ele>
        <time>2016-04-30T09:59:14.000Z</time>
      </trkpt>
      <trkpt lat="43.67136" lon="5.8489">
        <ele>468</ele>
        <time>2016-04-30T09:59:20.000Z</time>
      </trkpt>
      <trkpt lat="43.67149" lon="5.84902">
        <ele>466</ele>
        <time>2016-04-30T09:59:24.000Z</time>
      </trkpt>
      <trkpt lat="43.67153" lon="5.8492">
        <ele>467</ele>
        <time>2016-04-30T09:59:28.000Z</time>
      </trkpt>
      <trkpt lat="43.67154" lon="5.84938">
        <ele>468</ele>
        <time>2016-04-30T09:59:32.000Z</time>
      </trkpt>
      <trkpt lat="43.67152" lon="5.84959">
        <ele>467</ele>
        <time>2016-04-30T09:59:36.000Z</time>
      </trkpt>
      <trkpt lat="43.67147" lon="5.84979">
        <ele>467</ele>
        <time>2016-04-30T09:59:40.000Z</time>
      </trkpt>
      <trkpt lat="43.6714" lon="5.84997">
        <ele>468</ele>
        <time>2016-04-30T09:59:44.000Z</time>
      </trkpt>
      <trkpt lat="43.6714" lon="5.84997">
        <ele>468</ele>
        <time>2016-04-30T09:59:46.000Z</time>
      </trkpt>
      <trkpt lat="43.6714" lon="5.84997">
        <ele>468</ele>
        <time>2016-04-30T09:59:48.000Z</time>
      </trkpt>
      <trkpt lat="43.6714" lon="5.84997">
        <ele>468</ele>
        <time>2016-04-30T09:59:50.000Z</time>
      </trkpt>
      <trkpt lat="43.6714" lon="5.84997">
        <ele>468</ele>
        <time>2016-04-30T09:59:52.000Z</time>
      </trkpt>
      <trkpt lat="43.6714" lon="5.84997">
        <ele>468</ele>
        <time>2016-04-30T09:59:54.000Z</time>
      </trkpt>
      <trkpt lat="43.6714" lon="5.84997">
        <ele>468</ele>
        <time>2016-04-30T09:59:56.000Z</time>
      </trkpt>
      <trkpt lat="43.6714" lon="5.84997">
        <ele>468</ele>
        <time>2016-04-30T09:59:58.000Z</time>
      </trkpt>
      <trkpt lat="43.6714" lon="5.84997">
        <ele>468</ele>
        <time>2016-04-30T10:00:00.000Z</time>
      </trkpt>
      <trkpt lat="43.6714" lon="5.84997">
        <ele>468</ele>
        <time>2016-04-30T10:00:02.000Z</time>
      </trkpt>
      <trkpt lat="43.6714" lon="5.84997">
        <ele>468</ele>
        <time>2016-04-30T10:00:06.000Z</time>
      </trkpt>
      <trkpt lat="43.6714" lon="5.84997">
        <ele>468</ele>
        <time>2016-04-30T10:00:08.000Z</time>
      </trkpt>
      <trkpt lat="43.6714" lon="5.84997">
        <ele>468</ele>
        <time>2016-04-30T10:00:10.000Z</time>
      </trkpt>
      <trkpt lat="43.67126" lon="5.85039">
        <ele>471</ele>
        <time>2016-04-30T10:00:14.000Z</time>
      </trkpt>
      <trkpt lat="43.67122" lon="5.85061">
        <ele>471</ele>
        <time>2016-04-30T10:00:16.000Z</time>
      </trkpt>
      <trkpt lat="43.67124" lon="5.85073">
        <ele>472</ele>
        <time>2016-04-30T10:00:18.000Z</time>
      </trkpt>
      <trkpt lat="43.67128" lon="5.85081">
        <ele>472</ele>
        <time>2016-04-30T10:00:20.000Z</time>
      </trkpt>
      <trkpt lat="43.67133" lon="5.85089">
        <ele>472</ele>
        <time>2016-04-30T10:00:22.000Z</time>
      </trkpt>
      <trkpt lat="43.67146" lon="5.85104">
        <ele>471</ele>
        <time>2016-04-30T10:00:24.000Z</time>
      </trkpt>
      <trkpt lat="43.6716" lon="5.85118">
        <ele>470</ele>
        <time>2016-04-30T10:00:28.000Z</time>
      </trkpt>
      <trkpt lat="43.67175" lon="5.85132">
        <ele>470</ele>
        <time>2016-04-30T10:00:32.000Z</time>
      </trkpt>
      <trkpt lat="43.67189" lon="5.85146">
        <ele>468</ele>
        <time>2016-04-30T10:00:36.000Z</time>
      </trkpt>
      <trkpt lat="43.67202" lon="5.85159">
        <ele>467</ele>
        <time>2016-04-30T10:00:40.000Z</time>
      </trkpt>
      <trkpt lat="43.67202" lon="5.85159">
        <ele>467</ele>
        <time>2016-04-30T10:00:42.000Z</time>
      </trkpt>
      <trkpt lat="43.67202" lon="5.85159">
        <ele>467</ele>
        <time>2016-04-30T10:00:44.000Z</time>
      </trkpt>
      <trkpt lat="43.67202" lon="5.85159">
        <ele>467</ele>
        <time>2016-04-30T10:00:46.000Z</time>
      </trkpt>
      <trkpt lat="43.67202" lon="5.85159">
        <ele>467</ele>
        <time>2016-04-30T10:00:48.000Z</time>
      </trkpt>
      <trkpt lat="43.67202" lon="5.85159">
        <ele>467</ele>
        <time>2016-04-30T10:00:50.000Z</time>
      </trkpt>
      <trkpt lat="43.67202" lon="5.85159">
        <ele>467</ele>
        <time>2016-04-30T10:00:52.000Z</time>
      </trkpt>
      <trkpt lat="43.67202" lon="5.85159">
        <ele>467</ele>
        <time>2016-04-30T10:00:54.000Z</time>
      </trkpt>
      <trkpt lat="43.67202" lon="5.85159">
        <ele>467</ele>
        <time>2016-04-30T10:00:56.000Z</time>
      </trkpt>
      <trkpt lat="43.67202" lon="5.85159">
        <ele>467</ele>
        <time>2016-04-30T10:00:58.000Z</time>
      </trkpt>
      <trkpt lat="43.67202" lon="5.85159">
        <ele>467</ele>
        <time>2016-04-30T10:01:00.000Z</time>
      </trkpt>
      <trkpt lat="43.67202" lon="5.85159">
        <ele>467</ele>
        <time>2016-04-30T10:01:02.000Z</time>
      </trkpt>
      <trkpt lat="43.67202" lon="5.85159">
        <ele>467</ele>
        <time>2016-04-30T10:01:04.000Z</time>
      </trkpt>
      <trkpt lat="43.67202" lon="5.85159">
        <ele>467</ele>
        <time>2016-04-30T10:01:06.000Z</time>
      </trkpt>
      <trkpt lat="43.67202" lon="5.85159">
        <ele>467</ele>
        <time>2016-04-30T10:01:08.000Z</time>
      </trkpt>
      <trkpt lat="43.67202" lon="5.85159">
        <ele>467</ele>
        <time>2016-04-30T10:01:10.000Z</time>
      </trkpt>
      <trkpt lat="43.67202" lon="5.85159">
        <ele>467</ele>
        <time>2016-04-30T10:01:12.000Z</time>
      </trkpt>
      <trkpt lat="43.67242" lon="5.85225">
        <ele>471</ele>
        <time>2016-04-30T10:02:36.000Z</time>
      </trkpt>
      <trkpt lat="43.67242" lon="5.85248">
        <ele>472</ele>
        <time>2016-04-30T10:02:40.000Z</time>
      </trkpt>
      <trkpt lat="43.67244" lon="5.8527">
        <ele>472</ele>
        <time>2016-04-30T10:02:44.000Z</time>
      </trkpt>
      <trkpt lat="43.67244" lon="5.85292">
        <ele>472</ele>
        <time>2016-04-30T10:02:48.000Z</time>
      </trkpt>
      <trkpt lat="43.67242" lon="5.85314">
        <ele>472</ele>
        <time>2016-04-30T10:02:52.000Z</time>
      </trkpt>
      <trkpt lat="43.67239" lon="5.85337">
        <ele>473</ele>
        <time>2016-04-30T10:02:56.000Z</time>
      </trkpt>
      <trkpt lat="43.67236" lon="5.85358">
        <ele>473</ele>
        <time>2016-04-30T10:03:00.000Z</time>
      </trkpt>
      <trkpt lat="43.67233" lon="5.8538">
        <ele>474</ele>
        <time>2016-04-30T10:03:04.000Z</time>
      </trkpt>
      <trkpt lat="43.6723" lon="5.85401">
        <ele>475</ele>
        <time>2016-04-30T10:03:08.000Z</time>
      </trkpt>
      <trkpt lat="43.6723" lon="5.85401">
        <ele>475</ele>
        <time>2016-04-30T10:03:10.000Z</time>
      </trkpt>
      <trkpt lat="43.6723" lon="5.85401">
        <ele>475</ele>
        <time>2016-04-30T10:03:12.000Z</time>
      </trkpt>
      <trkpt lat="43.6723" lon="5.85401">
        <ele>475</ele>
        <time>2016-04-30T10:03:14.000Z</time>
      </trkpt>
      <trkpt lat="43.6723" lon="5.85401">
        <ele>475</ele>
        <time>2016-04-30T10:03:16.000Z</time>
      </trkpt>
      <trkpt lat="43.6723" lon="5.85401">
        <ele>475</ele>
        <time>2016-04-30T10:03:18.000Z</time>
      </trkpt>
      <trkpt lat="43.6723" lon="5.85401">
        <ele>475</ele>
        <time>2016-04-30T10:03:20.000Z</time>
      </trkpt>
      <trkpt lat="43.6723" lon="5.85401">
        <ele>475</ele>
        <time>2016-04-30T10:03:22.000Z</time>
      </trkpt>
      <trkpt lat="43.6723" lon="5.85401">
        <ele>475</ele>
        <time>2016-04-30T10:03:24.000Z</time>
      </trkpt>
      <trkpt lat="43.6723" lon="5.85401">
        <ele>475</ele>
        <time>2016-04-30T10:03:26.000Z</time>
      </trkpt>
      <trkpt lat="43.6723" lon="5.85401">
        <ele>475</ele>
        <time>2016-04-30T10:03:28.000Z</time>
      </trkpt>
      <trkpt lat="43.6723" lon="5.85401">
        <ele>475</ele>
        <time>2016-04-30T10:03:30.000Z</time>
      </trkpt>
      <trkpt lat="43.6723" lon="5.85401">
        <ele>475</ele>
        <time>2016-04-30T10:03:32.000Z</time>
      </trkpt>
      <trkpt lat="43.6723" lon="5.85401">
        <ele>475</ele>
        <time>2016-04-30T10:03:34.000Z</time>
      </trkpt>
      <trkpt lat="43.6723" lon="5.85401">
        <ele>475</ele>
        <time>2016-04-30T10:03:36.000Z</time>
      </trkpt>
      <trkpt lat="43.6723" lon="5.85401">
        <ele>475</ele>
        <time>2016-04-30T10:03:38.000Z</time>
      </trkpt>
      <trkpt lat="43.6723" lon="5.85401">
        <ele>475</ele>
        <time>2016-04-30T10:03:40.000Z</time>
      </trkpt>
      <trkpt lat="43.6723" lon="5.85401">
        <ele>475</ele>
        <time>2016-04-30T10:03:42.000Z</time>
      </trkpt>
      <trkpt lat="43.6723" lon="5.85401">
        <ele>475</ele>
        <time>2016-04-30T10:03:44.000Z</time>
      </trkpt>
      <trkpt lat="43.6723" lon="5.85401">
        <ele>475</ele>
        <time>2016-04-30T10:03:46.000Z</time>
      </trkpt>
      <trkpt lat="43.6723" lon="5.85401">
        <ele>475</ele>
        <time>2016-04-30T10:03:48.000Z</time>
      </trkpt>
      <trkpt lat="43.6723" lon="5.85401">
        <ele>475</ele>
        <time>2016-04-30T10:03:50.000Z</time>
      </trkpt>
      <trkpt lat="43.67236" lon="5.85523">
        <ele>481</ele>
        <time>2016-04-30T10:03:58.000Z</time>
      </trkpt>
      <trkpt lat="43.67241" lon="5.8559">
        <ele>480</ele>
        <time>2016-04-30T10:04:00.000Z</time>
      </trkpt>
      <trkpt lat="43.67245" lon="5.8563">
        <ele>480</ele>
        <time>2016-04-30T10:04:02.000Z</time>
      </trkpt>
      <trkpt lat="43.67249" lon="5.85656">
        <ele>480</ele>
        <time>2016-04-30T10:04:04.000Z</time>
      </trkpt>
      <trkpt lat="43.67252" lon="5.85677">
        <ele>479</ele>
        <time>2016-04-30T10:04:06.000Z</time>
      </trkpt>
      <trkpt lat="43.67261" lon="5.85713">
        <ele>479</ele>
        <time>2016-04-30T10:04:08.000Z</time>
      </trkpt>
      <trkpt lat="43.67266" lon="5.85728">
        <ele>478</ele>
        <time>2016-04-30T10:04:10.000Z</time>
      </trkpt>
      <trkpt lat="43.67272" lon="5.85744">
        <ele>478</ele>
        <time>2016-04-30T10:04:12.000Z</time>
      </trkpt>
      <trkpt lat="43.67278" lon="5.8576">
        <ele>477</ele>
        <time>2016-04-30T10:04:14.000Z</time>
      </trkpt>
      <trkpt lat="43.67283" lon="5.85777">
        <ele>477</ele>
        <time>2016-04-30T10:04:16.000Z</time>
      </trkpt>
      <trkpt lat="43.67289" lon="5.85793">
        <ele>477</ele>
        <time>2016-04-30T10:04:18.000Z</time>
      </trkpt>
      <trkpt lat="43.67294" lon="5.85809">
        <ele>478</ele>
        <time>2016-04-30T10:04:20.000Z</time>
      </trkpt>
      <trkpt lat="43.67292" lon="5.85824">
        <ele>477</ele>
        <time>2016-04-30T10:04:22.000Z</time>
      </trkpt>
      <trkpt lat="43.67292" lon="5.85824">
        <ele>477</ele>
        <time>2016-04-30T10:04:24.000Z</time>
      </trkpt>
      <trkpt lat="43.67292" lon="5.85824">
        <ele>477</ele>
        <time>2016-04-30T10:04:26.000Z</time>
      </trkpt>
      <trkpt lat="43.67292" lon="5.85824">
        <ele>477</ele>
        <time>2016-04-30T10:04:28.000Z</time>
      </trkpt>
      <trkpt lat="43.67302" lon="5.85899">
        <ele>477</ele>
        <time>2016-04-30T10:04:34.000Z</time>
      </trkpt>
      <trkpt lat="43.67305" lon="5.85913">
        <ele>476</ele>
        <time>2016-04-30T10:04:36.000Z</time>
      </trkpt>
      <trkpt lat="43.67306" lon="5.85927">
        <ele>476</ele>
        <time>2016-04-30T10:04:38.000Z</time>
      </trkpt>
      <trkpt lat="43.67307" lon="5.85942">
        <ele>475</ele>
        <time>2016-04-30T10:04:40.000Z</time>
      </trkpt>
      <trkpt lat="43.67307" lon="5.85956">
        <ele>475</ele>
        <time>2016-04-30T10:04:42.000Z</time>
      </trkpt>
      <trkpt lat="43.67307" lon="5.85969">
        <ele>475</ele>
        <time>2016-04-30T10:04:44.000Z</time>
      </trkpt>
      <trkpt lat="43.67307" lon="5.85969">
        <ele>475</ele>
        <time>2016-04-30T10:04:46.000Z</time>
      </trkpt>
      <trkpt lat="43.67307" lon="5.85969">
        <ele>475</ele>
        <time>2016-04-30T10:04:48.000Z</time>
      </trkpt>
      <trkpt lat="43.67307" lon="5.85969">
        <ele>475</ele>
        <time>2016-04-30T10:04:50.000Z</time>
      </trkpt>
      <trkpt lat="43.67307" lon="5.85969">
        <ele>475</ele>
        <time>2016-04-30T10:04:52.000Z</time>
      </trkpt>
      <trkpt lat="43.67307" lon="5.85969">
        <ele>475</ele>
        <time>2016-04-30T10:04:54.000Z</time>
      </trkpt>
      <trkpt lat="43.67307" lon="5.85969">
        <ele>475</ele>
        <time>2016-04-30T10:04:56.000Z</time>
      </trkpt>
      <trkpt lat="43.67307" lon="5.85969">
        <ele>475</ele>
        <time>2016-04-30T10:05:00.000Z</time>
      </trkpt>
      <trkpt lat="43.67307" lon="5.85969">
        <ele>475</ele>
        <time>2016-04-30T10:05:02.000Z</time>
      </trkpt>
      <trkpt lat="43.67307" lon="5.85969">
        <ele>475</ele>
        <time>2016-04-30T10:05:04.000Z</time>
      </trkpt>
      <trkpt lat="43.67307" lon="5.85969">
        <ele>475</ele>
        <time>2016-04-30T10:05:06.000Z</time>
      </trkpt>
      <trkpt lat="43.67307" lon="5.85969">
        <ele>475</ele>
        <time>2016-04-30T10:05:08.000Z</time>
      </trkpt>
      <trkpt lat="43.67265" lon="5.86097">
        <ele>473</ele>
        <time>2016-04-30T10:05:14.000Z</time>
      </trkpt>
      <trkpt lat="43.67253" lon="5.86105">
        <ele>474</ele>
        <time>2016-04-30T10:05:18.000Z</time>
      </trkpt>
      <trkpt lat="43.67253" lon="5.86105">
        <ele>474</ele>
        <time>2016-04-30T10:05:20.000Z</time>
      </trkpt>
      <trkpt lat="43.67253" lon="5.86105">
        <ele>474</ele>
        <time>2016-04-30T10:05:22.000Z</time>
      </trkpt>
      <trkpt lat="43.67253" lon="5.86105">
        <ele>474</ele>
        <time>2016-04-30T10:05:24.000Z</time>
      </trkpt>
      <trkpt lat="43.67253" lon="5.86105">
        <ele>474</ele>
        <time>2016-04-30T10:05:26.000Z</time>
      </trkpt>
      <trkpt lat="43.67253" lon="5.86105">
        <ele>474</ele>
        <time>2016-04-30T10:05:28.000Z</time>
      </trkpt>
      <trkpt lat="43.67253" lon="5.86105">
        <ele>474</ele>
        <time>2016-04-30T10:05:30.000Z</time>
      </trkpt>
      <trkpt lat="43.67218" lon="5.86122">
        <ele>476</ele>
        <time>2016-04-30T10:05:36.000Z</time>
      </trkpt>
      <trkpt lat="43.67208" lon="5.86126">
        <ele>477</ele>
        <time>2016-04-30T10:05:40.000Z</time>
      </trkpt>
      <trkpt lat="43.67208" lon="5.86126">
        <ele>477</ele>
        <time>2016-04-30T10:05:42.000Z</time>
      </trkpt>
      <trkpt lat="43.67208" lon="5.86126">
        <ele>477</ele>
        <time>2016-04-30T10:05:44.000Z</time>
      </trkpt>
      <trkpt lat="43.67208" lon="5.86126">
        <ele>477</ele>
        <time>2016-04-30T10:05:46.000Z</time>
      </trkpt>
      <trkpt lat="43.67208" lon="5.86126">
        <ele>477</ele>
        <time>2016-04-30T10:05:48.000Z</time>
      </trkpt>
      <trkpt lat="43.67208" lon="5.86126">
        <ele>477</ele>
        <time>2016-04-30T10:05:50.000Z</time>
      </trkpt>
      <trkpt lat="43.67208" lon="5.86126">
        <ele>477</ele>
        <time>2016-04-30T10:05:52.000Z</time>
      </trkpt>
      <trkpt lat="43.67208" lon="5.86126">
        <ele>477</ele>
        <time>2016-04-30T10:05:54.000Z</time>
      </trkpt>
      <trkpt lat="43.67193" lon="5.86117">
        <ele>474</ele>
        <time>2016-04-30T10:09:12.000Z</time>
      </trkpt>
      <trkpt lat="43.67193" lon="5.86117">
        <ele>474</ele>
        <time>2016-04-30T10:09:14.000Z</time>
      </trkpt>
      <trkpt lat="43.67193" lon="5.86117">
        <ele>474</ele>
        <time>2016-04-30T10:09:16.000Z</time>
      </trkpt>
      <trkpt lat="43.67193" lon="5.86117">
        <ele>474</ele>
        <time>2016-04-30T10:09:18.000Z</time>
      </trkpt>
      <trkpt lat="43.67193" lon="5.86117">
        <ele>474</ele>
        <time>2016-04-30T10:09:20.000Z</time>
      </trkpt>
    </trkseg>
  </trk>
</gpx>